﻿<?xml version="1.0" encoding="utf-8"?><gpx creator="Garmin Desktop App" version="1.1" xsi:schemaLocation="http://www.topografix.com/GPX/1/1 http://www.topografix.com/GPX/1/1/gpx.xsd http://www.garmin.com/xmlschemas/WaypointExtension/v1 http://www8.garmin.com/xmlschemas/WaypointExtensionv1.xsd http://www.garmin.com/xmlschemas/TrackPointExtension/v1 http://www.garmin.com/xmlschemas/TrackPointExtensionv1.xsd http://www.garmin.com/xmlschemas/GpxExtensions/v3 http://www8.garmin.com/xmlschemas/GpxExtensionsv3.xsd http://www.garmin.com/xmlschemas/ActivityExtension/v1 http://www8.garmin.com/xmlschemas/ActivityExtensionv1.xsd http://www.garmin.com/xmlschemas/AdventuresExtensions/v1 http://www8.garmin.com/xmlschemas/AdventuresExtensionv1.xsd http://www.garmin.com/xmlschemas/PressureExtension/v1 http://www.garmin.com/xmlschemas/PressureExtensionv1.xsd http://www.garmin.com/xmlschemas/TripExtensions/v1 http://www.garmin.com/xmlschemas/TripExtensionsv1.xsd http://www.garmin.com/xmlschemas/TripMetaDataExtensions/v1 http://www.garmin.com/xmlschemas/TripMetaDataExtensionsv1.xsd http://www.garmin.com/xmlschemas/ViaPointTransportationModeExtensions/v1 http://www.garmin.com/xmlschemas/ViaPointTransportationModeExtensionsv1.xsd http://www.garmin.com/xmlschemas/CreationTimeExtension/v1 http://www.garmin.com/xmlschemas/CreationTimeExtensionsv1.xsd http://www.garmin.com/xmlschemas/AccelerationExtension/v1 http://www.garmin.com/xmlschemas/AccelerationExtensionv1.xsd http://www.garmin.com/xmlschemas/PowerExtension/v1 http://www.garmin.com/xmlschemas/PowerExtensionv1.xsd http://www.garmin.com/xmlschemas/VideoExtension/v1 http://www.garmin.com/xmlschemas/VideoExtensionv1.xsd" xmlns="http://www.topografix.com/GPX/1/1" xmlns:xsi="http://www.w3.org/2001/XMLSchema-instance" xmlns:wptx1="http://www.garmin.com/xmlschemas/WaypointExtension/v1" xmlns:gpxtrx="http://www.garmin.com/xmlschemas/GpxExtensions/v3" xmlns:gpxtpx="http://www.garmin.com/xmlschemas/TrackPointExtension/v1" xmlns:gpxx="http://www.garmin.com/xmlschemas/GpxExtensions/v3" xmlns:trp="http://www.garmin.com/xmlschemas/TripExtensions/v1" xmlns:adv="http://www.garmin.com/xmlschemas/AdventuresExtensions/v1" xmlns:prs="http://www.garmin.com/xmlschemas/PressureExtension/v1" xmlns:tmd="http://www.garmin.com/xmlschemas/TripMetaDataExtensions/v1" xmlns:vptm="http://www.garmin.com/xmlschemas/ViaPointTransportationModeExtensions/v1" xmlns:ctx="http://www.garmin.com/xmlschemas/CreationTimeExtension/v1" xmlns:gpxacc="http://www.garmin.com/xmlschemas/AccelerationExtension/v1" xmlns:gpxpx="http://www.garmin.com/xmlschemas/PowerExtension/v1" xmlns:vidx1="http://www.garmin.com/xmlschemas/VideoExtension/v1">

  <metadata>
    <link href="http://www.garmin.com">
      <text>Garmin International</text>
    </link>
    <time>2026-07-03T17:16:07Z</time>
    <bounds maxlat="54.229013007134199" maxlon="-9.29905503988266" minlat="53.711997019127011" minlon="-10.19552699290216" />
  </metadata>

  <trk>
    <name>Track vom: 2026-07-03 08:17</name>
    <extensions>
      <gpxx:TrackExtension>
        <gpxx:DisplayColor>DarkGray</gpxx:DisplayColor>
      </gpxx:TrackExtension>
    </extensions>
    <trkseg>
      <trkpt lat="53.711997019127011" lon="-9.352210974320769">
        <ele>51.57</ele>
        <time>2026-07-03T07:17:03Z</time>
      </trkpt>
      <trkpt lat="53.712141020223498" lon="-9.352334020659328">
        <ele>76.079999999999998</ele>
        <time>2026-07-03T07:17:29Z</time>
      </trkpt>
      <trkpt lat="53.712087962776423" lon="-9.352288004010916">
        <ele>62.619999999999997</ele>
        <time>2026-07-03T07:18:15Z</time>
      </trkpt>
      <trkpt lat="53.712093997746706" lon="-9.352279035374522">
        <ele>66.469999999999999</ele>
        <time>2026-07-03T07:19:07Z</time>
      </trkpt>
      <trkpt lat="53.712093997746706" lon="-9.352279035374522">
        <ele>66.469999999999999</ele>
        <time>2026-07-03T07:19:27Z</time>
      </trkpt>
      <trkpt lat="53.712115958333015" lon="-9.352477015927434">
        <ele>66.469999999999999</ele>
        <time>2026-07-03T07:19:29Z</time>
      </trkpt>
      <trkpt lat="53.712115958333015" lon="-9.352477015927434">
        <ele>66.469999999999999</ele>
        <time>2026-07-03T07:19:30Z</time>
      </trkpt>
      <trkpt lat="53.712119981646538" lon="-9.352478021755815">
        <ele>66.469999999999999</ele>
        <time>2026-07-03T07:19:31Z</time>
      </trkpt>
      <trkpt lat="53.712154012173414" lon="-9.352493025362492">
        <ele>66.469999999999999</ele>
        <time>2026-07-03T07:19:32Z</time>
      </trkpt>
      <trkpt lat="53.712196005508304" lon="-9.35251004062593">
        <ele>66.469999999999999</ele>
        <time>2026-07-03T07:19:33Z</time>
      </trkpt>
      <trkpt lat="53.712242022156715" lon="-9.352528983727098">
        <ele>66.469999999999999</ele>
        <time>2026-07-03T07:19:34Z</time>
      </trkpt>
      <trkpt lat="53.712345035746694" lon="-9.352571982890368">
        <ele>66.469999999999999</ele>
        <time>2026-07-03T07:19:36Z</time>
      </trkpt>
      <trkpt lat="53.71240203268826" lon="-9.352570977061987">
        <ele>66.469999999999999</ele>
        <time>2026-07-03T07:19:37Z</time>
      </trkpt>
      <trkpt lat="53.712459029629827" lon="-9.352544993162155">
        <ele>66.469999999999999</ele>
        <time>2026-07-03T07:19:38Z</time>
      </trkpt>
      <trkpt lat="53.712707972154021" lon="-9.352400992065668">
        <ele>65.510000000000005</ele>
        <time>2026-07-03T07:19:42Z</time>
      </trkpt>
      <trkpt lat="53.712777039036155" lon="-9.352335026487708">
        <ele>65.510000000000005</ele>
        <time>2026-07-03T07:19:43Z</time>
      </trkpt>
      <trkpt lat="53.712844010442495" lon="-9.352269982919097">
        <ele>65.989999999999995</ele>
        <time>2026-07-03T07:19:44Z</time>
      </trkpt>
      <trkpt lat="53.712913999333978" lon="-9.352202005684376">
        <ele>65.989999999999995</ele>
        <time>2026-07-03T07:19:45Z</time>
      </trkpt>
      <trkpt lat="53.712978959083557" lon="-9.352138973772526">
        <ele>66.469999999999999</ele>
        <time>2026-07-03T07:19:46Z</time>
      </trkpt>
      <trkpt lat="53.713044002652168" lon="-9.352076025679708">
        <ele>66.469999999999999</ele>
        <time>2026-07-03T07:19:47Z</time>
      </trkpt>
      <trkpt lat="53.713114997372031" lon="-9.352007964625955">
        <ele>66.469999999999999</ele>
        <time>2026-07-03T07:19:48Z</time>
      </trkpt>
      <trkpt lat="53.713180962949991" lon="-9.351944010704756">
        <ele>66.950000000000003</ele>
        <time>2026-07-03T07:19:49Z</time>
      </trkpt>
      <trkpt lat="53.713233014568686" lon="-9.351892964914441">
        <ele>66.950000000000003</ele>
        <time>2026-07-03T07:19:50Z</time>
      </trkpt>
      <trkpt lat="53.713275007903576" lon="-9.351852983236313">
        <ele>66.950000000000003</ele>
        <time>2026-07-03T07:19:51Z</time>
      </trkpt>
      <trkpt lat="53.713318007066846" lon="-9.351811995729804">
        <ele>66.950000000000003</ele>
        <time>2026-07-03T07:19:52Z</time>
      </trkpt>
      <trkpt lat="53.713381038978696" lon="-9.351665982976556">
        <ele>65.989999999999995</ele>
        <time>2026-07-03T07:19:54Z</time>
      </trkpt>
      <trkpt lat="53.713444992899895" lon="-9.351520976051688">
        <ele>65.030000000000001</ele>
        <time>2026-07-03T07:19:56Z</time>
      </trkpt>
      <trkpt lat="53.713470976799726" lon="-9.351468002423644">
        <ele>64.069999999999993</ele>
        <time>2026-07-03T07:19:57Z</time>
      </trkpt>
      <trkpt lat="53.713467959314585" lon="-9.351468002423644">
        <ele>63.579999999999998</ele>
        <time>2026-07-03T07:19:58Z</time>
      </trkpt>
      <trkpt lat="53.713562004268169" lon="-9.351442018523812">
        <ele>63.100000000000001</ele>
        <time>2026-07-03T07:19:59Z</time>
      </trkpt>
      <trkpt lat="53.713615983724594" lon="-9.351428020745516">
        <ele>62.619999999999997</ele>
        <time>2026-07-03T07:20:00Z</time>
      </trkpt>
      <trkpt lat="53.713672980666161" lon="-9.351412011310458">
        <ele>62.619999999999997</ele>
        <time>2026-07-03T07:20:01Z</time>
      </trkpt>
      <trkpt lat="53.713731989264488" lon="-9.351396001875401">
        <ele>62.140000000000001</ele>
        <time>2026-07-03T07:20:02Z</time>
      </trkpt>
      <trkpt lat="53.713931981474161" lon="-9.351342022418976">
        <ele>60.700000000000003</ele>
        <time>2026-07-03T07:20:06Z</time>
      </trkpt>
      <trkpt lat="53.71397003531456" lon="-9.351268010213971">
        <ele>60.700000000000003</ele>
        <time>2026-07-03T07:20:07Z</time>
      </trkpt>
      <trkpt lat="53.713999036699533" lon="-9.351201038807631">
        <ele>59.740000000000002</ele>
        <time>2026-07-03T07:20:08Z</time>
      </trkpt>
      <trkpt lat="53.714025020599365" lon="-9.351123003289104">
        <ele>59.740000000000002</ele>
        <time>2026-07-03T07:20:09Z</time>
      </trkpt>
      <trkpt lat="53.714052010327578" lon="-9.351037004962564">
        <ele>58.780000000000001</ele>
        <time>2026-07-03T07:20:10Z</time>
      </trkpt>
      <trkpt lat="53.714211015030742" lon="-9.350669961422682">
        <ele>56.369999999999997</ele>
        <time>2026-07-03T07:20:14Z</time>
      </trkpt>
      <trkpt lat="53.714262982830405" lon="-9.350597038865089">
        <ele>55.890000000000001</ele>
        <time>2026-07-03T07:20:15Z</time>
      </trkpt>
      <trkpt lat="53.714310005307198" lon="-9.350530989468098">
        <ele>55.409999999999997</ele>
        <time>2026-07-03T07:20:16Z</time>
      </trkpt>
      <trkpt lat="53.714351998642087" lon="-9.35047097504139">
        <ele>54.93</ele>
        <time>2026-07-03T07:20:17Z</time>
      </trkpt>
      <trkpt lat="53.714388962835073" lon="-9.350398974493146">
        <ele>54.450000000000003</ele>
        <time>2026-07-03T07:20:18Z</time>
      </trkpt>
      <trkpt lat="53.714384017512202" lon="-9.350328985601664">
        <ele>53.969999999999999</ele>
        <time>2026-07-03T07:20:19Z</time>
      </trkpt>
      <trkpt lat="53.714377982541919" lon="-9.350246004760265">
        <ele>53.009999999999998</ele>
        <time>2026-07-03T07:20:20Z</time>
      </trkpt>
      <trkpt lat="53.714372031390667" lon="-9.350155983120203">
        <ele>52.530000000000001</ele>
        <time>2026-07-03T07:20:21Z</time>
      </trkpt>
      <trkpt lat="53.714363984763622" lon="-9.350049030035734">
        <ele>51.57</ele>
        <time>2026-07-03T07:20:22Z</time>
      </trkpt>
      <trkpt lat="53.71435702778399" lon="-9.349944004788995">
        <ele>51.090000000000003</ele>
        <time>2026-07-03T07:20:23Z</time>
      </trkpt>
      <trkpt lat="53.714348981156945" lon="-9.349835962057114">
        <ele>50.130000000000003</ele>
        <time>2026-07-03T07:20:24Z</time>
      </trkpt>
      <trkpt lat="53.714362978935242" lon="-9.349720040336251">
        <ele>49.649999999999999</ele>
        <time>2026-07-03T07:20:25Z</time>
      </trkpt>
      <trkpt lat="53.714382005855441" lon="-9.349596993997693">
        <ele>49.649999999999999</ele>
        <time>2026-07-03T07:20:26Z</time>
      </trkpt>
      <trkpt lat="53.714412013068795" lon="-9.349183011800051">
        <ele>48.68</ele>
        <time>2026-07-03T07:20:29Z</time>
      </trkpt>
      <trkpt lat="53.714412013068795" lon="-9.349043034017086">
        <ele>48.68</ele>
        <time>2026-07-03T07:20:30Z</time>
      </trkpt>
      <trkpt lat="53.714412013068795" lon="-9.348435010761023">
        <ele>47.719999999999999</ele>
        <time>2026-07-03T07:20:34Z</time>
      </trkpt>
      <trkpt lat="53.714426010847092" lon="-9.347981968894601">
        <ele>47.240000000000002</ele>
        <time>2026-07-03T07:20:37Z</time>
      </trkpt>
      <trkpt lat="53.714461969211698" lon="-9.34785095974803">
        <ele>47.240000000000002</ele>
        <time>2026-07-03T07:20:38Z</time>
      </trkpt>
      <trkpt lat="53.71450999751687" lon="-9.347731014713645">
        <ele>47.240000000000002</ele>
        <time>2026-07-03T07:20:39Z</time>
      </trkpt>
      <trkpt lat="53.714564982801676" lon="-9.347620960325003">
        <ele>47.240000000000002</ele>
        <time>2026-07-03T07:20:40Z</time>
      </trkpt>
      <trkpt lat="53.714621979743242" lon="-9.34750797227025">
        <ele>47.240000000000002</ele>
        <time>2026-07-03T07:20:41Z</time>
      </trkpt>
      <trkpt lat="53.714864971116185" lon="-9.347020983695984">
        <ele>46.759999999999998</ele>
        <time>2026-07-03T07:20:45Z</time>
      </trkpt>
      <trkpt lat="53.714926997199655" lon="-9.346898021176457">
        <ele>46.280000000000001</ele>
        <time>2026-07-03T07:20:46Z</time>
      </trkpt>
      <trkpt lat="53.715078039094806" lon="-9.346528965979815">
        <ele>45.799999999999997</ele>
        <time>2026-07-03T07:20:49Z</time>
      </trkpt>
      <trkpt lat="53.715120032429695" lon="-9.346402985975146">
        <ele>45.799999999999997</ele>
        <time>2026-07-03T07:20:50Z</time>
      </trkpt>
      <trkpt lat="53.715144004672766" lon="-9.346252027899027">
        <ele>45.799999999999997</ele>
        <time>2026-07-03T07:20:51Z</time>
      </trkpt>
      <trkpt lat="53.715148027986288" lon="-9.346094029024243">
        <ele>45.799999999999997</ele>
        <time>2026-07-03T07:20:52Z</time>
      </trkpt>
      <trkpt lat="53.715151967480779" lon="-9.345931001007557">
        <ele>45.799999999999997</ele>
        <time>2026-07-03T07:20:53Z</time>
      </trkpt>
      <trkpt lat="53.715193960815668" lon="-9.344307007268071">
        <ele>46.280000000000001</ele>
        <time>2026-07-03T07:21:04Z</time>
      </trkpt>
      <trkpt lat="53.715202007442713" lon="-9.344007018953562">
        <ele>46.280000000000001</ele>
        <time>2026-07-03T07:21:06Z</time>
      </trkpt>
      <trkpt lat="53.715212987735868" lon="-9.343846002593637">
        <ele>46.759999999999998</ele>
        <time>2026-07-03T07:21:07Z</time>
      </trkpt>
      <trkpt lat="53.715250035747886" lon="-9.343700995668769">
        <ele>47.240000000000002</ele>
        <time>2026-07-03T07:21:08Z</time>
      </trkpt>
      <trkpt lat="53.715285994112492" lon="-9.343556994572282">
        <ele>47.719999999999999</ele>
        <time>2026-07-03T07:21:09Z</time>
      </trkpt>
      <trkpt lat="53.715322958305478" lon="-9.343413999304175">
        <ele>48.200000000000003</ele>
        <time>2026-07-03T07:21:10Z</time>
      </trkpt>
      <trkpt lat="53.715726966038346" lon="-9.342040959745646">
        <ele>46.759999999999998</ele>
        <time>2026-07-03T07:21:18Z</time>
      </trkpt>
      <trkpt lat="53.716395003721118" lon="-9.34043699875474">
        <ele>45.799999999999997</ele>
        <time>2026-07-03T07:21:28Z</time>
      </trkpt>
      <trkpt lat="53.717379039153457" lon="-9.338560039177537">
        <ele>41.950000000000003</ele>
        <time>2026-07-03T07:21:41Z</time>
      </trkpt>
      <trkpt lat="53.718414958566427" lon="-9.336530026048422">
        <ele>42.439999999999998</ele>
        <time>2026-07-03T07:21:56Z</time>
      </trkpt>
      <trkpt lat="53.719314001500607" lon="-9.335458986461163">
        <ele>40.990000000000002</ele>
        <time>2026-07-03T07:22:06Z</time>
      </trkpt>
      <trkpt lat="53.720322009176016" lon="-9.334724983200431">
        <ele>40.509999999999998</ele>
        <time>2026-07-03T07:22:16Z</time>
      </trkpt>
      <trkpt lat="53.720942018553615" lon="-9.333901964128017">
        <ele>41.469999999999999</ele>
        <time>2026-07-03T07:22:24Z</time>
      </trkpt>
      <trkpt lat="53.720956016331911" lon="-9.333873968571425">
        <ele>41.469999999999999</ele>
        <time>2026-07-03T07:22:33Z</time>
      </trkpt>
      <trkpt lat="53.720960039645433" lon="-9.333867011591792">
        <ele>41.469999999999999</ele>
        <time>2026-07-03T07:22:34Z</time>
      </trkpt>
      <trkpt lat="53.720969008281827" lon="-9.333847984671593">
        <ele>41.950000000000003</ele>
        <time>2026-07-03T07:22:35Z</time>
      </trkpt>
      <trkpt lat="53.721012007445097" lon="-9.333761986345053">
        <ele>42.920000000000002</ele>
        <time>2026-07-03T07:22:44Z</time>
      </trkpt>
      <trkpt lat="53.721070010215044" lon="-9.333644974976778">
        <ele>42.920000000000002</ele>
        <time>2026-07-03T07:22:46Z</time>
      </trkpt>
      <trkpt lat="53.721118960529566" lon="-9.333549002185464">
        <ele>42.920000000000002</ele>
        <time>2026-07-03T07:22:47Z</time>
      </trkpt>
      <trkpt lat="53.721618019044399" lon="-9.332333961501718">
        <ele>40.990000000000002</ele>
        <time>2026-07-03T07:22:55Z</time>
      </trkpt>
      <trkpt lat="53.722139960154891" lon="-9.330874001607299">
        <ele>38.109999999999999</ele>
        <time>2026-07-03T07:23:04Z</time>
      </trkpt>
      <trkpt lat="53.722965996712446" lon="-9.328623963519931">
        <ele>35.229999999999997</ele>
        <time>2026-07-03T07:23:18Z</time>
      </trkpt>
      <trkpt lat="53.723335973918438" lon="-9.326779022812843">
        <ele>35.229999999999997</ele>
        <time>2026-07-03T07:23:29Z</time>
      </trkpt>
      <trkpt lat="53.72344896197319" lon="-9.326153984293342">
        <ele>36.189999999999998</ele>
        <time>2026-07-03T07:23:34Z</time>
      </trkpt>
      <trkpt lat="53.723459020256996" lon="-9.326095981523395">
        <ele>36.189999999999998</ele>
        <time>2026-07-03T07:23:35Z</time>
      </trkpt>
      <trkpt lat="53.723465977236629" lon="-9.326054994016886">
        <ele>36.189999999999998</ele>
        <time>2026-07-03T07:23:36Z</time>
      </trkpt>
      <trkpt lat="53.723529009148479" lon="-9.325948040932417">
        <ele>37.149999999999999</ele>
        <time>2026-07-03T07:23:44Z</time>
      </trkpt>
      <trkpt lat="53.723579971119761" lon="-9.325966984033585">
        <ele>37.149999999999999</ele>
        <time>2026-07-03T07:23:45Z</time>
      </trkpt>
      <trkpt lat="53.723652977496386" lon="-9.325993973761797">
        <ele>37.630000000000003</ele>
        <time>2026-07-03T07:23:46Z</time>
      </trkpt>
      <trkpt lat="53.72436803765595" lon="-9.3262580037117">
        <ele>36.670000000000002</ele>
        <time>2026-07-03T07:23:52Z</time>
      </trkpt>
      <trkpt lat="53.725888011977077" lon="-9.326819004490972">
        <ele>38.109999999999999</ele>
        <time>2026-07-03T07:24:00Z</time>
      </trkpt>
      <trkpt lat="53.726566024124622" lon="-9.327089991420507">
        <ele>39.549999999999997</ele>
        <time>2026-07-03T07:24:04Z</time>
      </trkpt>
      <trkpt lat="53.726712036877871" lon="-9.32720297947526">
        <ele>39.549999999999997</ele>
        <time>2026-07-03T07:24:05Z</time>
      </trkpt>
      <trkpt lat="53.726856037974358" lon="-9.327314961701632">
        <ele>40.030000000000001</ele>
        <time>2026-07-03T07:24:06Z</time>
      </trkpt>
      <trkpt lat="53.727955995127559" lon="-9.328539976850152">
        <ele>41.950000000000003</ele>
        <time>2026-07-03T07:24:14Z</time>
      </trkpt>
      <trkpt lat="53.728683041408658" lon="-9.32913601398468">
        <ele>42.920000000000002</ele>
        <time>2026-07-03T07:24:19Z</time>
      </trkpt>
      <trkpt lat="53.728810027241707" lon="-9.329280015081167">
        <ele>42.920000000000002</ele>
        <time>2026-07-03T07:24:20Z</time>
      </trkpt>
      <trkpt lat="53.730048034340143" lon="-9.330993024632335">
        <ele>44.840000000000003</ele>
        <time>2026-07-03T07:24:30Z</time>
      </trkpt>
      <trkpt lat="53.731572031974792" lon="-9.332088036462665">
        <ele>43.880000000000003</ele>
        <time>2026-07-03T07:24:40Z</time>
      </trkpt>
      <trkpt lat="53.733834978193045" lon="-9.333500973880291">
        <ele>43.399999999999999</ele>
        <time>2026-07-03T07:24:54Z</time>
      </trkpt>
      <trkpt lat="53.736112006008625" lon="-9.334922963753343">
        <ele>45.32</ele>
        <time>2026-07-03T07:25:08Z</time>
      </trkpt>
      <trkpt lat="53.7384860124439" lon="-9.336302960291505">
        <ele>45.799999999999997</ele>
        <time>2026-07-03T07:25:21Z</time>
      </trkpt>
      <trkpt lat="53.741075014695525" lon="-9.337718999013305">
        <ele>47.719999999999999</ele>
        <time>2026-07-03T07:25:35Z</time>
      </trkpt>
      <trkpt lat="53.742303969338536" lon="-9.338149996474385">
        <ele>47.719999999999999</ele>
        <time>2026-07-03T07:25:42Z</time>
      </trkpt>
      <trkpt lat="53.742425004020333" lon="-9.338223002851009">
        <ele>47.240000000000002</ele>
        <time>2026-07-03T07:25:43Z</time>
      </trkpt>
      <trkpt lat="53.742515025660396" lon="-9.338354011997581">
        <ele>46.759999999999998</ele>
        <time>2026-07-03T07:25:44Z</time>
      </trkpt>
      <trkpt lat="53.742601023986936" lon="-9.338505975902081">
        <ele>46.280000000000001</ele>
        <time>2026-07-03T07:25:45Z</time>
      </trkpt>
      <trkpt lat="53.742672018706799" lon="-9.338704040274024">
        <ele>45.32</ele>
        <time>2026-07-03T07:25:46Z</time>
      </trkpt>
      <trkpt lat="53.742749970406294" lon="-9.338919036090374">
        <ele>44.840000000000003</ele>
        <time>2026-07-03T07:25:47Z</time>
      </trkpt>
      <trkpt lat="53.743551028892398" lon="-9.3412109836936">
        <ele>42.439999999999998</ele>
        <time>2026-07-03T07:25:56Z</time>
      </trkpt>
      <trkpt lat="53.744827006012201" lon="-9.344226038083434">
        <ele>40.990000000000002</ele>
        <time>2026-07-03T07:26:08Z</time>
      </trkpt>
      <trkpt lat="53.746337005868554" lon="-9.347198009490967">
        <ele>44.359999999999999</ele>
        <time>2026-07-03T07:26:21Z</time>
      </trkpt>
      <trkpt lat="53.747353982180357" lon="-9.349726997315884">
        <ele>42.439999999999998</ele>
        <time>2026-07-03T07:26:31Z</time>
      </trkpt>
      <trkpt lat="53.748534992337227" lon="-9.353907974436879">
        <ele>42.439999999999998</ele>
        <time>2026-07-03T07:26:46Z</time>
      </trkpt>
      <trkpt lat="53.749440992251039" lon="-9.357114974409342">
        <ele>46.759999999999998</ele>
        <time>2026-07-03T07:26:58Z</time>
      </trkpt>
      <trkpt lat="53.750073993578553" lon="-9.359548995271325">
        <ele>51.090000000000003</ele>
        <time>2026-07-03T07:27:08Z</time>
      </trkpt>
      <trkpt lat="53.750135013833642" lon="-9.35979600995779">
        <ele>51.57</ele>
        <time>2026-07-03T07:27:09Z</time>
      </trkpt>
      <trkpt lat="53.75019502826035" lon="-9.360037995502353">
        <ele>52.049999999999997</ele>
        <time>2026-07-03T07:27:10Z</time>
      </trkpt>
      <trkpt lat="53.750287983566523" lon="-9.360243016853929">
        <ele>52.530000000000001</ele>
        <time>2026-07-03T07:27:11Z</time>
      </trkpt>
      <trkpt lat="53.750384040176868" lon="-9.360434962436557">
        <ele>53.009999999999998</ele>
        <time>2026-07-03T07:27:12Z</time>
      </trkpt>
      <trkpt lat="53.750486969947815" lon="-9.360616011545062">
        <ele>53.490000000000002</ele>
        <time>2026-07-03T07:27:13Z</time>
      </trkpt>
      <trkpt lat="53.750610016286373" lon="-9.360750038176775">
        <ele>53.490000000000002</ele>
        <time>2026-07-03T07:27:14Z</time>
      </trkpt>
      <trkpt lat="53.750741025432944" lon="-9.360881969332695">
        <ele>53.969999999999999</ele>
        <time>2026-07-03T07:27:15Z</time>
      </trkpt>
      <trkpt lat="53.750884020701051" lon="-9.36097702011466">
        <ele>53.969999999999999</ele>
        <time>2026-07-03T07:27:16Z</time>
      </trkpt>
      <trkpt lat="53.752146000042558" lon="-9.36177397146821">
        <ele>54.450000000000003</ele>
        <time>2026-07-03T07:27:24Z</time>
      </trkpt>
      <trkpt lat="53.753648037090898" lon="-9.362514009699225">
        <ele>54.450000000000003</ele>
        <time>2026-07-03T07:27:33Z</time>
      </trkpt>
      <trkpt lat="53.755612000823021" lon="-9.364068014547229">
        <ele>54.450000000000003</ele>
        <time>2026-07-03T07:27:45Z</time>
      </trkpt>
      <trkpt lat="53.75735099427402" lon="-9.365482963621616">
        <ele>58.299999999999997</ele>
        <time>2026-07-03T07:27:56Z</time>
      </trkpt>
      <trkpt lat="53.758084997534752" lon="-9.366129040718079">
        <ele>61.18</ele>
        <time>2026-07-03T07:28:03Z</time>
      </trkpt>
      <trkpt lat="53.758965013548732" lon="-9.366890033707023">
        <ele>62.619999999999997</ele>
        <time>2026-07-03T07:28:11Z</time>
      </trkpt>
      <trkpt lat="53.75907096080482" lon="-9.367003021761775">
        <ele>63.100000000000001</ele>
        <time>2026-07-03T07:28:12Z</time>
      </trkpt>
      <trkpt lat="53.759163999930024" lon="-9.36712397262454">
        <ele>63.579999999999998</ele>
        <time>2026-07-03T07:28:13Z</time>
      </trkpt>
      <trkpt lat="53.759254021570086" lon="-9.367241989821196">
        <ele>64.069999999999993</ele>
        <time>2026-07-03T07:28:14Z</time>
      </trkpt>
      <trkpt lat="53.759330967441201" lon="-9.367385990917683">
        <ele>64.549999999999997</ele>
        <time>2026-07-03T07:28:15Z</time>
      </trkpt>
      <trkpt lat="53.759389976039529" lon="-9.367547007277608">
        <ele>65.030000000000001</ele>
        <time>2026-07-03T07:28:16Z</time>
      </trkpt>
      <trkpt lat="53.759449990466237" lon="-9.367711963132024">
        <ele>65.030000000000001</ele>
        <time>2026-07-03T07:28:17Z</time>
      </trkpt>
      <trkpt lat="53.75949801877141" lon="-9.367886977270246">
        <ele>65.030000000000001</ele>
        <time>2026-07-03T07:28:18Z</time>
      </trkpt>
      <trkpt lat="53.759540012106299" lon="-9.368072971701622">
        <ele>64.549999999999997</ele>
        <time>2026-07-03T07:28:19Z</time>
      </trkpt>
      <trkpt lat="53.759943014010787" lon="-9.370468016713858">
        <ele>63.579999999999998</ele>
        <time>2026-07-03T07:28:32Z</time>
      </trkpt>
      <trkpt lat="53.760030018165708" lon="-9.370809998363257">
        <ele>63.100000000000001</ele>
        <time>2026-07-03T07:28:34Z</time>
      </trkpt>
      <trkpt lat="53.760087015107274" lon="-9.370972020551562">
        <ele>63.100000000000001</ele>
        <time>2026-07-03T07:28:35Z</time>
      </trkpt>
      <trkpt lat="53.76016303896904" lon="-9.371111998334527">
        <ele>63.100000000000001</ele>
        <time>2026-07-03T07:28:36Z</time>
      </trkpt>
      <trkpt lat="53.760770978406072" lon="-9.372053034603596">
        <ele>62.140000000000001</ele>
        <time>2026-07-03T07:28:43Z</time>
      </trkpt>
      <trkpt lat="53.760884972289205" lon="-9.372153030708432">
        <ele>62.140000000000001</ele>
        <time>2026-07-03T07:28:44Z</time>
      </trkpt>
      <trkpt lat="53.761633979156613" lon="-9.372847974300385">
        <ele>60.700000000000003</ele>
        <time>2026-07-03T07:28:50Z</time>
      </trkpt>
      <trkpt lat="53.761745039373636" lon="-9.373003961518407">
        <ele>60.219999999999999</ele>
        <time>2026-07-03T07:28:51Z</time>
      </trkpt>
      <trkpt lat="53.762265974655747" lon="-9.373987996950746">
        <ele>60.219999999999999</ele>
        <time>2026-07-03T07:28:56Z</time>
      </trkpt>
      <trkpt lat="53.762345016002655" lon="-9.374225037172437">
        <ele>60.219999999999999</ele>
        <time>2026-07-03T07:28:57Z</time>
      </trkpt>
      <trkpt lat="53.762616002932191" lon="-9.374931966885924">
        <ele>60.700000000000003</ele>
        <time>2026-07-03T07:29:00Z</time>
      </trkpt>
      <trkpt lat="53.762727985158563" lon="-9.375146040692926">
        <ele>60.700000000000003</ele>
        <time>2026-07-03T07:29:01Z</time>
      </trkpt>
      <trkpt lat="53.764403024688363" lon="-9.377725990489125">
        <ele>61.18</ele>
        <time>2026-07-03T07:29:14Z</time>
      </trkpt>
      <trkpt lat="53.76603196375072" lon="-9.380196975544095">
        <ele>54.93</ele>
        <time>2026-07-03T07:29:26Z</time>
      </trkpt>
      <trkpt lat="53.767349012196064" lon="-9.382251966744661">
        <ele>56.369999999999997</ele>
        <time>2026-07-03T07:29:36Z</time>
      </trkpt>
      <trkpt lat="53.769035032019019" lon="-9.384882962331176">
        <ele>59.740000000000002</ele>
        <time>2026-07-03T07:29:49Z</time>
      </trkpt>
      <trkpt lat="53.770732032135129" lon="-9.38753298483789">
        <ele>64.069999999999993</ele>
        <time>2026-07-03T07:30:02Z</time>
      </trkpt>
      <trkpt lat="53.771956041455269" lon="-9.389346996322274">
        <ele>64.069999999999993</ele>
        <time>2026-07-03T07:30:11Z</time>
      </trkpt>
      <trkpt lat="53.772030975669622" lon="-9.389571966603398">
        <ele>64.549999999999997</ele>
        <time>2026-07-03T07:30:12Z</time>
      </trkpt>
      <trkpt lat="53.772084033116698" lon="-9.389827027916908">
        <ele>65.030000000000001</ele>
        <time>2026-07-03T07:30:13Z</time>
      </trkpt>
      <trkpt lat="53.77213298343122" lon="-9.390096003189683">
        <ele>65.510000000000005</ele>
        <time>2026-07-03T07:30:14Z</time>
      </trkpt>
      <trkpt lat="53.772183023393154" lon="-9.390372019261122">
        <ele>65.989999999999995</ele>
        <time>2026-07-03T07:30:15Z</time>
      </trkpt>
      <trkpt lat="53.772283019497991" lon="-9.390928996726871">
        <ele>66.950000000000003</ele>
        <time>2026-07-03T07:30:17Z</time>
      </trkpt>
      <trkpt lat="53.772374968975782" lon="-9.391138963401318">
        <ele>66.950000000000003</ele>
        <time>2026-07-03T07:30:18Z</time>
      </trkpt>
      <trkpt lat="53.772473959252238" lon="-9.391366029158235">
        <ele>67.430000000000007</ele>
        <time>2026-07-03T07:30:19Z</time>
      </trkpt>
      <trkpt lat="53.772574961185455" lon="-9.391598040238023">
        <ele>67.430000000000007</ele>
        <time>2026-07-03T07:30:20Z</time>
      </trkpt>
      <trkpt lat="53.772680992260575" lon="-9.391829967498779">
        <ele>67.909999999999997</ele>
        <time>2026-07-03T07:30:21Z</time>
      </trkpt>
      <trkpt lat="53.773378031328321" lon="-9.39344298094511">
        <ele>67.430000000000007</ele>
        <time>2026-07-03T07:30:28Z</time>
      </trkpt>
      <trkpt lat="53.773784972727299" lon="-9.394732033833861">
        <ele>66.469999999999999</ele>
        <time>2026-07-03T07:30:33Z</time>
      </trkpt>
      <trkpt lat="53.773878011852503" lon="-9.394929008558393">
        <ele>65.989999999999995</ele>
        <time>2026-07-03T07:30:34Z</time>
      </trkpt>
      <trkpt lat="53.774060988798738" lon="-9.395314995199442">
        <ele>65.030000000000001</ele>
        <time>2026-07-03T07:30:36Z</time>
      </trkpt>
      <trkpt lat="53.774126032367349" lon="-9.395521022379398">
        <ele>64.069999999999993</ele>
        <time>2026-07-03T07:30:37Z</time>
      </trkpt>
      <trkpt lat="53.774168025702238" lon="-9.3957609962672">
        <ele>63.100000000000001</ele>
        <time>2026-07-03T07:30:38Z</time>
      </trkpt>
      <trkpt lat="53.774309009313583" lon="-9.396564988419414">
        <ele>61.18</ele>
        <time>2026-07-03T07:30:41Z</time>
      </trkpt>
      <trkpt lat="53.774385033175349" lon="-9.396820971742272">
        <ele>60.700000000000003</ele>
        <time>2026-07-03T07:30:42Z</time>
      </trkpt>
      <trkpt lat="53.774471031501889" lon="-9.39707200974226">
        <ele>60.700000000000003</ele>
        <time>2026-07-03T07:30:43Z</time>
      </trkpt>
      <trkpt lat="53.775297990068793" lon="-9.399642990902066">
        <ele>63.100000000000001</ele>
        <time>2026-07-03T07:30:53Z</time>
      </trkpt>
      <trkpt lat="53.776126960292459" lon="-9.402677994221449">
        <ele>61.18</ele>
        <time>2026-07-03T07:31:04Z</time>
      </trkpt>
      <trkpt lat="53.776543959975243" lon="-9.405099023133516">
        <ele>61.18</ele>
        <time>2026-07-03T07:31:13Z</time>
      </trkpt>
      <trkpt lat="53.776552006602287" lon="-9.405371015891433">
        <ele>60.700000000000003</ele>
        <time>2026-07-03T07:31:14Z</time>
      </trkpt>
      <trkpt lat="53.776527028530836" lon="-9.405649965628982">
        <ele>60.219999999999999</ele>
        <time>2026-07-03T07:31:15Z</time>
      </trkpt>
      <trkpt lat="53.776495009660721" lon="-9.405936961993575">
        <ele>59.740000000000002</ele>
        <time>2026-07-03T07:31:16Z</time>
      </trkpt>
      <trkpt lat="53.776462990790606" lon="-9.406224964186549">
        <ele>59.740000000000002</ele>
        <time>2026-07-03T07:31:17Z</time>
      </trkpt>
      <trkpt lat="53.776080021634698" lon="-9.409560961648822">
        <ele>58.780000000000001</ele>
        <time>2026-07-03T07:31:29Z</time>
      </trkpt>
      <trkpt lat="53.776097958907485" lon="-9.412009986117482">
        <ele>61.659999999999997</ele>
        <time>2026-07-03T07:31:38Z</time>
      </trkpt>
      <trkpt lat="53.776211030781269" lon="-9.41434602253139">
        <ele>63.579999999999998</ele>
        <time>2026-07-03T07:31:47Z</time>
      </trkpt>
      <trkpt lat="53.776241037994623" lon="-9.414573004469276">
        <ele>63.100000000000001</ele>
        <time>2026-07-03T07:31:48Z</time>
      </trkpt>
      <trkpt lat="53.77630197443068" lon="-9.414784982800484">
        <ele>63.100000000000001</ele>
        <time>2026-07-03T07:31:49Z</time>
      </trkpt>
      <trkpt lat="53.776381015777588" lon="-9.414984975010157">
        <ele>63.100000000000001</ele>
        <time>2026-07-03T07:31:50Z</time>
      </trkpt>
      <trkpt lat="53.776459973305464" lon="-9.41518496721983">
        <ele>63.100000000000001</ele>
        <time>2026-07-03T07:31:51Z</time>
      </trkpt>
      <trkpt lat="53.776531973853707" lon="-9.415369033813477">
        <ele>63.579999999999998</ele>
        <time>2026-07-03T07:31:52Z</time>
      </trkpt>
      <trkpt lat="53.77664202824235" lon="-9.415531978011131">
        <ele>64.549999999999997</ele>
        <time>2026-07-03T07:31:53Z</time>
      </trkpt>
      <trkpt lat="53.776747975498438" lon="-9.415688971057534">
        <ele>65.510000000000005</ele>
        <time>2026-07-03T07:31:54Z</time>
      </trkpt>
      <trkpt lat="53.777772998437285" lon="-9.417266026139259">
        <ele>65.989999999999995</ele>
        <time>2026-07-03T07:32:04Z</time>
      </trkpt>
      <trkpt lat="53.77821397036314" lon="-9.418156016618013">
        <ele>65.989999999999995</ele>
        <time>2026-07-03T07:32:09Z</time>
      </trkpt>
      <trkpt lat="53.778284965083003" lon="-9.418360032141209">
        <ele>65.989999999999995</ele>
        <time>2026-07-03T07:32:10Z</time>
      </trkpt>
      <trkpt lat="53.778337016701698" lon="-9.418573016300798">
        <ele>65.989999999999995</ele>
        <time>2026-07-03T07:32:11Z</time>
      </trkpt>
      <trkpt lat="53.778376998379827" lon="-9.418801004067063">
        <ele>65.989999999999995</ele>
        <time>2026-07-03T07:32:12Z</time>
      </trkpt>
      <trkpt lat="53.778417985886335" lon="-9.419033015146852">
        <ele>65.989999999999995</ele>
        <time>2026-07-03T07:32:13Z</time>
      </trkpt>
      <trkpt lat="53.778459979221225" lon="-9.41926502622664">
        <ele>65.989999999999995</ele>
        <time>2026-07-03T07:32:14Z</time>
      </trkpt>
      <trkpt lat="53.778671035543084" lon="-9.422138007357717">
        <ele>66.469999999999999</ele>
        <time>2026-07-03T07:32:26Z</time>
      </trkpt>
      <trkpt lat="53.778645973652601" lon="-9.424888025969267">
        <ele>68.870000000000005</ele>
        <time>2026-07-03T07:32:38Z</time>
      </trkpt>
      <trkpt lat="53.778637005016208" lon="-9.425398986786604">
        <ele>70.310000000000002</ele>
        <time>2026-07-03T07:32:42Z</time>
      </trkpt>
      <trkpt lat="53.778634993359447" lon="-9.425539970397949">
        <ele>70.310000000000002</ele>
        <time>2026-07-03T07:32:43Z</time>
      </trkpt>
      <trkpt lat="53.778634993359447" lon="-9.425539970397949">
        <ele>70.790000000000006</ele>
        <time>2026-07-03T07:32:44Z</time>
      </trkpt>
      <trkpt lat="53.778694001957774" lon="-9.425480961799622">
        <ele>70.790000000000006</ele>
        <time>2026-07-03T07:32:45Z</time>
      </trkpt>
      <trkpt lat="53.778731971979141" lon="-9.425442991778255">
        <ele>70.790000000000006</ele>
        <time>2026-07-03T07:32:46Z</time>
      </trkpt>
      <trkpt lat="53.778785029426217" lon="-9.42539001815021">
        <ele>71.269999999999996</ele>
        <time>2026-07-03T07:32:47Z</time>
      </trkpt>
      <trkpt lat="53.77881302498281" lon="-9.425333021208644">
        <ele>71.760000000000005</ele>
        <time>2026-07-03T07:32:48Z</time>
      </trkpt>
      <trkpt lat="53.778863986954093" lon="-9.425230007618666">
        <ele>72.239999999999995</ele>
        <time>2026-07-03T07:32:49Z</time>
      </trkpt>
      <trkpt lat="53.778928024694324" lon="-9.425098998472095">
        <ele>72.239999999999995</ele>
        <time>2026-07-03T07:32:50Z</time>
      </trkpt>
      <trkpt lat="53.778999019414186" lon="-9.424956003203988">
        <ele>71.760000000000005</ele>
        <time>2026-07-03T07:32:51Z</time>
      </trkpt>
      <trkpt lat="53.779840981587768" lon="-9.423247016966343">
        <ele>69.349999999999994</ele>
        <time>2026-07-03T07:33:01Z</time>
      </trkpt>
      <trkpt lat="53.781098015606403" lon="-9.420457016676664">
        <ele>71.760000000000005</ele>
        <time>2026-07-03T07:33:16Z</time>
      </trkpt>
      <trkpt lat="53.78221096470952" lon="-9.418043028563261">
        <ele>71.269999999999996</ele>
        <time>2026-07-03T07:33:29Z</time>
      </trkpt>
      <trkpt lat="53.78349800594151" lon="-9.415498031303287">
        <ele>68.390000000000001</ele>
        <time>2026-07-03T07:33:42Z</time>
      </trkpt>
      <trkpt lat="53.784386990591884" lon="-9.413820980116725">
        <ele>70.310000000000002</ele>
        <time>2026-07-03T07:33:51Z</time>
      </trkpt>
      <trkpt lat="53.784477012231946" lon="-9.413659041747451">
        <ele>70.310000000000002</ele>
        <time>2026-07-03T07:33:52Z</time>
      </trkpt>
      <trkpt lat="53.784553036093712" lon="-9.413518980145454">
        <ele>70.310000000000002</ele>
        <time>2026-07-03T07:33:53Z</time>
      </trkpt>
      <trkpt lat="53.785218978300691" lon="-9.412306034937501">
        <ele>65.510000000000005</ele>
        <time>2026-07-03T07:34:01Z</time>
      </trkpt>
      <trkpt lat="53.785405978560448" lon="-9.411964975297451">
        <ele>64.069999999999993</ele>
        <time>2026-07-03T07:34:03Z</time>
      </trkpt>
      <trkpt lat="53.785756006836891" lon="-9.411216974258423">
        <ele>61.659999999999997</ele>
        <time>2026-07-03T07:34:07Z</time>
      </trkpt>
      <trkpt lat="53.785835970193148" lon="-9.411019999533892">
        <ele>61.18</ele>
        <time>2026-07-03T07:34:08Z</time>
      </trkpt>
      <trkpt lat="53.786044009029865" lon="-9.410415999591351">
        <ele>61.18</ele>
        <time>2026-07-03T07:34:11Z</time>
      </trkpt>
      <trkpt lat="53.786091031506658" lon="-9.410216007381678">
        <ele>62.140000000000001</ele>
        <time>2026-07-03T07:34:12Z</time>
      </trkpt>
      <trkpt lat="53.786584977060556" lon="-9.408107036724687">
        <ele>62.140000000000001</ele>
        <time>2026-07-03T07:34:23Z</time>
      </trkpt>
      <trkpt lat="53.786638034507632" lon="-9.40787997096777">
        <ele>61.659999999999997</ele>
        <time>2026-07-03T07:34:24Z</time>
      </trkpt>
      <trkpt lat="53.786710035055876" lon="-9.407780980691314">
        <ele>61.18</ele>
        <time>2026-07-03T07:34:25Z</time>
      </trkpt>
      <trkpt lat="53.786798967048526" lon="-9.407660029828548">
        <ele>60.700000000000003</ele>
        <time>2026-07-03T07:34:26Z</time>
      </trkpt>
      <trkpt lat="53.786907009780407" lon="-9.407589035108686">
        <ele>60.700000000000003</ele>
        <time>2026-07-03T07:34:27Z</time>
      </trkpt>
      <trkpt lat="53.787028966471553" lon="-9.407518962398171">
        <ele>60.219999999999999</ele>
        <time>2026-07-03T07:34:28Z</time>
      </trkpt>
      <trkpt lat="53.788188016042113" lon="-9.406855031847954">
        <ele>61.659999999999997</ele>
        <time>2026-07-03T07:34:37Z</time>
      </trkpt>
      <trkpt lat="53.788613984361291" lon="-9.406583039090037">
        <ele>62.140000000000001</ele>
        <time>2026-07-03T07:34:42Z</time>
      </trkpt>
      <trkpt lat="53.7896219920367" lon="-9.405590035021305">
        <ele>61.18</ele>
        <time>2026-07-03T07:34:52Z</time>
      </trkpt>
      <trkpt lat="53.79073997028172" lon="-9.404157986864448">
        <ele>58.780000000000001</ele>
        <time>2026-07-03T07:35:02Z</time>
      </trkpt>
      <trkpt lat="53.792031034827232" lon="-9.40253097563982">
        <ele>59.259999999999998</ele>
        <time>2026-07-03T07:35:13Z</time>
      </trkpt>
      <trkpt lat="53.793098973110318" lon="-9.401342002674937">
        <ele>58.780000000000001</ele>
        <time>2026-07-03T07:35:23Z</time>
      </trkpt>
      <trkpt lat="53.79424000158906" lon="-9.400034006685019">
        <ele>61.659999999999997</ele>
        <time>2026-07-03T07:35:33Z</time>
      </trkpt>
      <trkpt lat="53.79578797146678" lon="-9.398156963288784">
        <ele>60.700000000000003</ele>
        <time>2026-07-03T07:35:45Z</time>
      </trkpt>
      <trkpt lat="53.796744011342525" lon="-9.396928008645773">
        <ele>60.700000000000003</ele>
        <time>2026-07-03T07:35:53Z</time>
      </trkpt>
      <trkpt lat="53.796858005225658" lon="-9.396761963143945">
        <ele>60.219999999999999</ele>
        <time>2026-07-03T07:35:54Z</time>
      </trkpt>
      <trkpt lat="53.797545991837978" lon="-9.395886976271868">
        <ele>61.18</ele>
        <time>2026-07-03T07:36:00Z</time>
      </trkpt>
      <trkpt lat="53.797674989327788" lon="-9.395785974338651">
        <ele>61.659999999999997</ele>
        <time>2026-07-03T07:36:01Z</time>
      </trkpt>
      <trkpt lat="53.797929966822267" lon="-9.395586987957358">
        <ele>61.659999999999997</ele>
        <time>2026-07-03T07:36:03Z</time>
      </trkpt>
      <trkpt lat="53.798060975968838" lon="-9.39548397436738">
        <ele>61.18</ele>
        <time>2026-07-03T07:36:04Z</time>
      </trkpt>
      <trkpt lat="53.798182010650635" lon="-9.395340979099274">
        <ele>60.219999999999999</ele>
        <time>2026-07-03T07:36:05Z</time>
      </trkpt>
      <trkpt lat="53.799183983355761" lon="-9.393842965364456">
        <ele>59.259999999999998</ele>
        <time>2026-07-03T07:36:15Z</time>
      </trkpt>
      <trkpt lat="53.799989987164736" lon="-9.392348974943161">
        <ele>59.259999999999998</ele>
        <time>2026-07-03T07:36:25Z</time>
      </trkpt>
      <trkpt lat="53.800373040139675" lon="-9.391780011355877">
        <ele>58.780000000000001</ele>
        <time>2026-07-03T07:36:29Z</time>
      </trkpt>
      <trkpt lat="53.800562974065542" lon="-9.391520004719496">
        <ele>58.780000000000001</ele>
        <time>2026-07-03T07:36:31Z</time>
      </trkpt>
      <trkpt lat="53.800659030675888" lon="-9.391385978087783">
        <ele>58.780000000000001</ele>
        <time>2026-07-03T07:36:32Z</time>
      </trkpt>
      <trkpt lat="53.8015460036695" lon="-9.389695012941957">
        <ele>59.259999999999998</ele>
        <time>2026-07-03T07:36:42Z</time>
      </trkpt>
      <trkpt lat="53.801883962005377" lon="-9.389019012451172">
        <ele>58.299999999999997</ele>
        <time>2026-07-03T07:36:46Z</time>
      </trkpt>
      <trkpt lat="53.803210984915495" lon="-9.387117996811867">
        <ele>55.409999999999997</ele>
        <time>2026-07-03T07:36:58Z</time>
      </trkpt>
      <trkpt lat="53.804034003987908" lon="-9.385871021077037">
        <ele>54.93</ele>
        <time>2026-07-03T07:37:07Z</time>
      </trkpt>
      <trkpt lat="53.804203988984227" lon="-9.385573966428638">
        <ele>55.409999999999997</ele>
        <time>2026-07-03T07:37:09Z</time>
      </trkpt>
      <trkpt lat="53.804301973432302" lon="-9.385465001687408">
        <ele>55.409999999999997</ele>
        <time>2026-07-03T07:37:10Z</time>
      </trkpt>
      <trkpt lat="53.804405992850661" lon="-9.385377997532487">
        <ele>55.409999999999997</ele>
        <time>2026-07-03T07:37:11Z</time>
      </trkpt>
      <trkpt lat="53.804512023925781" lon="-9.385296022519469">
        <ele>55.409999999999997</ele>
        <time>2026-07-03T07:37:12Z</time>
      </trkpt>
      <trkpt lat="53.804629035294056" lon="-9.385233996436">
        <ele>54.93</ele>
        <time>2026-07-03T07:37:13Z</time>
      </trkpt>
      <trkpt lat="53.80592898465693" lon="-9.384551038965583">
        <ele>52.530000000000001</ele>
        <time>2026-07-03T07:37:24Z</time>
      </trkpt>
      <trkpt lat="53.807507967576385" lon="-9.383866991847754">
        <ele>50.609999999999999</ele>
        <time>2026-07-03T07:37:37Z</time>
      </trkpt>
      <trkpt lat="53.809190969914198" lon="-9.383101975545287">
        <ele>46.280000000000001</ele>
        <time>2026-07-03T07:37:50Z</time>
      </trkpt>
      <trkpt lat="53.809994040057063" lon="-9.382724035531282">
        <ele>44.359999999999999</ele>
        <time>2026-07-03T07:37:56Z</time>
      </trkpt>
      <trkpt lat="53.810128988698125" lon="-9.382657986134291">
        <ele>43.880000000000003</ele>
        <time>2026-07-03T07:37:57Z</time>
      </trkpt>
      <trkpt lat="53.810790991410613" lon="-9.382095979526639">
        <ele>41.950000000000003</ele>
        <time>2026-07-03T07:38:02Z</time>
      </trkpt>
      <trkpt lat="53.810897022485733" lon="-9.381920965388417">
        <ele>41.469999999999999</ele>
        <time>2026-07-03T07:38:03Z</time>
      </trkpt>
      <trkpt lat="53.810991989448667" lon="-9.381758021190763">
        <ele>41.469999999999999</ele>
        <time>2026-07-03T07:38:04Z</time>
      </trkpt>
      <trkpt lat="53.811085028573871" lon="-9.381597004830837">
        <ele>40.990000000000002</ele>
        <time>2026-07-03T07:38:05Z</time>
      </trkpt>
      <trkpt lat="53.811178989708424" lon="-9.381435988470912">
        <ele>40.509999999999998</ele>
        <time>2026-07-03T07:38:06Z</time>
      </trkpt>
      <trkpt lat="53.811294995248318" lon="-9.381320988759399">
        <ele>40.030000000000001</ele>
        <time>2026-07-03T07:38:07Z</time>
      </trkpt>
      <trkpt lat="53.811406977474689" lon="-9.381215963512659">
        <ele>40.030000000000001</ele>
        <time>2026-07-03T07:38:08Z</time>
      </trkpt>
      <trkpt lat="53.811512002721429" lon="-9.381117979064584">
        <ele>40.030000000000001</ele>
        <time>2026-07-03T07:38:09Z</time>
      </trkpt>
      <trkpt lat="53.812627969309688" lon="-9.380064038559794">
        <ele>38.590000000000003</ele>
        <time>2026-07-03T07:38:19Z</time>
      </trkpt>
      <trkpt lat="53.813767991960049" lon="-9.378697033971548">
        <ele>37.630000000000003</ele>
        <time>2026-07-03T07:38:29Z</time>
      </trkpt>
      <trkpt lat="53.81387704052031" lon="-9.378564013168216">
        <ele>37.630000000000003</ele>
        <time>2026-07-03T07:38:30Z</time>
      </trkpt>
      <trkpt lat="53.8141780346632" lon="-9.378157993778586">
        <ele>38.109999999999999</ele>
        <time>2026-07-03T07:38:33Z</time>
      </trkpt>
      <trkpt lat="53.814247017726302" lon="-9.377980967983604">
        <ele>38.590000000000003</ele>
        <time>2026-07-03T07:38:34Z</time>
      </trkpt>
      <trkpt lat="53.814541976898909" lon="-9.377201031893492">
        <ele>41.950000000000003</ele>
        <time>2026-07-03T07:38:38Z</time>
      </trkpt>
      <trkpt lat="53.814635016024113" lon="-9.377081003040075">
        <ele>42.439999999999998</ele>
        <time>2026-07-03T07:38:39Z</time>
      </trkpt>
      <trkpt lat="53.814756972715259" lon="-9.377010008320212">
        <ele>43.399999999999999</ele>
        <time>2026-07-03T07:38:40Z</time>
      </trkpt>
      <trkpt lat="53.814875995740294" lon="-9.376964997500181">
        <ele>43.880000000000003</ele>
        <time>2026-07-03T07:38:41Z</time>
      </trkpt>
      <trkpt lat="53.815000969916582" lon="-9.376917975023389">
        <ele>44.359999999999999</ele>
        <time>2026-07-03T07:38:42Z</time>
      </trkpt>
      <trkpt lat="53.816216010600328" lon="-9.376422017812729">
        <ele>49.159999999999997</ele>
        <time>2026-07-03T07:38:51Z</time>
      </trkpt>
      <trkpt lat="53.81645699031651" lon="-9.3762749992311">
        <ele>49.649999999999999</ele>
        <time>2026-07-03T07:38:53Z</time>
      </trkpt>
      <trkpt lat="53.816577019169927" lon="-9.376175003126264">
        <ele>50.130000000000003</ele>
        <time>2026-07-03T07:38:54Z</time>
      </trkpt>
      <trkpt lat="53.816694030538201" lon="-9.376076012849808">
        <ele>50.130000000000003</ele>
        <time>2026-07-03T07:38:55Z</time>
      </trkpt>
      <trkpt lat="53.817909993231297" lon="-9.374820990487933">
        <ele>53.009999999999998</ele>
        <time>2026-07-03T07:39:05Z</time>
      </trkpt>
      <trkpt lat="53.819171972572803" lon="-9.373495979234576">
        <ele>52.530000000000001</ele>
        <time>2026-07-03T07:39:16Z</time>
      </trkpt>
      <trkpt lat="53.819778990000486" lon="-9.37285996042192">
        <ele>53.490000000000002</ele>
        <time>2026-07-03T07:39:25Z</time>
      </trkpt>
      <trkpt lat="53.819805979728699" lon="-9.372831964865327">
        <ele>53.490000000000002</ele>
        <time>2026-07-03T07:39:26Z</time>
      </trkpt>
      <trkpt lat="53.819827018305659" lon="-9.372810004279017">
        <ele>53.490000000000002</ele>
        <time>2026-07-03T07:39:27Z</time>
      </trkpt>
      <trkpt lat="53.819846967235208" lon="-9.372788965702057">
        <ele>53.490000000000002</ele>
        <time>2026-07-03T07:39:28Z</time>
      </trkpt>
      <trkpt lat="53.819860965013504" lon="-9.372773040086031">
        <ele>53.490000000000002</ele>
        <time>2026-07-03T07:39:29Z</time>
      </trkpt>
      <trkpt lat="53.819873034954071" lon="-9.372760970145464">
        <ele>53.009999999999998</ele>
        <time>2026-07-03T07:39:30Z</time>
      </trkpt>
      <trkpt lat="53.819888038560748" lon="-9.372744960710406">
        <ele>53.490000000000002</ele>
        <time>2026-07-03T07:39:31Z</time>
      </trkpt>
      <trkpt lat="53.819897007197142" lon="-9.372735992074013">
        <ele>53.490000000000002</ele>
        <time>2026-07-03T07:39:32Z</time>
      </trkpt>
      <trkpt lat="53.819902036339045" lon="-9.372730040922761">
        <ele>53.969999999999999</ele>
        <time>2026-07-03T07:39:34Z</time>
      </trkpt>
      <trkpt lat="53.819926008582115" lon="-9.372704979032278">
        <ele>53.969999999999999</ele>
        <time>2026-07-03T07:39:35Z</time>
      </trkpt>
      <trkpt lat="53.819935983046889" lon="-9.372652005404234">
        <ele>53.969999999999999</ele>
        <time>2026-07-03T07:39:36Z</time>
      </trkpt>
      <trkpt lat="53.819921985268593" lon="-9.37253700569272">
        <ele>53.969999999999999</ele>
        <time>2026-07-03T07:39:37Z</time>
      </trkpt>
      <trkpt lat="53.819904970005155" lon="-9.372398033738136">
        <ele>53.490000000000002</ele>
        <time>2026-07-03T07:39:38Z</time>
      </trkpt>
      <trkpt lat="53.819885021075606" lon="-9.37223601154983">
        <ele>53.490000000000002</ele>
        <time>2026-07-03T07:39:39Z</time>
      </trkpt>
      <trkpt lat="53.819861970841885" lon="-9.372050017118454">
        <ele>53.009999999999998</ele>
        <time>2026-07-03T07:39:40Z</time>
      </trkpt>
      <trkpt lat="53.819757029414177" lon="-9.370266012847424">
        <ele>49.159999999999997</ele>
        <time>2026-07-03T07:39:47Z</time>
      </trkpt>
      <trkpt lat="53.819775972515345" lon="-9.369968036189675">
        <ele>48.200000000000003</ele>
        <time>2026-07-03T07:39:48Z</time>
      </trkpt>
      <trkpt lat="53.819846967235208" lon="-9.369359007105231">
        <ele>47.240000000000002</ele>
        <time>2026-07-03T07:39:50Z</time>
      </trkpt>
      <trkpt lat="53.820446021854877" lon="-9.366891961544752">
        <ele>41.469999999999999</ele>
        <time>2026-07-03T07:39:58Z</time>
      </trkpt>
      <trkpt lat="53.820702005177736" lon="-9.364660028368235">
        <ele>42.439999999999998</ele>
        <time>2026-07-03T07:40:05Z</time>
      </trkpt>
      <trkpt lat="53.820820022374392" lon="-9.361526034772396">
        <ele>43.880000000000003</ele>
        <time>2026-07-03T07:40:15Z</time>
      </trkpt>
      <trkpt lat="53.820920018479228" lon="-9.358918005600572">
        <ele>42.920000000000002</ele>
        <time>2026-07-03T07:40:23Z</time>
      </trkpt>
      <trkpt lat="53.820878025144339" lon="-9.358342001214624">
        <ele>41.950000000000003</ele>
        <time>2026-07-03T07:40:25Z</time>
      </trkpt>
      <trkpt lat="53.820837959647179" lon="-9.358044024556875">
        <ele>41.950000000000003</ele>
        <time>2026-07-03T07:40:26Z</time>
      </trkpt>
      <trkpt lat="53.820704016834497" lon="-9.35683099552989">
        <ele>41.950000000000003</ele>
        <time>2026-07-03T07:40:30Z</time>
      </trkpt>
      <trkpt lat="53.820737041532993" lon="-9.356543999165297">
        <ele>41.950000000000003</ele>
        <time>2026-07-03T07:40:31Z</time>
      </trkpt>
      <trkpt lat="53.820788003504276" lon="-9.35627200640738">
        <ele>41.950000000000003</ele>
        <time>2026-07-03T07:40:32Z</time>
      </trkpt>
      <trkpt lat="53.82086000405252" lon="-9.356018034741283">
        <ele>41.950000000000003</ele>
        <time>2026-07-03T07:40:33Z</time>
      </trkpt>
      <trkpt lat="53.820933010429144" lon="-9.355769008398056">
        <ele>41.950000000000003</ele>
        <time>2026-07-03T07:40:34Z</time>
      </trkpt>
      <trkpt lat="53.821026971563697" lon="-9.355538003146648">
        <ele>41.950000000000003</ele>
        <time>2026-07-03T07:40:35Z</time>
      </trkpt>
      <trkpt lat="53.821121016517282" lon="-9.355309009552002">
        <ele>41.950000000000003</ele>
        <time>2026-07-03T07:40:36Z</time>
      </trkpt>
      <trkpt lat="53.821250014007092" lon="-9.3551329895854">
        <ele>42.439999999999998</ele>
        <time>2026-07-03T07:40:37Z</time>
      </trkpt>
      <trkpt lat="53.821383034810424" lon="-9.354963004589081">
        <ele>42.439999999999998</ele>
        <time>2026-07-03T07:40:38Z</time>
      </trkpt>
      <trkpt lat="53.821539022028446" lon="-9.354820009320974">
        <ele>42.439999999999998</ele>
        <time>2026-07-03T07:40:39Z</time>
      </trkpt>
      <trkpt lat="53.821696015074849" lon="-9.354676008224487">
        <ele>41.950000000000003</ele>
        <time>2026-07-03T07:40:40Z</time>
      </trkpt>
      <trkpt lat="53.822933016344905" lon="-9.353180006146431">
        <ele>38.590000000000003</ele>
        <time>2026-07-03T07:40:48Z</time>
      </trkpt>
      <trkpt lat="53.823839016258717" lon="-9.35195398516953">
        <ele>39.07</ele>
        <time>2026-07-03T07:40:54Z</time>
      </trkpt>
      <trkpt lat="53.824010007083416" lon="-9.351822976022959">
        <ele>39.549999999999997</ele>
        <time>2026-07-03T07:40:55Z</time>
      </trkpt>
      <trkpt lat="53.824183009564877" lon="-9.351690961048007">
        <ele>40.030000000000001</ele>
        <time>2026-07-03T07:40:56Z</time>
      </trkpt>
      <trkpt lat="53.82565101608634" lon="-9.350301995873451">
        <ele>44.359999999999999</ele>
        <time>2026-07-03T07:41:05Z</time>
      </trkpt>
      <trkpt lat="53.826806964352727" lon="-9.348958041518927">
        <ele>44.840000000000003</ele>
        <time>2026-07-03T07:41:14Z</time>
      </trkpt>
      <trkpt lat="53.827483970671892" lon="-9.348191013559699">
        <ele>44.359999999999999</ele>
        <time>2026-07-03T07:41:22Z</time>
      </trkpt>
      <trkpt lat="53.827573992311954" lon="-9.348153965547681">
        <ele>43.880000000000003</ele>
        <time>2026-07-03T07:41:25Z</time>
      </trkpt>
      <trkpt lat="53.827625960111618" lon="-9.348167041316629">
        <ele>43.880000000000003</ele>
        <time>2026-07-03T07:41:26Z</time>
      </trkpt>
      <trkpt lat="53.827797034755349" lon="-9.348227977752686">
        <ele>43.399999999999999</ele>
        <time>2026-07-03T07:41:28Z</time>
      </trkpt>
      <trkpt lat="53.827885966747999" lon="-9.348227977752686">
        <ele>43.399999999999999</ele>
        <time>2026-07-03T07:41:29Z</time>
      </trkpt>
      <trkpt lat="53.828000966459513" lon="-9.348133010789752">
        <ele>43.399999999999999</ele>
        <time>2026-07-03T07:41:30Z</time>
      </trkpt>
      <trkpt lat="53.82808000780642" lon="-9.347976017743349">
        <ele>43.880000000000003</ele>
        <time>2026-07-03T07:41:31Z</time>
      </trkpt>
      <trkpt lat="53.828111020848155" lon="-9.347809972241521">
        <ele>44.359999999999999</ele>
        <time>2026-07-03T07:41:32Z</time>
      </trkpt>
      <trkpt lat="53.828144967556" lon="-9.34763696976006">
        <ele>44.840000000000003</ele>
        <time>2026-07-03T07:41:33Z</time>
      </trkpt>
      <trkpt lat="53.828182015568018" lon="-9.347462961450219">
        <ele>45.32</ele>
        <time>2026-07-03T07:41:34Z</time>
      </trkpt>
      <trkpt lat="53.828237000852823" lon="-9.347309991717339">
        <ele>45.799999999999997</ele>
        <time>2026-07-03T07:41:35Z</time>
      </trkpt>
      <trkpt lat="53.82831696420908" lon="-9.347173031419516">
        <ele>45.799999999999997</ele>
        <time>2026-07-03T07:41:36Z</time>
      </trkpt>
      <trkpt lat="53.828405980020761" lon="-9.347031963989139">
        <ele>45.799999999999997</ele>
        <time>2026-07-03T07:41:37Z</time>
      </trkpt>
      <trkpt lat="53.828511005267501" lon="-9.346901038661599">
        <ele>45.799999999999997</ele>
        <time>2026-07-03T07:41:38Z</time>
      </trkpt>
      <trkpt lat="53.829793017357588" lon="-9.345397995784879">
        <ele>47.240000000000002</ele>
        <time>2026-07-03T07:41:48Z</time>
      </trkpt>
      <trkpt lat="53.829930983483791" lon="-9.345238991081715">
        <ele>47.240000000000002</ele>
        <time>2026-07-03T07:41:49Z</time>
      </trkpt>
      <trkpt lat="53.831368982791901" lon="-9.343508966267109">
        <ele>45.799999999999997</ele>
        <time>2026-07-03T07:41:59Z</time>
      </trkpt>
      <trkpt lat="53.83362497203052" lon="-9.340741010382772">
        <ele>44.359999999999999</ele>
        <time>2026-07-03T07:42:14Z</time>
      </trkpt>
      <trkpt lat="53.835431020706892" lon="-9.338522991165519">
        <ele>46.759999999999998</ele>
        <time>2026-07-03T07:42:26Z</time>
      </trkpt>
      <trkpt lat="53.837151993066072" lon="-9.336388036608696">
        <ele>44.359999999999999</ele>
        <time>2026-07-03T07:42:37Z</time>
      </trkpt>
      <trkpt lat="53.838021028786898" lon="-9.33530299924314">
        <ele>42.439999999999998</ele>
        <time>2026-07-03T07:42:45Z</time>
      </trkpt>
      <trkpt lat="53.838340966030955" lon="-9.334903014823794">
        <ele>43.880000000000003</ele>
        <time>2026-07-03T07:42:49Z</time>
      </trkpt>
      <trkpt lat="53.838398968800902" lon="-9.334831014275551">
        <ele>43.880000000000003</ele>
        <time>2026-07-03T07:42:50Z</time>
      </trkpt>
      <trkpt lat="53.838441967964172" lon="-9.334777034819126">
        <ele>43.880000000000003</ele>
        <time>2026-07-03T07:42:51Z</time>
      </trkpt>
      <trkpt lat="53.838474992662668" lon="-9.334735963493586">
        <ele>44.359999999999999</ele>
        <time>2026-07-03T07:42:52Z</time>
      </trkpt>
      <trkpt lat="53.838497959077358" lon="-9.334706962108612">
        <ele>44.359999999999999</ele>
        <time>2026-07-03T07:42:53Z</time>
      </trkpt>
      <trkpt lat="53.838517991825938" lon="-9.334682989865542">
        <ele>44.359999999999999</ele>
        <time>2026-07-03T07:42:54Z</time>
      </trkpt>
      <trkpt lat="53.838538024574518" lon="-9.33465700596571">
        <ele>44.359999999999999</ele>
        <time>2026-07-03T07:42:55Z</time>
      </trkpt>
      <trkpt lat="53.838558979332447" lon="-9.334631022065878">
        <ele>44.840000000000003</ele>
        <time>2026-07-03T07:42:56Z</time>
      </trkpt>
      <trkpt lat="53.838577000424266" lon="-9.334608977660537">
        <ele>44.359999999999999</ele>
        <time>2026-07-03T07:42:57Z</time>
      </trkpt>
      <trkpt lat="53.838593009859324" lon="-9.334589028730989">
        <ele>44.359999999999999</ele>
        <time>2026-07-03T07:42:58Z</time>
      </trkpt>
      <trkpt lat="53.838593009859324" lon="-9.334589028730989">
        <ele>44.359999999999999</ele>
        <time>2026-07-03T07:43:09Z</time>
      </trkpt>
      <trkpt lat="53.838593009859324" lon="-9.334589028730989">
        <ele>44.359999999999999</ele>
        <time>2026-07-03T07:43:50Z</time>
      </trkpt>
      <trkpt lat="53.838458983227611" lon="-9.334299014881253">
        <ele>22.73</ele>
        <time>2026-07-03T07:46:00Z</time>
      </trkpt>
      <trkpt lat="53.838475998491049" lon="-9.334312006831169">
        <ele>31.859999999999999</ele>
        <time>2026-07-03T07:46:40Z</time>
      </trkpt>
      <trkpt lat="53.838567025959492" lon="-9.334174040704966">
        <ele>41.469999999999999</ele>
        <time>2026-07-03T07:47:23Z</time>
      </trkpt>
      <trkpt lat="53.838752014562488" lon="-9.334390964359045">
        <ele>43.880000000000003</ele>
        <time>2026-07-03T07:47:30Z</time>
      </trkpt>
      <trkpt lat="53.838776992633939" lon="-9.334358023479581">
        <ele>43.399999999999999</ele>
        <time>2026-07-03T07:47:31Z</time>
      </trkpt>
      <trkpt lat="53.838824015110731" lon="-9.334301026538014">
        <ele>42.920000000000002</ele>
        <time>2026-07-03T07:47:32Z</time>
      </trkpt>
      <trkpt lat="53.838886041194201" lon="-9.334222991019487">
        <ele>42.439999999999998</ele>
        <time>2026-07-03T07:47:33Z</time>
      </trkpt>
      <trkpt lat="53.838957035914063" lon="-9.334133975207806">
        <ele>41.950000000000003</ele>
        <time>2026-07-03T07:47:34Z</time>
      </trkpt>
      <trkpt lat="53.83903699927032" lon="-9.33403498493135">
        <ele>41.950000000000003</ele>
        <time>2026-07-03T07:47:35Z</time>
      </trkpt>
      <trkpt lat="53.839908968657255" lon="-9.332953970879316">
        <ele>40.990000000000002</ele>
        <time>2026-07-03T07:47:43Z</time>
      </trkpt>
      <trkpt lat="53.841149993240833" lon="-9.331303993239999">
        <ele>39.549999999999997</ele>
        <time>2026-07-03T07:47:53Z</time>
      </trkpt>
      <trkpt lat="53.841373035684228" lon="-9.330878024920821">
        <ele>39.549999999999997</ele>
        <time>2026-07-03T07:47:55Z</time>
      </trkpt>
      <trkpt lat="53.841447969898582" lon="-9.330624975264072">
        <ele>40.030000000000001</ele>
        <time>2026-07-03T07:47:56Z</time>
      </trkpt>
      <trkpt lat="53.841501027345657" lon="-9.330368991941214">
        <ele>40.509999999999998</ele>
        <time>2026-07-03T07:47:57Z</time>
      </trkpt>
      <trkpt lat="53.841549977660179" lon="-9.330110996961594">
        <ele>40.990000000000002</ele>
        <time>2026-07-03T07:47:58Z</time>
      </trkpt>
      <trkpt lat="53.841569004580379" lon="-9.32984696701169">
        <ele>41.469999999999999</ele>
        <time>2026-07-03T07:47:59Z</time>
      </trkpt>
      <trkpt lat="53.84195901453495" lon="-9.327343041077256">
        <ele>43.399999999999999</ele>
        <time>2026-07-03T07:48:09Z</time>
      </trkpt>
      <trkpt lat="53.842701986432076" lon="-9.324518004432321">
        <ele>41.950000000000003</ele>
        <time>2026-07-03T07:48:21Z</time>
      </trkpt>
      <trkpt lat="53.84326801635325" lon="-9.323041029274464">
        <ele>42.439999999999998</ele>
        <time>2026-07-03T07:48:29Z</time>
      </trkpt>
      <trkpt lat="53.843689039349556" lon="-9.322027992457151">
        <ele>40.030000000000001</ele>
        <time>2026-07-03T07:48:36Z</time>
      </trkpt>
      <trkpt lat="53.844264959916472" lon="-9.320653025060892">
        <ele>37.149999999999999</ele>
        <time>2026-07-03T07:48:47Z</time>
      </trkpt>
      <trkpt lat="53.845040034502745" lon="-9.318858962506056">
        <ele>37.630000000000003</ele>
        <time>2026-07-03T07:48:57Z</time>
      </trkpt>
      <trkpt lat="53.845993978902698" lon="-9.316574977710843">
        <ele>40.030000000000001</ele>
        <time>2026-07-03T07:49:08Z</time>
      </trkpt>
      <trkpt lat="53.84705001488328" lon="-9.31427096016705">
        <ele>42.439999999999998</ele>
        <time>2026-07-03T07:49:19Z</time>
      </trkpt>
      <trkpt lat="53.847490986809134" lon="-9.313510973006487">
        <ele>42.439999999999998</ele>
        <time>2026-07-03T07:49:23Z</time>
      </trkpt>
      <trkpt lat="53.847600035369396" lon="-9.313316009938717">
        <ele>42.439999999999998</ele>
        <time>2026-07-03T07:49:24Z</time>
      </trkpt>
      <trkpt lat="53.847661977633834" lon="-9.313104031607509">
        <ele>42.439999999999998</ele>
        <time>2026-07-03T07:49:25Z</time>
      </trkpt>
      <trkpt lat="53.847730038687587" lon="-9.312876965850592">
        <ele>42.920000000000002</ele>
        <time>2026-07-03T07:49:26Z</time>
      </trkpt>
      <trkpt lat="53.847784018144011" lon="-9.312633974477649">
        <ele>42.920000000000002</ele>
        <time>2026-07-03T07:49:27Z</time>
      </trkpt>
      <trkpt lat="53.847816037014127" lon="-9.312381008639932">
        <ele>43.399999999999999</ele>
        <time>2026-07-03T07:49:28Z</time>
      </trkpt>
      <trkpt lat="53.848206968978047" lon="-9.310289975255728">
        <ele>41.950000000000003</ele>
        <time>2026-07-03T07:49:37Z</time>
      </trkpt>
      <trkpt lat="53.848264971747994" lon="-9.310103980824351">
        <ele>41.469999999999999</ele>
        <time>2026-07-03T07:49:38Z</time>
      </trkpt>
      <trkpt lat="53.84831702336669" lon="-9.309925027191639">
        <ele>41.469999999999999</ele>
        <time>2026-07-03T07:49:39Z</time>
      </trkpt>
      <trkpt lat="53.848616005852818" lon="-9.309260006994009">
        <ele>41.469999999999999</ele>
        <time>2026-07-03T07:49:46Z</time>
      </trkpt>
      <trkpt lat="53.848936026915908" lon="-9.308824986219406">
        <ele>40.990000000000002</ele>
        <time>2026-07-03T07:49:52Z</time>
      </trkpt>
      <trkpt lat="53.849023031070828" lon="-9.308749968186021">
        <ele>40.990000000000002</ele>
        <time>2026-07-03T07:49:53Z</time>
      </trkpt>
      <trkpt lat="53.849117998033762" lon="-9.30868299677968">
        <ele>40.990000000000002</ele>
        <time>2026-07-03T07:49:54Z</time>
      </trkpt>
      <trkpt lat="53.849211037158966" lon="-9.308690959587693">
        <ele>40.990000000000002</ele>
        <time>2026-07-03T07:49:55Z</time>
      </trkpt>
      <trkpt lat="53.849293012171984" lon="-9.308699006214738">
        <ele>40.990000000000002</ele>
        <time>2026-07-03T07:49:56Z</time>
      </trkpt>
      <trkpt lat="53.849433995783329" lon="-9.308711998164654">
        <ele>40.509999999999998</ele>
        <time>2026-07-03T07:49:58Z</time>
      </trkpt>
      <trkpt lat="53.849496021866798" lon="-9.308717027306557">
        <ele>40.509999999999998</ele>
        <time>2026-07-03T07:49:59Z</time>
      </trkpt>
      <trkpt lat="53.850270006805658" lon="-9.308823980391026">
        <ele>39.07</ele>
        <time>2026-07-03T07:50:10Z</time>
      </trkpt>
      <trkpt lat="53.851172989234328" lon="-9.308744017034769">
        <ele>39.549999999999997</ele>
        <time>2026-07-03T07:50:17Z</time>
      </trkpt>
      <trkpt lat="53.851310033351183" lon="-9.308644020929933">
        <ele>39.549999999999997</ele>
        <time>2026-07-03T07:50:18Z</time>
      </trkpt>
      <trkpt lat="53.851449005305767" lon="-9.308543018996716">
        <ele>40.030000000000001</ele>
        <time>2026-07-03T07:50:19Z</time>
      </trkpt>
      <trkpt lat="53.851584037765861" lon="-9.30844503454864">
        <ele>40.030000000000001</ele>
        <time>2026-07-03T07:50:20Z</time>
      </trkpt>
      <trkpt lat="53.851701971143484" lon="-9.308304972946644">
        <ele>40.030000000000001</ele>
        <time>2026-07-03T07:50:21Z</time>
      </trkpt>
      <trkpt lat="53.851813031360507" lon="-9.308156026527286">
        <ele>40.030000000000001</ele>
        <time>2026-07-03T07:50:22Z</time>
      </trkpt>
      <trkpt lat="53.852918017655611" lon="-9.306677039712668">
        <ele>37.630000000000003</ele>
        <time>2026-07-03T07:50:33Z</time>
      </trkpt>
      <trkpt lat="53.85407698340714" lon="-9.30550298653543">
        <ele>37.149999999999999</ele>
        <time>2026-07-03T07:50:45Z</time>
      </trkpt>
      <trkpt lat="53.854430029168725" lon="-9.305298971012235">
        <ele>38.109999999999999</ele>
        <time>2026-07-03T07:50:51Z</time>
      </trkpt>
      <trkpt lat="53.854475039988756" lon="-9.305277010425925">
        <ele>38.109999999999999</ele>
        <time>2026-07-03T07:50:52Z</time>
      </trkpt>
      <trkpt lat="53.854514015838504" lon="-9.305253960192204">
        <ele>38.109999999999999</ele>
        <time>2026-07-03T07:50:53Z</time>
      </trkpt>
      <trkpt lat="53.854547962546349" lon="-9.305235017091036">
        <ele>38.109999999999999</ele>
        <time>2026-07-03T07:50:54Z</time>
      </trkpt>
      <trkpt lat="53.854590961709619" lon="-9.305210961028934">
        <ele>38.109999999999999</ele>
        <time>2026-07-03T07:50:55Z</time>
      </trkpt>
      <trkpt lat="53.854745021089911" lon="-9.305334007367492">
        <ele>38.109999999999999</ele>
        <time>2026-07-03T07:50:56Z</time>
      </trkpt>
      <trkpt lat="53.854745021089911" lon="-9.305334007367492">
        <ele>38.590000000000003</ele>
        <time>2026-07-03T07:50:57Z</time>
      </trkpt>
      <trkpt lat="53.854794977232814" lon="-9.305343981832266">
        <ele>38.109999999999999</ele>
        <time>2026-07-03T07:50:58Z</time>
      </trkpt>
      <trkpt lat="53.854863960295916" lon="-9.305335013195872">
        <ele>38.109999999999999</ele>
        <time>2026-07-03T07:50:59Z</time>
      </trkpt>
      <trkpt lat="53.854904025793076" lon="-9.30526502430439">
        <ele>37.630000000000003</ele>
        <time>2026-07-03T07:51:00Z</time>
      </trkpt>
      <trkpt lat="53.854955993592739" lon="-9.305175002664328">
        <ele>37.630000000000003</ele>
        <time>2026-07-03T07:51:01Z</time>
      </trkpt>
      <trkpt lat="53.855013996362686" lon="-9.30507299490273">
        <ele>37.630000000000003</ele>
        <time>2026-07-03T07:51:02Z</time>
      </trkpt>
      <trkpt lat="53.855068981647491" lon="-9.304977022111416">
        <ele>37.149999999999999</ele>
        <time>2026-07-03T07:51:03Z</time>
      </trkpt>
      <trkpt lat="53.85519596748054" lon="-9.304819023236632">
        <ele>37.149999999999999</ele>
        <time>2026-07-03T07:51:05Z</time>
      </trkpt>
      <trkpt lat="53.855961989611387" lon="-9.304088959470391">
        <ele>37.149999999999999</ele>
        <time>2026-07-03T07:51:13Z</time>
      </trkpt>
      <trkpt lat="53.856985000893474" lon="-9.302703011780977">
        <ele>40.990000000000002</ele>
        <time>2026-07-03T07:51:24Z</time>
      </trkpt>
      <trkpt lat="53.85719102807343" lon="-9.302420960739255">
        <ele>41.950000000000003</ele>
        <time>2026-07-03T07:51:27Z</time>
      </trkpt>
      <trkpt lat="53.857292030006647" lon="-9.302281988784671">
        <ele>41.950000000000003</ele>
        <time>2026-07-03T07:51:29Z</time>
      </trkpt>
      <trkpt lat="53.857278032228351" lon="-9.302161037921906">
        <ele>42.439999999999998</ele>
        <time>2026-07-03T07:51:30Z</time>
      </trkpt>
      <trkpt lat="53.857249030843377" lon="-9.302102029323578">
        <ele>42.439999999999998</ele>
        <time>2026-07-03T07:51:31Z</time>
      </trkpt>
      <trkpt lat="53.857211982831359" lon="-9.302028017118573">
        <ele>42.439999999999998</ele>
        <time>2026-07-03T07:51:32Z</time>
      </trkpt>
      <trkpt lat="53.857173006981611" lon="-9.301949981600046">
        <ele>42.920000000000002</ele>
        <time>2026-07-03T07:51:33Z</time>
      </trkpt>
      <trkpt lat="53.857035040855408" lon="-9.301674971356988">
        <ele>44.359999999999999</ele>
        <time>2026-07-03T07:51:36Z</time>
      </trkpt>
      <trkpt lat="53.856831025332212" lon="-9.301266018301249">
        <ele>45.32</ele>
        <time>2026-07-03T07:51:40Z</time>
      </trkpt>
      <trkpt lat="53.856780985370278" lon="-9.301166022196412">
        <ele>45.32</ele>
        <time>2026-07-03T07:51:41Z</time>
      </trkpt>
      <trkpt lat="53.856732035055757" lon="-9.301069965586066">
        <ele>45.799999999999997</ele>
        <time>2026-07-03T07:51:42Z</time>
      </trkpt>
      <trkpt lat="53.856690041720867" lon="-9.300993019714952">
        <ele>46.280000000000001</ele>
        <time>2026-07-03T07:51:43Z</time>
      </trkpt>
      <trkpt lat="53.856652993708849" lon="-9.300924958661199">
        <ele>46.759999999999998</ele>
        <time>2026-07-03T07:51:44Z</time>
      </trkpt>
      <trkpt lat="53.85661200620234" lon="-9.300850024446845">
        <ele>47.240000000000002</ele>
        <time>2026-07-03T07:51:45Z</time>
      </trkpt>
      <trkpt lat="53.856558026745915" lon="-9.300718009471893">
        <ele>48.200000000000003</ele>
        <time>2026-07-03T07:51:47Z</time>
      </trkpt>
      <trkpt lat="53.856479991227388" lon="-9.300528997555375">
        <ele>49.649999999999999</ele>
        <time>2026-07-03T07:51:51Z</time>
      </trkpt>
      <trkpt lat="53.856459958478808" lon="-9.300480969250202">
        <ele>50.130000000000003</ele>
        <time>2026-07-03T07:51:52Z</time>
      </trkpt>
      <trkpt lat="53.856477979570627" lon="-9.30045498535037">
        <ele>51.090000000000003</ele>
        <time>2026-07-03T07:51:53Z</time>
      </trkpt>
      <trkpt lat="53.856506980955601" lon="-9.300401005893946">
        <ele>51.57</ele>
        <time>2026-07-03T07:51:54Z</time>
      </trkpt>
      <trkpt lat="53.856534976512194" lon="-9.300348032265902">
        <ele>52.049999999999997</ele>
        <time>2026-07-03T07:51:55Z</time>
      </trkpt>
      <trkpt lat="53.856558026745915" lon="-9.300306038931012">
        <ele>52.530000000000001</ele>
        <time>2026-07-03T07:51:56Z</time>
      </trkpt>
      <trkpt lat="53.856619969010353" lon="-9.30021702311933">
        <ele>53.490000000000002</ele>
        <time>2026-07-03T07:51:59Z</time>
      </trkpt>
      <trkpt lat="53.856642013415694" lon="-9.300244012847543">
        <ele>53.490000000000002</ele>
        <time>2026-07-03T07:52:00Z</time>
      </trkpt>
      <trkpt lat="53.856665985658765" lon="-9.300275025889278">
        <ele>53.009999999999998</ele>
        <time>2026-07-03T07:52:01Z</time>
      </trkpt>
      <trkpt lat="53.856693981215358" lon="-9.300310984253883">
        <ele>53.009999999999998</ele>
        <time>2026-07-03T07:52:02Z</time>
      </trkpt>
      <trkpt lat="53.856721976771951" lon="-9.300347026437521">
        <ele>53.009999999999998</ele>
        <time>2026-07-03T07:52:03Z</time>
      </trkpt>
      <trkpt lat="53.856878969818354" lon="-9.30051701143384">
        <ele>53.490000000000002</ele>
        <time>2026-07-03T07:52:09Z</time>
      </trkpt>
      <trkpt lat="53.856901014223695" lon="-9.300509970635176">
        <ele>53.490000000000002</ele>
        <time>2026-07-03T07:52:10Z</time>
      </trkpt>
      <trkpt lat="53.85691199451685" lon="-9.300506031140685">
        <ele>53.009999999999998</ele>
        <time>2026-07-03T07:52:11Z</time>
      </trkpt>
      <trkpt lat="53.856925992295146" lon="-9.300483986735344">
        <ele>53.009999999999998</ele>
        <time>2026-07-03T07:52:12Z</time>
      </trkpt>
      <trkpt lat="53.856925992295146" lon="-9.300483986735344">
        <ele>51.57</ele>
        <time>2026-07-03T07:52:22Z</time>
      </trkpt>
      <trkpt lat="53.856925992295146" lon="-9.30086100474">
        <ele>42.920000000000002</ele>
        <time>2026-07-03T08:43:34Z</time>
      </trkpt>
      <trkpt lat="53.856946025043726" lon="-9.300589011982083">
        <ele>43.399999999999999</ele>
        <time>2026-07-03T08:44:05Z</time>
      </trkpt>
      <trkpt lat="53.856924986466765" lon="-9.300592029467225">
        <ele>34.740000000000002</ele>
        <time>2026-07-03T08:45:00Z</time>
      </trkpt>
      <trkpt lat="53.856939990073442" lon="-9.300587000325322">
        <ele>35.710000000000001</ele>
        <time>2026-07-03T08:45:43Z</time>
      </trkpt>
      <trkpt lat="53.856936972588301" lon="-9.300594963133335">
        <ele>36.189999999999998</ele>
        <time>2026-07-03T08:46:31Z</time>
      </trkpt>
      <trkpt lat="53.856938984245062" lon="-9.300597980618477">
        <ele>36.189999999999998</ele>
        <time>2026-07-03T08:47:00Z</time>
      </trkpt>
      <trkpt lat="53.856938984245062" lon="-9.300597980618477">
        <ele>36.189999999999998</ele>
        <time>2026-07-03T08:47:18Z</time>
      </trkpt>
      <trkpt lat="53.856946025043726" lon="-9.300562022253871">
        <ele>35.710000000000001</ele>
        <time>2026-07-03T08:48:02Z</time>
      </trkpt>
      <trkpt lat="53.856948958709836" lon="-9.300552969798446">
        <ele>36.189999999999998</ele>
        <time>2026-07-03T08:49:00Z</time>
      </trkpt>
      <trkpt lat="53.856952982023358" lon="-9.300535032525659">
        <ele>35.710000000000001</ele>
        <time>2026-07-03T08:49:53Z</time>
      </trkpt>
      <trkpt lat="53.856952982023358" lon="-9.300535032525659">
        <ele>35.710000000000001</ele>
        <time>2026-07-03T08:49:56Z</time>
      </trkpt>
      <trkpt lat="53.857018025591969" lon="-9.300335962325335">
        <ele>36.189999999999998</ele>
        <time>2026-07-03T08:50:00Z</time>
      </trkpt>
      <trkpt lat="53.857053983956575" lon="-9.300278965383768">
        <ele>36.670000000000002</ele>
        <time>2026-07-03T08:50:01Z</time>
      </trkpt>
      <trkpt lat="53.85715096257627" lon="-9.300121972337365">
        <ele>36.670000000000002</ele>
        <time>2026-07-03T08:50:04Z</time>
      </trkpt>
      <trkpt lat="53.857179963961244" lon="-9.300074027851224">
        <ele>36.670000000000002</ele>
        <time>2026-07-03T08:50:05Z</time>
      </trkpt>
      <trkpt lat="53.857208965346217" lon="-9.300029017031193">
        <ele>37.149999999999999</ele>
        <time>2026-07-03T08:50:06Z</time>
      </trkpt>
      <trkpt lat="53.85736302472651" lon="-9.299782002344728">
        <ele>38.109999999999999</ele>
        <time>2026-07-03T08:50:11Z</time>
      </trkpt>
      <trkpt lat="53.857572991400957" lon="-9.299461981281638">
        <ele>39.07</ele>
        <time>2026-07-03T08:50:21Z</time>
      </trkpt>
      <trkpt lat="53.857590006664395" lon="-9.299435997381806">
        <ele>39.07</ele>
        <time>2026-07-03T08:50:22Z</time>
      </trkpt>
      <trkpt lat="53.857620013877749" lon="-9.299389980733395">
        <ele>39.549999999999997</ele>
        <time>2026-07-03T08:50:23Z</time>
      </trkpt>
      <trkpt lat="53.857598975300789" lon="-9.299346981570125">
        <ele>39.549999999999997</ele>
        <time>2026-07-03T08:50:24Z</time>
      </trkpt>
      <trkpt lat="53.857571985572577" lon="-9.299290990456939">
        <ele>39.07</ele>
        <time>2026-07-03T08:50:25Z</time>
      </trkpt>
      <trkpt lat="53.857539966702461" lon="-9.299225024878979">
        <ele>39.07</ele>
        <time>2026-07-03T08:50:26Z</time>
      </trkpt>
      <trkpt lat="53.857510965317488" lon="-9.299167022109032">
        <ele>39.07</ele>
        <time>2026-07-03T08:50:27Z</time>
      </trkpt>
      <trkpt lat="53.857494033873081" lon="-9.299130979925394">
        <ele>39.07</ele>
        <time>2026-07-03T08:50:28Z</time>
      </trkpt>
      <trkpt lat="53.85747198946774" lon="-9.299084963276982">
        <ele>39.549999999999997</ele>
        <time>2026-07-03T08:50:38Z</time>
      </trkpt>
      <trkpt lat="53.857456985861063" lon="-9.29905503988266">
        <ele>39.549999999999997</ele>
        <time>2026-07-03T08:50:39Z</time>
      </trkpt>
      <trkpt lat="53.85710502974689" lon="-9.299518978223205">
        <ele>38.109999999999999</ele>
        <time>2026-07-03T08:50:47Z</time>
      </trkpt>
      <trkpt lat="53.856891039758921" lon="-9.299841010943055">
        <ele>38.590000000000003</ele>
        <time>2026-07-03T08:50:54Z</time>
      </trkpt>
      <trkpt lat="53.856891039758921" lon="-9.299841010943055">
        <ele>40.030000000000001</ele>
        <time>2026-07-03T08:50:57Z</time>
      </trkpt>
      <trkpt lat="53.856859020888805" lon="-9.299881998449564">
        <ele>40.509999999999998</ele>
        <time>2026-07-03T08:50:58Z</time>
      </trkpt>
      <trkpt lat="53.856540005654097" lon="-9.300338979810476">
        <ele>40.990000000000002</ele>
        <time>2026-07-03T08:51:07Z</time>
      </trkpt>
      <trkpt lat="53.856497006490827" lon="-9.300420032814145">
        <ele>41.469999999999999</ele>
        <time>2026-07-03T08:51:09Z</time>
      </trkpt>
      <trkpt lat="53.85646197013557" lon="-9.300484992563725">
        <ele>40.990000000000002</ele>
        <time>2026-07-03T08:51:10Z</time>
      </trkpt>
      <trkpt lat="53.856499018147588" lon="-9.300575014203787">
        <ele>41.469999999999999</ele>
        <time>2026-07-03T08:51:11Z</time>
      </trkpt>
      <trkpt lat="53.856531959027052" lon="-9.300654977560043">
        <ele>40.990000000000002</ele>
        <time>2026-07-03T08:51:12Z</time>
      </trkpt>
      <trkpt lat="53.856562972068787" lon="-9.300729995593429">
        <ele>41.469999999999999</ele>
        <time>2026-07-03T08:51:13Z</time>
      </trkpt>
      <trkpt lat="53.856691969558597" lon="-9.300996959209442">
        <ele>41.469999999999999</ele>
        <time>2026-07-03T08:51:17Z</time>
      </trkpt>
      <trkpt lat="53.856973014771938" lon="-9.301551003009081">
        <ele>40.990000000000002</ele>
        <time>2026-07-03T08:51:25Z</time>
      </trkpt>
      <trkpt lat="53.85699899867177" lon="-9.301601964980364">
        <ele>40.990000000000002</ele>
        <time>2026-07-03T08:51:26Z</time>
      </trkpt>
      <trkpt lat="53.85701903142035" lon="-9.301642030477524">
        <ele>40.509999999999998</ele>
        <time>2026-07-03T08:51:27Z</time>
      </trkpt>
      <trkpt lat="53.857035962864757" lon="-9.301675977185369">
        <ele>40.509999999999998</ele>
        <time>2026-07-03T08:51:28Z</time>
      </trkpt>
      <trkpt lat="53.857049038633704" lon="-9.301702966913581">
        <ele>40.509999999999998</ele>
        <time>2026-07-03T08:51:29Z</time>
      </trkpt>
      <trkpt lat="53.857060018926859" lon="-9.301725011318922">
        <ele>40.509999999999998</ele>
        <time>2026-07-03T08:51:30Z</time>
      </trkpt>
      <trkpt lat="53.857074016705155" lon="-9.301752001047134">
        <ele>40.509999999999998</ele>
        <time>2026-07-03T08:51:31Z</time>
      </trkpt>
      <trkpt lat="53.857116010040045" lon="-9.301835987716913">
        <ele>40.990000000000002</ele>
        <time>2026-07-03T08:51:33Z</time>
      </trkpt>
      <trkpt lat="53.857139982283115" lon="-9.301884016022086">
        <ele>41.469999999999999</ele>
        <time>2026-07-03T08:51:34Z</time>
      </trkpt>
      <trkpt lat="53.857160015031695" lon="-9.301923997700214">
        <ele>41.950000000000003</ele>
        <time>2026-07-03T08:51:35Z</time>
      </trkpt>
      <trkpt lat="53.857174012809992" lon="-9.301950987428427">
        <ele>42.439999999999998</ele>
        <time>2026-07-03T08:51:36Z</time>
      </trkpt>
      <trkpt lat="53.857187004759908" lon="-9.301977977156639">
        <ele>42.439999999999998</ele>
        <time>2026-07-03T08:51:37Z</time>
      </trkpt>
      <trkpt lat="53.857274008914828" lon="-9.30215198546648">
        <ele>43.399999999999999</ele>
        <time>2026-07-03T08:51:40Z</time>
      </trkpt>
      <trkpt lat="53.857359001412988" lon="-9.302324987947941">
        <ele>43.880000000000003</ele>
        <time>2026-07-03T08:51:42Z</time>
      </trkpt>
      <trkpt lat="53.857403006404638" lon="-9.302417021244764">
        <ele>44.359999999999999</ele>
        <time>2026-07-03T08:51:43Z</time>
      </trkpt>
      <trkpt lat="53.85744902305305" lon="-9.302511988207698">
        <ele>44.359999999999999</ele>
        <time>2026-07-03T08:51:44Z</time>
      </trkpt>
      <trkpt lat="53.857762003317475" lon="-9.30322403088212">
        <ele>45.799999999999997</ele>
        <time>2026-07-03T08:51:53Z</time>
      </trkpt>
      <trkpt lat="53.857823023572564" lon="-9.303373983129859">
        <ele>46.280000000000001</ele>
        <time>2026-07-03T08:51:55Z</time>
      </trkpt>
      <trkpt lat="53.857840960845351" lon="-9.303455958142877">
        <ele>46.759999999999998</ele>
        <time>2026-07-03T08:51:56Z</time>
      </trkpt>
      <trkpt lat="53.857854036614299" lon="-9.303571041673422">
        <ele>46.759999999999998</ele>
        <time>2026-07-03T08:51:57Z</time>
      </trkpt>
      <trkpt lat="53.857883960008621" lon="-9.303842028602958">
        <ele>46.759999999999998</ele>
        <time>2026-07-03T08:51:59Z</time>
      </trkpt>
      <trkpt lat="53.857870968058705" lon="-9.305537017062306">
        <ele>45.799999999999997</ele>
        <time>2026-07-03T08:52:09Z</time>
      </trkpt>
      <trkpt lat="53.857848001644015" lon="-9.306150991469622">
        <ele>44.359999999999999</ele>
        <time>2026-07-03T08:52:16Z</time>
      </trkpt>
      <trkpt lat="53.857845989987254" lon="-9.306208994239569">
        <ele>44.359999999999999</ele>
        <time>2026-07-03T08:52:28Z</time>
      </trkpt>
      <trkpt lat="53.857831992208958" lon="-9.306591963395476">
        <ele>43.880000000000003</ele>
        <time>2026-07-03T08:52:47Z</time>
      </trkpt>
      <trkpt lat="53.857791004702449" lon="-9.307696027681232">
        <ele>42.920000000000002</ele>
        <time>2026-07-03T08:52:59Z</time>
      </trkpt>
      <trkpt lat="53.857788993045688" lon="-9.308842001482844">
        <ele>45.32</ele>
        <time>2026-07-03T08:53:07Z</time>
      </trkpt>
      <trkpt lat="53.857904998585582" lon="-9.310813006013632">
        <ele>53.490000000000002</ele>
        <time>2026-07-03T08:53:19Z</time>
      </trkpt>
      <trkpt lat="53.857891000807285" lon="-9.310983996838331">
        <ele>53.490000000000002</ele>
        <time>2026-07-03T08:53:20Z</time>
      </trkpt>
      <trkpt lat="53.857874991372228" lon="-9.311163034290075">
        <ele>53.490000000000002</ele>
        <time>2026-07-03T08:53:21Z</time>
      </trkpt>
      <trkpt lat="53.857407029718161" lon="-9.313373006880283">
        <ele>52.530000000000001</ele>
        <time>2026-07-03T08:53:33Z</time>
      </trkpt>
      <trkpt lat="53.856793977320194" lon="-9.315619021654129">
        <ele>51.57</ele>
        <time>2026-07-03T08:53:46Z</time>
      </trkpt>
      <trkpt lat="53.856750978156924" lon="-9.315798981115222">
        <ele>51.57</ele>
        <time>2026-07-03T08:53:47Z</time>
      </trkpt>
      <trkpt lat="53.85669800452888" lon="-9.316020011901856">
        <ele>51.090000000000003</ele>
        <time>2026-07-03T08:53:48Z</time>
      </trkpt>
      <trkpt lat="53.856681995093822" lon="-9.316150015220046">
        <ele>51.090000000000003</ele>
        <time>2026-07-03T08:53:49Z</time>
      </trkpt>
      <trkpt lat="53.856660034507513" lon="-9.316322011873126">
        <ele>51.090000000000003</ele>
        <time>2026-07-03T08:53:50Z</time>
      </trkpt>
      <trkpt lat="53.85665500536561" lon="-9.316488979384303">
        <ele>51.090000000000003</ele>
        <time>2026-07-03T08:53:51Z</time>
      </trkpt>
      <trkpt lat="53.856593985110521" lon="-9.31764199398458">
        <ele>50.130000000000003</ele>
        <time>2026-07-03T08:54:00Z</time>
      </trkpt>
      <trkpt lat="53.856391981244087" lon="-9.318887041881681">
        <ele>49.159999999999997</ele>
        <time>2026-07-03T08:54:10Z</time>
      </trkpt>
      <trkpt lat="53.856163993477821" lon="-9.320620000362396">
        <ele>47.719999999999999</ele>
        <time>2026-07-03T08:54:21Z</time>
      </trkpt>
      <trkpt lat="53.855910021811724" lon="-9.323230041190982">
        <ele>48.200000000000003</ele>
        <time>2026-07-03T08:54:33Z</time>
      </trkpt>
      <trkpt lat="53.855925025418401" lon="-9.324338966980577">
        <ele>49.649999999999999</ele>
        <time>2026-07-03T08:54:38Z</time>
      </trkpt>
      <trkpt lat="53.85590298101306" lon="-9.324545999988914">
        <ele>49.649999999999999</ele>
        <time>2026-07-03T08:54:39Z</time>
      </trkpt>
      <trkpt lat="53.855873979628086" lon="-9.324744986370206">
        <ele>49.649999999999999</ele>
        <time>2026-07-03T08:54:40Z</time>
      </trkpt>
      <trkpt lat="53.855840032920241" lon="-9.324935004115105">
        <ele>50.130000000000003</ele>
        <time>2026-07-03T08:54:41Z</time>
      </trkpt>
      <trkpt lat="53.855798961594701" lon="-9.32511898688972">
        <ele>50.130000000000003</ele>
        <time>2026-07-03T08:54:42Z</time>
      </trkpt>
      <trkpt lat="53.855218011885881" lon="-9.327704971656203">
        <ele>51.090000000000003</ele>
        <time>2026-07-03T08:54:55Z</time>
      </trkpt>
      <trkpt lat="53.854604037478566" lon="-9.330948013812304">
        <ele>44.840000000000003</ele>
        <time>2026-07-03T08:55:09Z</time>
      </trkpt>
      <trkpt lat="53.854239005595446" lon="-9.333587978035212">
        <ele>41.950000000000003</ele>
        <time>2026-07-03T08:55:20Z</time>
      </trkpt>
      <trkpt lat="53.854199023917317" lon="-9.333837004378438">
        <ele>41.950000000000003</ele>
        <time>2026-07-03T08:55:21Z</time>
      </trkpt>
      <trkpt lat="53.854152001440525" lon="-9.334087036550045">
        <ele>41.950000000000003</ele>
        <time>2026-07-03T08:55:22Z</time>
      </trkpt>
      <trkpt lat="53.85407698340714" lon="-9.334318041801453">
        <ele>41.950000000000003</ele>
        <time>2026-07-03T08:55:23Z</time>
      </trkpt>
      <trkpt lat="53.854000959545374" lon="-9.334556004032493">
        <ele>41.469999999999999</ele>
        <time>2026-07-03T08:55:24Z</time>
      </trkpt>
      <trkpt lat="53.852893961593509" lon="-9.337513977661729">
        <ele>42.920000000000002</ele>
        <time>2026-07-03T08:55:37Z</time>
      </trkpt>
      <trkpt lat="53.851843038573861" lon="-9.339710036292672">
        <ele>45.799999999999997</ele>
        <time>2026-07-03T08:55:46Z</time>
      </trkpt>
      <trkpt lat="53.850702010095119" lon="-9.342332985252142">
        <ele>42.439999999999998</ele>
        <time>2026-07-03T08:55:56Z</time>
      </trkpt>
      <trkpt lat="53.849510019645095" lon="-9.345237985253334">
        <ele>43.880000000000003</ele>
        <time>2026-07-03T08:56:08Z</time>
      </trkpt>
      <trkpt lat="53.848847011104226" lon="-9.347951039671898">
        <ele>45.32</ele>
        <time>2026-07-03T08:56:18Z</time>
      </trkpt>
      <trkpt lat="53.848689012229443" lon="-9.350180961191654">
        <ele>44.359999999999999</ele>
        <time>2026-07-03T08:56:26Z</time>
      </trkpt>
      <trkpt lat="53.848709966987371" lon="-9.351340010762215">
        <ele>43.880000000000003</ele>
        <time>2026-07-03T08:56:30Z</time>
      </trkpt>
      <trkpt lat="53.84892001748085" lon="-9.353729020804167">
        <ele>42.920000000000002</ele>
        <time>2026-07-03T08:56:36Z</time>
      </trkpt>
      <trkpt lat="53.849227968603373" lon="-9.356476021930575">
        <ele>42.920000000000002</ele>
        <time>2026-07-03T08:56:42Z</time>
      </trkpt>
      <trkpt lat="53.849793998524547" lon="-9.361440036445856">
        <ele>43.399999999999999</ele>
        <time>2026-07-03T08:56:55Z</time>
      </trkpt>
      <trkpt lat="53.850212004035711" lon="-9.364846022799611">
        <ele>41.950000000000003</ele>
        <time>2026-07-03T08:57:05Z</time>
      </trkpt>
      <trkpt lat="53.850923040881753" lon="-9.367436030879617">
        <ele>43.399999999999999</ele>
        <time>2026-07-03T08:57:13Z</time>
      </trkpt>
      <trkpt lat="53.851482030004263" lon="-9.369255993515253">
        <ele>47.240000000000002</ele>
        <time>2026-07-03T08:57:20Z</time>
      </trkpt>
      <trkpt lat="53.852200023829937" lon="-9.371589012444019">
        <ele>50.609999999999999</ele>
        <time>2026-07-03T08:57:29Z</time>
      </trkpt>
      <trkpt lat="53.852849034592509" lon="-9.373695971444249">
        <ele>52.049999999999997</ele>
        <time>2026-07-03T08:57:35Z</time>
      </trkpt>
      <trkpt lat="53.853429984301329" lon="-9.375580977648497">
        <ele>54.93</ele>
        <time>2026-07-03T08:57:42Z</time>
      </trkpt>
      <trkpt lat="53.854616023600101" lon="-9.379403963685036">
        <ele>60.700000000000003</ele>
        <time>2026-07-03T08:57:56Z</time>
      </trkpt>
      <trkpt lat="53.855896024033427" lon="-9.383777976036072">
        <ele>67.909999999999997</ele>
        <time>2026-07-03T08:58:10Z</time>
      </trkpt>
      <trkpt lat="53.856608988717198" lon="-9.387098969891667">
        <ele>70.310000000000002</ele>
        <time>2026-07-03T08:58:20Z</time>
      </trkpt>
      <trkpt lat="53.857480958104134" lon="-9.391051037237048">
        <ele>67.909999999999997</ele>
        <time>2026-07-03T08:58:32Z</time>
      </trkpt>
      <trkpt lat="53.858432974666357" lon="-9.395175017416477">
        <ele>67.909999999999997</ele>
        <time>2026-07-03T08:58:45Z</time>
      </trkpt>
      <trkpt lat="53.859460009261966" lon="-9.399207970127463">
        <ele>59.259999999999998</ele>
        <time>2026-07-03T08:58:58Z</time>
      </trkpt>
      <trkpt lat="53.860431974753737" lon="-9.401703011244535">
        <ele>56.859999999999999</ele>
        <time>2026-07-03T08:59:07Z</time>
      </trkpt>
      <trkpt lat="53.86163997463882" lon="-9.403417026624084">
        <ele>58.780000000000001</ele>
        <time>2026-07-03T08:59:15Z</time>
      </trkpt>
      <trkpt lat="53.862932967022061" lon="-9.405831014737487">
        <ele>59.740000000000002</ele>
        <time>2026-07-03T08:59:25Z</time>
      </trkpt>
      <trkpt lat="53.864513961598277" lon="-9.409119989722967">
        <ele>61.18</ele>
        <time>2026-07-03T08:59:38Z</time>
      </trkpt>
      <trkpt lat="53.865410992875695" lon="-9.412396978586912">
        <ele>68.390000000000001</ele>
        <time>2026-07-03T08:59:49Z</time>
      </trkpt>
      <trkpt lat="53.866054974496365" lon="-9.41608602181077">
        <ele>73.200000000000003</ele>
        <time>2026-07-03T09:00:00Z</time>
      </trkpt>
      <trkpt lat="53.866851003840566" lon="-9.419860979542136">
        <ele>72.239999999999995</ele>
        <time>2026-07-03T09:00:11Z</time>
      </trkpt>
      <trkpt lat="53.867781981825829" lon="-9.424563981592655">
        <ele>68.390000000000001</ele>
        <time>2026-07-03T09:00:25Z</time>
      </trkpt>
      <trkpt lat="53.868877999484539" lon="-9.430421004071832">
        <ele>66.950000000000003</ele>
        <time>2026-07-03T09:00:43Z</time>
      </trkpt>
      <trkpt lat="53.869649972766638" lon="-9.433218967169523">
        <ele>66.469999999999999</ele>
        <time>2026-07-03T09:00:52Z</time>
      </trkpt>
      <trkpt lat="53.870779015123844" lon="-9.435610994696617">
        <ele>65.989999999999995</ele>
        <time>2026-07-03T09:01:01Z</time>
      </trkpt>
      <trkpt lat="53.871464990079403" lon="-9.437726000323892">
        <ele>63.100000000000001</ele>
        <time>2026-07-03T09:01:08Z</time>
      </trkpt>
      <trkpt lat="53.872347017750144" lon="-9.441902032122016">
        <ele>62.140000000000001</ele>
        <time>2026-07-03T09:01:21Z</time>
      </trkpt>
      <trkpt lat="53.87283300049603" lon="-9.445881005376577">
        <ele>65.030000000000001</ele>
        <time>2026-07-03T09:01:33Z</time>
      </trkpt>
      <trkpt lat="53.873115973547101" lon="-9.448562962934375">
        <ele>66.950000000000003</ele>
        <time>2026-07-03T09:01:41Z</time>
      </trkpt>
      <trkpt lat="53.873196020722389" lon="-9.448877032846212">
        <ele>67.430000000000007</ele>
        <time>2026-07-03T09:01:42Z</time>
      </trkpt>
      <trkpt lat="53.873301967978477" lon="-9.449151959270239">
        <ele>67.430000000000007</ele>
        <time>2026-07-03T09:01:43Z</time>
      </trkpt>
      <trkpt lat="53.873425014317036" lon="-9.449423030018807">
        <ele>67.909999999999997</ele>
        <time>2026-07-03T09:01:44Z</time>
      </trkpt>
      <trkpt lat="53.873547976836562" lon="-9.44968999363482">
        <ele>67.909999999999997</ele>
        <time>2026-07-03T09:01:45Z</time>
      </trkpt>
      <trkpt lat="53.873689966276288" lon="-9.449929967522621">
        <ele>67.909999999999997</ele>
        <time>2026-07-03T09:01:46Z</time>
      </trkpt>
      <trkpt lat="53.875212036073208" lon="-9.452198026701808">
        <ele>70.790000000000006</ele>
        <time>2026-07-03T09:01:56Z</time>
      </trkpt>
      <trkpt lat="53.876103032380342" lon="-9.453636026009917">
        <ele>67.430000000000007</ele>
        <time>2026-07-03T09:02:02Z</time>
      </trkpt>
      <trkpt lat="53.876208979636431" lon="-9.453926039859653">
        <ele>66.950000000000003</ele>
        <time>2026-07-03T09:02:03Z</time>
      </trkpt>
      <trkpt lat="53.87631299905479" lon="-9.454212030395865">
        <ele>66.950000000000003</ele>
        <time>2026-07-03T09:02:04Z</time>
      </trkpt>
      <trkpt lat="53.876408971846104" lon="-9.454506989568472">
        <ele>66.950000000000003</ele>
        <time>2026-07-03T09:02:05Z</time>
      </trkpt>
      <trkpt lat="53.877494009211659" lon="-9.458917966112495">
        <ele>70.790000000000006</ele>
        <time>2026-07-03T09:02:19Z</time>
      </trkpt>
      <trkpt lat="53.878146959468722" lon="-9.462489997968078">
        <ele>71.760000000000005</ele>
        <time>2026-07-03T09:02:30Z</time>
      </trkpt>
      <trkpt lat="53.878111001104116" lon="-9.465940995141864">
        <ele>69.349999999999994</ele>
        <time>2026-07-03T09:02:40Z</time>
      </trkpt>
      <trkpt lat="53.878448959439993" lon="-9.469325020909309">
        <ele>66.950000000000003</ele>
        <time>2026-07-03T09:02:50Z</time>
      </trkpt>
      <trkpt lat="53.878489024937153" lon="-9.472037991508842">
        <ele>68.390000000000001</ele>
        <time>2026-07-03T09:02:58Z</time>
      </trkpt>
      <trkpt lat="53.878557002171874" lon="-9.472714997828007">
        <ele>68.390000000000001</ele>
        <time>2026-07-03T09:03:00Z</time>
      </trkpt>
      <trkpt lat="53.879323024302721" lon="-9.477355973795056">
        <ele>68.390000000000001</ele>
        <time>2026-07-03T09:03:14Z</time>
      </trkpt>
      <trkpt lat="53.879835996776819" lon="-9.480663975700736">
        <ele>66.950000000000003</ele>
        <time>2026-07-03T09:03:24Z</time>
      </trkpt>
      <trkpt lat="53.880661027505994" lon="-9.483418017625809">
        <ele>65.989999999999995</ele>
        <time>2026-07-03T09:03:33Z</time>
      </trkpt>
      <trkpt lat="53.881311966106296" lon="-9.486669022589922">
        <ele>64.549999999999997</ele>
        <time>2026-07-03T09:03:43Z</time>
      </trkpt>
      <trkpt lat="53.882309999316931" lon="-9.491940988227725">
        <ele>57.340000000000003</ele>
        <time>2026-07-03T09:03:59Z</time>
      </trkpt>
      <trkpt lat="53.883398976176977" lon="-9.497121004387736">
        <ele>40.990000000000002</ele>
        <time>2026-07-03T09:04:15Z</time>
      </trkpt>
      <trkpt lat="53.884363984689116" lon="-9.499304993078113">
        <ele>35.229999999999997</ele>
        <time>2026-07-03T09:04:23Z</time>
      </trkpt>
      <trkpt lat="53.88527300208807" lon="-9.501539021730423">
        <ele>33.299999999999997</ele>
        <time>2026-07-03T09:04:31Z</time>
      </trkpt>
      <trkpt lat="53.885345002636313" lon="-9.501854013651609">
        <ele>33.299999999999997</ele>
        <time>2026-07-03T09:04:32Z</time>
      </trkpt>
      <trkpt lat="53.885400993749499" lon="-9.502173028886318">
        <ele>33.780000000000001</ele>
        <time>2026-07-03T09:04:33Z</time>
      </trkpt>
      <trkpt lat="53.885786980390549" lon="-9.505526041612029">
        <ele>33.299999999999997</ele>
        <time>2026-07-03T09:04:43Z</time>
      </trkpt>
      <trkpt lat="53.886186964809895" lon="-9.508574958890677">
        <ele>29.940000000000001</ele>
        <time>2026-07-03T09:04:52Z</time>
      </trkpt>
      <trkpt lat="53.886635983362794" lon="-9.511883966624737">
        <ele>26.09</ele>
        <time>2026-07-03T09:05:02Z</time>
      </trkpt>
      <trkpt lat="53.886714018881321" lon="-9.512197030708194">
        <ele>25.609999999999999</ele>
        <time>2026-07-03T09:05:03Z</time>
      </trkpt>
      <trkpt lat="53.886802028864622" lon="-9.512499030679464">
        <ele>25.609999999999999</ele>
        <time>2026-07-03T09:05:04Z</time>
      </trkpt>
      <trkpt lat="53.888069959357381" lon="-9.515636041760445">
        <ele>20.32</ele>
        <time>2026-07-03T09:05:15Z</time>
      </trkpt>
      <trkpt lat="53.889023987576365" lon="-9.518220014870167">
        <ele>16.960000000000001</ele>
        <time>2026-07-03T09:05:24Z</time>
      </trkpt>
      <trkpt lat="53.88907503336668" lon="-9.518547998741269">
        <ele>16.960000000000001</ele>
        <time>2026-07-03T09:05:25Z</time>
      </trkpt>
      <trkpt lat="53.88909699395299" lon="-9.518884029239416">
        <ele>16.960000000000001</ele>
        <time>2026-07-03T09:05:26Z</time>
      </trkpt>
      <trkpt lat="53.889090036973357" lon="-9.51921695843339">
        <ele>16.960000000000001</ele>
        <time>2026-07-03T09:05:27Z</time>
      </trkpt>
      <trkpt lat="53.889082996174693" lon="-9.519552988931537">
        <ele>16.48</ele>
        <time>2026-07-03T09:05:28Z</time>
      </trkpt>
      <trkpt lat="53.889082996174693" lon="-9.5198829844594">
        <ele>16.48</ele>
        <time>2026-07-03T09:05:29Z</time>
      </trkpt>
      <trkpt lat="53.889106968417764" lon="-9.520194958895445">
        <ele>16</ele>
        <time>2026-07-03T09:05:30Z</time>
      </trkpt>
      <trkpt lat="53.889149967581034" lon="-9.520474998280406">
        <ele>16</ele>
        <time>2026-07-03T09:05:31Z</time>
      </trkpt>
      <trkpt lat="53.889218028634787" lon="-9.520738022401929">
        <ele>16</ele>
        <time>2026-07-03T09:05:32Z</time>
      </trkpt>
      <trkpt lat="53.889306038618088" lon="-9.520982019603252">
        <ele>15.52</ele>
        <time>2026-07-03T09:05:33Z</time>
      </trkpt>
      <trkpt lat="53.889413997530937" lon="-9.521222999319434">
        <ele>15.52</ele>
        <time>2026-07-03T09:05:34Z</time>
      </trkpt>
      <trkpt lat="53.889522040262818" lon="-9.521463979035616">
        <ele>15.52</ele>
        <time>2026-07-03T09:05:35Z</time>
      </trkpt>
      <trkpt lat="53.889632010832429" lon="-9.521694984287024">
        <ele>15.52</ele>
        <time>2026-07-03T09:05:36Z</time>
      </trkpt>
      <trkpt lat="53.889768971130252" lon="-9.521873015910387">
        <ele>15.52</ele>
        <time>2026-07-03T09:05:37Z</time>
      </trkpt>
      <trkpt lat="53.889898974448442" lon="-9.522041995078325">
        <ele>15.52</ele>
        <time>2026-07-03T09:05:38Z</time>
      </trkpt>
      <trkpt lat="53.890128973871469" lon="-9.522371990606189">
        <ele>14.56</ele>
        <time>2026-07-03T09:05:40Z</time>
      </trkpt>
      <trkpt lat="53.890197034925222" lon="-9.522554967552424">
        <ele>14.08</ele>
        <time>2026-07-03T09:05:41Z</time>
      </trkpt>
      <trkpt lat="53.890242967754602" lon="-9.522745991125703">
        <ele>13.119999999999999</ele>
        <time>2026-07-03T09:05:42Z</time>
      </trkpt>
      <trkpt lat="53.890257971361279" lon="-9.522936008870602">
        <ele>12.15</ele>
        <time>2026-07-03T09:05:43Z</time>
      </trkpt>
      <trkpt lat="53.890204997733235" lon="-9.523146981373429">
        <ele>11.19</ele>
        <time>2026-07-03T09:05:44Z</time>
      </trkpt>
      <trkpt lat="53.89015001244843" lon="-9.523366000503302">
        <ele>10.710000000000001</ele>
        <time>2026-07-03T09:05:45Z</time>
      </trkpt>
      <trkpt lat="53.890053033828735" lon="-9.52353598549962">
        <ele>9.75</ele>
        <time>2026-07-03T09:05:46Z</time>
      </trkpt>
      <trkpt lat="53.889947002753615" lon="-9.523720974102616">
        <ele>9.27</ele>
        <time>2026-07-03T09:05:47Z</time>
      </trkpt>
      <trkpt lat="53.889838038012385" lon="-9.523913003504276">
        <ele>8.789999999999999</ele>
        <time>2026-07-03T09:05:48Z</time>
      </trkpt>
      <trkpt lat="53.888564994558692" lon="-9.526029014959931">
        <ele>8.789999999999999</ele>
        <time>2026-07-03T09:05:58Z</time>
      </trkpt>
      <trkpt lat="53.887005038559437" lon="-9.528578035533428">
        <ele>8.310000000000001</ele>
        <time>2026-07-03T09:06:09Z</time>
      </trkpt>
      <trkpt lat="53.886780990287662" lon="-9.529072986915708">
        <ele>8.310000000000001</ele>
        <time>2026-07-03T09:06:12Z</time>
      </trkpt>
      <trkpt lat="53.886780990287662" lon="-9.52929200604558">
        <ele>8.310000000000001</ele>
        <time>2026-07-03T09:06:13Z</time>
      </trkpt>
      <trkpt lat="53.886789036914706" lon="-9.529404994100332">
        <ele>8.310000000000001</ele>
        <time>2026-07-03T09:06:14Z</time>
      </trkpt>
      <trkpt lat="53.88681803829968" lon="-9.529513958841562">
        <ele>8.310000000000001</ele>
        <time>2026-07-03T09:06:15Z</time>
      </trkpt>
      <trkpt lat="53.886847961694002" lon="-9.529626024886966">
        <ele>8.310000000000001</ele>
        <time>2026-07-03T09:06:16Z</time>
      </trkpt>
      <trkpt lat="53.88688500970602" lon="-9.529768014326692">
        <ele>8.310000000000001</ele>
        <time>2026-07-03T09:06:17Z</time>
      </trkpt>
      <trkpt lat="53.88690797612071" lon="-9.529932970181108">
        <ele>8.310000000000001</ele>
        <time>2026-07-03T09:06:18Z</time>
      </trkpt>
      <trkpt lat="53.886929014697671" lon="-9.530107984319329">
        <ele>8.310000000000001</ele>
        <time>2026-07-03T09:06:19Z</time>
      </trkpt>
      <trkpt lat="53.886890960857272" lon="-9.530282998457551">
        <ele>8.310000000000001</ele>
        <time>2026-07-03T09:06:20Z</time>
      </trkpt>
      <trkpt lat="53.886843016371131" lon="-9.530464969575405">
        <ele>8.310000000000001</ele>
        <time>2026-07-03T09:06:21Z</time>
      </trkpt>
      <trkpt lat="53.886791970580816" lon="-9.530664039775729">
        <ele>8.310000000000001</ele>
        <time>2026-07-03T09:06:22Z</time>
      </trkpt>
      <trkpt lat="53.886721981689334" lon="-9.53086101450026">
        <ele>8.310000000000001</ele>
        <time>2026-07-03T09:06:23Z</time>
      </trkpt>
      <trkpt lat="53.886027038097382" lon="-9.533014995977283">
        <ele>9.27</ele>
        <time>2026-07-03T09:06:32Z</time>
      </trkpt>
      <trkpt lat="53.885393030941486" lon="-9.535792004317045">
        <ele>7.35</ele>
        <time>2026-07-03T09:06:43Z</time>
      </trkpt>
      <trkpt lat="53.884882992133498" lon="-9.53835996799171">
        <ele>8.310000000000001</ele>
        <time>2026-07-03T09:06:54Z</time>
      </trkpt>
      <trkpt lat="53.884747037664056" lon="-9.539984967559576">
        <ele>10.710000000000001</ele>
        <time>2026-07-03T09:07:02Z</time>
      </trkpt>
      <trkpt lat="53.884804034605622" lon="-9.542428040876985">
        <ele>17.440000000000001</ele>
        <time>2026-07-03T09:07:14Z</time>
      </trkpt>
      <trkpt lat="53.884717030450702" lon="-9.544981000944972">
        <ele>14.08</ele>
        <time>2026-07-03T09:07:26Z</time>
      </trkpt>
      <trkpt lat="53.884684005752206" lon="-9.546004012227058">
        <ele>13.119999999999999</ele>
        <time>2026-07-03T09:07:33Z</time>
      </trkpt>
      <trkpt lat="53.884680988267064" lon="-9.546098979189992">
        <ele>14.56</ele>
        <time>2026-07-03T09:07:40Z</time>
      </trkpt>
      <trkpt lat="53.884738991037011" lon="-9.546198975294828">
        <ele>14.56</ele>
        <time>2026-07-03T09:07:44Z</time>
      </trkpt>
      <trkpt lat="53.884801017120481" lon="-9.546224037185311">
        <ele>14.56</ele>
        <time>2026-07-03T09:07:45Z</time>
      </trkpt>
      <trkpt lat="53.884874023497105" lon="-9.546253038570285">
        <ele>14.08</ele>
        <time>2026-07-03T09:07:46Z</time>
      </trkpt>
      <trkpt lat="53.885635016486049" lon="-9.546445989981294">
        <ele>15.52</ele>
        <time>2026-07-03T09:07:55Z</time>
      </trkpt>
      <trkpt lat="53.88570399954915" lon="-9.546435009688139">
        <ele>16</ele>
        <time>2026-07-03T09:07:56Z</time>
      </trkpt>
      <trkpt lat="53.885771976783872" lon="-9.546391004696488">
        <ele>16</ele>
        <time>2026-07-03T09:07:57Z</time>
      </trkpt>
      <trkpt lat="53.885834002867341" lon="-9.546327972784638">
        <ele>16.48</ele>
        <time>2026-07-03T09:07:58Z</time>
      </trkpt>
      <trkpt lat="53.885897034779191" lon="-9.546276004984975">
        <ele>16.960000000000001</ele>
        <time>2026-07-03T09:07:59Z</time>
      </trkpt>
      <trkpt lat="53.885970963165164" lon="-9.546245997771621">
        <ele>16.960000000000001</ele>
        <time>2026-07-03T09:08:00Z</time>
      </trkpt>
      <trkpt lat="53.886050004512072" lon="-9.546214984729886">
        <ele>16.48</ele>
        <time>2026-07-03T09:08:01Z</time>
      </trkpt>
      <trkpt lat="53.886136002838612" lon="-9.546180032193661">
        <ele>16</ele>
        <time>2026-07-03T09:08:02Z</time>
      </trkpt>
      <trkpt lat="53.886309005320072" lon="-9.546110965311527">
        <ele>14.56</ele>
        <time>2026-07-03T09:08:04Z</time>
      </trkpt>
      <trkpt lat="53.886401038616896" lon="-9.545999988913536">
        <ele>13.6</ele>
        <time>2026-07-03T09:08:05Z</time>
      </trkpt>
      <trkpt lat="53.886484019458294" lon="-9.545902004465461">
        <ele>12.630000000000001</ele>
        <time>2026-07-03T09:08:06Z</time>
      </trkpt>
      <trkpt lat="53.886550990864635" lon="-9.54579102806747">
        <ele>12.15</ele>
        <time>2026-07-03T09:08:07Z</time>
      </trkpt>
      <trkpt lat="53.886603964492679" lon="-9.545666975900531">
        <ele>12.15</ele>
        <time>2026-07-03T09:08:08Z</time>
      </trkpt>
      <trkpt lat="53.886656016111374" lon="-9.545545019209385">
        <ele>11.67</ele>
        <time>2026-07-03T09:08:09Z</time>
      </trkpt>
      <trkpt lat="53.886711001396179" lon="-9.545416021719575">
        <ele>11.67</ele>
        <time>2026-07-03T09:08:10Z</time>
      </trkpt>
      <trkpt lat="53.886780990287662" lon="-9.545251987874508">
        <ele>11.19</ele>
        <time>2026-07-03T09:08:11Z</time>
      </trkpt>
      <trkpt lat="53.886915016919374" lon="-9.544813027605414">
        <ele>10.710000000000001</ele>
        <time>2026-07-03T09:08:14Z</time>
      </trkpt>
      <trkpt lat="53.88697100803256" lon="-9.544725017622113">
        <ele>10.710000000000001</ele>
        <time>2026-07-03T09:08:15Z</time>
      </trkpt>
      <trkpt lat="53.887030016630888" lon="-9.544672966003418">
        <ele>11.19</ele>
        <time>2026-07-03T09:08:16Z</time>
      </trkpt>
      <trkpt lat="53.887090031057596" lon="-9.544619992375374">
        <ele>11.67</ele>
        <time>2026-07-03T09:08:17Z</time>
      </trkpt>
      <trkpt lat="53.88716496527195" lon="-9.544628961011767">
        <ele>12.15</ele>
        <time>2026-07-03T09:08:18Z</time>
      </trkpt>
      <trkpt lat="53.887238977476954" lon="-9.54465402290225">
        <ele>12.15</ele>
        <time>2026-07-03T09:08:19Z</time>
      </trkpt>
      <trkpt lat="53.887319024652243" lon="-9.544680006802082">
        <ele>12.15</ele>
        <time>2026-07-03T09:08:20Z</time>
      </trkpt>
      <trkpt lat="53.887410974130034" lon="-9.544728035107255">
        <ele>12.15</ele>
        <time>2026-07-03T09:08:21Z</time>
      </trkpt>
      <trkpt lat="53.888042969629169" lon="-9.545131959021092">
        <ele>10.23</ele>
        <time>2026-07-03T09:08:27Z</time>
      </trkpt>
      <trkpt lat="53.888158975169063" lon="-9.545157020911574">
        <ele>10.23</ele>
        <time>2026-07-03T09:08:28Z</time>
      </trkpt>
      <trkpt lat="53.888277998194098" lon="-9.545181998983026">
        <ele>10.710000000000001</ele>
        <time>2026-07-03T09:08:29Z</time>
      </trkpt>
      <trkpt lat="53.888400960713625" lon="-9.545180993154645">
        <ele>10.710000000000001</ele>
        <time>2026-07-03T09:08:30Z</time>
      </trkpt>
      <trkpt lat="53.888521995395422" lon="-9.545171018689871">
        <ele>10.710000000000001</ele>
        <time>2026-07-03T09:08:31Z</time>
      </trkpt>
      <trkpt lat="53.888885015621781" lon="-9.545156015083194">
        <ele>10.710000000000001</ele>
        <time>2026-07-03T09:08:34Z</time>
      </trkpt>
      <trkpt lat="53.889000015333295" lon="-9.545214017853141">
        <ele>10.710000000000001</ele>
        <time>2026-07-03T09:08:35Z</time>
      </trkpt>
      <trkpt lat="53.889115015044808" lon="-9.545271014794707">
        <ele>11.19</ele>
        <time>2026-07-03T09:08:36Z</time>
      </trkpt>
      <trkpt lat="53.890126962214708" lon="-9.546170979738236">
        <ele>13.119999999999999</ele>
        <time>2026-07-03T09:08:45Z</time>
      </trkpt>
      <trkpt lat="53.891339991241693" lon="-9.546894002705813">
        <ele>19.84</ele>
        <time>2026-07-03T09:08:54Z</time>
      </trkpt>
      <trkpt lat="53.892768016085029" lon="-9.547504959627986">
        <ele>18.879999999999999</ele>
        <time>2026-07-03T09:09:04Z</time>
      </trkpt>
      <trkpt lat="53.892876980826259" lon="-9.547623982653022">
        <ele>18.399999999999999</ele>
        <time>2026-07-03T09:09:05Z</time>
      </trkpt>
      <trkpt lat="53.89298896305263" lon="-9.54774702899158">
        <ele>17.920000000000002</ele>
        <time>2026-07-03T09:09:06Z</time>
      </trkpt>
      <trkpt lat="53.89380200766027" lon="-9.549214029684663">
        <ele>12.630000000000001</ele>
        <time>2026-07-03T09:09:15Z</time>
      </trkpt>
      <trkpt lat="53.894693003967404" lon="-9.551573032513261">
        <ele>15.52</ele>
        <time>2026-07-03T09:09:27Z</time>
      </trkpt>
      <trkpt lat="53.895067004486918" lon="-9.552707020193338">
        <ele>17.920000000000002</ele>
        <time>2026-07-03T09:09:36Z</time>
      </trkpt>
      <trkpt lat="53.895192984491587" lon="-9.553116979077458">
        <ele>19.84</ele>
        <time>2026-07-03T09:09:44Z</time>
      </trkpt>
      <trkpt lat="53.895192984491587" lon="-9.553116979077458">
        <ele>19.84</ele>
        <time>2026-07-03T09:10:24Z</time>
      </trkpt>
      <trkpt lat="53.895292980596423" lon="-9.553444040939212">
        <ele>21.77</ele>
        <time>2026-07-03T09:10:52Z</time>
      </trkpt>
      <trkpt lat="53.895625993609428" lon="-9.554525977000594">
        <ele>22.73</ele>
        <time>2026-07-03T09:11:02Z</time>
      </trkpt>
      <trkpt lat="53.896104013547301" lon="-9.556069001555443">
        <ele>23.210000000000001</ele>
        <time>2026-07-03T09:11:12Z</time>
      </trkpt>
      <trkpt lat="53.896765010431409" lon="-9.557672962546349">
        <ele>21.77</ele>
        <time>2026-07-03T09:11:23Z</time>
      </trkpt>
      <trkpt lat="53.897552993148565" lon="-9.559465013444424">
        <ele>19.359999999999999</ele>
        <time>2026-07-03T09:11:35Z</time>
      </trkpt>
      <trkpt lat="53.898256989195943" lon="-9.561126977205277">
        <ele>14.56</ele>
        <time>2026-07-03T09:11:46Z</time>
      </trkpt>
      <trkpt lat="53.898728974163532" lon="-9.562331959605217">
        <ele>17.920000000000002</ele>
        <time>2026-07-03T09:11:56Z</time>
      </trkpt>
      <trkpt lat="53.89876501634717" lon="-9.56242298707366">
        <ele>18.399999999999999</ele>
        <time>2026-07-03T09:11:57Z</time>
      </trkpt>
      <trkpt lat="53.898798041045666" lon="-9.562504040077329">
        <ele>18.399999999999999</ele>
        <time>2026-07-03T09:11:58Z</time>
      </trkpt>
      <trkpt lat="53.898769039660692" lon="-9.562607975676656">
        <ele>18.399999999999999</ele>
        <time>2026-07-03T09:11:59Z</time>
      </trkpt>
      <trkpt lat="53.898746995255351" lon="-9.562687017023563">
        <ele>18.399999999999999</ele>
        <time>2026-07-03T09:12:00Z</time>
      </trkpt>
      <trkpt lat="53.898721011355519" lon="-9.562782989814878">
        <ele>18.399999999999999</ele>
        <time>2026-07-03T09:12:01Z</time>
      </trkpt>
      <trkpt lat="53.898688992485404" lon="-9.562900001183152">
        <ele>18.399999999999999</ele>
        <time>2026-07-03T09:12:02Z</time>
      </trkpt>
      <trkpt lat="53.898654039949179" lon="-9.563026987016201">
        <ele>18.399999999999999</ele>
        <time>2026-07-03T09:12:03Z</time>
      </trkpt>
      <trkpt lat="53.89863702468574" lon="-9.563195966184139">
        <ele>18.399999999999999</ele>
        <time>2026-07-03T09:12:04Z</time>
      </trkpt>
      <trkpt lat="53.89865898527205" lon="-9.563340973109007">
        <ele>17.920000000000002</ele>
        <time>2026-07-03T09:12:05Z</time>
      </trkpt>
      <trkpt lat="53.898683041334152" lon="-9.563500983640552">
        <ele>17.920000000000002</ele>
        <time>2026-07-03T09:12:06Z</time>
      </trkpt>
      <trkpt lat="53.898709025233984" lon="-9.56366996280849">
        <ele>17.440000000000001</ele>
        <time>2026-07-03T09:12:07Z</time>
      </trkpt>
      <trkpt lat="53.898736014962196" lon="-9.563844976946712">
        <ele>16.960000000000001</ele>
        <time>2026-07-03T09:12:08Z</time>
      </trkpt>
      <trkpt lat="53.898979006335139" lon="-9.565346008166671">
        <ele>12.15</ele>
        <time>2026-07-03T09:12:16Z</time>
      </trkpt>
      <trkpt lat="53.899019993841648" lon="-9.56549596041441">
        <ele>12.15</ele>
        <time>2026-07-03T09:12:17Z</time>
      </trkpt>
      <trkpt lat="53.899061987176538" lon="-9.565651025623083">
        <ele>12.15</ele>
        <time>2026-07-03T09:12:18Z</time>
      </trkpt>
      <trkpt lat="53.899201964959502" lon="-9.566166009753943">
        <ele>13.119999999999999</ele>
        <time>2026-07-03T09:12:21Z</time>
      </trkpt>
      <trkpt lat="53.899227026849985" lon="-9.566342029720545">
        <ele>13.119999999999999</ele>
        <time>2026-07-03T09:12:22Z</time>
      </trkpt>
      <trkpt lat="53.899227026849985" lon="-9.566529029980302">
        <ele>13.119999999999999</ele>
        <time>2026-07-03T09:12:23Z</time>
      </trkpt>
      <trkpt lat="53.899227026849985" lon="-9.566722987219691">
        <ele>13.6</ele>
        <time>2026-07-03T09:12:24Z</time>
      </trkpt>
      <trkpt lat="53.899201964959502" lon="-9.566902024671435">
        <ele>13.6</ele>
        <time>2026-07-03T09:12:25Z</time>
      </trkpt>
      <trkpt lat="53.89917598105967" lon="-9.567077960819006">
        <ele>13.6</ele>
        <time>2026-07-03T09:12:26Z</time>
      </trkpt>
      <trkpt lat="53.89913197606802" lon="-9.567378032952547">
        <ele>13.119999999999999</ele>
        <time>2026-07-03T09:12:28Z</time>
      </trkpt>
      <trkpt lat="53.899122001603246" lon="-9.56753502599895">
        <ele>12.630000000000001</ele>
        <time>2026-07-03T09:12:29Z</time>
      </trkpt>
      <trkpt lat="53.899122001603246" lon="-9.568282021209598">
        <ele>12.15</ele>
        <time>2026-07-03T09:12:34Z</time>
      </trkpt>
      <trkpt lat="53.899112027138472" lon="-9.568392997607589">
        <ele>12.15</ele>
        <time>2026-07-03T09:12:35Z</time>
      </trkpt>
      <trkpt lat="53.899101968854666" lon="-9.56850397400558">
        <ele>12.15</ele>
        <time>2026-07-03T09:12:36Z</time>
      </trkpt>
      <trkpt lat="53.89908998273313" lon="-9.568631965667009">
        <ele>12.15</ele>
        <time>2026-07-03T09:12:37Z</time>
      </trkpt>
      <trkpt lat="53.899076990783215" lon="-9.568773033097386">
        <ele>12.15</ele>
        <time>2026-07-03T09:12:38Z</time>
      </trkpt>
      <trkpt lat="53.899071039631963" lon="-9.568916028365493">
        <ele>12.15</ele>
        <time>2026-07-03T09:12:39Z</time>
      </trkpt>
      <trkpt lat="53.899065004661679" lon="-9.56906002946198">
        <ele>11.67</ele>
        <time>2026-07-03T09:12:40Z</time>
      </trkpt>
      <trkpt lat="53.899059975519776" lon="-9.569200007244945">
        <ele>11.19</ele>
        <time>2026-07-03T09:12:41Z</time>
      </trkpt>
      <trkpt lat="53.899055030196905" lon="-9.569337973371148">
        <ele>11.19</ele>
        <time>2026-07-03T09:12:42Z</time>
      </trkpt>
      <trkpt lat="53.898994009941816" lon="-9.570905975997448">
        <ele>8.789999999999999</ele>
        <time>2026-07-03T09:12:55Z</time>
      </trkpt>
      <trkpt lat="53.898990992456675" lon="-9.570979988202453">
        <ele>8.310000000000001</ele>
        <time>2026-07-03T09:13:03Z</time>
      </trkpt>
      <trkpt lat="53.89906701631844" lon="-9.571202024817467">
        <ele>7.35</ele>
        <time>2026-07-03T09:13:14Z</time>
      </trkpt>
      <trkpt lat="53.89906701631844" lon="-9.571192972362042">
        <ele>7.83</ele>
        <time>2026-07-03T09:13:30Z</time>
      </trkpt>
      <trkpt lat="53.899074979126453" lon="-9.57125399261713">
        <ele>-4.67</ele>
        <time>2026-07-03T09:24:53Z</time>
      </trkpt>
      <trkpt lat="53.899058969691396" lon="-9.571225997060537">
        <ele>5.42</ele>
        <time>2026-07-03T09:25:31Z</time>
      </trkpt>
      <trkpt lat="53.899039020761847" lon="-9.571214010939002">
        <ele>13.119999999999999</ele>
        <time>2026-07-03T09:26:15Z</time>
      </trkpt>
      <trkpt lat="53.898990992456675" lon="-9.570979988202453">
        <ele>8.310000000000001</ele>
        <time>2026-07-03T09:26:44Z</time>
      </trkpt>
      <trkpt lat="53.898990992456675" lon="-9.570979988202453">
        <ele>8.310000000000001</ele>
        <time>2026-07-03T09:26:45Z</time>
      </trkpt>
      <trkpt lat="53.898995015770197" lon="-9.570858031511307">
        <ele>8.310000000000001</ele>
        <time>2026-07-03T09:26:46Z</time>
      </trkpt>
      <trkpt lat="53.899053018540144" lon="-9.569368986412883">
        <ele>8.310000000000001</ele>
        <time>2026-07-03T09:26:55Z</time>
      </trkpt>
      <trkpt lat="53.899072967469692" lon="-9.568873029202223">
        <ele>8.789999999999999</ele>
        <time>2026-07-03T09:26:58Z</time>
      </trkpt>
      <trkpt lat="53.899090988561511" lon="-9.568621991202235">
        <ele>8.310000000000001</ele>
        <time>2026-07-03T09:27:00Z</time>
      </trkpt>
      <trkpt lat="53.899100963026285" lon="-9.568507997319102">
        <ele>8.310000000000001</ele>
        <time>2026-07-03T09:27:01Z</time>
      </trkpt>
      <trkpt lat="53.899112027138472" lon="-9.568396015092731">
        <ele>7.83</ele>
        <time>2026-07-03T09:27:02Z</time>
      </trkpt>
      <trkpt lat="53.899133987724781" lon="-9.568156963214278">
        <ele>7.83</ele>
        <time>2026-07-03T09:27:04Z</time>
      </trkpt>
      <trkpt lat="53.899139016866684" lon="-9.568029977381229">
        <ele>7.83</ele>
        <time>2026-07-03T09:27:05Z</time>
      </trkpt>
      <trkpt lat="53.899133987724781" lon="-9.567888993769884">
        <ele>8.310000000000001</ele>
        <time>2026-07-03T09:27:06Z</time>
      </trkpt>
      <trkpt lat="53.899142034351826" lon="-9.567307960242033">
        <ele>8.310000000000001</ele>
        <time>2026-07-03T09:27:10Z</time>
      </trkpt>
      <trkpt lat="53.899160977452993" lon="-9.567176029086113">
        <ele>8.310000000000001</ele>
        <time>2026-07-03T09:27:11Z</time>
      </trkpt>
      <trkpt lat="53.899227026849985" lon="-9.566716030240059">
        <ele>7.83</ele>
        <time>2026-07-03T09:27:14Z</time>
      </trkpt>
      <trkpt lat="53.899227026849985" lon="-9.566553002223373">
        <ele>7.83</ele>
        <time>2026-07-03T09:27:15Z</time>
      </trkpt>
      <trkpt lat="53.899227026849985" lon="-9.566388968378305">
        <ele>7.83</ele>
        <time>2026-07-03T09:27:16Z</time>
      </trkpt>
      <trkpt lat="53.899215962737799" lon="-9.566220995038748">
        <ele>7.83</ele>
        <time>2026-07-03T09:27:17Z</time>
      </trkpt>
      <trkpt lat="53.899176986888051" lon="-9.5660749822855">
        <ele>7.83</ele>
        <time>2026-07-03T09:27:18Z</time>
      </trkpt>
      <trkpt lat="53.899137005209923" lon="-9.565928969532251">
        <ele>8.310000000000001</ele>
        <time>2026-07-03T09:27:19Z</time>
      </trkpt>
      <trkpt lat="53.899098029360175" lon="-9.565784968435764">
        <ele>8.310000000000001</ele>
        <time>2026-07-03T09:27:20Z</time>
      </trkpt>
      <trkpt lat="53.899059975519776" lon="-9.565643984824419">
        <ele>8.310000000000001</ele>
        <time>2026-07-03T09:27:21Z</time>
      </trkpt>
      <trkpt lat="53.898989986628294" lon="-9.565383978188038">
        <ele>9.27</ele>
        <time>2026-07-03T09:27:23Z</time>
      </trkpt>
      <trkpt lat="53.898947993293405" lon="-9.565230002626777">
        <ele>9.27</ele>
        <time>2026-07-03T09:27:24Z</time>
      </trkpt>
      <trkpt lat="53.898933995515108" lon="-9.565137969329953">
        <ele>9.27</ele>
        <time>2026-07-03T09:27:25Z</time>
      </trkpt>
      <trkpt lat="53.898913040757179" lon="-9.56500100903213">
        <ele>8.789999999999999</ele>
        <time>2026-07-03T09:27:26Z</time>
      </trkpt>
      <trkpt lat="53.898893008008599" lon="-9.564868994057179">
        <ele>8.789999999999999</ele>
        <time>2026-07-03T09:27:27Z</time>
      </trkpt>
      <trkpt lat="53.898657979443669" lon="-9.563338039442897">
        <ele>10.23</ele>
        <time>2026-07-03T09:27:38Z</time>
      </trkpt>
      <trkpt lat="53.898642975836992" lon="-9.56323703750968">
        <ele>10.710000000000001</ele>
        <time>2026-07-03T09:27:39Z</time>
      </trkpt>
      <trkpt lat="53.898628978058696" lon="-9.563149027526379">
        <ele>10.710000000000001</ele>
        <time>2026-07-03T09:27:40Z</time>
      </trkpt>
      <trkpt lat="53.898752024397254" lon="-9.562671007588506">
        <ele>13.6</ele>
        <time>2026-07-03T09:27:49Z</time>
      </trkpt>
      <trkpt lat="53.898823019117117" lon="-9.56257201731205">
        <ele>14.08</ele>
        <time>2026-07-03T09:28:02Z</time>
      </trkpt>
      <trkpt lat="53.898837016895413" lon="-9.562610993161798">
        <ele>14.56</ele>
        <time>2026-07-03T09:28:03Z</time>
      </trkpt>
      <trkpt lat="53.898869035765529" lon="-9.562695985659957">
        <ele>14.56</ele>
        <time>2026-07-03T09:28:04Z</time>
      </trkpt>
      <trkpt lat="53.898909017443657" lon="-9.562805034220219">
        <ele>14.56</ele>
        <time>2026-07-03T09:28:05Z</time>
      </trkpt>
      <trkpt lat="53.898956039920449" lon="-9.562930008396506">
        <ele>14.56</ele>
        <time>2026-07-03T09:28:06Z</time>
      </trkpt>
      <trkpt lat="53.899506982415915" lon="-9.564301958307624">
        <ele>14.08</ele>
        <time>2026-07-03T09:28:14Z</time>
      </trkpt>
      <trkpt lat="53.900357997044921" lon="-9.566722987219691">
        <ele>11.67</ele>
        <time>2026-07-03T09:28:25Z</time>
      </trkpt>
      <trkpt lat="53.901313031092286" lon="-9.569522039964795">
        <ele>9.27</ele>
        <time>2026-07-03T09:28:39Z</time>
      </trkpt>
      <trkpt lat="53.902179971337318" lon="-9.572114981710911">
        <ele>8.310000000000001</ele>
        <time>2026-07-03T09:28:52Z</time>
      </trkpt>
      <trkpt lat="53.902951022610068" lon="-9.574395027011633">
        <ele>6.87</ele>
        <time>2026-07-03T09:29:04Z</time>
      </trkpt>
      <trkpt lat="53.903385037556291" lon="-9.575705034658313">
        <ele>8.789999999999999</ele>
        <time>2026-07-03T09:29:11Z</time>
      </trkpt>
      <trkpt lat="53.903446979820728" lon="-9.575907038524747">
        <ele>9.27</ele>
        <time>2026-07-03T09:29:12Z</time>
      </trkpt>
      <trkpt lat="53.903488973155618" lon="-9.576112981885672">
        <ele>9.27</ele>
        <time>2026-07-03T09:29:13Z</time>
      </trkpt>
      <trkpt lat="53.903514035046101" lon="-9.57632202655077">
        <ele>9.27</ele>
        <time>2026-07-03T09:29:14Z</time>
      </trkpt>
      <trkpt lat="53.903540018945932" lon="-9.5765380281955">
        <ele>9.75</ele>
        <time>2026-07-03T09:29:15Z</time>
      </trkpt>
      <trkpt lat="53.903527026996017" lon="-9.576737014576793">
        <ele>9.75</ele>
        <time>2026-07-03T09:29:16Z</time>
      </trkpt>
      <trkpt lat="53.90351302921772" lon="-9.576945975422859">
        <ele>9.75</ele>
        <time>2026-07-03T09:29:17Z</time>
      </trkpt>
      <trkpt lat="53.903500037267804" lon="-9.577158959582448">
        <ele>9.75</ele>
        <time>2026-07-03T09:29:18Z</time>
      </trkpt>
      <trkpt lat="53.903286969289184" lon="-9.57883701659739">
        <ele>7.83</ele>
        <time>2026-07-03T09:29:27Z</time>
      </trkpt>
      <trkpt lat="53.903097035363317" lon="-9.580527981743217">
        <ele>11.67</ele>
        <time>2026-07-03T09:29:39Z</time>
      </trkpt>
      <trkpt lat="53.903055964037776" lon="-9.580911034718156">
        <ele>11.19</ele>
        <time>2026-07-03T09:29:45Z</time>
      </trkpt>
      <trkpt lat="53.903055964037776" lon="-9.580911034718156">
        <ele>11.19</ele>
        <time>2026-07-03T09:29:59Z</time>
      </trkpt>
      <trkpt lat="53.903034003451467" lon="-9.581110021099448">
        <ele>11.67</ele>
        <time>2026-07-03T09:30:39Z</time>
      </trkpt>
      <trkpt lat="53.902882961556315" lon="-9.58231701515615">
        <ele>14.08</ele>
        <time>2026-07-03T09:30:50Z</time>
      </trkpt>
      <trkpt lat="53.902770979329944" lon="-9.584026001393795">
        <ele>17.920000000000002</ele>
        <time>2026-07-03T09:31:01Z</time>
      </trkpt>
      <trkpt lat="53.902672994881868" lon="-9.585932968184352">
        <ele>19.84</ele>
        <time>2026-07-03T09:31:13Z</time>
      </trkpt>
      <trkpt lat="53.902468979358673" lon="-9.588221982121468">
        <ele>23.210000000000001</ele>
        <time>2026-07-03T09:31:25Z</time>
      </trkpt>
      <trkpt lat="53.902309974655509" lon="-9.589991988614202">
        <ele>26.57</ele>
        <time>2026-07-03T09:31:36Z</time>
      </trkpt>
      <trkpt lat="53.902221964672208" lon="-9.59097602404654">
        <ele>27.530000000000001</ele>
        <time>2026-07-03T09:31:43Z</time>
      </trkpt>
      <trkpt lat="53.902209978550673" lon="-9.591108039021492">
        <ele>27.050000000000001</ele>
        <time>2026-07-03T09:31:44Z</time>
      </trkpt>
      <trkpt lat="53.902200004085898" lon="-9.591226978227496">
        <ele>27.050000000000001</ele>
        <time>2026-07-03T09:31:45Z</time>
      </trkpt>
      <trkpt lat="53.902191035449505" lon="-9.591328985989094">
        <ele>26.57</ele>
        <time>2026-07-03T09:31:46Z</time>
      </trkpt>
      <trkpt lat="53.90218298882246" lon="-9.591419007629156">
        <ele>26.57</ele>
        <time>2026-07-03T09:31:47Z</time>
      </trkpt>
      <trkpt lat="53.902175026014447" lon="-9.591506011784077">
        <ele>26.57</ele>
        <time>2026-07-03T09:31:48Z</time>
      </trkpt>
      <trkpt lat="53.902167985215783" lon="-9.591586980968714">
        <ele>27.050000000000001</ele>
        <time>2026-07-03T09:31:49Z</time>
      </trkpt>
      <trkpt lat="53.90216002240777" lon="-9.591671973466873">
        <ele>27.050000000000001</ele>
        <time>2026-07-03T09:31:50Z</time>
      </trkpt>
      <trkpt lat="53.902151975780725" lon="-9.591767024248838">
        <ele>26.57</ele>
        <time>2026-07-03T09:31:51Z</time>
      </trkpt>
      <trkpt lat="53.902142001315951" lon="-9.591872971504927">
        <ele>27.050000000000001</ele>
        <time>2026-07-03T09:31:52Z</time>
      </trkpt>
      <trkpt lat="53.902131021022797" lon="-9.591995012015104">
        <ele>27.050000000000001</ele>
        <time>2026-07-03T09:31:53Z</time>
      </trkpt>
      <trkpt lat="53.902119034901261" lon="-9.592129960656166">
        <ele>26.57</ele>
        <time>2026-07-03T09:31:54Z</time>
      </trkpt>
      <trkpt lat="53.901972016319633" lon="-9.59376996383071">
        <ele>25.609999999999999</ele>
        <time>2026-07-03T09:32:03Z</time>
      </trkpt>
      <trkpt lat="53.90185902826488" lon="-9.5950379781425">
        <ele>27.530000000000001</ele>
        <time>2026-07-03T09:32:11Z</time>
      </trkpt>
      <trkpt lat="53.901797002181411" lon="-9.59578899666667">
        <ele>28.98</ele>
        <time>2026-07-03T09:32:19Z</time>
      </trkpt>
      <trkpt lat="53.901711003854871" lon="-9.597801994532347">
        <ele>28.98</ele>
        <time>2026-07-03T09:32:30Z</time>
      </trkpt>
      <trkpt lat="53.901662975549698" lon="-9.598917039111257">
        <ele>27.050000000000001</ele>
        <time>2026-07-03T09:32:36Z</time>
      </trkpt>
      <trkpt lat="53.901656018570065" lon="-9.599095992743969">
        <ele>27.050000000000001</ele>
        <time>2026-07-03T09:32:37Z</time>
      </trkpt>
      <trkpt lat="53.901647971943021" lon="-9.599272012710571">
        <ele>26.57</ele>
        <time>2026-07-03T09:32:38Z</time>
      </trkpt>
      <trkpt lat="53.901615031063557" lon="-9.600052032619715">
        <ele>24.170000000000002</ele>
        <time>2026-07-03T09:32:42Z</time>
      </trkpt>
      <trkpt lat="53.901605978608131" lon="-9.600269040092826">
        <ele>23.210000000000001</ele>
        <time>2026-07-03T09:32:43Z</time>
      </trkpt>
      <trkpt lat="53.901596004143357" lon="-9.600484035909176">
        <ele>22.73</ele>
        <time>2026-07-03T09:32:44Z</time>
      </trkpt>
      <trkpt lat="53.901587035506964" lon="-9.600699031725526">
        <ele>22.73</ele>
        <time>2026-07-03T09:32:45Z</time>
      </trkpt>
      <trkpt lat="53.901587035506964" lon="-9.600890977308154">
        <ele>22.25</ele>
        <time>2026-07-03T09:32:46Z</time>
      </trkpt>
      <trkpt lat="53.901562979444861" lon="-9.60225697606802">
        <ele>20.32</ele>
        <time>2026-07-03T09:32:53Z</time>
      </trkpt>
      <trkpt lat="53.90155803412199" lon="-9.602439031004906">
        <ele>19.84</ele>
        <time>2026-07-03T09:32:54Z</time>
      </trkpt>
      <trkpt lat="53.901543030515313" lon="-9.603140009567142">
        <ele>19.359999999999999</ele>
        <time>2026-07-03T09:32:58Z</time>
      </trkpt>
      <trkpt lat="53.901539007201791" lon="-9.603316029533744">
        <ele>19.359999999999999</ele>
        <time>2026-07-03T09:32:59Z</time>
      </trkpt>
      <trkpt lat="53.901501037180424" lon="-9.60498696193099">
        <ele>16.48</ele>
        <time>2026-07-03T09:33:07Z</time>
      </trkpt>
      <trkpt lat="53.90147396363318" lon="-9.607659028843045">
        <ele>20.32</ele>
        <time>2026-07-03T09:33:19Z</time>
      </trkpt>
      <trkpt lat="53.901464994996786" lon="-9.608940035104752">
        <ele>22.25</ele>
        <time>2026-07-03T09:33:26Z</time>
      </trkpt>
      <trkpt lat="53.901448985561728" lon="-9.611070966348052">
        <ele>21.77</ele>
        <time>2026-07-03T09:33:35Z</time>
      </trkpt>
      <trkpt lat="53.901449991390109" lon="-9.613597020506859">
        <ele>17.440000000000001</ele>
        <time>2026-07-03T09:33:46Z</time>
      </trkpt>
      <trkpt lat="53.901443034410477" lon="-9.616180993616581">
        <ele>16</ele>
        <time>2026-07-03T09:33:57Z</time>
      </trkpt>
      <trkpt lat="53.9015799947083" lon="-9.618321983143687">
        <ele>18.399999999999999</ele>
        <time>2026-07-03T09:34:07Z</time>
      </trkpt>
      <trkpt lat="53.901922982186079" lon="-9.619413977488875">
        <ele>21.289999999999999</ele>
        <time>2026-07-03T09:34:12Z</time>
      </trkpt>
      <trkpt lat="53.902018032968044" lon="-9.619643976911902">
        <ele>22.25</ele>
        <time>2026-07-03T09:34:13Z</time>
      </trkpt>
      <trkpt lat="53.902122974395752" lon="-9.619870958849788">
        <ele>22.73</ele>
        <time>2026-07-03T09:34:14Z</time>
      </trkpt>
      <trkpt lat="53.902960997074842" lon="-9.621516996994615">
        <ele>24.649999999999999</ele>
        <time>2026-07-03T09:34:21Z</time>
      </trkpt>
      <trkpt lat="53.903057975694537" lon="-9.621783960610628">
        <ele>24.649999999999999</ele>
        <time>2026-07-03T09:34:22Z</time>
      </trkpt>
      <trkpt lat="53.903792984783649" lon="-9.624716034159064">
        <ele>19.84</ele>
        <time>2026-07-03T09:34:31Z</time>
      </trkpt>
      <trkpt lat="53.904671994969249" lon="-9.628729037940502">
        <ele>23.210000000000001</ele>
        <time>2026-07-03T09:34:43Z</time>
      </trkpt>
      <trkpt lat="53.905109027400613" lon="-9.631456006318331">
        <ele>26.57</ele>
        <time>2026-07-03T09:34:52Z</time>
      </trkpt>
      <trkpt lat="53.905151020735502" lon="-9.634643979370594">
        <ele>21.289999999999999</ele>
        <time>2026-07-03T09:35:02Z</time>
      </trkpt>
      <trkpt lat="53.905030991882086" lon="-9.640330011025071">
        <ele>28.02</ele>
        <time>2026-07-03T09:35:19Z</time>
      </trkpt>
      <trkpt lat="53.904955973848701" lon="-9.644850958138704">
        <ele>34.259999999999998</ele>
        <time>2026-07-03T09:35:33Z</time>
      </trkpt>
      <trkpt lat="53.905135011300445" lon="-9.647043999284506">
        <ele>35.710000000000001</ele>
        <time>2026-07-03T09:35:40Z</time>
      </trkpt>
      <trkpt lat="53.905699029564857" lon="-9.65210197493434">
        <ele>37.149999999999999</ele>
        <time>2026-07-03T09:35:55Z</time>
      </trkpt>
      <trkpt lat="53.906105970963836" lon="-9.656310025602579">
        <ele>30.420000000000002</ele>
        <time>2026-07-03T09:36:08Z</time>
      </trkpt>
      <trkpt lat="53.906442001461983" lon="-9.660203000530601">
        <ele>28.98</ele>
        <time>2026-07-03T09:36:20Z</time>
      </trkpt>
      <trkpt lat="53.906775014474988" lon="-9.664073009043932">
        <ele>34.259999999999998</ele>
        <time>2026-07-03T09:36:32Z</time>
      </trkpt>
      <trkpt lat="53.907008031383157" lon="-9.667745037004352">
        <ele>40.030000000000001</ele>
        <time>2026-07-03T09:36:44Z</time>
      </trkpt>
      <trkpt lat="53.906682981178164" lon="-9.67012700624764">
        <ele>40.509999999999998</ele>
        <time>2026-07-03T09:36:52Z</time>
      </trkpt>
      <trkpt lat="53.906090967357159" lon="-9.674114026129246">
        <ele>34.259999999999998</ele>
        <time>2026-07-03T09:37:04Z</time>
      </trkpt>
      <trkpt lat="53.905542036518455" lon="-9.678414026275277">
        <ele>31.379999999999999</ele>
        <time>2026-07-03T09:37:17Z</time>
      </trkpt>
      <trkpt lat="53.904725974425673" lon="-9.682860039174557">
        <ele>24.170000000000002</ele>
        <time>2026-07-03T09:37:30Z</time>
      </trkpt>
      <trkpt lat="53.904081992805004" lon="-9.686671039089561">
        <ele>29.940000000000001</ele>
        <time>2026-07-03T09:37:42Z</time>
      </trkpt>
      <trkpt lat="53.903602967038751" lon="-9.689475037157536">
        <ele>33.780000000000001</ele>
        <time>2026-07-03T09:37:53Z</time>
      </trkpt>
      <trkpt lat="53.903644038364291" lon="-9.691786011680961">
        <ele>31.859999999999999</ele>
        <time>2026-07-03T09:38:01Z</time>
      </trkpt>
      <trkpt lat="53.904173020273447" lon="-9.694867031648755">
        <ele>22.25</ele>
        <time>2026-07-03T09:38:11Z</time>
      </trkpt>
      <trkpt lat="53.904306963086128" lon="-9.697489980608225">
        <ele>22.25</ele>
        <time>2026-07-03T09:38:19Z</time>
      </trkpt>
      <trkpt lat="53.9041150175035" lon="-9.698668979108334">
        <ele>24.649999999999999</ele>
        <time>2026-07-03T09:38:23Z</time>
      </trkpt>
      <trkpt lat="53.904045028612018" lon="-9.698923034593463">
        <ele>25.129999999999999</ele>
        <time>2026-07-03T09:38:24Z</time>
      </trkpt>
      <trkpt lat="53.903955006971955" lon="-9.699143981561065">
        <ele>25.609999999999999</ele>
        <time>2026-07-03T09:38:25Z</time>
      </trkpt>
      <trkpt lat="53.903869008645415" lon="-9.699355959892273">
        <ele>26.09</ele>
        <time>2026-07-03T09:38:26Z</time>
      </trkpt>
      <trkpt lat="53.903753003105521" lon="-9.699534997344017">
        <ele>26.57</ele>
        <time>2026-07-03T09:38:27Z</time>
      </trkpt>
      <trkpt lat="53.903622999787331" lon="-9.699698025360704">
        <ele>26.57</ele>
        <time>2026-07-03T09:38:28Z</time>
      </trkpt>
      <trkpt lat="53.903486961498857" lon="-9.699868010357022">
        <ele>27.050000000000001</ele>
        <time>2026-07-03T09:38:29Z</time>
      </trkpt>
      <trkpt lat="53.902445007115602" lon="-9.70119696110487">
        <ele>24.170000000000002</ele>
        <time>2026-07-03T09:38:36Z</time>
      </trkpt>
      <trkpt lat="53.902320032939315" lon="-9.701421009376645">
        <ele>23.690000000000001</ele>
        <time>2026-07-03T09:38:37Z</time>
      </trkpt>
      <trkpt lat="53.90222498215735" lon="-9.701682021841407">
        <ele>23.690000000000001</ele>
        <time>2026-07-03T09:38:38Z</time>
      </trkpt>
      <trkpt lat="53.902136972174048" lon="-9.701955020427704">
        <ele>23.210000000000001</ele>
        <time>2026-07-03T09:38:39Z</time>
      </trkpt>
      <trkpt lat="53.902065977454185" lon="-9.702236987650394">
        <ele>23.210000000000001</ele>
        <time>2026-07-03T09:38:40Z</time>
      </trkpt>
      <trkpt lat="53.902023984119296" lon="-9.70254804007709">
        <ele>23.210000000000001</ele>
        <time>2026-07-03T09:38:41Z</time>
      </trkpt>
      <trkpt lat="53.901981990784407" lon="-9.702863031998277">
        <ele>23.690000000000001</ele>
        <time>2026-07-03T09:38:42Z</time>
      </trkpt>
      <trkpt lat="53.901938991621137" lon="-9.703182969242334">
        <ele>24.170000000000002</ele>
        <time>2026-07-03T09:38:43Z</time>
      </trkpt>
      <trkpt lat="53.901682002469897" lon="-9.706959016621113">
        <ele>25.129999999999999</ele>
        <time>2026-07-03T09:38:55Z</time>
      </trkpt>
      <trkpt lat="53.90194502659142" lon="-9.710745038464665">
        <ele>19.84</ele>
        <time>2026-07-03T09:39:06Z</time>
      </trkpt>
      <trkpt lat="53.902226993814111" lon="-9.714513039216399">
        <ele>19.84</ele>
        <time>2026-07-03T09:39:17Z</time>
      </trkpt>
      <trkpt lat="53.902691015973687" lon="-9.717580983415246">
        <ele>23.210000000000001</ele>
        <time>2026-07-03T09:39:27Z</time>
      </trkpt>
      <trkpt lat="53.902853038161993" lon="-9.721086965873838">
        <ele>24.170000000000002</ele>
        <time>2026-07-03T09:39:38Z</time>
      </trkpt>
      <trkpt lat="53.902866030111909" lon="-9.723832961171866">
        <ele>20.32</ele>
        <time>2026-07-03T09:39:47Z</time>
      </trkpt>
      <trkpt lat="53.902907017618418" lon="-9.724122975021601">
        <ele>19.359999999999999</ele>
        <time>2026-07-03T09:39:48Z</time>
      </trkpt>
      <trkpt lat="53.903497019782662" lon="-9.726445013657212">
        <ele>21.77</ele>
        <time>2026-07-03T09:39:56Z</time>
      </trkpt>
      <trkpt lat="53.904325990006328" lon="-9.729565009474754">
        <ele>28.98</ele>
        <time>2026-07-03T09:40:07Z</time>
      </trkpt>
      <trkpt lat="53.90521002933383" lon="-9.732956998050213">
        <ele>35.229999999999997</ele>
        <time>2026-07-03T09:40:19Z</time>
      </trkpt>
      <trkpt lat="53.905563997104764" lon="-9.735386995598674">
        <ele>39.07</ele>
        <time>2026-07-03T09:40:27Z</time>
      </trkpt>
      <trkpt lat="53.905782010406256" lon="-9.739016024395824">
        <ele>36.189999999999998</ele>
        <time>2026-07-03T09:40:38Z</time>
      </trkpt>
      <trkpt lat="53.906063977628946" lon="-9.742904976010323">
        <ele>27.050000000000001</ele>
        <time>2026-07-03T09:40:50Z</time>
      </trkpt>
      <trkpt lat="53.906032964587212" lon="-9.743553986772895">
        <ele>25.609999999999999</ele>
        <time>2026-07-03T09:40:52Z</time>
      </trkpt>
      <trkpt lat="53.905998012050986" lon="-9.743871996179223">
        <ele>25.129999999999999</ele>
        <time>2026-07-03T09:40:53Z</time>
      </trkpt>
      <trkpt lat="53.905939003452659" lon="-9.744173996150494">
        <ele>25.129999999999999</ele>
        <time>2026-07-03T09:40:54Z</time>
      </trkpt>
      <trkpt lat="53.905543964356184" lon="-9.746672976762056">
        <ele>23.690000000000001</ele>
        <time>2026-07-03T09:41:02Z</time>
      </trkpt>
      <trkpt lat="53.905471041798592" lon="-9.749134993180633">
        <ele>21.289999999999999</ele>
        <time>2026-07-03T09:41:10Z</time>
      </trkpt>
      <trkpt lat="53.905516974627972" lon="-9.753101980313659">
        <ele>21.77</ele>
        <time>2026-07-03T09:41:23Z</time>
      </trkpt>
      <trkpt lat="53.905570032075047" lon="-9.757500970736146">
        <ele>21.289999999999999</ele>
        <time>2026-07-03T09:41:37Z</time>
      </trkpt>
      <trkpt lat="53.905590986832976" lon="-9.762414023280144">
        <ele>21.77</ele>
        <time>2026-07-03T09:41:53Z</time>
      </trkpt>
      <trkpt lat="53.90581302344799" lon="-9.764241026714444">
        <ele>20.809999999999999</ele>
        <time>2026-07-03T09:42:00Z</time>
      </trkpt>
      <trkpt lat="53.906455999240279" lon="-9.76610298268497">
        <ele>21.77</ele>
        <time>2026-07-03T09:42:09Z</time>
      </trkpt>
      <trkpt lat="53.906837040558457" lon="-9.767265971750021">
        <ele>21.289999999999999</ele>
        <time>2026-07-03T09:42:15Z</time>
      </trkpt>
      <trkpt lat="53.906889008358121" lon="-9.767470993101597">
        <ele>21.289999999999999</ele>
        <time>2026-07-03T09:42:16Z</time>
      </trkpt>
      <trkpt lat="53.90691096894443" lon="-9.767700992524624">
        <ele>21.289999999999999</ele>
        <time>2026-07-03T09:42:17Z</time>
      </trkpt>
      <trkpt lat="53.907085983082652" lon="-9.76966998539865">
        <ele>20.809999999999999</ele>
        <time>2026-07-03T09:42:27Z</time>
      </trkpt>
      <trkpt lat="53.90720902942121" lon="-9.771404033526778">
        <ele>21.77</ele>
        <time>2026-07-03T09:42:36Z</time>
      </trkpt>
      <trkpt lat="53.907138034701347" lon="-9.773344025015831">
        <ele>28.5</ele>
        <time>2026-07-03T09:42:46Z</time>
      </trkpt>
      <trkpt lat="53.906765962019563" lon="-9.775570007041097">
        <ele>28.5</ele>
        <time>2026-07-03T09:42:59Z</time>
      </trkpt>
      <trkpt lat="53.906494975090027" lon="-9.778312984853983">
        <ele>29.460000000000001</ele>
        <time>2026-07-03T09:43:14Z</time>
      </trkpt>
      <trkpt lat="53.906376035884023" lon="-9.778997031971812">
        <ele>30.420000000000002</ele>
        <time>2026-07-03T09:43:18Z</time>
      </trkpt>
      <trkpt lat="53.905818974599242" lon="-9.781112037599087">
        <ele>31.379999999999999</ele>
        <time>2026-07-03T09:43:30Z</time>
      </trkpt>
      <trkpt lat="53.905560979619622" lon="-9.783136015757918">
        <ele>29.940000000000001</ele>
        <time>2026-07-03T09:43:40Z</time>
      </trkpt>
      <trkpt lat="53.905565002933145" lon="-9.783351011574268">
        <ele>29.460000000000001</ele>
        <time>2026-07-03T09:43:41Z</time>
      </trkpt>
      <trkpt lat="53.905570032075047" lon="-9.783567013218999">
        <ele>29.460000000000001</ele>
        <time>2026-07-03T09:43:42Z</time>
      </trkpt>
      <trkpt lat="53.905642032623291" lon="-9.784782975912094">
        <ele>29.460000000000001</ele>
        <time>2026-07-03T09:43:48Z</time>
      </trkpt>
      <trkpt lat="53.905680002644658" lon="-9.784968970343471">
        <ele>29.460000000000001</ele>
        <time>2026-07-03T09:43:49Z</time>
      </trkpt>
      <trkpt lat="53.905734987929463" lon="-9.785133004188538">
        <ele>29.460000000000001</ele>
        <time>2026-07-03T09:43:50Z</time>
      </trkpt>
      <trkpt lat="53.905799025669694" lon="-9.785306006669998">
        <ele>29.460000000000001</ele>
        <time>2026-07-03T09:43:51Z</time>
      </trkpt>
      <trkpt lat="53.905863985419273" lon="-9.785480014979839">
        <ele>29.460000000000001</ele>
        <time>2026-07-03T09:43:52Z</time>
      </trkpt>
      <trkpt lat="53.906185012310743" lon="-9.787064027041197">
        <ele>29.460000000000001</ele>
        <time>2026-07-03T09:44:00Z</time>
      </trkpt>
      <trkpt lat="53.906325995922089" lon="-9.788287030532956">
        <ele>32.82</ele>
        <time>2026-07-03T09:44:08Z</time>
      </trkpt>
      <trkpt lat="53.906249972060323" lon="-9.788421979174018">
        <ele>32.82</ele>
        <time>2026-07-03T09:44:09Z</time>
      </trkpt>
      <trkpt lat="53.906198004260659" lon="-9.788500014692545">
        <ele>33.299999999999997</ele>
        <time>2026-07-03T09:44:10Z</time>
      </trkpt>
      <trkpt lat="53.905559973791242" lon="-9.789501987397671">
        <ele>28.98</ele>
        <time>2026-07-03T09:44:18Z</time>
      </trkpt>
      <trkpt lat="53.905300972983241" lon="-9.789760988205671">
        <ele>26.57</ele>
        <time>2026-07-03T09:44:21Z</time>
      </trkpt>
      <trkpt lat="53.90521103516221" lon="-9.789847992360592">
        <ele>26.09</ele>
        <time>2026-07-03T09:44:22Z</time>
      </trkpt>
      <trkpt lat="53.90512503683567" lon="-9.789827037602663">
        <ele>26.09</ele>
        <time>2026-07-03T09:44:23Z</time>
      </trkpt>
      <trkpt lat="53.905034009367228" lon="-9.789797030389309">
        <ele>26.57</ele>
        <time>2026-07-03T09:44:24Z</time>
      </trkpt>
      <trkpt lat="53.904962008818984" lon="-9.789716983214021">
        <ele>27.530000000000001</ele>
        <time>2026-07-03T09:44:25Z</time>
      </trkpt>
      <trkpt lat="53.904881039634347" lon="-9.78962603956461">
        <ele>27.530000000000001</ele>
        <time>2026-07-03T09:44:26Z</time>
      </trkpt>
      <trkpt lat="53.904800992459059" lon="-9.789471980184317">
        <ele>28.02</ele>
        <time>2026-07-03T09:44:27Z</time>
      </trkpt>
      <trkpt lat="53.904732009395957" lon="-9.789303001016378">
        <ele>28.02</ele>
        <time>2026-07-03T09:44:28Z</time>
      </trkpt>
      <trkpt lat="53.904659003019333" lon="-9.789121029898524">
        <ele>27.530000000000001</ele>
        <time>2026-07-03T09:44:29Z</time>
      </trkpt>
      <trkpt lat="53.904378041625023" lon="-9.78844603523612">
        <ele>26.09</ele>
        <time>2026-07-03T09:44:33Z</time>
      </trkpt>
      <trkpt lat="53.904288019984961" lon="-9.78831896558404">
        <ele>25.609999999999999</ele>
        <time>2026-07-03T09:44:34Z</time>
      </trkpt>
      <trkpt lat="53.904200010001659" lon="-9.788194997236133">
        <ele>25.609999999999999</ele>
        <time>2026-07-03T09:44:35Z</time>
      </trkpt>
      <trkpt lat="53.904104037210345" lon="-9.788093995302916">
        <ele>25.129999999999999</ele>
        <time>2026-07-03T09:44:36Z</time>
      </trkpt>
      <trkpt lat="53.903992976993322" lon="-9.788044961169362">
        <ele>25.129999999999999</ele>
        <time>2026-07-03T09:44:37Z</time>
      </trkpt>
      <trkpt lat="53.903877977281809" lon="-9.78799500502646">
        <ele>24.649999999999999</ele>
        <time>2026-07-03T09:44:38Z</time>
      </trkpt>
      <trkpt lat="53.903760965913534" lon="-9.787943037226796">
        <ele>24.649999999999999</ele>
        <time>2026-07-03T09:44:39Z</time>
      </trkpt>
      <trkpt lat="53.903532978147268" lon="-9.787873970344663">
        <ele>24.649999999999999</ele>
        <time>2026-07-03T09:44:41Z</time>
      </trkpt>
      <trkpt lat="53.903423007577658" lon="-9.787873970344663">
        <ele>24.649999999999999</ele>
        <time>2026-07-03T09:44:42Z</time>
      </trkpt>
      <trkpt lat="53.903313959017396" lon="-9.787921998649836">
        <ele>24.170000000000002</ele>
        <time>2026-07-03T09:44:43Z</time>
      </trkpt>
      <trkpt lat="53.90321203507483" lon="-9.787986958399415">
        <ele>24.170000000000002</ele>
        <time>2026-07-03T09:44:44Z</time>
      </trkpt>
      <trkpt lat="53.903108015656471" lon="-9.788088966161013">
        <ele>23.690000000000001</ele>
        <time>2026-07-03T09:44:45Z</time>
      </trkpt>
      <trkpt lat="53.90302000567317" lon="-9.788214024156332">
        <ele>23.690000000000001</ele>
        <time>2026-07-03T09:44:46Z</time>
      </trkpt>
      <trkpt lat="53.90293400734663" lon="-9.788335980847478">
        <ele>23.690000000000001</ele>
        <time>2026-07-03T09:44:47Z</time>
      </trkpt>
      <trkpt lat="53.902785982936621" lon="-9.78861995972693">
        <ele>23.210000000000001</ele>
        <time>2026-07-03T09:44:49Z</time>
      </trkpt>
      <trkpt lat="53.902716999873519" lon="-9.788764966651797">
        <ele>23.210000000000001</ele>
        <time>2026-07-03T09:44:50Z</time>
      </trkpt>
      <trkpt lat="53.902649022638798" lon="-9.788921037688851">
        <ele>23.210000000000001</ele>
        <time>2026-07-03T09:44:51Z</time>
      </trkpt>
      <trkpt lat="53.902598982676864" lon="-9.789102002978325">
        <ele>23.210000000000001</ele>
        <time>2026-07-03T09:44:52Z</time>
      </trkpt>
      <trkpt lat="53.9025470148772" lon="-9.78928598575294">
        <ele>22.73</ele>
        <time>2026-07-03T09:44:53Z</time>
      </trkpt>
      <trkpt lat="53.902494963258505" lon="-9.789470974355936">
        <ele>22.73</ele>
        <time>2026-07-03T09:44:54Z</time>
      </trkpt>
      <trkpt lat="53.902066983282566" lon="-9.790835967287421">
        <ele>22.73</ele>
        <time>2026-07-03T09:45:02Z</time>
      </trkpt>
      <trkpt lat="53.901991965249181" lon="-9.790911991149187">
        <ele>22.73</ele>
        <time>2026-07-03T09:45:03Z</time>
      </trkpt>
      <trkpt lat="53.901913007721305" lon="-9.790977034717798">
        <ele>22.25</ele>
        <time>2026-07-03T09:45:04Z</time>
      </trkpt>
      <trkpt lat="53.901830026879907" lon="-9.791045011952519">
        <ele>22.25</ele>
        <time>2026-07-03T09:45:05Z</time>
      </trkpt>
      <trkpt lat="53.901736987754703" lon="-9.791051968932152">
        <ele>22.25</ele>
        <time>2026-07-03T09:45:06Z</time>
      </trkpt>
      <trkpt lat="53.901631962507963" lon="-9.791054986417294">
        <ele>22.73</ele>
        <time>2026-07-03T09:45:07Z</time>
      </trkpt>
      <trkpt lat="53.901519980281591" lon="-9.791058003902435">
        <ele>23.210000000000001</ele>
        <time>2026-07-03T09:45:08Z</time>
      </trkpt>
      <trkpt lat="53.90005499124527" lon="-9.791332008317113">
        <ele>25.609999999999999</ele>
        <time>2026-07-03T09:45:21Z</time>
      </trkpt>
      <trkpt lat="53.899644026532769" lon="-9.791349023580551">
        <ele>28.02</ele>
        <time>2026-07-03T09:45:25Z</time>
      </trkpt>
      <trkpt lat="53.899558028206229" lon="-9.791418006643653">
        <ele>28.5</ele>
        <time>2026-07-03T09:45:26Z</time>
      </trkpt>
      <trkpt lat="53.899477981030941" lon="-9.791515991091728">
        <ele>28.5</ele>
        <time>2026-07-03T09:45:27Z</time>
      </trkpt>
      <trkpt lat="53.899396006017923" lon="-9.791619004681706">
        <ele>28.5</ele>
        <time>2026-07-03T09:45:28Z</time>
      </trkpt>
      <trkpt lat="53.899313025176525" lon="-9.791728975251317">
        <ele>28.5</ele>
        <time>2026-07-03T09:45:29Z</time>
      </trkpt>
      <trkpt lat="53.899074979126453" lon="-9.792096018791199">
        <ele>28.98</ele>
        <time>2026-07-03T09:45:32Z</time>
      </trkpt>
      <trkpt lat="53.898999961093068" lon="-9.792239014059305">
        <ele>29.460000000000001</ele>
        <time>2026-07-03T09:45:33Z</time>
      </trkpt>
      <trkpt lat="53.898471985012293" lon="-9.793245010077953">
        <ele>28.5</ele>
        <time>2026-07-03T09:45:40Z</time>
      </trkpt>
      <trkpt lat="53.897751979529858" lon="-9.794616959989071">
        <ele>23.690000000000001</ele>
        <time>2026-07-03T09:45:48Z</time>
      </trkpt>
      <trkpt lat="53.896794011816382" lon="-9.796152021735907">
        <ele>22.25</ele>
        <time>2026-07-03T09:45:58Z</time>
      </trkpt>
      <trkpt lat="53.895764965564013" lon="-9.797166986390948">
        <ele>24.170000000000002</ele>
        <time>2026-07-03T09:46:07Z</time>
      </trkpt>
      <trkpt lat="53.894741032272577" lon="-9.797894032672048">
        <ele>24.170000000000002</ele>
        <time>2026-07-03T09:46:16Z</time>
      </trkpt>
      <trkpt lat="53.894612034782767" lon="-9.797947006300092">
        <ele>23.210000000000001</ele>
        <time>2026-07-03T09:46:17Z</time>
      </trkpt>
      <trkpt lat="53.894483037292957" lon="-9.798000985756517">
        <ele>21.77</ele>
        <time>2026-07-03T09:46:18Z</time>
      </trkpt>
      <trkpt lat="53.894353033974767" lon="-9.798036022111774">
        <ele>20.809999999999999</ele>
        <time>2026-07-03T09:46:19Z</time>
      </trkpt>
      <trkpt lat="53.894237028434873" lon="-9.797993022948504">
        <ele>19.84</ele>
        <time>2026-07-03T09:46:20Z</time>
      </trkpt>
      <trkpt lat="53.89414700679481" lon="-9.797923034057021">
        <ele>18.879999999999999</ele>
        <time>2026-07-03T09:46:21Z</time>
      </trkpt>
      <trkpt lat="53.894057990983129" lon="-9.797833012416959">
        <ele>18.399999999999999</ele>
        <time>2026-07-03T09:46:22Z</time>
      </trkpt>
      <trkpt lat="53.893982972949743" lon="-9.797736033797264">
        <ele>17.920000000000002</ele>
        <time>2026-07-03T09:46:23Z</time>
      </trkpt>
      <trkpt lat="53.893908960744739" lon="-9.797607036307454">
        <ele>17.920000000000002</ele>
        <time>2026-07-03T09:46:24Z</time>
      </trkpt>
      <trkpt lat="53.893838971853256" lon="-9.797482984140515">
        <ele>17.920000000000002</ele>
        <time>2026-07-03T09:46:25Z</time>
      </trkpt>
      <trkpt lat="53.89367301017046" lon="-9.79719297029078">
        <ele>17.440000000000001</ele>
        <time>2026-07-03T09:46:28Z</time>
      </trkpt>
      <trkpt lat="53.893593968823552" lon="-9.797139996662736">
        <ele>17.440000000000001</ele>
        <time>2026-07-03T09:46:29Z</time>
      </trkpt>
      <trkpt lat="53.893521968275309" lon="-9.797094985842705">
        <ele>17.440000000000001</ele>
        <time>2026-07-03T09:46:30Z</time>
      </trkpt>
      <trkpt lat="53.893427001312375" lon="-9.797123987227678">
        <ele>17.440000000000001</ele>
        <time>2026-07-03T09:46:31Z</time>
      </trkpt>
      <trkpt lat="53.893343014642596" lon="-9.797176038846374">
        <ele>17.440000000000001</ele>
        <time>2026-07-03T09:46:32Z</time>
      </trkpt>
      <trkpt lat="53.893273025751114" lon="-9.797307970002294">
        <ele>16.960000000000001</ele>
        <time>2026-07-03T09:46:33Z</time>
      </trkpt>
      <trkpt lat="53.893213011324406" lon="-9.79744803160429">
        <ele>16.960000000000001</ele>
        <time>2026-07-03T09:46:34Z</time>
      </trkpt>
      <trkpt lat="53.893145034089684" lon="-9.797602007165551">
        <ele>16.960000000000001</ele>
        <time>2026-07-03T09:46:35Z</time>
      </trkpt>
      <trkpt lat="53.893075967207551" lon="-9.797763023525477">
        <ele>16.960000000000001</ele>
        <time>2026-07-03T09:46:36Z</time>
      </trkpt>
      <trkpt lat="53.892831970006227" lon="-9.798261998221278">
        <ele>16.48</ele>
        <time>2026-07-03T09:46:39Z</time>
      </trkpt>
      <trkpt lat="53.89273096807301" lon="-9.798401976004243">
        <ele>16.48</ele>
        <time>2026-07-03T09:46:40Z</time>
      </trkpt>
      <trkpt lat="53.891665963456035" lon="-9.799590026959777">
        <ele>18.399999999999999</ele>
        <time>2026-07-03T09:46:50Z</time>
      </trkpt>
      <trkpt lat="53.891578037291765" lon="-9.79968398809433">
        <ele>17.920000000000002</ele>
        <time>2026-07-03T09:46:51Z</time>
      </trkpt>
      <trkpt lat="53.891479969024658" lon="-9.799735033884645">
        <ele>17.440000000000001</ele>
        <time>2026-07-03T09:46:52Z</time>
      </trkpt>
      <trkpt lat="53.891372010111809" lon="-9.799762023612857">
        <ele>16.960000000000001</ele>
        <time>2026-07-03T09:46:53Z</time>
      </trkpt>
      <trkpt lat="53.891266984865069" lon="-9.799776021391153">
        <ele>16.960000000000001</ele>
        <time>2026-07-03T09:46:54Z</time>
      </trkpt>
      <trkpt lat="53.891173023730516" lon="-9.799738973379135">
        <ele>16.960000000000001</ele>
        <time>2026-07-03T09:46:55Z</time>
      </trkpt>
      <trkpt lat="53.891089037060738" lon="-9.799706032499671">
        <ele>16.960000000000001</ele>
        <time>2026-07-03T09:46:56Z</time>
      </trkpt>
      <trkpt lat="53.891006978228688" lon="-9.799674013629556">
        <ele>17.440000000000001</ele>
        <time>2026-07-03T09:46:57Z</time>
      </trkpt>
      <trkpt lat="53.890919974073768" lon="-9.79964098893106">
        <ele>17.440000000000001</ele>
        <time>2026-07-03T09:46:58Z</time>
      </trkpt>
      <trkpt lat="53.890826012939215" lon="-9.799663033336401">
        <ele>17.440000000000001</ele>
        <time>2026-07-03T09:46:59Z</time>
      </trkpt>
      <trkpt lat="53.890733979642391" lon="-9.799699997529388">
        <ele>17.440000000000001</ele>
        <time>2026-07-03T09:47:00Z</time>
      </trkpt>
      <trkpt lat="53.890649992972612" lon="-9.799752971157432">
        <ele>17.440000000000001</ele>
        <time>2026-07-03T09:47:01Z</time>
      </trkpt>
      <trkpt lat="53.890568017959595" lon="-9.799830000847578">
        <ele>17.440000000000001</ele>
        <time>2026-07-03T09:47:02Z</time>
      </trkpt>
      <trkpt lat="53.890482019633055" lon="-9.799909964203835">
        <ele>16.960000000000001</ele>
        <time>2026-07-03T09:47:03Z</time>
      </trkpt>
      <trkpt lat="53.890388980507851" lon="-9.799996968358755">
        <ele>16.960000000000001</ele>
        <time>2026-07-03T09:47:04Z</time>
      </trkpt>
      <trkpt lat="53.889351971447468" lon="-9.801342012360692">
        <ele>12.630000000000001</ele>
        <time>2026-07-03T09:47:14Z</time>
      </trkpt>
      <trkpt lat="53.888100972399116" lon="-9.803635971620679">
        <ele>13.6</ele>
        <time>2026-07-03T09:47:26Z</time>
      </trkpt>
      <trkpt lat="53.886893978342414" lon="-9.806154984980822">
        <ele>13.119999999999999</ele>
        <time>2026-07-03T09:47:38Z</time>
      </trkpt>
      <trkpt lat="53.885451033711433" lon="-9.809155035763979">
        <ele>17.920000000000002</ele>
        <time>2026-07-03T09:47:53Z</time>
      </trkpt>
      <trkpt lat="53.88510100543499" lon="-9.809932038187981">
        <ele>16.960000000000001</ele>
        <time>2026-07-03T09:47:57Z</time>
      </trkpt>
      <trkpt lat="53.884544027969241" lon="-9.811086980625987">
        <ele>16.48</ele>
        <time>2026-07-03T09:48:04Z</time>
      </trkpt>
      <trkpt lat="53.884373037144542" lon="-9.811339024454355">
        <ele>16.960000000000001</ele>
        <time>2026-07-03T09:48:06Z</time>
      </trkpt>
      <trkpt lat="53.884205985814333" lon="-9.81158503331244">
        <ele>16.960000000000001</ele>
        <time>2026-07-03T09:48:08Z</time>
      </trkpt>
      <trkpt lat="53.884127028286457" lon="-9.811654016375542">
        <ele>16.960000000000001</ele>
        <time>2026-07-03T09:48:09Z</time>
      </trkpt>
      <trkpt lat="53.884049998596311" lon="-9.811721993610263">
        <ele>16.48</ele>
        <time>2026-07-03T09:48:10Z</time>
      </trkpt>
      <trkpt lat="53.883966011926532" lon="-9.811734985560179">
        <ele>16.48</ele>
        <time>2026-07-03T09:48:11Z</time>
      </trkpt>
      <trkpt lat="53.883875990286469" lon="-9.811734985560179">
        <ele>16.48</ele>
        <time>2026-07-03T09:48:12Z</time>
      </trkpt>
      <trkpt lat="53.883781023323536" lon="-9.81171403080225">
        <ele>16.960000000000001</ele>
        <time>2026-07-03T09:48:13Z</time>
      </trkpt>
      <trkpt lat="53.882778966799378" lon="-9.811298958957195">
        <ele>18.879999999999999</ele>
        <time>2026-07-03T09:48:22Z</time>
      </trkpt>
      <trkpt lat="53.882599007338285" lon="-9.811213966459036">
        <ele>19.359999999999999</ele>
        <time>2026-07-03T09:48:24Z</time>
      </trkpt>
      <trkpt lat="53.882521977648139" lon="-9.811216983944178">
        <ele>18.879999999999999</ele>
        <time>2026-07-03T09:48:25Z</time>
      </trkpt>
      <trkpt lat="53.882449977099895" lon="-9.811258977279067">
        <ele>18.879999999999999</ele>
        <time>2026-07-03T09:48:26Z</time>
      </trkpt>
      <trkpt lat="53.882380994036794" lon="-9.811341036111116">
        <ele>18.399999999999999</ele>
        <time>2026-07-03T09:48:27Z</time>
      </trkpt>
      <trkpt lat="53.88232902623713" lon="-9.811462992802262">
        <ele>17.920000000000002</ele>
        <time>2026-07-03T09:48:28Z</time>
      </trkpt>
      <trkpt lat="53.882274040952325" lon="-9.811596013605595">
        <ele>17.920000000000002</ele>
        <time>2026-07-03T09:48:29Z</time>
      </trkpt>
      <trkpt lat="53.882216038182378" lon="-9.811734985560179">
        <ele>17.440000000000001</ele>
        <time>2026-07-03T09:48:30Z</time>
      </trkpt>
      <trkpt lat="53.881517993286252" lon="-9.813335007056594">
        <ele>20.809999999999999</ele>
        <time>2026-07-03T09:48:40Z</time>
      </trkpt>
      <trkpt lat="53.881417997181416" lon="-9.813705990090966">
        <ele>20.809999999999999</ele>
        <time>2026-07-03T09:48:42Z</time>
      </trkpt>
      <trkpt lat="53.881377009674907" lon="-9.813902964815497">
        <ele>21.289999999999999</ele>
        <time>2026-07-03T09:48:43Z</time>
      </trkpt>
      <trkpt lat="53.881196966394782" lon="-9.814663035795093">
        <ele>22.25</ele>
        <time>2026-07-03T09:48:47Z</time>
      </trkpt>
      <trkpt lat="53.881138041615486" lon="-9.81483000330627">
        <ele>22.73</ele>
        <time>2026-07-03T09:48:48Z</time>
      </trkpt>
      <trkpt lat="53.881075009703636" lon="-9.814993031322956">
        <ele>22.73</ele>
        <time>2026-07-03T09:48:49Z</time>
      </trkpt>
      <trkpt lat="53.880994040518999" lon="-9.815144995227456">
        <ele>22.73</ele>
        <time>2026-07-03T09:48:50Z</time>
      </trkpt>
      <trkpt lat="53.880902007222176" lon="-9.815319003537297">
        <ele>22.73</ele>
        <time>2026-07-03T09:48:51Z</time>
      </trkpt>
      <trkpt lat="53.880795976147056" lon="-9.815418999642134">
        <ele>22.73</ele>
        <time>2026-07-03T09:48:52Z</time>
      </trkpt>
      <trkpt lat="53.880683993920684" lon="-9.815526958554983">
        <ele>22.25</ele>
        <time>2026-07-03T09:48:53Z</time>
      </trkpt>
      <trkpt lat="53.880577962845564" lon="-9.815627038478851">
        <ele>22.25</ele>
        <time>2026-07-03T09:48:54Z</time>
      </trkpt>
      <trkpt lat="53.880077982321382" lon="-9.816104974597693">
        <ele>21.289999999999999</ele>
        <time>2026-07-03T09:48:59Z</time>
      </trkpt>
      <trkpt lat="53.879982009530067" lon="-9.816197007894516">
        <ele>21.77</ele>
        <time>2026-07-03T09:49:00Z</time>
      </trkpt>
      <trkpt lat="53.879868015646935" lon="-9.816242018714547">
        <ele>21.77</ele>
        <time>2026-07-03T09:49:01Z</time>
      </trkpt>
      <trkpt lat="53.879753015935421" lon="-9.816271020099521">
        <ele>22.25</ele>
        <time>2026-07-03T09:49:02Z</time>
      </trkpt>
      <trkpt lat="53.879634998738766" lon="-9.816300021484494">
        <ele>22.25</ele>
        <time>2026-07-03T09:49:03Z</time>
      </trkpt>
      <trkpt lat="53.879508012905717" lon="-9.816309995949268">
        <ele>22.73</ele>
        <time>2026-07-03T09:49:04Z</time>
      </trkpt>
      <trkpt lat="53.878820026293397" lon="-9.816459026187658">
        <ele>23.210000000000001</ele>
        <time>2026-07-03T09:49:10Z</time>
      </trkpt>
      <trkpt lat="53.878726987168193" lon="-9.816508982330561">
        <ele>23.210000000000001</ele>
        <time>2026-07-03T09:49:11Z</time>
      </trkpt>
      <trkpt lat="53.878650963306427" lon="-9.816609984263778">
        <ele>22.73</ele>
        <time>2026-07-03T09:49:12Z</time>
      </trkpt>
      <trkpt lat="53.87856999412179" lon="-9.816718026995659">
        <ele>22.73</ele>
        <time>2026-07-03T09:49:13Z</time>
      </trkpt>
      <trkpt lat="53.878506040200591" lon="-9.816865967586637">
        <ele>22.73</ele>
        <time>2026-07-03T09:49:14Z</time>
      </trkpt>
      <trkpt lat="53.877955013886094" lon="-9.818615019321442">
        <ele>23.690000000000001</ele>
        <time>2026-07-03T09:49:24Z</time>
      </trkpt>
      <trkpt lat="53.877244982868433" lon="-9.821536028757691">
        <ele>26.57</ele>
        <time>2026-07-03T09:49:37Z</time>
      </trkpt>
      <trkpt lat="53.876540986821055" lon="-9.824992977082729">
        <ele>28.98</ele>
        <time>2026-07-03T09:49:51Z</time>
      </trkpt>
      <trkpt lat="53.876201016828418" lon="-9.827592959627509">
        <ele>28.98</ele>
        <time>2026-07-03T09:50:01Z</time>
      </trkpt>
      <trkpt lat="53.876095991581678" lon="-9.829173032194376">
        <ele>27.530000000000001</ele>
        <time>2026-07-03T09:50:07Z</time>
      </trkpt>
      <trkpt lat="53.876043017953634" lon="-9.829428009688854">
        <ele>27.530000000000001</ele>
        <time>2026-07-03T09:50:08Z</time>
      </trkpt>
      <trkpt lat="53.875506995245814" lon="-9.831248978152871">
        <ele>28.5</ele>
        <time>2026-07-03T09:50:16Z</time>
      </trkpt>
      <trkpt lat="53.874330008402467" lon="-9.834895022213459">
        <ele>28.02</ele>
        <time>2026-07-03T09:50:31Z</time>
      </trkpt>
      <trkpt lat="53.873794991523027" lon="-9.837531968951225">
        <ele>28.5</ele>
        <time>2026-07-03T09:50:41Z</time>
      </trkpt>
      <trkpt lat="53.873789962381124" lon="-9.839671030640602">
        <ele>32.82</ele>
        <time>2026-07-03T09:50:49Z</time>
      </trkpt>
      <trkpt lat="53.873835979029536" lon="-9.840293973684311">
        <ele>32.82</ele>
        <time>2026-07-03T09:50:52Z</time>
      </trkpt>
      <trkpt lat="53.873884007334709" lon="-9.840496983379126">
        <ele>32.82</ele>
        <time>2026-07-03T09:50:53Z</time>
      </trkpt>
      <trkpt lat="53.873935975134373" lon="-9.840671997517347">
        <ele>32.82</ele>
        <time>2026-07-03T09:50:54Z</time>
      </trkpt>
      <trkpt lat="53.873999007046223" lon="-9.840854974463582">
        <ele>32.82</ele>
        <time>2026-07-03T09:50:55Z</time>
      </trkpt>
      <trkpt lat="53.874068995937705" lon="-9.84102101996541">
        <ele>32.82</ele>
        <time>2026-07-03T09:50:56Z</time>
      </trkpt>
      <trkpt lat="53.874408965930343" lon="-9.841824006289244">
        <ele>31.379999999999999</ele>
        <time>2026-07-03T09:51:01Z</time>
      </trkpt>
      <trkpt lat="53.874453976750374" lon="-9.841970019042492">
        <ele>30.899999999999999</ele>
        <time>2026-07-03T09:51:02Z</time>
      </trkpt>
      <trkpt lat="53.874481972306967" lon="-9.842134974896908">
        <ele>30.420000000000002</ele>
        <time>2026-07-03T09:51:03Z</time>
      </trkpt>
      <trkpt lat="53.87450703419745" lon="-9.842298002913594">
        <ele>30.420000000000002</ele>
        <time>2026-07-03T09:51:04Z</time>
      </trkpt>
      <trkpt lat="53.87448800727725" lon="-9.842473017051816">
        <ele>30.420000000000002</ele>
        <time>2026-07-03T09:51:05Z</time>
      </trkpt>
      <trkpt lat="53.87446797452867" lon="-9.842663034796715">
        <ele>30.420000000000002</ele>
        <time>2026-07-03T09:51:06Z</time>
      </trkpt>
      <trkpt lat="53.874404020607471" lon="-9.84284701757133">
        <ele>30.420000000000002</ele>
        <time>2026-07-03T09:51:07Z</time>
      </trkpt>
      <trkpt lat="53.874330008402467" lon="-9.843033012002707">
        <ele>30.420000000000002</ele>
        <time>2026-07-03T09:51:08Z</time>
      </trkpt>
      <trkpt lat="53.874250967055559" lon="-9.843227975070477">
        <ele>30.420000000000002</ele>
        <time>2026-07-03T09:51:09Z</time>
      </trkpt>
      <trkpt lat="53.874168992042542" lon="-9.843429978936911">
        <ele>30.420000000000002</ele>
        <time>2026-07-03T09:51:10Z</time>
      </trkpt>
      <trkpt lat="53.873773030936718" lon="-9.844124000519514">
        <ele>29.460000000000001</ele>
        <time>2026-07-03T09:51:14Z</time>
      </trkpt>
      <trkpt lat="53.873656019568443" lon="-9.844252998009324">
        <ele>28.5</ele>
        <time>2026-07-03T09:51:15Z</time>
      </trkpt>
      <trkpt lat="53.873536996543407" lon="-9.844359029084444">
        <ele>28.02</ele>
        <time>2026-07-03T09:51:16Z</time>
      </trkpt>
      <trkpt lat="53.873417973518372" lon="-9.844446033239365">
        <ele>28.02</ele>
        <time>2026-07-03T09:51:17Z</time>
      </trkpt>
      <trkpt lat="53.873297022655606" lon="-9.844533959403634">
        <ele>28.02</ele>
        <time>2026-07-03T09:51:18Z</time>
      </trkpt>
      <trkpt lat="53.873173976317048" lon="-9.844623981043696">
        <ele>28.02</ele>
        <time>2026-07-03T09:51:19Z</time>
      </trkpt>
      <trkpt lat="53.873044978827238" lon="-9.844720037654042">
        <ele>27.530000000000001</ele>
        <time>2026-07-03T09:51:20Z</time>
      </trkpt>
      <trkpt lat="53.872937019914389" lon="-9.844862027093768">
        <ele>27.530000000000001</ele>
        <time>2026-07-03T09:51:21Z</time>
      </trkpt>
      <trkpt lat="53.872062033042312" lon="-9.846297008916736">
        <ele>27.050000000000001</ele>
        <time>2026-07-03T09:51:29Z</time>
      </trkpt>
      <trkpt lat="53.871315959841013" lon="-9.848112026229501">
        <ele>30.420000000000002</ele>
        <time>2026-07-03T09:51:38Z</time>
      </trkpt>
      <trkpt lat="53.870549015700817" lon="-9.849835010245442">
        <ele>29.940000000000001</ele>
        <time>2026-07-03T09:51:47Z</time>
      </trkpt>
      <trkpt lat="53.870509034022689" lon="-9.850059980526567">
        <ele>28.98</ele>
        <time>2026-07-03T09:51:48Z</time>
      </trkpt>
      <trkpt lat="53.870467962697148" lon="-9.850289979949594">
        <ele>28.5</ele>
        <time>2026-07-03T09:51:49Z</time>
      </trkpt>
      <trkpt lat="53.869961025193334" lon="-9.852548986673355">
        <ele>26.57</ele>
        <time>2026-07-03T09:51:59Z</time>
      </trkpt>
      <trkpt lat="53.869390971958637" lon="-9.854040965437889">
        <ele>25.609999999999999</ele>
        <time>2026-07-03T09:52:06Z</time>
      </trkpt>
      <trkpt lat="53.869279995560646" lon="-9.854201981797814">
        <ele>25.609999999999999</ele>
        <time>2026-07-03T09:52:07Z</time>
      </trkpt>
      <trkpt lat="53.869172036647797" lon="-9.854359980672598">
        <ele>25.129999999999999</ele>
        <time>2026-07-03T09:52:08Z</time>
      </trkpt>
      <trkpt lat="53.868886968120933" lon="-9.854829031974077">
        <ele>25.129999999999999</ele>
        <time>2026-07-03T09:52:11Z</time>
      </trkpt>
      <trkpt lat="53.868817985057831" lon="-9.855015026405454">
        <ele>25.129999999999999</ele>
        <time>2026-07-03T09:52:12Z</time>
      </trkpt>
      <trkpt lat="53.868755036965013" lon="-9.855206971988082">
        <ele>25.129999999999999</ele>
        <time>2026-07-03T09:52:13Z</time>
      </trkpt>
      <trkpt lat="53.868411965668201" lon="-9.857068005949259">
        <ele>25.609999999999999</ele>
        <time>2026-07-03T09:52:21Z</time>
      </trkpt>
      <trkpt lat="53.86804198846221" lon="-9.860509028658271">
        <ele>26.57</ele>
        <time>2026-07-03T09:52:34Z</time>
      </trkpt>
      <trkpt lat="53.867455003783107" lon="-9.865080015733838">
        <ele>31.859999999999999</ele>
        <time>2026-07-03T09:52:51Z</time>
      </trkpt>
      <trkpt lat="53.867044039070606" lon="-9.867995996028185">
        <ele>37.630000000000003</ele>
        <time>2026-07-03T09:53:02Z</time>
      </trkpt>
      <trkpt lat="53.866756036877632" lon="-9.87045600079">
        <ele>33.299999999999997</ele>
        <time>2026-07-03T09:53:12Z</time>
      </trkpt>
      <trkpt lat="53.866718988865614" lon="-9.871412962675095">
        <ele>31.859999999999999</ele>
        <time>2026-07-03T09:53:18Z</time>
      </trkpt>
      <trkpt lat="53.866715971380472" lon="-9.871488986536861">
        <ele>31.859999999999999</ele>
        <time>2026-07-03T09:53:19Z</time>
      </trkpt>
      <trkpt lat="53.86671002022922" lon="-9.871653020381928">
        <ele>31.379999999999999</ele>
        <time>2026-07-03T09:53:27Z</time>
      </trkpt>
      <trkpt lat="53.86671002022922" lon="-9.871653020381928">
        <ele>30.899999999999999</ele>
        <time>2026-07-03T09:53:40Z</time>
      </trkpt>
      <trkpt lat="53.866707002744079" lon="-9.871720997616649">
        <ele>30.899999999999999</ele>
        <time>2026-07-03T09:53:51Z</time>
      </trkpt>
      <trkpt lat="53.866707002744079" lon="-9.871720997616649">
        <ele>30.899999999999999</ele>
        <time>2026-07-03T09:53:52Z</time>
      </trkpt>
      <trkpt lat="53.866707002744079" lon="-9.871720997616649">
        <ele>30.899999999999999</ele>
        <time>2026-07-03T09:54:09Z</time>
      </trkpt>
      <trkpt lat="53.866707002744079" lon="-9.871720997616649">
        <ele>30.899999999999999</ele>
        <time>2026-07-03T09:55:11Z</time>
      </trkpt>
      <trkpt lat="53.866707002744079" lon="-9.871720997616649">
        <ele>30.899999999999999</ele>
        <time>2026-07-03T09:56:08Z</time>
      </trkpt>
      <trkpt lat="53.866705996915698" lon="-9.871765002608299">
        <ele>30.899999999999999</ele>
        <time>2026-07-03T09:56:13Z</time>
      </trkpt>
      <trkpt lat="53.866701973602176" lon="-9.871870027855039">
        <ele>30.899999999999999</ele>
        <time>2026-07-03T09:56:15Z</time>
      </trkpt>
      <trkpt lat="53.866697028279305" lon="-9.87198201008141">
        <ele>30.899999999999999</ele>
        <time>2026-07-03T09:56:16Z</time>
      </trkpt>
      <trkpt lat="53.866691999137402" lon="-9.872105978429318">
        <ele>31.379999999999999</ele>
        <time>2026-07-03T09:56:17Z</time>
      </trkpt>
      <trkpt lat="53.866636008024216" lon="-9.873545989394188">
        <ele>32.82</ele>
        <time>2026-07-03T09:56:25Z</time>
      </trkpt>
      <trkpt lat="53.866643970832229" lon="-9.873755034059286">
        <ele>32.82</ele>
        <time>2026-07-03T09:56:26Z</time>
      </trkpt>
      <trkpt lat="53.866665009409189" lon="-9.873963994905353">
        <ele>33.299999999999997</ele>
        <time>2026-07-03T09:56:27Z</time>
      </trkpt>
      <trkpt lat="53.866715971380472" lon="-9.874158035963774">
        <ele>33.299999999999997</ele>
        <time>2026-07-03T09:56:28Z</time>
      </trkpt>
      <trkpt lat="53.86679601855576" lon="-9.874331038445234">
        <ele>33.299999999999997</ele>
        <time>2026-07-03T09:56:29Z</time>
      </trkpt>
      <trkpt lat="53.866895008832216" lon="-9.874493982642889">
        <ele>33.780000000000001</ele>
        <time>2026-07-03T09:56:30Z</time>
      </trkpt>
      <trkpt lat="53.867001039907336" lon="-9.874664973467588">
        <ele>34.259999999999998</ele>
        <time>2026-07-03T09:56:31Z</time>
      </trkpt>
      <trkpt lat="53.867404963821173" lon="-9.875313984230161">
        <ele>36.670000000000002</ele>
        <time>2026-07-03T09:56:35Z</time>
      </trkpt>
      <trkpt lat="53.867452992126346" lon="-9.875479023903608">
        <ele>37.149999999999999</ele>
        <time>2026-07-03T09:56:36Z</time>
      </trkpt>
      <trkpt lat="53.867502026259899" lon="-9.875642973929644">
        <ele>37.630000000000003</ele>
        <time>2026-07-03T09:56:37Z</time>
      </trkpt>
      <trkpt lat="53.867512000724673" lon="-9.875855036079884">
        <ele>37.630000000000003</ele>
        <time>2026-07-03T09:56:38Z</time>
      </trkpt>
      <trkpt lat="53.867512000724673" lon="-9.87606299109757">
        <ele>37.149999999999999</ele>
        <time>2026-07-03T09:56:39Z</time>
      </trkpt>
      <trkpt lat="53.867512000724673" lon="-9.876279998570681">
        <ele>37.149999999999999</ele>
        <time>2026-07-03T09:56:40Z</time>
      </trkpt>
      <trkpt lat="53.867512000724673" lon="-9.876504968851805">
        <ele>36.189999999999998</ele>
        <time>2026-07-03T09:56:41Z</time>
      </trkpt>
      <trkpt lat="53.867520969361067" lon="-9.878738997504115">
        <ele>32.340000000000003</ele>
        <time>2026-07-03T09:56:51Z</time>
      </trkpt>
      <trkpt lat="53.86776203289628" lon="-9.881941974163055">
        <ele>32.340000000000003</ele>
        <time>2026-07-03T09:57:06Z</time>
      </trkpt>
      <trkpt lat="53.867995971813798" lon="-9.885042021051049">
        <ele>31.379999999999999</ele>
        <time>2026-07-03T09:57:18Z</time>
      </trkpt>
      <trkpt lat="53.868295960128307" lon="-9.888276010751724">
        <ele>34.740000000000002</ele>
        <time>2026-07-03T09:57:31Z</time>
      </trkpt>
      <trkpt lat="53.86855898424983" lon="-9.89048196002841">
        <ele>40.030000000000001</ele>
        <time>2026-07-03T09:57:41Z</time>
      </trkpt>
      <trkpt lat="53.868689993396401" lon="-9.890967020764947">
        <ele>40.990000000000002</ele>
        <time>2026-07-03T09:57:44Z</time>
      </trkpt>
      <trkpt lat="53.868821002542973" lon="-9.891450991854072">
        <ele>40.990000000000002</ele>
        <time>2026-07-03T09:57:47Z</time>
      </trkpt>
      <trkpt lat="53.868838017806411" lon="-9.891681997105479">
        <ele>40.509999999999998</ele>
        <time>2026-07-03T09:57:48Z</time>
      </trkpt>
      <trkpt lat="53.868835000321269" lon="-9.89187897183001">
        <ele>40.509999999999998</ele>
        <time>2026-07-03T09:57:49Z</time>
      </trkpt>
      <trkpt lat="53.868822008371353" lon="-9.892092039808631">
        <ele>40.990000000000002</ele>
        <time>2026-07-03T09:57:50Z</time>
      </trkpt>
      <trkpt lat="53.868809016421437" lon="-9.89230896346271">
        <ele>40.990000000000002</ele>
        <time>2026-07-03T09:57:51Z</time>
      </trkpt>
      <trkpt lat="53.868544986471534" lon="-9.894542992115021">
        <ele>43.880000000000003</ele>
        <time>2026-07-03T09:58:01Z</time>
      </trkpt>
      <trkpt lat="53.868266036733985" lon="-9.896892020478845">
        <ele>40.990000000000002</ele>
        <time>2026-07-03T09:58:11Z</time>
      </trkpt>
      <trkpt lat="53.867666982114315" lon="-9.89903200417757">
        <ele>40.509999999999998</ele>
        <time>2026-07-03T09:58:21Z</time>
      </trkpt>
      <trkpt lat="53.86763596907258" lon="-9.89922696724534">
        <ele>41.469999999999999</ele>
        <time>2026-07-03T09:58:22Z</time>
      </trkpt>
      <trkpt lat="53.867453997954726" lon="-9.900488024577498">
        <ele>42.920000000000002</ele>
        <time>2026-07-03T09:58:28Z</time>
      </trkpt>
      <trkpt lat="53.867427008226514" lon="-9.900695979595184">
        <ele>42.920000000000002</ele>
        <time>2026-07-03T09:58:29Z</time>
      </trkpt>
      <trkpt lat="53.867530021816492" lon="-9.903100999072194">
        <ele>43.880000000000003</ele>
        <time>2026-07-03T09:58:39Z</time>
      </trkpt>
      <trkpt lat="53.867680979892612" lon="-9.905766025185585">
        <ele>45.32</ele>
        <time>2026-07-03T09:58:50Z</time>
      </trkpt>
      <trkpt lat="53.868014998733997" lon="-9.908469021320343">
        <ele>39.07</ele>
        <time>2026-07-03T09:59:00Z</time>
      </trkpt>
      <trkpt lat="53.86860097758472" lon="-9.911072021350265">
        <ele>35.229999999999997</ele>
        <time>2026-07-03T09:59:10Z</time>
      </trkpt>
      <trkpt lat="53.869670005515218" lon="-9.915034985169768">
        <ele>29.940000000000001</ele>
        <time>2026-07-03T09:59:25Z</time>
      </trkpt>
      <trkpt lat="53.870530994608998" lon="-9.918222958222032">
        <ele>27.530000000000001</ele>
        <time>2026-07-03T09:59:39Z</time>
      </trkpt>
      <trkpt lat="53.870926033705473" lon="-9.92010603658855">
        <ele>25.609999999999999</ele>
        <time>2026-07-03T09:59:49Z</time>
      </trkpt>
      <trkpt lat="53.871260974556208" lon="-9.922455986961722">
        <ele>22.73</ele>
        <time>2026-07-03T09:59:59Z</time>
      </trkpt>
      <trkpt lat="53.871657019481063" lon="-9.925280017778277">
        <ele>20.809999999999999</ele>
        <time>2026-07-03T10:00:10Z</time>
      </trkpt>
      <trkpt lat="53.871770007535815" lon="-9.926293976604939">
        <ele>19.84</ele>
        <time>2026-07-03T10:00:15Z</time>
      </trkpt>
      <trkpt lat="53.871785011142492" lon="-9.926426997408271">
        <ele>19.359999999999999</ele>
        <time>2026-07-03T10:00:16Z</time>
      </trkpt>
      <trkpt lat="53.871907973662019" lon="-9.926538979634643">
        <ele>18.879999999999999</ele>
        <time>2026-07-03T10:00:17Z</time>
      </trkpt>
      <trkpt lat="53.871959019452333" lon="-9.926508972421289">
        <ele>18.399999999999999</ele>
        <time>2026-07-03T10:00:18Z</time>
      </trkpt>
      <trkpt lat="53.872023979201913" lon="-9.926472008228302">
        <ele>18.399999999999999</ele>
        <time>2026-07-03T10:00:19Z</time>
      </trkpt>
      <trkpt lat="53.872094973921776" lon="-9.926431020721793">
        <ele>18.399999999999999</ele>
        <time>2026-07-03T10:00:20Z</time>
      </trkpt>
      <trkpt lat="53.872168986126781" lon="-9.926388021558523">
        <ele>18.399999999999999</ele>
        <time>2026-07-03T10:00:21Z</time>
      </trkpt>
      <trkpt lat="53.872250039130449" lon="-9.926342004910111">
        <ele>18.399999999999999</ele>
        <time>2026-07-03T10:00:22Z</time>
      </trkpt>
      <trkpt lat="53.873173976317048" lon="-9.925811011344194">
        <ele>22.25</ele>
        <time>2026-07-03T10:00:30Z</time>
      </trkpt>
      <trkpt lat="53.874886985868216" lon="-9.9249869864434">
        <ele>27.530000000000001</ele>
        <time>2026-07-03T10:00:42Z</time>
      </trkpt>
      <trkpt lat="53.876734022051096" lon="-9.924037987366319">
        <ele>28.98</ele>
        <time>2026-07-03T10:00:55Z</time>
      </trkpt>
      <trkpt lat="53.878233041614294" lon="-9.922892013564706">
        <ele>30.420000000000002</ele>
        <time>2026-07-03T10:01:05Z</time>
      </trkpt>
      <trkpt lat="53.879199977964163" lon="-9.922584984451532">
        <ele>37.630000000000003</ele>
        <time>2026-07-03T10:01:13Z</time>
      </trkpt>
      <trkpt lat="53.880633031949401" lon="-9.921924993395805">
        <ele>39.07</ele>
        <time>2026-07-03T10:01:23Z</time>
      </trkpt>
      <trkpt lat="53.882481995970011" lon="-9.921099040657282">
        <ele>41.469999999999999</ele>
        <time>2026-07-03T10:01:35Z</time>
      </trkpt>
      <trkpt lat="53.884060978889465" lon="-9.920399989932776">
        <ele>42.439999999999998</ele>
        <time>2026-07-03T10:01:46Z</time>
      </trkpt>
      <trkpt lat="53.88555203564465" lon="-9.919788027182221">
        <ele>46.280000000000001</ele>
        <time>2026-07-03T10:01:56Z</time>
      </trkpt>
      <trkpt lat="53.886859025806189" lon="-9.919672021642327">
        <ele>49.159999999999997</ele>
        <time>2026-07-03T10:02:05Z</time>
      </trkpt>
      <trkpt lat="53.887161025777459" lon="-9.919643020257354">
        <ele>50.130000000000003</ele>
        <time>2026-07-03T10:02:07Z</time>
      </trkpt>
      <trkpt lat="53.88731399551034" lon="-9.919595997780561">
        <ele>50.130000000000003</ele>
        <time>2026-07-03T10:02:08Z</time>
      </trkpt>
      <trkpt lat="53.888330971822143" lon="-9.9195939861238">
        <ele>48.68</ele>
        <time>2026-07-03T10:02:15Z</time>
      </trkpt>
      <trkpt lat="53.888466004282236" lon="-9.919575965031982">
        <ele>48.68</ele>
        <time>2026-07-03T10:02:16Z</time>
      </trkpt>
      <trkpt lat="53.888597013428807" lon="-9.919530032202601">
        <ele>48.68</ele>
        <time>2026-07-03T10:02:17Z</time>
      </trkpt>
      <trkpt lat="53.890084968879819" lon="-9.918878003954887">
        <ele>48.68</ele>
        <time>2026-07-03T10:02:27Z</time>
      </trkpt>
      <trkpt lat="53.891220968216658" lon="-9.918543985113502">
        <ele>51.090000000000003</ele>
        <time>2026-07-03T10:02:35Z</time>
      </trkpt>
      <trkpt lat="53.892892990261316" lon="-9.918294036760926">
        <ele>52.530000000000001</ele>
        <time>2026-07-03T10:02:46Z</time>
      </trkpt>
      <trkpt lat="53.89498402364552" lon="-9.918289007619023">
        <ele>53.490000000000002</ele>
        <time>2026-07-03T10:03:00Z</time>
      </trkpt>
      <trkpt lat="53.896051961928606" lon="-9.918102007359266">
        <ele>51.090000000000003</ele>
        <time>2026-07-03T10:03:07Z</time>
      </trkpt>
      <trkpt lat="53.896205015480518" lon="-9.918093038722873">
        <ele>50.609999999999999</ele>
        <time>2026-07-03T10:03:08Z</time>
      </trkpt>
      <trkpt lat="53.896340969949961" lon="-9.918165039271116">
        <ele>50.130000000000003</ele>
        <time>2026-07-03T10:03:09Z</time>
      </trkpt>
      <trkpt lat="53.896482037380338" lon="-9.918238967657089">
        <ele>50.130000000000003</ele>
        <time>2026-07-03T10:03:10Z</time>
      </trkpt>
      <trkpt lat="53.896626038476825" lon="-9.918314991518855">
        <ele>50.130000000000003</ele>
        <time>2026-07-03T10:03:11Z</time>
      </trkpt>
      <trkpt lat="53.898011986166239" lon="-9.919047988951206">
        <ele>49.649999999999999</ele>
        <time>2026-07-03T10:03:21Z</time>
      </trkpt>
      <trkpt lat="53.899686019867659" lon="-9.919685013592243">
        <ele>48.68</ele>
        <time>2026-07-03T10:03:32Z</time>
      </trkpt>
      <trkpt lat="53.900961996987462" lon="-9.920499986037612">
        <ele>50.130000000000003</ele>
        <time>2026-07-03T10:03:41Z</time>
      </trkpt>
      <trkpt lat="53.902183994650841" lon="-9.921253016218543">
        <ele>51.090000000000003</ele>
        <time>2026-07-03T10:03:49Z</time>
      </trkpt>
      <trkpt lat="53.90355602838099" lon="-9.921618970111013">
        <ele>51.090000000000003</ele>
        <time>2026-07-03T10:03:58Z</time>
      </trkpt>
      <trkpt lat="53.904505027458072" lon="-9.922111993655562">
        <ele>52.530000000000001</ele>
        <time>2026-07-03T10:04:05Z</time>
      </trkpt>
      <trkpt lat="53.905945038422942" lon="-9.922473002225161">
        <ele>51.090000000000003</ele>
        <time>2026-07-03T10:04:13Z</time>
      </trkpt>
      <trkpt lat="53.906309986487031" lon="-9.922516001388431">
        <ele>49.649999999999999</ele>
        <time>2026-07-03T10:04:15Z</time>
      </trkpt>
      <trkpt lat="53.906482988968492" lon="-9.922504015266895">
        <ele>48.68</ele>
        <time>2026-07-03T10:04:16Z</time>
      </trkpt>
      <trkpt lat="53.90667300671339" lon="-9.922478031367064">
        <ele>48.200000000000003</ele>
        <time>2026-07-03T10:04:17Z</time>
      </trkpt>
      <trkpt lat="53.906831005588174" lon="-9.922380968928337">
        <ele>47.240000000000002</ele>
        <time>2026-07-03T10:04:18Z</time>
      </trkpt>
      <trkpt lat="53.906998978927732" lon="-9.922276027500629">
        <ele>46.759999999999998</ele>
        <time>2026-07-03T10:04:19Z</time>
      </trkpt>
      <trkpt lat="53.908631019294262" lon="-9.921029973775148">
        <ele>43.399999999999999</ele>
        <time>2026-07-03T10:04:29Z</time>
      </trkpt>
      <trkpt lat="53.9092490170151" lon="-9.920084998011589">
        <ele>42.920000000000002</ele>
        <time>2026-07-03T10:04:34Z</time>
      </trkpt>
      <trkpt lat="53.90933501534164" lon="-9.919870002195239">
        <ele>42.920000000000002</ele>
        <time>2026-07-03T10:04:35Z</time>
      </trkpt>
      <trkpt lat="53.909406010061502" lon="-9.919646959751844">
        <ele>42.439999999999998</ele>
        <time>2026-07-03T10:04:36Z</time>
      </trkpt>
      <trkpt lat="53.909475998952985" lon="-9.919427018612623">
        <ele>42.439999999999998</ele>
        <time>2026-07-03T10:04:37Z</time>
      </trkpt>
      <trkpt lat="53.909545987844467" lon="-9.91920699365437">
        <ele>42.439999999999998</ele>
        <time>2026-07-03T10:04:38Z</time>
      </trkpt>
      <trkpt lat="53.910335982218385" lon="-9.916737014427781">
        <ele>39.549999999999997</ele>
        <time>2026-07-03T10:04:49Z</time>
      </trkpt>
      <trkpt lat="53.91144298017025" lon="-9.914363007992506">
        <ele>40.990000000000002</ele>
        <time>2026-07-03T10:05:00Z</time>
      </trkpt>
      <trkpt lat="53.912987010553479" lon="-9.912016997113824">
        <ele>37.630000000000003</ele>
        <time>2026-07-03T10:05:12Z</time>
      </trkpt>
      <trkpt lat="53.914345968514681" lon="-9.910185970366001">
        <ele>29.940000000000001</ele>
        <time>2026-07-03T10:05:22Z</time>
      </trkpt>
      <trkpt lat="53.915991000831127" lon="-9.908542027696967">
        <ele>28.98</ele>
        <time>2026-07-03T10:05:33Z</time>
      </trkpt>
      <trkpt lat="53.917548023164272" lon="-9.907031022012234">
        <ele>32.340000000000003</ele>
        <time>2026-07-03T10:05:43Z</time>
      </trkpt>
      <trkpt lat="53.919067997485399" lon="-9.906087974086404">
        <ele>33.780000000000001</ele>
        <time>2026-07-03T10:05:53Z</time>
      </trkpt>
      <trkpt lat="53.920013979077339" lon="-9.905578019097447">
        <ele>35.229999999999997</ele>
        <time>2026-07-03T10:06:01Z</time>
      </trkpt>
      <trkpt lat="53.921156013384461" lon="-9.904953986406326">
        <ele>36.189999999999998</ele>
        <time>2026-07-03T10:06:10Z</time>
      </trkpt>
      <trkpt lat="53.922726027667522" lon="-9.904096014797688">
        <ele>42.439999999999998</ele>
        <time>2026-07-03T10:06:21Z</time>
      </trkpt>
      <trkpt lat="53.92461396753788" lon="-9.903150033205748">
        <ele>48.68</ele>
        <time>2026-07-03T10:06:33Z</time>
      </trkpt>
      <trkpt lat="53.926233015954494" lon="-9.902398008853197">
        <ele>49.649999999999999</ele>
        <time>2026-07-03T10:06:43Z</time>
      </trkpt>
      <trkpt lat="53.927490971982479" lon="-9.901814041659236">
        <ele>48.68</ele>
        <time>2026-07-03T10:06:51Z</time>
      </trkpt>
      <trkpt lat="53.927632961422205" lon="-9.901713039726019">
        <ele>48.200000000000003</ele>
        <time>2026-07-03T10:06:52Z</time>
      </trkpt>
      <trkpt lat="53.928606016561389" lon="-9.90059900097549">
        <ele>46.280000000000001</ele>
        <time>2026-07-03T10:07:00Z</time>
      </trkpt>
      <trkpt lat="53.930083997547626" lon="-9.898960003629327">
        <ele>43.399999999999999</ele>
        <time>2026-07-03T10:07:11Z</time>
      </trkpt>
      <trkpt lat="53.930223975330591" lon="-9.898888003081083">
        <ele>42.920000000000002</ele>
        <time>2026-07-03T10:07:12Z</time>
      </trkpt>
      <trkpt lat="53.930364958941936" lon="-9.89881600253284">
        <ele>42.439999999999998</ele>
        <time>2026-07-03T10:07:13Z</time>
      </trkpt>
      <trkpt lat="53.930802997201681" lon="-9.898592038080096">
        <ele>39.549999999999997</ele>
        <time>2026-07-03T10:07:16Z</time>
      </trkpt>
      <trkpt lat="53.930963007733226" lon="-9.898509979248047">
        <ele>38.590000000000003</ele>
        <time>2026-07-03T10:07:17Z</time>
      </trkpt>
      <trkpt lat="53.931065015494823" lon="-9.898389028385282">
        <ele>37.630000000000003</ele>
        <time>2026-07-03T10:07:18Z</time>
      </trkpt>
      <trkpt lat="53.932004040107131" lon="-9.897187985479832">
        <ele>35.710000000000001</ele>
        <time>2026-07-03T10:07:26Z</time>
      </trkpt>
      <trkpt lat="53.932335041463375" lon="-9.896355997771025">
        <ele>37.630000000000003</ele>
        <time>2026-07-03T10:07:31Z</time>
      </trkpt>
      <trkpt lat="53.93236898817122" lon="-9.896235968917608">
        <ele>38.109999999999999</ele>
        <time>2026-07-03T10:07:32Z</time>
      </trkpt>
      <trkpt lat="53.932400001212955" lon="-9.896121975034475">
        <ele>38.590000000000003</ele>
        <time>2026-07-03T10:07:33Z</time>
      </trkpt>
      <trkpt lat="53.932413998991251" lon="-9.895992977544665">
        <ele>38.590000000000003</ele>
        <time>2026-07-03T10:07:34Z</time>
      </trkpt>
      <trkpt lat="53.93239296041429" lon="-9.895864985883236">
        <ele>38.590000000000003</ele>
        <time>2026-07-03T10:07:35Z</time>
      </trkpt>
      <trkpt lat="53.932370999827981" lon="-9.895725008100271">
        <ele>39.07</ele>
        <time>2026-07-03T10:07:36Z</time>
      </trkpt>
      <trkpt lat="53.93234602175653" lon="-9.89557103253901">
        <ele>38.590000000000003</ele>
        <time>2026-07-03T10:07:37Z</time>
      </trkpt>
      <trkpt lat="53.932320959866047" lon="-9.895416973158717">
        <ele>38.109999999999999</ele>
        <time>2026-07-03T10:07:38Z</time>
      </trkpt>
      <trkpt lat="53.932321965694427" lon="-9.895268026739359">
        <ele>38.109999999999999</ele>
        <time>2026-07-03T10:07:39Z</time>
      </trkpt>
      <trkpt lat="53.932333029806614" lon="-9.895117990672588">
        <ele>37.630000000000003</ele>
        <time>2026-07-03T10:07:40Z</time>
      </trkpt>
      <trkpt lat="53.932376028969884" lon="-9.895016988739371">
        <ele>37.630000000000003</ele>
        <time>2026-07-03T10:07:41Z</time>
      </trkpt>
      <trkpt lat="53.93243202008307" lon="-9.894933002069593">
        <ele>38.109999999999999</ele>
        <time>2026-07-03T10:07:42Z</time>
      </trkpt>
      <trkpt lat="53.932507038116455" lon="-9.894891008734703">
        <ele>38.590000000000003</ele>
        <time>2026-07-03T10:07:43Z</time>
      </trkpt>
      <trkpt lat="53.932594964280725" lon="-9.894905006513">
        <ele>39.07</ele>
        <time>2026-07-03T10:07:44Z</time>
      </trkpt>
      <trkpt lat="53.93269001506269" lon="-9.894921015948057">
        <ele>39.07</ele>
        <time>2026-07-03T10:07:45Z</time>
      </trkpt>
      <trkpt lat="53.932796968147159" lon="-9.894939037039876">
        <ele>39.549999999999997</ele>
        <time>2026-07-03T10:07:46Z</time>
      </trkpt>
      <trkpt lat="53.933302983641624" lon="-9.894993016496301">
        <ele>40.030000000000001</ele>
        <time>2026-07-03T10:07:50Z</time>
      </trkpt>
      <trkpt lat="53.933431981131434" lon="-9.894953034818173">
        <ele>40.030000000000001</ele>
        <time>2026-07-03T10:07:51Z</time>
      </trkpt>
      <trkpt lat="53.933556033298373" lon="-9.894895032048225">
        <ele>40.030000000000001</ele>
        <time>2026-07-03T10:07:52Z</time>
      </trkpt>
      <trkpt lat="53.93368000164628" lon="-9.894795035943389">
        <ele>40.509999999999998</ele>
        <time>2026-07-03T10:07:53Z</time>
      </trkpt>
      <trkpt lat="53.933811010792851" lon="-9.89469101652503">
        <ele>40.990000000000002</ele>
        <time>2026-07-03T10:07:54Z</time>
      </trkpt>
      <trkpt lat="53.933930033817887" lon="-9.894543997943401">
        <ele>40.990000000000002</ele>
        <time>2026-07-03T10:07:55Z</time>
      </trkpt>
      <trkpt lat="53.935234006494284" lon="-9.893255028873682">
        <ele>37.149999999999999</ele>
        <time>2026-07-03T10:08:04Z</time>
      </trkpt>
      <trkpt lat="53.937026979401708" lon="-9.891595998778939">
        <ele>35.710000000000001</ele>
        <time>2026-07-03T10:08:16Z</time>
      </trkpt>
      <trkpt lat="53.938360959291458" lon="-9.889518963173032">
        <ele>28.02</ele>
        <time>2026-07-03T10:08:28Z</time>
      </trkpt>
      <trkpt lat="53.939524032175541" lon="-9.88811600022018">
        <ele>24.649999999999999</ele>
        <time>2026-07-03T10:08:38Z</time>
      </trkpt>
      <trkpt lat="53.939902978017926" lon="-9.887803019955754">
        <ele>22.73</ele>
        <time>2026-07-03T10:08:43Z</time>
      </trkpt>
      <trkpt lat="53.939970033243299" lon="-9.887849958613515">
        <ele>22.25</ele>
        <time>2026-07-03T10:08:45Z</time>
      </trkpt>
      <trkpt lat="53.940006997436285" lon="-9.887896981090307">
        <ele>22.25</ele>
        <time>2026-07-03T10:08:46Z</time>
      </trkpt>
      <trkpt lat="53.940033987164497" lon="-9.887979039922357">
        <ele>21.77</ele>
        <time>2026-07-03T10:08:47Z</time>
      </trkpt>
      <trkpt lat="53.940056031569839" lon="-9.888070989400148">
        <ele>21.77</ele>
        <time>2026-07-03T10:08:48Z</time>
      </trkpt>
      <trkpt lat="53.940080003812909" lon="-9.888172997161746">
        <ele>21.77</ele>
        <time>2026-07-03T10:08:49Z</time>
      </trkpt>
      <trkpt lat="53.940347973257303" lon="-9.889451991766691">
        <ele>22.73</ele>
        <time>2026-07-03T10:08:57Z</time>
      </trkpt>
      <trkpt lat="53.940358031541109" lon="-9.889673022553325">
        <ele>23.210000000000001</ele>
        <time>2026-07-03T10:08:58Z</time>
      </trkpt>
      <trkpt lat="53.940479988232255" lon="-9.891880983486772">
        <ele>29.460000000000001</ele>
        <time>2026-07-03T10:09:07Z</time>
      </trkpt>
      <trkpt lat="53.940773019567132" lon="-9.894629996269941">
        <ele>35.710000000000001</ele>
        <time>2026-07-03T10:09:17Z</time>
      </trkpt>
      <trkpt lat="53.94068299792707" lon="-9.895891975611448">
        <ele>38.590000000000003</ele>
        <time>2026-07-03T10:09:23Z</time>
      </trkpt>
      <trkpt lat="53.940695989876986" lon="-9.896186012774706">
        <ele>40.030000000000001</ele>
        <time>2026-07-03T10:09:29Z</time>
      </trkpt>
      <trkpt lat="53.94070403650403" lon="-9.896363960579038">
        <ele>40.509999999999998</ele>
        <time>2026-07-03T10:09:34Z</time>
      </trkpt>
      <trkpt lat="53.940669000148773" lon="-9.896476026624441">
        <ele>40.509999999999998</ele>
        <time>2026-07-03T10:09:35Z</time>
      </trkpt>
      <trkpt lat="53.940622983500361" lon="-9.896619021892548">
        <ele>40.030000000000001</ele>
        <time>2026-07-03T10:09:36Z</time>
      </trkpt>
      <trkpt lat="53.940101964399219" lon="-9.898217031732202">
        <ele>37.149999999999999</ele>
        <time>2026-07-03T10:09:44Z</time>
      </trkpt>
      <trkpt lat="53.939252039417624" lon="-9.900615010410547">
        <ele>37.149999999999999</ele>
        <time>2026-07-03T10:09:54Z</time>
      </trkpt>
      <trkpt lat="53.938733031973243" lon="-9.902479983866215">
        <ele>34.259999999999998</ele>
        <time>2026-07-03T10:10:02Z</time>
      </trkpt>
      <trkpt lat="53.938283007591963" lon="-9.904689034447074">
        <ele>28.5</ele>
        <time>2026-07-03T10:10:12Z</time>
      </trkpt>
      <trkpt lat="53.937658974900842" lon="-9.906330965459347">
        <ele>24.649999999999999</ele>
        <time>2026-07-03T10:10:21Z</time>
      </trkpt>
      <trkpt lat="53.936518030241132" lon="-9.908384028822184">
        <ele>23.210000000000001</ele>
        <time>2026-07-03T10:10:33Z</time>
      </trkpt>
      <trkpt lat="53.935280023142695" lon="-9.909878019243479">
        <ele>24.649999999999999</ele>
        <time>2026-07-03T10:10:44Z</time>
      </trkpt>
      <trkpt lat="53.933826014399529" lon="-9.911610977724195">
        <ele>24.649999999999999</ele>
        <time>2026-07-03T10:10:58Z</time>
      </trkpt>
      <trkpt lat="53.933647982776165" lon="-9.911920018494129">
        <ele>24.170000000000002</ele>
        <time>2026-07-03T10:11:00Z</time>
      </trkpt>
      <trkpt lat="53.933585034683347" lon="-9.912099977955222">
        <ele>24.170000000000002</ele>
        <time>2026-07-03T10:11:01Z</time>
      </trkpt>
      <trkpt lat="53.933538012206554" lon="-9.912297036498785">
        <ele>24.170000000000002</ele>
        <time>2026-07-03T10:11:02Z</time>
      </trkpt>
      <trkpt lat="53.933490989729762" lon="-9.912493005394936">
        <ele>24.170000000000002</ele>
        <time>2026-07-03T10:11:03Z</time>
      </trkpt>
      <trkpt lat="53.933458970859647" lon="-9.91269601508975">
        <ele>24.649999999999999</ele>
        <time>2026-07-03T10:11:04Z</time>
      </trkpt>
      <trkpt lat="53.933437010273337" lon="-9.912902964279056">
        <ele>24.649999999999999</ele>
        <time>2026-07-03T10:11:05Z</time>
      </trkpt>
      <trkpt lat="53.933413960039616" lon="-9.913115026429296">
        <ele>24.649999999999999</ele>
        <time>2026-07-03T10:11:06Z</time>
      </trkpt>
      <trkpt lat="53.933455031365156" lon="-9.914911016821861">
        <ele>22.25</ele>
        <time>2026-07-03T10:11:15Z</time>
      </trkpt>
      <trkpt lat="53.933846969157457" lon="-9.917115038260818">
        <ele>17.920000000000002</ele>
        <time>2026-07-03T10:11:27Z</time>
      </trkpt>
      <trkpt lat="53.933891979977489" lon="-9.917819034308195">
        <ele>16</ele>
        <time>2026-07-03T10:11:31Z</time>
      </trkpt>
      <trkpt lat="53.933886028826237" lon="-9.917995976284146">
        <ele>15.52</ele>
        <time>2026-07-03T10:11:32Z</time>
      </trkpt>
      <trkpt lat="53.933879993855953" lon="-9.918168978765607">
        <ele>15.039999999999999</ele>
        <time>2026-07-03T10:11:33Z</time>
      </trkpt>
      <trkpt lat="53.93385199829936" lon="-9.918335024267435">
        <ele>15.039999999999999</ele>
        <time>2026-07-03T10:11:34Z</time>
      </trkpt>
      <trkpt lat="53.933824002742767" lon="-9.918496962636709">
        <ele>15.039999999999999</ele>
        <time>2026-07-03T10:11:35Z</time>
      </trkpt>
      <trkpt lat="53.933795001357794" lon="-9.918663008138537">
        <ele>15.52</ele>
        <time>2026-07-03T10:11:36Z</time>
      </trkpt>
      <trkpt lat="53.933758959174156" lon="-9.918826036155224">
        <ele>15.039999999999999</ele>
        <time>2026-07-03T10:11:37Z</time>
      </trkpt>
      <trkpt lat="53.933605989441276" lon="-9.919241024181247">
        <ele>14.56</ele>
        <time>2026-07-03T10:11:40Z</time>
      </trkpt>
      <trkpt lat="53.933026967570186" lon="-9.920879015699029">
        <ele>9.75</ele>
        <time>2026-07-03T10:11:51Z</time>
      </trkpt>
      <trkpt lat="53.93239002674818" lon="-9.922915985807777">
        <ele>11.19</ele>
        <time>2026-07-03T10:12:04Z</time>
      </trkpt>
      <trkpt lat="53.932230016216636" lon="-9.923248998820782">
        <ele>12.15</ele>
        <time>2026-07-03T10:12:12Z</time>
      </trkpt>
      <trkpt lat="53.932201014831662" lon="-9.923305995762348">
        <ele>12.15</ele>
        <time>2026-07-03T10:12:16Z</time>
      </trkpt>
      <trkpt lat="53.932215012609959" lon="-9.923279006034136">
        <ele>12.630000000000001</ele>
        <time>2026-07-03T10:12:18Z</time>
      </trkpt>
      <trkpt lat="53.932230016216636" lon="-9.923248998820782">
        <ele>12.15</ele>
        <time>2026-07-03T10:12:19Z</time>
      </trkpt>
      <trkpt lat="53.932251976802945" lon="-9.923203988000751">
        <ele>12.15</ele>
        <time>2026-07-03T10:12:20Z</time>
      </trkpt>
      <trkpt lat="53.932278966531157" lon="-9.923151014372706">
        <ele>12.15</ele>
        <time>2026-07-03T10:12:21Z</time>
      </trkpt>
      <trkpt lat="53.932358007878065" lon="-9.922992009669542">
        <ele>11.67</ele>
        <time>2026-07-03T10:12:24Z</time>
      </trkpt>
      <trkpt lat="53.932378962635994" lon="-9.922950016334653">
        <ele>11.67</ele>
        <time>2026-07-03T10:12:25Z</time>
      </trkpt>
      <trkpt lat="53.932598987594247" lon="-9.923079013824463">
        <ele>11.19</ele>
        <time>2026-07-03T10:12:30Z</time>
      </trkpt>
      <trkpt lat="53.932614997029305" lon="-9.923026040196419">
        <ele>10.710000000000001</ele>
        <time>2026-07-03T10:12:35Z</time>
      </trkpt>
      <trkpt lat="53.932793028652668" lon="-9.923097034916282">
        <ele>9.75</ele>
        <time>2026-07-03T10:12:47Z</time>
      </trkpt>
      <trkpt lat="53.932800991460681" lon="-9.923039032146335">
        <ele>8.789999999999999</ele>
        <time>2026-07-03T10:13:02Z</time>
      </trkpt>
      <trkpt lat="53.93279897980392" lon="-9.923039032146335">
        <ele>8.789999999999999</ele>
        <time>2026-07-03T10:13:43Z</time>
      </trkpt>
      <trkpt lat="53.93279897980392" lon="-9.923039032146335">
        <ele>8.789999999999999</ele>
        <time>2026-07-03T10:13:48Z</time>
      </trkpt>
      <trkpt lat="53.932378962635994" lon="-9.922950016334653">
        <ele>6.39</ele>
        <time>2026-07-03T10:13:58Z</time>
      </trkpt>
      <trkpt lat="53.932378962635994" lon="-9.922950016334653">
        <ele>6.39</ele>
        <time>2026-07-03T10:13:59Z</time>
      </trkpt>
      <trkpt lat="53.932378040626645" lon="-9.922953033819795">
        <ele>6.39</ele>
        <time>2026-07-03T10:14:00Z</time>
      </trkpt>
      <trkpt lat="53.932348033413291" lon="-9.923012964427471">
        <ele>6.39</ele>
        <time>2026-07-03T10:14:01Z</time>
      </trkpt>
      <trkpt lat="53.932285001501441" lon="-9.923138022422791">
        <ele>5.91</ele>
        <time>2026-07-03T10:14:03Z</time>
      </trkpt>
      <trkpt lat="53.93226102925837" lon="-9.923186972737312">
        <ele>5.91</ele>
        <time>2026-07-03T10:14:04Z</time>
      </trkpt>
      <trkpt lat="53.932222975417972" lon="-9.923261990770698">
        <ele>5.91</ele>
        <time>2026-07-03T10:14:06Z</time>
      </trkpt>
      <trkpt lat="53.932207971811295" lon="-9.923293003812432">
        <ele>5.91</ele>
        <time>2026-07-03T10:14:07Z</time>
      </trkpt>
      <trkpt lat="53.932100012898445" lon="-9.923507999628782">
        <ele>5.42</ele>
        <time>2026-07-03T10:14:13Z</time>
      </trkpt>
      <trkpt lat="53.932098001241684" lon="-9.923510011285543">
        <ele>5.91</ele>
        <time>2026-07-03T10:14:14Z</time>
      </trkpt>
      <trkpt lat="53.932037986814976" lon="-9.923572037369013">
        <ele>5.91</ele>
        <time>2026-07-03T10:14:15Z</time>
      </trkpt>
      <trkpt lat="53.931420994922519" lon="-9.924229010939598">
        <ele>6.87</ele>
        <time>2026-07-03T10:14:26Z</time>
      </trkpt>
      <trkpt lat="53.93135704100132" lon="-9.924329007044435">
        <ele>6.87</ele>
        <time>2026-07-03T10:14:34Z</time>
      </trkpt>
      <trkpt lat="53.93135704100132" lon="-9.924329007044435">
        <ele>6.87</ele>
        <time>2026-07-03T10:15:25Z</time>
      </trkpt>
      <trkpt lat="53.931237012147903" lon="-9.924518018960953">
        <ele>8.310000000000001</ele>
        <time>2026-07-03T10:15:34Z</time>
      </trkpt>
      <trkpt lat="53.931282022967935" lon="-9.924545008689165">
        <ele>21.289999999999999</ele>
        <time>2026-07-03T10:36:35Z</time>
      </trkpt>
      <trkpt lat="53.931222008541226" lon="-9.924481976777315">
        <ele>14.56</ele>
        <time>2026-07-03T10:37:04Z</time>
      </trkpt>
      <trkpt lat="53.931213039904833" lon="-9.92447099648416">
        <ele>10.710000000000001</ele>
        <time>2026-07-03T10:37:46Z</time>
      </trkpt>
      <trkpt lat="53.93118797801435" lon="-9.924465967342258">
        <ele>9.75</ele>
        <time>2026-07-03T10:38:20Z</time>
      </trkpt>
      <trkpt lat="53.931185966357589" lon="-9.924465967342258">
        <ele>9.75</ele>
        <time>2026-07-03T10:38:55Z</time>
      </trkpt>
      <trkpt lat="53.931198036298156" lon="-9.92457996122539">
        <ele>9.75</ele>
        <time>2026-07-03T10:38:57Z</time>
      </trkpt>
      <trkpt lat="53.931172974407673" lon="-9.92461902089417">
        <ele>9.27</ele>
        <time>2026-07-03T10:38:58Z</time>
      </trkpt>
      <trkpt lat="53.930839961394668" lon="-9.925154037773609">
        <ele>9.27</ele>
        <time>2026-07-03T10:39:05Z</time>
      </trkpt>
      <trkpt lat="53.930610967800021" lon="-9.92569399997592">
        <ele>9.75</ele>
        <time>2026-07-03T10:39:10Z</time>
      </trkpt>
      <trkpt lat="53.930261023342609" lon="-9.926880961284041">
        <ele>10.23</ele>
        <time>2026-07-03T10:39:19Z</time>
      </trkpt>
      <trkpt lat="53.93024199642241" lon="-9.927053041756153">
        <ele>10.23</ele>
        <time>2026-07-03T10:39:20Z</time>
      </trkpt>
      <trkpt lat="53.930223975330591" lon="-9.92722000926733">
        <ele>10.23</ele>
        <time>2026-07-03T10:39:21Z</time>
      </trkpt>
      <trkpt lat="53.930212995037436" lon="-9.927383959293366">
        <ele>10.23</ele>
        <time>2026-07-03T10:39:22Z</time>
      </trkpt>
      <trkpt lat="53.930218024179339" lon="-9.92754396982491">
        <ele>10.23</ele>
        <time>2026-07-03T10:39:23Z</time>
      </trkpt>
      <trkpt lat="53.930222969502211" lon="-9.927702974528074">
        <ele>10.23</ele>
        <time>2026-07-03T10:39:24Z</time>
      </trkpt>
      <trkpt lat="53.930390020832419" lon="-9.929402992129326">
        <ele>15.039999999999999</ele>
        <time>2026-07-03T10:39:35Z</time>
      </trkpt>
      <trkpt lat="53.930448023602366" lon="-9.929972039535642">
        <ele>15.52</ele>
        <time>2026-07-03T10:39:39Z</time>
      </trkpt>
      <trkpt lat="53.930448023602366" lon="-9.930263981223106">
        <ele>16</ele>
        <time>2026-07-03T10:39:41Z</time>
      </trkpt>
      <trkpt lat="53.930334029719234" lon="-9.932039016857743">
        <ele>13.119999999999999</ele>
        <time>2026-07-03T10:39:51Z</time>
      </trkpt>
      <trkpt lat="53.930114004760981" lon="-9.934829017147422">
        <ele>11.67</ele>
        <time>2026-07-03T10:40:02Z</time>
      </trkpt>
      <trkpt lat="53.929901020601392" lon="-9.937536958605051">
        <ele>10.23</ele>
        <time>2026-07-03T10:40:13Z</time>
      </trkpt>
      <trkpt lat="53.929873025044799" lon="-9.93789897300303">
        <ele>10.23</ele>
        <time>2026-07-03T10:40:16Z</time>
      </trkpt>
      <trkpt lat="53.929869001731277" lon="-9.937953958287835">
        <ele>10.23</ele>
        <time>2026-07-03T10:40:17Z</time>
      </trkpt>
      <trkpt lat="53.929865984246135" lon="-9.937990000471473">
        <ele>10.23</ele>
        <time>2026-07-03T10:40:18Z</time>
      </trkpt>
      <trkpt lat="53.929862966760993" lon="-9.938024030998349">
        <ele>10.23</ele>
        <time>2026-07-03T10:40:19Z</time>
      </trkpt>
      <trkpt lat="53.929860033094883" lon="-9.938058983534575">
        <ele>10.23</ele>
        <time>2026-07-03T10:40:20Z</time>
      </trkpt>
      <trkpt lat="53.929761964827776" lon="-9.938174989074469">
        <ele>10.23</ele>
        <time>2026-07-03T10:40:21Z</time>
      </trkpt>
      <trkpt lat="53.929722988978028" lon="-9.938151016831398">
        <ele>10.23</ele>
        <time>2026-07-03T10:40:22Z</time>
      </trkpt>
      <trkpt lat="53.929672027006745" lon="-9.938118997961283">
        <ele>10.23</ele>
        <time>2026-07-03T10:40:23Z</time>
      </trkpt>
      <trkpt lat="53.929606983438134" lon="-9.938078010454774">
        <ele>10.23</ele>
        <time>2026-07-03T10:40:24Z</time>
      </trkpt>
      <trkpt lat="53.929524002596736" lon="-9.938025958836079">
        <ele>10.710000000000001</ele>
        <time>2026-07-03T10:40:25Z</time>
      </trkpt>
      <trkpt lat="53.929434986785054" lon="-9.937970973551273">
        <ele>11.19</ele>
        <time>2026-07-03T10:40:26Z</time>
      </trkpt>
      <trkpt lat="53.929331973195076" lon="-9.937906013801694">
        <ele>11.67</ele>
        <time>2026-07-03T10:40:27Z</time>
      </trkpt>
      <trkpt lat="53.928854037076235" lon="-9.937561014667153">
        <ele>16</ele>
        <time>2026-07-03T10:40:32Z</time>
      </trkpt>
      <trkpt lat="53.928747000172734" lon="-9.937518015503883">
        <ele>16.48</ele>
        <time>2026-07-03T10:40:33Z</time>
      </trkpt>
      <trkpt lat="53.928644992411137" lon="-9.937477027997375">
        <ele>17.440000000000001</ele>
        <time>2026-07-03T10:40:34Z</time>
      </trkpt>
      <trkpt lat="53.928530998528004" lon="-9.937470993027091">
        <ele>18.399999999999999</ele>
        <time>2026-07-03T10:40:35Z</time>
      </trkpt>
      <trkpt lat="53.92841599881649" lon="-9.937464036047459">
        <ele>19.359999999999999</ele>
        <time>2026-07-03T10:40:36Z</time>
      </trkpt>
      <trkpt lat="53.928280966356397" lon="-9.937455989420414">
        <ele>20.32</ele>
        <time>2026-07-03T10:40:37Z</time>
      </trkpt>
      <trkpt lat="53.928184993565083" lon="-9.937494965270162">
        <ele>20.809999999999999</ele>
        <time>2026-07-03T10:40:38Z</time>
      </trkpt>
      <trkpt lat="53.928069993853569" lon="-9.937542993575335">
        <ele>21.77</ele>
        <time>2026-07-03T10:40:39Z</time>
      </trkpt>
      <trkpt lat="53.927951976656914" lon="-9.937591021880508">
        <ele>22.25</ele>
        <time>2026-07-03T10:40:40Z</time>
      </trkpt>
      <trkpt lat="53.926904993131757" lon="-9.938623001798987">
        <ele>26.57</ele>
        <time>2026-07-03T10:40:49Z</time>
      </trkpt>
      <trkpt lat="53.925694981589913" lon="-9.940098971128464">
        <ele>28.5</ele>
        <time>2026-07-03T10:40:58Z</time>
      </trkpt>
      <trkpt lat="53.924497961997986" lon="-9.941908037289977">
        <ele>26.57</ele>
        <time>2026-07-03T10:41:08Z</time>
      </trkpt>
      <trkpt lat="53.923492971807718" lon="-9.943706961348653">
        <ele>27.530000000000001</ele>
        <time>2026-07-03T10:41:18Z</time>
      </trkpt>
      <trkpt lat="53.922598036006093" lon="-9.945239005610347">
        <ele>26.09</ele>
        <time>2026-07-03T10:41:27Z</time>
      </trkpt>
      <trkpt lat="53.921312000602484" lon="-9.947132980450988">
        <ele>23.210000000000001</ele>
        <time>2026-07-03T10:41:38Z</time>
      </trkpt>
      <trkpt lat="53.920197961851954" lon="-9.948941040784121">
        <ele>26.57</ele>
        <time>2026-07-03T10:41:48Z</time>
      </trkpt>
      <trkpt lat="53.918616967275739" lon="-9.951251009479165">
        <ele>23.690000000000001</ele>
        <time>2026-07-03T10:42:01Z</time>
      </trkpt>
      <trkpt lat="53.917029015719891" lon="-9.952536039054394">
        <ele>24.649999999999999</ele>
        <time>2026-07-03T10:42:12Z</time>
      </trkpt>
      <trkpt lat="53.915650025010109" lon="-9.953471040353179">
        <ele>25.609999999999999</ele>
        <time>2026-07-03T10:42:21Z</time>
      </trkpt>
      <trkpt lat="53.914348985999823" lon="-9.954797979444265">
        <ele>22.73</ele>
        <time>2026-07-03T10:42:31Z</time>
      </trkpt>
      <trkpt lat="53.914227029308677" lon="-9.954963019117713">
        <ele>22.25</ele>
        <time>2026-07-03T10:42:32Z</time>
      </trkpt>
      <trkpt lat="53.914119992405176" lon="-9.955142978578806">
        <ele>20.809999999999999</ele>
        <time>2026-07-03T10:42:33Z</time>
      </trkpt>
      <trkpt lat="53.914016978815198" lon="-9.955316986888647">
        <ele>19.84</ele>
        <time>2026-07-03T10:42:34Z</time>
      </trkpt>
      <trkpt lat="53.913917988538742" lon="-9.955484960228205">
        <ele>18.879999999999999</ele>
        <time>2026-07-03T10:42:35Z</time>
      </trkpt>
      <trkpt lat="53.91380600631237" lon="-9.955628961324692">
        <ele>17.920000000000002</ele>
        <time>2026-07-03T10:42:36Z</time>
      </trkpt>
      <trkpt lat="53.913687989115715" lon="-9.955757958814502">
        <ele>17.440000000000001</ele>
        <time>2026-07-03T10:42:37Z</time>
      </trkpt>
      <trkpt lat="53.913552034646273" lon="-9.955874970182777">
        <ele>16.48</ele>
        <time>2026-07-03T10:42:38Z</time>
      </trkpt>
      <trkpt lat="53.911789990961552" lon="-9.957330990582705">
        <ele>11.67</ele>
        <time>2026-07-03T10:42:50Z</time>
      </trkpt>
      <trkpt lat="53.910877034068108" lon="-9.957885034382343">
        <ele>11.19</ele>
        <time>2026-07-03T10:42:57Z</time>
      </trkpt>
      <trkpt lat="53.910743007436395" lon="-9.957890985533595">
        <ele>11.19</ele>
        <time>2026-07-03T10:42:58Z</time>
      </trkpt>
      <trkpt lat="53.909045001491904" lon="-9.957656040787697">
        <ele>9.75</ele>
        <time>2026-07-03T10:43:10Z</time>
      </trkpt>
      <trkpt lat="53.908895971253514" lon="-9.957565013319254">
        <ele>9.75</ele>
        <time>2026-07-03T10:43:11Z</time>
      </trkpt>
      <trkpt lat="53.908778037875891" lon="-9.95740701444447">
        <ele>9.75</ele>
        <time>2026-07-03T10:43:12Z</time>
      </trkpt>
      <trkpt lat="53.908657003194094" lon="-9.957245998084545">
        <ele>9.27</ele>
        <time>2026-07-03T10:43:13Z</time>
      </trkpt>
      <trkpt lat="53.908533034846187" lon="-9.957080958411098">
        <ele>9.27</ele>
        <time>2026-07-03T10:43:14Z</time>
      </trkpt>
      <trkpt lat="53.908417029306293" lon="-9.956887001171708">
        <ele>9.27</ele>
        <time>2026-07-03T10:43:15Z</time>
      </trkpt>
      <trkpt lat="53.907698029652238" lon="-9.955182038247585">
        <ele>11.19</ele>
        <time>2026-07-03T10:43:23Z</time>
      </trkpt>
      <trkpt lat="53.907650001347065" lon="-9.954952960833907">
        <ele>11.67</ele>
        <time>2026-07-03T10:43:24Z</time>
      </trkpt>
      <trkpt lat="53.907601973041892" lon="-9.954724973067641">
        <ele>12.630000000000001</ele>
        <time>2026-07-03T10:43:25Z</time>
      </trkpt>
      <trkpt lat="53.907555034384131" lon="-9.954500002786517">
        <ele>13.6</ele>
        <time>2026-07-03T10:43:26Z</time>
      </trkpt>
      <trkpt lat="53.907546987757087" lon="-9.954219963401556">
        <ele>14.08</ele>
        <time>2026-07-03T10:43:27Z</time>
      </trkpt>
      <trkpt lat="53.907569032162428" lon="-9.953979989513755">
        <ele>14.08</ele>
        <time>2026-07-03T10:43:28Z</time>
      </trkpt>
      <trkpt lat="53.907593004405499" lon="-9.953730963170528">
        <ele>13.6</ele>
        <time>2026-07-03T10:43:29Z</time>
      </trkpt>
      <trkpt lat="53.907616976648569" lon="-9.953473974019289">
        <ele>13.6</ele>
        <time>2026-07-03T10:43:30Z</time>
      </trkpt>
      <trkpt lat="53.907642038539052" lon="-9.953209022060037">
        <ele>13.119999999999999</ele>
        <time>2026-07-03T10:43:31Z</time>
      </trkpt>
      <trkpt lat="53.907726025208831" lon="-9.952664030715823">
        <ele>13.119999999999999</ele>
        <time>2026-07-03T10:43:33Z</time>
      </trkpt>
      <trkpt lat="53.907802971079946" lon="-9.952433025464416">
        <ele>13.6</ele>
        <time>2026-07-03T10:43:34Z</time>
      </trkpt>
      <trkpt lat="53.908281996846199" lon="-9.950304022058845">
        <ele>22.25</ele>
        <time>2026-07-03T10:43:43Z</time>
      </trkpt>
      <trkpt lat="53.908367995172739" lon="-9.948169989511371">
        <ele>21.77</ele>
        <time>2026-07-03T10:43:51Z</time>
      </trkpt>
      <trkpt lat="53.908360032364726" lon="-9.947907971218228">
        <ele>21.77</ele>
        <time>2026-07-03T10:43:52Z</time>
      </trkpt>
      <trkpt lat="53.907915959134698" lon="-9.945691963657737">
        <ele>27.530000000000001</ele>
        <time>2026-07-03T10:44:01Z</time>
      </trkpt>
      <trkpt lat="53.90770498663187" lon="-9.944635005667806">
        <ele>27.530000000000001</ele>
        <time>2026-07-03T10:44:06Z</time>
      </trkpt>
      <trkpt lat="53.907652013003826" lon="-9.944456974044442">
        <ele>27.050000000000001</ele>
        <time>2026-07-03T10:44:07Z</time>
      </trkpt>
      <trkpt lat="53.907582024112344" lon="-9.944316996261478">
        <ele>26.57</ele>
        <time>2026-07-03T10:44:08Z</time>
      </trkpt>
      <trkpt lat="53.907495019957423" lon="-9.944199984893203">
        <ele>26.57</ele>
        <time>2026-07-03T10:44:09Z</time>
      </trkpt>
      <trkpt lat="53.907392006367445" lon="-9.944090014323592">
        <ele>26.09</ele>
        <time>2026-07-03T10:44:10Z</time>
      </trkpt>
      <trkpt lat="53.907278012484312" lon="-9.944023964926601">
        <ele>26.09</ele>
        <time>2026-07-03T10:44:11Z</time>
      </trkpt>
      <trkpt lat="53.905596015974879" lon="-9.943058034405112">
        <ele>26.57</ele>
        <time>2026-07-03T10:44:24Z</time>
      </trkpt>
      <trkpt lat="53.903932962566614" lon="-9.941947013139725">
        <ele>24.649999999999999</ele>
        <time>2026-07-03T10:44:36Z</time>
      </trkpt>
      <trkpt lat="53.902505021542311" lon="-9.940974963828921">
        <ele>21.77</ele>
        <time>2026-07-03T10:44:48Z</time>
      </trkpt>
      <trkpt lat="53.901133993640542" lon="-9.940042980015278">
        <ele>22.25</ele>
        <time>2026-07-03T10:44:58Z</time>
      </trkpt>
      <trkpt lat="53.900088015943766" lon="-9.9393389839679">
        <ele>20.32</ele>
        <time>2026-07-03T10:45:06Z</time>
      </trkpt>
      <trkpt lat="53.898773984983563" lon="-9.938462991267443">
        <ele>16</ele>
        <time>2026-07-03T10:45:16Z</time>
      </trkpt>
      <trkpt lat="53.898360002785921" lon="-9.938266016542912">
        <ele>14.56</ele>
        <time>2026-07-03T10:45:19Z</time>
      </trkpt>
      <trkpt lat="53.89820896089077" lon="-9.938207007944584">
        <ele>14.08</ele>
        <time>2026-07-03T10:45:20Z</time>
      </trkpt>
      <trkpt lat="53.896467033773661" lon="-9.938144981861115">
        <ele>11.19</ele>
        <time>2026-07-03T10:45:30Z</time>
      </trkpt>
      <trkpt lat="53.894894002005458" lon="-9.938399037346244">
        <ele>10.23</ele>
        <time>2026-07-03T10:45:39Z</time>
      </trkpt>
      <trkpt lat="53.893299009650946" lon="-9.938768008723855">
        <ele>9.27</ele>
        <time>2026-07-03T10:45:49Z</time>
      </trkpt>
      <trkpt lat="53.892441960051656" lon="-9.939155001193285">
        <ele>10.710000000000001</ele>
        <time>2026-07-03T10:45:55Z</time>
      </trkpt>
      <trkpt lat="53.892312040552497" lon="-9.939283998683095">
        <ele>10.710000000000001</ele>
        <time>2026-07-03T10:45:56Z</time>
      </trkpt>
      <trkpt lat="53.892194023355842" lon="-9.939427999779582">
        <ele>10.710000000000001</ele>
        <time>2026-07-03T10:45:57Z</time>
      </trkpt>
      <trkpt lat="53.89043097384274" lon="-9.941530013456941">
        <ele>7.35</ele>
        <time>2026-07-03T10:46:11Z</time>
      </trkpt>
      <trkpt lat="53.888928014785051" lon="-9.94303397834301">
        <ele>9.75</ele>
        <time>2026-07-03T10:46:22Z</time>
      </trkpt>
      <trkpt lat="53.887428995221853" lon="-9.943824978545308">
        <ele>8.310000000000001</ele>
        <time>2026-07-03T10:46:32Z</time>
      </trkpt>
      <trkpt lat="53.885830985382199" lon="-9.944308027625084">
        <ele>9.27</ele>
        <time>2026-07-03T10:46:42Z</time>
      </trkpt>
      <trkpt lat="53.883874984458089" lon="-9.944764003157616">
        <ele>11.67</ele>
        <time>2026-07-03T10:46:54Z</time>
      </trkpt>
      <trkpt lat="53.882280997931957" lon="-9.945294996723533">
        <ele>9.75</ele>
        <time>2026-07-03T10:47:05Z</time>
      </trkpt>
      <trkpt lat="53.880990017205477" lon="-9.946198984980583">
        <ele>9.27</ele>
        <time>2026-07-03T10:47:15Z</time>
      </trkpt>
      <trkpt lat="53.880079993978143" lon="-9.947443027049303">
        <ele>8.310000000000001</ele>
        <time>2026-07-03T10:47:24Z</time>
      </trkpt>
      <trkpt lat="53.879249012097716" lon="-9.948306027799845">
        <ele>9.27</ele>
        <time>2026-07-03T10:47:31Z</time>
      </trkpt>
      <trkpt lat="53.879124037921429" lon="-9.948379034176469">
        <ele>9.75</ele>
        <time>2026-07-03T10:47:32Z</time>
      </trkpt>
      <trkpt lat="53.878650041297078" lon="-9.948654966428876">
        <ele>11.67</ele>
        <time>2026-07-03T10:47:36Z</time>
      </trkpt>
      <trkpt lat="53.878531018272042" lon="-9.948724033311009">
        <ele>12.15</ele>
        <time>2026-07-03T10:47:37Z</time>
      </trkpt>
      <trkpt lat="53.877144986763597" lon="-9.949901020154357">
        <ele>10.23</ele>
        <time>2026-07-03T10:47:48Z</time>
      </trkpt>
      <trkpt lat="53.876567976549268" lon="-9.950393959879875">
        <ele>13.6</ele>
        <time>2026-07-03T10:47:54Z</time>
      </trkpt>
      <trkpt lat="53.876483989879489" lon="-9.950422961264849">
        <ele>14.08</ele>
        <time>2026-07-03T10:47:55Z</time>
      </trkpt>
      <trkpt lat="53.876395979896188" lon="-9.950451962649822">
        <ele>14.56</ele>
        <time>2026-07-03T10:47:56Z</time>
      </trkpt>
      <trkpt lat="53.876129016280174" lon="-9.950502002611756">
        <ele>15.039999999999999</ele>
        <time>2026-07-03T10:48:00Z</time>
      </trkpt>
      <trkpt lat="53.876089034602046" lon="-9.950502002611756">
        <ele>15.52</ele>
        <time>2026-07-03T10:48:01Z</time>
      </trkpt>
      <trkpt lat="53.875956013798714" lon="-9.950710041448474">
        <ele>15.52</ele>
        <time>2026-07-03T10:48:02Z</time>
      </trkpt>
      <trkpt lat="53.875961964949965" lon="-9.950825041159987">
        <ele>15.52</ele>
        <time>2026-07-03T10:48:03Z</time>
      </trkpt>
      <trkpt lat="53.87597001157701" lon="-9.95096099562943">
        <ele>15.52</ele>
        <time>2026-07-03T10:48:04Z</time>
      </trkpt>
      <trkpt lat="53.875977974385023" lon="-9.95111396536231">
        <ele>15.039999999999999</ele>
        <time>2026-07-03T10:48:05Z</time>
      </trkpt>
      <trkpt lat="53.875986021012068" lon="-9.951275987550616">
        <ele>14.56</ele>
        <time>2026-07-03T10:48:06Z</time>
      </trkpt>
      <trkpt lat="53.876031031832099" lon="-9.953120006248355">
        <ele>12.630000000000001</ele>
        <time>2026-07-03T10:48:16Z</time>
      </trkpt>
      <trkpt lat="53.875975040718913" lon="-9.95347598567605">
        <ele>13.119999999999999</ele>
        <time>2026-07-03T10:48:18Z</time>
      </trkpt>
      <trkpt lat="53.875528033822775" lon="-9.955570036545396">
        <ele>15.52</ele>
        <time>2026-07-03T10:48:29Z</time>
      </trkpt>
      <trkpt lat="53.8754110224545" lon="-9.957609018310905">
        <ele>11.67</ele>
        <time>2026-07-03T10:48:38Z</time>
      </trkpt>
      <trkpt lat="53.875567009672523" lon="-9.960286030545831">
        <ele>14.08</ele>
        <time>2026-07-03T10:48:50Z</time>
      </trkpt>
      <trkpt lat="53.875624006614089" lon="-9.962252005934715">
        <ele>13.119999999999999</ele>
        <time>2026-07-03T10:49:00Z</time>
      </trkpt>
      <trkpt lat="53.875802960246801" lon="-9.963738033547998">
        <ele>14.56</ele>
        <time>2026-07-03T10:49:08Z</time>
      </trkpt>
      <trkpt lat="53.875902034342289" lon="-9.964234996587038">
        <ele>15.52</ele>
        <time>2026-07-03T10:49:13Z</time>
      </trkpt>
      <trkpt lat="53.875902034342289" lon="-9.964234996587038">
        <ele>15.52</ele>
        <time>2026-07-03T10:49:24Z</time>
      </trkpt>
      <trkpt lat="53.875902034342289" lon="-9.964234996587038">
        <ele>15.52</ele>
        <time>2026-07-03T10:50:02Z</time>
      </trkpt>
      <trkpt lat="53.875921983271837" lon="-9.964332981035113">
        <ele>16</ele>
        <time>2026-07-03T10:50:09Z</time>
      </trkpt>
      <trkpt lat="53.876251978799701" lon="-9.965117024257779">
        <ele>18.399999999999999</ele>
        <time>2026-07-03T10:50:15Z</time>
      </trkpt>
      <trkpt lat="53.876664033159614" lon="-9.966011960059404">
        <ele>22.73</ele>
        <time>2026-07-03T10:50:21Z</time>
      </trkpt>
      <trkpt lat="53.876797975972295" lon="-9.966303985565901">
        <ele>24.170000000000002</ele>
        <time>2026-07-03T10:50:24Z</time>
      </trkpt>
      <trkpt lat="53.877097964286804" lon="-9.966596011072397">
        <ele>27.050000000000001</ele>
        <time>2026-07-03T10:50:33Z</time>
      </trkpt>
      <trkpt lat="53.877097964286804" lon="-9.966596011072397">
        <ele>28.5</ele>
        <time>2026-07-03T10:50:55Z</time>
      </trkpt>
      <trkpt lat="53.877169964835048" lon="-9.96662300080061">
        <ele>27.530000000000001</ele>
        <time>2026-07-03T10:51:19Z</time>
      </trkpt>
      <trkpt lat="53.877227967604995" lon="-9.96662300080061">
        <ele>27.530000000000001</ele>
        <time>2026-07-03T10:51:20Z</time>
      </trkpt>
      <trkpt lat="53.877296028658748" lon="-9.96656097471714">
        <ele>27.050000000000001</ele>
        <time>2026-07-03T10:51:21Z</time>
      </trkpt>
      <trkpt lat="53.877370962873101" lon="-9.966492997482419">
        <ele>27.050000000000001</ele>
        <time>2026-07-03T10:51:22Z</time>
      </trkpt>
      <trkpt lat="53.877370962873101" lon="-9.966492997482419">
        <ele>26.57</ele>
        <time>2026-07-03T10:51:23Z</time>
      </trkpt>
      <trkpt lat="53.877548994496465" lon="-9.966389983892441">
        <ele>26.09</ele>
        <time>2026-07-03T10:51:24Z</time>
      </trkpt>
      <trkpt lat="53.877647984772921" lon="-9.966362994164228">
        <ele>26.09</ele>
        <time>2026-07-03T10:51:25Z</time>
      </trkpt>
      <trkpt lat="53.877735994756222" lon="-9.966399958357215">
        <ele>26.09</ele>
        <time>2026-07-03T10:51:26Z</time>
      </trkpt>
      <trkpt lat="53.877824004739523" lon="-9.96647397056222">
        <ele>26.09</ele>
        <time>2026-07-03T10:51:27Z</time>
      </trkpt>
      <trkpt lat="53.87790204025805" lon="-9.966590981930494">
        <ele>26.57</ele>
        <time>2026-07-03T10:51:28Z</time>
      </trkpt>
      <trkpt lat="53.877993989735842" lon="-9.966702964156866">
        <ele>26.57</ele>
        <time>2026-07-03T10:51:29Z</time>
      </trkpt>
      <trkpt lat="53.878105971962214" lon="-9.966779993847013">
        <ele>27.050000000000001</ele>
        <time>2026-07-03T10:51:30Z</time>
      </trkpt>
      <trkpt lat="53.87822600081563" lon="-9.96686196886003">
        <ele>28.02</ele>
        <time>2026-07-03T10:51:31Z</time>
      </trkpt>
      <trkpt lat="53.878350974991918" lon="-9.966973029077053">
        <ele>28.5</ele>
        <time>2026-07-03T10:51:32Z</time>
      </trkpt>
      <trkpt lat="53.879132000729442" lon="-9.967939965426922">
        <ele>32.340000000000003</ele>
        <time>2026-07-03T10:51:39Z</time>
      </trkpt>
      <trkpt lat="53.87923501431942" lon="-9.968074997887015">
        <ele>32.82</ele>
        <time>2026-07-03T10:51:40Z</time>
      </trkpt>
      <trkpt lat="53.879336016252637" lon="-9.968226039782167">
        <ele>33.299999999999997</ele>
        <time>2026-07-03T10:51:41Z</time>
      </trkpt>
      <trkpt lat="53.879915960133076" lon="-9.969460023567081">
        <ele>29.940000000000001</ele>
        <time>2026-07-03T10:51:47Z</time>
      </trkpt>
      <trkpt lat="53.87998603284359" lon="-9.969678036868572">
        <ele>28.98</ele>
        <time>2026-07-03T10:51:48Z</time>
      </trkpt>
      <trkpt lat="53.880025008693337" lon="-9.969880962744355">
        <ele>28.5</ele>
        <time>2026-07-03T10:51:49Z</time>
      </trkpt>
      <trkpt lat="53.880097009241581" lon="-9.970249012112618">
        <ele>27.530000000000001</ele>
        <time>2026-07-03T10:51:51Z</time>
      </trkpt>
      <trkpt lat="53.880165992304683" lon="-9.970416985452175">
        <ele>27.050000000000001</ele>
        <time>2026-07-03T10:51:52Z</time>
      </trkpt>
      <trkpt lat="53.880251990631223" lon="-9.9705780018121">
        <ele>26.57</ele>
        <time>2026-07-03T10:51:53Z</time>
      </trkpt>
      <trkpt lat="53.881269972771406" lon="-9.971832018345594">
        <ele>21.77</ele>
        <time>2026-07-03T10:52:01Z</time>
      </trkpt>
      <trkpt lat="53.882336989045143" lon="-9.972794009372592">
        <ele>24.170000000000002</ele>
        <time>2026-07-03T10:52:09Z</time>
      </trkpt>
      <trkpt lat="53.882452994585037" lon="-9.972913032397628">
        <ele>24.649999999999999</ele>
        <time>2026-07-03T10:52:10Z</time>
      </trkpt>
      <trkpt lat="53.882682994008064" lon="-9.973290972411633">
        <ele>27.530000000000001</ele>
        <time>2026-07-03T10:52:13Z</time>
      </trkpt>
      <trkpt lat="53.882771003991365" lon="-9.97336900793016">
        <ele>28.5</ele>
        <time>2026-07-03T10:52:14Z</time>
      </trkpt>
      <trkpt lat="53.883782029151917" lon="-9.974348014220595">
        <ele>36.189999999999998</ele>
        <time>2026-07-03T10:52:23Z</time>
      </trkpt>
      <trkpt lat="53.884125016629696" lon="-9.974743975326419">
        <ele>39.07</ele>
        <time>2026-07-03T10:52:26Z</time>
      </trkpt>
      <trkpt lat="53.884226018562913" lon="-9.974933993071318">
        <ele>40.030000000000001</ele>
        <time>2026-07-03T10:52:27Z</time>
      </trkpt>
      <trkpt lat="53.884807974100113" lon="-9.976641973480582">
        <ele>45.32</ele>
        <time>2026-07-03T10:52:36Z</time>
      </trkpt>
      <trkpt lat="53.885136041790247" lon="-9.978552963584662">
        <ele>42.920000000000002</ele>
        <time>2026-07-03T10:52:44Z</time>
      </trkpt>
      <trkpt lat="53.885420020669699" lon="-9.97966499067843">
        <ele>42.920000000000002</ele>
        <time>2026-07-03T10:52:49Z</time>
      </trkpt>
      <trkpt lat="53.885498978197575" lon="-9.979855008423328">
        <ele>42.920000000000002</ele>
        <time>2026-07-03T10:52:50Z</time>
      </trkpt>
      <trkpt lat="53.88589602895081" lon="-9.980557998642325">
        <ele>42.439999999999998</ele>
        <time>2026-07-03T10:52:54Z</time>
      </trkpt>
      <trkpt lat="53.886013040319085" lon="-9.9806750100106">
        <ele>42.920000000000002</ele>
        <time>2026-07-03T10:52:55Z</time>
      </trkpt>
      <trkpt lat="53.886130973696709" lon="-9.980793027207255">
        <ele>43.399999999999999</ele>
        <time>2026-07-03T10:52:56Z</time>
      </trkpt>
      <trkpt lat="53.887167982757092" lon="-9.981646975502372">
        <ele>46.280000000000001</ele>
        <time>2026-07-03T10:53:05Z</time>
      </trkpt>
      <trkpt lat="53.888095021247864" lon="-9.982492038980126">
        <ele>41.469999999999999</ele>
        <time>2026-07-03T10:53:15Z</time>
      </trkpt>
      <trkpt lat="53.888218989595771" lon="-9.982720026746392">
        <ele>41.469999999999999</ele>
        <time>2026-07-03T10:53:16Z</time>
      </trkpt>
      <trkpt lat="53.88825997710228" lon="-9.982828991487622">
        <ele>40.990000000000002</ele>
        <time>2026-07-03T10:53:17Z</time>
      </trkpt>
      <trkpt lat="53.888293001800776" lon="-9.982920018956065">
        <ele>40.509999999999998</ele>
        <time>2026-07-03T10:53:18Z</time>
      </trkpt>
      <trkpt lat="53.888327032327652" lon="-9.983020015060902">
        <ele>40.509999999999998</ele>
        <time>2026-07-03T10:53:19Z</time>
      </trkpt>
      <trkpt lat="53.888327032327652" lon="-9.983020015060902">
        <ele>40.030000000000001</ele>
        <time>2026-07-03T10:53:20Z</time>
      </trkpt>
      <trkpt lat="53.888351004570723" lon="-9.983240962028503">
        <ele>40.030000000000001</ele>
        <time>2026-07-03T10:53:21Z</time>
      </trkpt>
      <trkpt lat="53.888579998165369" lon="-9.984496990218759">
        <ele>35.710000000000001</ele>
        <time>2026-07-03T10:53:28Z</time>
      </trkpt>
      <trkpt lat="53.888847967609763" lon="-9.985609017312527">
        <ele>28.98</ele>
        <time>2026-07-03T10:53:34Z</time>
      </trkpt>
      <trkpt lat="53.888895995914936" lon="-9.985758969560266">
        <ele>28.02</ele>
        <time>2026-07-03T10:53:35Z</time>
      </trkpt>
      <trkpt lat="53.888962967321277" lon="-9.985770033672452">
        <ele>26.57</ele>
        <time>2026-07-03T10:53:36Z</time>
      </trkpt>
      <trkpt lat="53.889058018103242" lon="-9.985733991488814">
        <ele>25.609999999999999</ele>
        <time>2026-07-03T10:53:37Z</time>
      </trkpt>
      <trkpt lat="53.889145022258162" lon="-9.985646987333894">
        <ele>24.649999999999999</ele>
        <time>2026-07-03T10:53:38Z</time>
      </trkpt>
      <trkpt lat="53.889240995049477" lon="-9.98555101454258">
        <ele>23.210000000000001</ele>
        <time>2026-07-03T10:53:39Z</time>
      </trkpt>
      <trkpt lat="53.890332989394665" lon="-9.984763031825423">
        <ele>26.57</ele>
        <time>2026-07-03T10:53:48Z</time>
      </trkpt>
      <trkpt lat="53.891618018969893" lon="-9.983899025246501">
        <ele>40.990000000000002</ele>
        <time>2026-07-03T10:54:01Z</time>
      </trkpt>
      <trkpt lat="53.891684990376234" lon="-9.983873041346669">
        <ele>41.469999999999999</ele>
        <time>2026-07-03T10:54:02Z</time>
      </trkpt>
      <trkpt lat="53.891741987317801" lon="-9.983896007761359">
        <ele>42.439999999999998</ele>
        <time>2026-07-03T10:54:03Z</time>
      </trkpt>
      <trkpt lat="53.891794038936496" lon="-9.983950993046165">
        <ele>43.399999999999999</ele>
        <time>2026-07-03T10:54:04Z</time>
      </trkpt>
      <trkpt lat="53.891825973987579" lon="-9.984045037999749">
        <ele>43.880000000000003</ele>
        <time>2026-07-03T10:54:05Z</time>
      </trkpt>
      <trkpt lat="53.891863021999598" lon="-9.984158026054502">
        <ele>44.359999999999999</ele>
        <time>2026-07-03T10:54:06Z</time>
      </trkpt>
      <trkpt lat="53.891909038648009" lon="-9.984294986352325">
        <ele>44.840000000000003</ele>
        <time>2026-07-03T10:54:07Z</time>
      </trkpt>
      <trkpt lat="53.891960000619292" lon="-9.984448039904237">
        <ele>44.840000000000003</ele>
        <time>2026-07-03T10:54:08Z</time>
      </trkpt>
      <trkpt lat="53.892427962273359" lon="-9.98585301451385">
        <ele>42.439999999999998</ele>
        <time>2026-07-03T10:54:15Z</time>
      </trkpt>
      <trkpt lat="53.892617980018258" lon="-9.986350983381271">
        <ele>42.920000000000002</ele>
        <time>2026-07-03T10:54:18Z</time>
      </trkpt>
      <trkpt lat="53.892703978344798" lon="-9.986464977264404">
        <ele>42.920000000000002</ele>
        <time>2026-07-03T10:54:19Z</time>
      </trkpt>
      <trkpt lat="53.892824007198215" lon="-9.986515017226338">
        <ele>43.399999999999999</ele>
        <time>2026-07-03T10:54:20Z</time>
      </trkpt>
      <trkpt lat="53.8930509891361" lon="-9.986607972532511">
        <ele>45.32</ele>
        <time>2026-07-03T10:54:22Z</time>
      </trkpt>
      <trkpt lat="53.893142016604543" lon="-9.98671299777925">
        <ele>46.280000000000001</ele>
        <time>2026-07-03T10:54:23Z</time>
      </trkpt>
      <trkpt lat="53.893235977739096" lon="-9.986838977783918">
        <ele>47.240000000000002</ele>
        <time>2026-07-03T10:54:24Z</time>
      </trkpt>
      <trkpt lat="53.894373988732696" lon="-9.988173041492701">
        <ele>60.700000000000003</ele>
        <time>2026-07-03T10:54:35Z</time>
      </trkpt>
      <trkpt lat="53.894584961235523" lon="-9.988361969590187">
        <ele>62.619999999999997</ele>
        <time>2026-07-03T10:54:37Z</time>
      </trkpt>
      <trkpt lat="53.894720999523997" lon="-9.988481998443604">
        <ele>63.579999999999998</ele>
        <time>2026-07-03T10:54:38Z</time>
      </trkpt>
      <trkpt lat="53.895322987809777" lon="-9.989629983901978">
        <ele>69.829999999999998</ele>
        <time>2026-07-03T10:54:44Z</time>
      </trkpt>
      <trkpt lat="53.896338036283851" lon="-9.991447012871504">
        <ele>79.450000000000003</ele>
        <time>2026-07-03T10:54:54Z</time>
      </trkpt>
      <trkpt lat="53.896936001256108" lon="-9.992994982749224">
        <ele>84.25</ele>
        <time>2026-07-03T10:55:02Z</time>
      </trkpt>
      <trkpt lat="53.8977359700948" lon="-9.994847970083356">
        <ele>86.180000000000007</ele>
        <time>2026-07-03T10:55:12Z</time>
      </trkpt>
      <trkpt lat="53.898524958640337" lon="-9.996475987136364">
        <ele>90.019999999999996</ele>
        <time>2026-07-03T10:55:22Z</time>
      </trkpt>
      <trkpt lat="53.898797035217285" lon="-9.997146958485246">
        <ele>90.019999999999996</ele>
        <time>2026-07-03T10:55:26Z</time>
      </trkpt>
      <trkpt lat="53.89885101467371" lon="-9.997186018154025">
        <ele>90.019999999999996</ele>
        <time>2026-07-03T10:55:27Z</time>
      </trkpt>
      <trkpt lat="53.898908011615276" lon="-9.997183000668883">
        <ele>90.019999999999996</ele>
        <time>2026-07-03T10:55:28Z</time>
      </trkpt>
      <trkpt lat="53.898962996900082" lon="-9.997169002890587">
        <ele>90.5</ele>
        <time>2026-07-03T10:55:29Z</time>
      </trkpt>
      <trkpt lat="53.899039020761847" lon="-9.997138995677233">
        <ele>90.5</ele>
        <time>2026-07-03T10:55:30Z</time>
      </trkpt>
      <trkpt lat="53.899074979126453" lon="-9.997046962380409">
        <ele>90.019999999999996</ele>
        <time>2026-07-03T10:55:31Z</time>
      </trkpt>
      <trkpt lat="53.899114960804582" lon="-9.996947972103953">
        <ele>90.019999999999996</ele>
        <time>2026-07-03T10:55:32Z</time>
      </trkpt>
      <trkpt lat="53.899135999381542" lon="-9.996819980442524">
        <ele>90.019999999999996</ele>
        <time>2026-07-03T10:55:33Z</time>
      </trkpt>
      <trkpt lat="53.899154020473361" lon="-9.996691988781095">
        <ele>89.540000000000006</ele>
        <time>2026-07-03T10:55:34Z</time>
      </trkpt>
      <trkpt lat="53.89917204156518" lon="-9.996570032089949">
        <ele>89.060000000000002</ele>
        <time>2026-07-03T10:55:35Z</time>
      </trkpt>
      <trkpt lat="53.899290980771184" lon="-9.995793029665947">
        <ele>84.25</ele>
        <time>2026-07-03T10:55:42Z</time>
      </trkpt>
      <trkpt lat="53.899315958842635" lon="-9.995685992762446">
        <ele>83.769999999999996</ele>
        <time>2026-07-03T10:55:43Z</time>
      </trkpt>
      <trkpt lat="53.899338003247976" lon="-9.995591025799513">
        <ele>82.810000000000002</ele>
        <time>2026-07-03T10:55:44Z</time>
      </trkpt>
      <trkpt lat="53.899474963545799" lon="-9.99500404112041">
        <ele>79.930000000000007</ele>
        <time>2026-07-03T10:55:50Z</time>
      </trkpt>
      <trkpt lat="53.899486027657986" lon="-9.994890969246626">
        <ele>79.450000000000003</ele>
        <time>2026-07-03T10:55:51Z</time>
      </trkpt>
      <trkpt lat="53.89949600212276" lon="-9.994570026174188">
        <ele>77.040000000000006</ele>
        <time>2026-07-03T10:55:54Z</time>
      </trkpt>
      <trkpt lat="53.899499019607902" lon="-9.994474975392222">
        <ele>76.560000000000002</ele>
        <time>2026-07-03T10:55:55Z</time>
      </trkpt>
      <trkpt lat="53.899502959102392" lon="-9.994315970689058">
        <ele>75.599999999999994</ele>
        <time>2026-07-03T10:55:57Z</time>
      </trkpt>
      <trkpt lat="53.899504970759153" lon="-9.994246987625957">
        <ele>74.640000000000001</ele>
        <time>2026-07-03T10:55:58Z</time>
      </trkpt>
      <trkpt lat="53.899544030427933" lon="-9.994203988462687">
        <ele>74.159999999999997</ele>
        <time>2026-07-03T10:55:59Z</time>
      </trkpt>
      <trkpt lat="53.899587029591203" lon="-9.994171969592571">
        <ele>73.200000000000003</ele>
        <time>2026-07-03T10:56:00Z</time>
      </trkpt>
      <trkpt lat="53.899617958813906" lon="-9.994204994291067">
        <ele>72.239999999999995</ele>
        <time>2026-07-03T10:56:01Z</time>
      </trkpt>
      <trkpt lat="53.899650983512402" lon="-9.99425201676786">
        <ele>71.760000000000005</ele>
        <time>2026-07-03T10:56:02Z</time>
      </trkpt>
      <trkpt lat="53.899699011817575" lon="-9.9943189881742">
        <ele>70.790000000000006</ele>
        <time>2026-07-03T10:56:03Z</time>
      </trkpt>
      <trkpt lat="53.899709992110729" lon="-9.994399035349488">
        <ele>69.829999999999998</ele>
        <time>2026-07-03T10:56:04Z</time>
      </trkpt>
      <trkpt lat="53.899723989889026" lon="-9.994508000090718">
        <ele>69.349999999999994</ele>
        <time>2026-07-03T10:56:05Z</time>
      </trkpt>
      <trkpt lat="53.899739999324083" lon="-9.994630040600896">
        <ele>68.870000000000005</ele>
        <time>2026-07-03T10:56:06Z</time>
      </trkpt>
      <trkpt lat="53.899762965738773" lon="-9.995619021356106">
        <ele>59.259999999999998</ele>
        <time>2026-07-03T10:56:16Z</time>
      </trkpt>
      <trkpt lat="53.899787021800876" lon="-9.995637964457274">
        <ele>58.299999999999997</ele>
        <time>2026-07-03T10:56:17Z</time>
      </trkpt>
      <trkpt lat="53.899816023185849" lon="-9.995662020519376">
        <ele>57.340000000000003</ele>
        <time>2026-07-03T10:56:18Z</time>
      </trkpt>
      <trkpt lat="53.899828009307384" lon="-9.995669983327389">
        <ele>56.369999999999997</ele>
        <time>2026-07-03T10:56:19Z</time>
      </trkpt>
      <trkpt lat="53.899865979328752" lon="-9.995633019134402">
        <ele>55.409999999999997</ele>
        <time>2026-07-03T10:56:20Z</time>
      </trkpt>
      <trkpt lat="53.899911995977163" lon="-9.995587002485991">
        <ele>54.450000000000003</ele>
        <time>2026-07-03T10:56:21Z</time>
      </trkpt>
      <trkpt lat="53.899956000968814" lon="-9.995541991665959">
        <ele>53.969999999999999</ele>
        <time>2026-07-03T10:56:22Z</time>
      </trkpt>
      <trkpt lat="53.900052979588509" lon="-9.995425986126065">
        <ele>52.530000000000001</ele>
        <time>2026-07-03T10:56:24Z</time>
      </trkpt>
      <trkpt lat="53.900281973183155" lon="-9.995051985606551">
        <ele>49.159999999999997</ele>
        <time>2026-07-03T10:56:31Z</time>
      </trkpt>
      <trkpt lat="53.900281973183155" lon="-9.995051985606551">
        <ele>49.159999999999997</ele>
        <time>2026-07-03T10:56:44Z</time>
      </trkpt>
      <trkpt lat="53.900346010923386" lon="-9.994710003957152">
        <ele>47.719999999999999</ele>
        <time>2026-07-03T10:57:08Z</time>
      </trkpt>
      <trkpt lat="53.900407031178474" lon="-9.99339496716857">
        <ele>44.840000000000003</ele>
        <time>2026-07-03T10:57:16Z</time>
      </trkpt>
      <trkpt lat="53.90042002312839" lon="-9.992948966100812">
        <ele>43.399999999999999</ele>
        <time>2026-07-03T10:57:19Z</time>
      </trkpt>
      <trkpt lat="53.900429997593164" lon="-9.992828015238047">
        <ele>42.920000000000002</ele>
        <time>2026-07-03T10:57:20Z</time>
      </trkpt>
      <trkpt lat="53.900438966229558" lon="-9.992712009698153">
        <ele>42.439999999999998</ele>
        <time>2026-07-03T10:57:21Z</time>
      </trkpt>
      <trkpt lat="53.900511972606182" lon="-9.992573959752917">
        <ele>41.950000000000003</ele>
        <time>2026-07-03T10:57:22Z</time>
      </trkpt>
      <trkpt lat="53.900581039488316" lon="-9.992565996944904">
        <ele>40.509999999999998</ele>
        <time>2026-07-03T10:57:23Z</time>
      </trkpt>
      <trkpt lat="53.900662008672953" lon="-9.992557028308511">
        <ele>39.07</ele>
        <time>2026-07-03T10:57:24Z</time>
      </trkpt>
      <trkpt lat="53.90076301060617" lon="-9.992545964196324">
        <ele>37.630000000000003</ele>
        <time>2026-07-03T10:57:25Z</time>
      </trkpt>
      <trkpt lat="53.900874992832541" lon="-9.992533978074789">
        <ele>36.189999999999998</ele>
        <time>2026-07-03T10:57:26Z</time>
      </trkpt>
      <trkpt lat="53.901822986081243" lon="-9.99242995865643">
        <ele>27.530000000000001</ele>
        <time>2026-07-03T10:57:34Z</time>
      </trkpt>
      <trkpt lat="53.901888029649854" lon="-9.992364998906851">
        <ele>27.530000000000001</ele>
        <time>2026-07-03T10:57:35Z</time>
      </trkpt>
      <trkpt lat="53.901948966085911" lon="-9.992304984480143">
        <ele>27.050000000000001</ele>
        <time>2026-07-03T10:57:36Z</time>
      </trkpt>
      <trkpt lat="53.902001017704606" lon="-9.992231978103519">
        <ele>27.050000000000001</ele>
        <time>2026-07-03T10:57:37Z</time>
      </trkpt>
      <trkpt lat="53.902032030746341" lon="-9.992110021412373">
        <ele>27.530000000000001</ele>
        <time>2026-07-03T10:57:38Z</time>
      </trkpt>
      <trkpt lat="53.902065977454185" lon="-9.991973983123899">
        <ele>27.530000000000001</ele>
        <time>2026-07-03T10:57:39Z</time>
      </trkpt>
      <trkpt lat="53.902103025466204" lon="-9.991825958713889">
        <ele>28.02</ele>
        <time>2026-07-03T10:57:40Z</time>
      </trkpt>
      <trkpt lat="53.90218198299408" lon="-9.991509960964322">
        <ele>28.98</ele>
        <time>2026-07-03T10:57:42Z</time>
      </trkpt>
      <trkpt lat="53.902577022090554" lon="-9.990462977439165">
        <ele>28.5</ele>
        <time>2026-07-03T10:57:49Z</time>
      </trkpt>
      <trkpt lat="53.902643993496895" lon="-9.990361975505948">
        <ele>28.02</ele>
        <time>2026-07-03T10:57:50Z</time>
      </trkpt>
      <trkpt lat="53.902726974338293" lon="-9.990301039069891">
        <ele>27.530000000000001</ele>
        <time>2026-07-03T10:57:51Z</time>
      </trkpt>
      <trkpt lat="53.90280400402844" lon="-9.990292992442846">
        <ele>26.57</ele>
        <time>2026-07-03T10:57:52Z</time>
      </trkpt>
      <trkpt lat="53.902883967384696" lon="-9.990287963300943">
        <ele>26.57</ele>
        <time>2026-07-03T10:57:53Z</time>
      </trkpt>
      <trkpt lat="53.902964014559984" lon="-9.990319982171059">
        <ele>26.09</ele>
        <time>2026-07-03T10:57:54Z</time>
      </trkpt>
      <trkpt lat="53.903046995401382" lon="-9.990353006869555">
        <ele>26.09</ele>
        <time>2026-07-03T10:57:55Z</time>
      </trkpt>
      <trkpt lat="53.903503976762295" lon="-9.990591974928975">
        <ele>27.530000000000001</ele>
        <time>2026-07-03T10:58:00Z</time>
      </trkpt>
      <trkpt lat="53.903560973703861" lon="-9.990648971870542">
        <ele>28.98</ele>
        <time>2026-07-03T10:58:01Z</time>
      </trkpt>
      <trkpt lat="53.903620988130569" lon="-9.99081501737237">
        <ele>29.940000000000001</ele>
        <time>2026-07-03T10:58:02Z</time>
      </trkpt>
      <trkpt lat="53.903649989515543" lon="-9.990946026518941">
        <ele>30.420000000000002</ele>
        <time>2026-07-03T10:58:03Z</time>
      </trkpt>
      <trkpt lat="53.903656024485826" lon="-9.991093967109919">
        <ele>30.899999999999999</ele>
        <time>2026-07-03T10:58:04Z</time>
      </trkpt>
      <trkpt lat="53.903662981465459" lon="-9.991254983469844">
        <ele>31.379999999999999</ele>
        <time>2026-07-03T10:58:05Z</time>
      </trkpt>
      <trkpt lat="53.903718972578645" lon="-9.992594998329878">
        <ele>32.82</ele>
        <time>2026-07-03T10:58:12Z</time>
      </trkpt>
      <trkpt lat="53.903726013377309" lon="-9.992760960012674">
        <ele>33.299999999999997</ele>
        <time>2026-07-03T10:58:13Z</time>
      </trkpt>
      <trkpt lat="53.903765995055437" lon="-9.992950977757573">
        <ele>33.299999999999997</ele>
        <time>2026-07-03T10:58:14Z</time>
      </trkpt>
      <trkpt lat="53.903852999210358" lon="-9.993020966649056">
        <ele>33.299999999999997</ele>
        <time>2026-07-03T10:58:15Z</time>
      </trkpt>
      <trkpt lat="53.903950983658433" lon="-9.993100007995963">
        <ele>33.780000000000001</ele>
        <time>2026-07-03T10:58:16Z</time>
      </trkpt>
      <trkpt lat="53.904055003076792" lon="-9.993183994665742">
        <ele>34.740000000000002</ele>
        <time>2026-07-03T10:58:17Z</time>
      </trkpt>
      <trkpt lat="53.904795041307807" lon="-9.994027968496084">
        <ele>40.030000000000001</ele>
        <time>2026-07-03T10:58:24Z</time>
      </trkpt>
      <trkpt lat="53.905033003538847" lon="-9.994276994839311">
        <ele>40.509999999999998</ele>
        <time>2026-07-03T10:58:26Z</time>
      </trkpt>
      <trkpt lat="53.905671034008265" lon="-9.994759960100055">
        <ele>47.240000000000002</ele>
        <time>2026-07-03T10:58:32Z</time>
      </trkpt>
      <trkpt lat="53.905767006799579" lon="-9.994777981191874">
        <ele>48.200000000000003</ele>
        <time>2026-07-03T10:58:33Z</time>
      </trkpt>
      <trkpt lat="53.905865997076035" lon="-9.994776975363493">
        <ele>49.159999999999997</ele>
        <time>2026-07-03T10:58:34Z</time>
      </trkpt>
      <trkpt lat="53.905957024544477" lon="-9.994735987856984">
        <ele>50.609999999999999</ele>
        <time>2026-07-03T10:58:35Z</time>
      </trkpt>
      <trkpt lat="53.906045034527779" lon="-9.994696006178856">
        <ele>51.57</ele>
        <time>2026-07-03T10:58:36Z</time>
      </trkpt>
      <trkpt lat="53.906116029247642" lon="-9.994578994810581">
        <ele>53.009999999999998</ele>
        <time>2026-07-03T10:58:37Z</time>
      </trkpt>
      <trkpt lat="53.906164979562163" lon="-9.994465000927448">
        <ele>54.93</ele>
        <time>2026-07-03T10:58:38Z</time>
      </trkpt>
      <trkpt lat="53.90645801089704" lon="-9.993777014315128">
        <ele>62.619999999999997</ele>
        <time>2026-07-03T10:58:46Z</time>
      </trkpt>
      <trkpt lat="53.906485000625253" lon="-9.993712976574898">
        <ele>63.579999999999998</ele>
        <time>2026-07-03T10:58:48Z</time>
      </trkpt>
      <trkpt lat="53.906588014215231" lon="-9.993786988779903">
        <ele>64.549999999999997</ele>
        <time>2026-07-03T10:58:49Z</time>
      </trkpt>
      <trkpt lat="53.906595977023244" lon="-9.993876004591584">
        <ele>65.030000000000001</ele>
        <time>2026-07-03T10:58:50Z</time>
      </trkpt>
      <trkpt lat="53.90660603530705" lon="-9.993991004303098">
        <ele>65.510000000000005</ele>
        <time>2026-07-03T10:58:51Z</time>
      </trkpt>
      <trkpt lat="53.906617015600204" lon="-9.994117990136147">
        <ele>65.510000000000005</ele>
        <time>2026-07-03T10:58:52Z</time>
      </trkpt>
      <trkpt lat="53.90662900172174" lon="-9.99425302259624">
        <ele>66.469999999999999</ele>
        <time>2026-07-03T10:58:53Z</time>
      </trkpt>
      <trkpt lat="53.906640987843275" lon="-9.994398029521108">
        <ele>66.950000000000003</ele>
        <time>2026-07-03T10:58:54Z</time>
      </trkpt>
      <trkpt lat="53.90671600587666" lon="-9.995073024183512">
        <ele>68.870000000000005</ele>
        <time>2026-07-03T10:58:58Z</time>
      </trkpt>
      <trkpt lat="53.906771996989846" lon="-9.995250971987844">
        <ele>69.349999999999994</ele>
        <time>2026-07-03T10:58:59Z</time>
      </trkpt>
      <trkpt lat="53.906827988103032" lon="-9.995427997782826">
        <ele>70.790000000000006</ele>
        <time>2026-07-03T10:59:00Z</time>
      </trkpt>
      <trkpt lat="53.907637009397149" lon="-9.997379975393415">
        <ele>79.930000000000007</ele>
        <time>2026-07-03T10:59:12Z</time>
      </trkpt>
      <trkpt lat="53.908425997942686" lon="-9.999169008806348">
        <ele>80.890000000000001</ele>
        <time>2026-07-03T10:59:22Z</time>
      </trkpt>
      <trkpt lat="53.90953098423779" lon="-10.001024007797241">
        <ele>76.079999999999998</ele>
        <time>2026-07-03T10:59:33Z</time>
      </trkpt>
      <trkpt lat="53.910816013813019" lon="-10.002878000959754">
        <ele>69.829999999999998</ele>
        <time>2026-07-03T10:59:43Z</time>
      </trkpt>
      <trkpt lat="53.912607980892062" lon="-10.005743019282818">
        <ele>55.409999999999997</ele>
        <time>2026-07-03T10:59:56Z</time>
      </trkpt>
      <trkpt lat="53.914456022903323" lon="-10.009462991729379">
        <ele>42.439999999999998</ele>
        <time>2026-07-03T11:00:11Z</time>
      </trkpt>
      <trkpt lat="53.915882036089897" lon="-10.012263972312212">
        <ele>40.509999999999998</ele>
        <time>2026-07-03T11:00:23Z</time>
      </trkpt>
      <trkpt lat="53.917201012372971" lon="-10.014313012361526">
        <ele>40.030000000000001</ele>
        <time>2026-07-03T11:00:34Z</time>
      </trkpt>
      <trkpt lat="53.918620990589261" lon="-10.016063991934061">
        <ele>35.229999999999997</ele>
        <time>2026-07-03T11:00:45Z</time>
      </trkpt>
      <trkpt lat="53.919316018000245" lon="-10.016751978546381">
        <ele>29.940000000000001</ele>
        <time>2026-07-03T11:00:51Z</time>
      </trkpt>
      <trkpt lat="53.919443003833294" lon="-10.016804030165076">
        <ele>28.98</ele>
        <time>2026-07-03T11:00:52Z</time>
      </trkpt>
      <trkpt lat="53.919566972181201" lon="-10.016796989366412">
        <ele>28.02</ele>
        <time>2026-07-03T11:00:53Z</time>
      </trkpt>
      <trkpt lat="53.919698987156153" lon="-10.01679003238678">
        <ele>26.57</ele>
        <time>2026-07-03T11:00:54Z</time>
      </trkpt>
      <trkpt lat="53.919833013787866" lon="-10.016785003244877">
        <ele>25.129999999999999</ele>
        <time>2026-07-03T11:00:55Z</time>
      </trkpt>
      <trkpt lat="53.920096037909389" lon="-10.016785003244877">
        <ele>23.210000000000001</ele>
        <time>2026-07-03T11:00:57Z</time>
      </trkpt>
      <trkpt lat="53.920227969065309" lon="-10.016811992973089">
        <ele>21.77</ele>
        <time>2026-07-03T11:00:58Z</time>
      </trkpt>
      <trkpt lat="53.920342968776822" lon="-10.016895979642868">
        <ele>20.32</ele>
        <time>2026-07-03T11:00:59Z</time>
      </trkpt>
      <trkpt lat="53.920455034822226" lon="-10.016978038474917">
        <ele>18.879999999999999</ele>
        <time>2026-07-03T11:01:00Z</time>
      </trkpt>
      <trkpt lat="53.920555030927062" lon="-10.017083985731006">
        <ele>17.920000000000002</ele>
        <time>2026-07-03T11:01:01Z</time>
      </trkpt>
      <trkpt lat="53.920640023425221" lon="-10.017212983220816">
        <ele>16.960000000000001</ele>
        <time>2026-07-03T11:01:02Z</time>
      </trkpt>
      <trkpt lat="53.92072300426662" lon="-10.017338963225484">
        <ele>16.48</ele>
        <time>2026-07-03T11:01:03Z</time>
      </trkpt>
      <trkpt lat="53.921509981155396" lon="-10.018527014181018">
        <ele>11.67</ele>
        <time>2026-07-03T11:01:14Z</time>
      </trkpt>
      <trkpt lat="53.921557003632188" lon="-10.018669003620744">
        <ele>11.19</ele>
        <time>2026-07-03T11:01:15Z</time>
      </trkpt>
      <trkpt lat="53.921598996967077" lon="-10.018815016373992">
        <ele>10.710000000000001</ele>
        <time>2026-07-03T11:01:16Z</time>
      </trkpt>
      <trkpt lat="53.921640990301967" lon="-10.018964968621731">
        <ele>10.710000000000001</ele>
        <time>2026-07-03T11:01:17Z</time>
      </trkpt>
      <trkpt lat="53.921765964478254" lon="-10.019398983567953">
        <ele>10.710000000000001</ele>
        <time>2026-07-03T11:01:20Z</time>
      </trkpt>
      <trkpt lat="53.921804018318653" lon="-10.019534016028047">
        <ele>11.19</ele>
        <time>2026-07-03T11:01:21Z</time>
      </trkpt>
      <trkpt lat="53.921863026916981" lon="-10.01964800991118">
        <ele>11.19</ele>
        <time>2026-07-03T11:01:22Z</time>
      </trkpt>
      <trkpt lat="53.922625025734305" lon="-10.020767999812961">
        <ele>12.15</ele>
        <time>2026-07-03T11:01:32Z</time>
      </trkpt>
      <trkpt lat="53.922739019617438" lon="-10.020982995629311">
        <ele>12.15</ele>
        <time>2026-07-03T11:01:34Z</time>
      </trkpt>
      <trkpt lat="53.922838009893894" lon="-10.021042004227638">
        <ele>12.15</ele>
        <time>2026-07-03T11:01:35Z</time>
      </trkpt>
      <trkpt lat="53.922921996563673" lon="-10.02100202254951">
        <ele>12.630000000000001</ele>
        <time>2026-07-03T11:01:36Z</time>
      </trkpt>
      <trkpt lat="53.923009000718594" lon="-10.020985007286072">
        <ele>12.630000000000001</ele>
        <time>2026-07-03T11:01:37Z</time>
      </trkpt>
      <trkpt lat="53.923096004873514" lon="-10.020967992022634">
        <ele>13.119999999999999</ele>
        <time>2026-07-03T11:01:38Z</time>
      </trkpt>
      <trkpt lat="53.923187032341957" lon="-10.020948965102434">
        <ele>13.119999999999999</ele>
        <time>2026-07-03T11:01:39Z</time>
      </trkpt>
      <trkpt lat="53.924229992553592" lon="-10.020741010084748">
        <ele>15.52</ele>
        <time>2026-07-03T11:01:48Z</time>
      </trkpt>
      <trkpt lat="53.925754996016622" lon="-10.020435992628336">
        <ele>19.359999999999999</ele>
        <time>2026-07-03T11:02:02Z</time>
      </trkpt>
      <trkpt lat="53.925981977954507" lon="-10.020389975979924">
        <ele>21.77</ele>
        <time>2026-07-03T11:02:07Z</time>
      </trkpt>
      <trkpt lat="53.926101000979543" lon="-10.02035996876657">
        <ele>23.210000000000001</ele>
        <time>2026-07-03T11:02:10Z</time>
      </trkpt>
      <trkpt lat="53.926161015406251" lon="-10.020309006795287">
        <ele>23.690000000000001</ele>
        <time>2026-07-03T11:02:11Z</time>
      </trkpt>
      <trkpt lat="53.926228992640972" lon="-10.02025100402534">
        <ele>24.170000000000002</ele>
        <time>2026-07-03T11:02:12Z</time>
      </trkpt>
      <trkpt lat="53.926284983754158" lon="-10.02014203928411">
        <ele>25.129999999999999</ele>
        <time>2026-07-03T11:02:13Z</time>
      </trkpt>
      <trkpt lat="53.926340974867344" lon="-10.020016981288791">
        <ele>25.609999999999999</ele>
        <time>2026-07-03T11:02:14Z</time>
      </trkpt>
      <trkpt lat="53.92639696598053" lon="-10.019891001284122">
        <ele>26.09</ele>
        <time>2026-07-03T11:02:15Z</time>
      </trkpt>
      <trkpt lat="53.927037008106709" lon="-10.018450990319252">
        <ele>34.740000000000002</ele>
        <time>2026-07-03T11:02:25Z</time>
      </trkpt>
      <trkpt lat="53.927858015522361" lon="-10.016567995771766">
        <ele>40.509999999999998</ele>
        <time>2026-07-03T11:02:37Z</time>
      </trkpt>
      <trkpt lat="53.928598975762725" lon="-10.014336984604597">
        <ele>50.609999999999999</ele>
        <time>2026-07-03T11:02:47Z</time>
      </trkpt>
      <trkpt lat="53.92940397374332" lon="-10.011514965444803">
        <ele>59.740000000000002</ele>
        <time>2026-07-03T11:02:59Z</time>
      </trkpt>
      <trkpt lat="53.929980983957648" lon="-10.008921017870307">
        <ele>69.349999999999994</ele>
        <time>2026-07-03T11:03:10Z</time>
      </trkpt>
      <trkpt lat="53.930436037480831" lon="-10.006744991987944">
        <ele>68.390000000000001</ele>
        <time>2026-07-03T11:03:19Z</time>
      </trkpt>
      <trkpt lat="53.930997038260102" lon="-10.005015973001719">
        <ele>65.989999999999995</ele>
        <time>2026-07-03T11:03:28Z</time>
      </trkpt>
      <trkpt lat="53.932042010128498" lon="-10.002501988783479">
        <ele>72.719999999999999</ele>
        <time>2026-07-03T11:03:39Z</time>
      </trkpt>
      <trkpt lat="53.933053035289049" lon="-10.000318000093102">
        <ele>78.969999999999999</ele>
        <time>2026-07-03T11:03:48Z</time>
      </trkpt>
      <trkpt lat="53.934088032692671" lon="-9.998554028570652">
        <ele>82.329999999999998</ele>
        <time>2026-07-03T11:03:56Z</time>
      </trkpt>
      <trkpt lat="53.935490995645523" lon="-9.99700203537941">
        <ele>89.060000000000002</ele>
        <time>2026-07-03T11:04:05Z</time>
      </trkpt>
      <trkpt lat="53.936632024124265" lon="-9.996030991896987">
        <ele>89.060000000000002</ele>
        <time>2026-07-03T11:04:12Z</time>
      </trkpt>
      <trkpt lat="53.937058998271823" lon="-9.995509972795844">
        <ele>86.180000000000007</ele>
        <time>2026-07-03T11:04:15Z</time>
      </trkpt>
      <trkpt lat="53.937146002426744" lon="-9.995332024991512">
        <ele>85.689999999999998</ele>
        <time>2026-07-03T11:04:16Z</time>
      </trkpt>
      <trkpt lat="53.937212973833084" lon="-9.995154999196529">
        <ele>85.689999999999998</ele>
        <time>2026-07-03T11:04:17Z</time>
      </trkpt>
      <trkpt lat="53.937742039561272" lon="-9.993755975738168">
        <ele>80.409999999999997</ele>
        <time>2026-07-03T11:04:23Z</time>
      </trkpt>
      <trkpt lat="53.938461961224675" lon="-9.992145979776979">
        <ele>73.200000000000003</ele>
        <time>2026-07-03T11:04:30Z</time>
      </trkpt>
      <trkpt lat="53.938461961224675" lon="-9.992146985605359">
        <ele>72.719999999999999</ele>
        <time>2026-07-03T11:04:31Z</time>
      </trkpt>
      <trkpt lat="53.938567992299795" lon="-9.991754963994026">
        <ele>72.719999999999999</ele>
        <time>2026-07-03T11:04:32Z</time>
      </trkpt>
      <trkpt lat="53.938890025019646" lon="-9.990518968552351">
        <ele>70.790000000000006</ele>
        <time>2026-07-03T11:04:37Z</time>
      </trkpt>
      <trkpt lat="53.938996978104115" lon="-9.990288969129324">
        <ele>70.310000000000002</ele>
        <time>2026-07-03T11:04:38Z</time>
      </trkpt>
      <trkpt lat="53.939815973863006" lon="-9.988528015092015">
        <ele>66.950000000000003</ele>
        <time>2026-07-03T11:04:45Z</time>
      </trkpt>
      <trkpt lat="53.940580990165472" lon="-9.986278982833028">
        <ele>61.659999999999997</ele>
        <time>2026-07-03T11:04:53Z</time>
      </trkpt>
      <trkpt lat="53.941644988954067" lon="-9.983764998614788">
        <ele>56.859999999999999</ele>
        <time>2026-07-03T11:05:03Z</time>
      </trkpt>
      <trkpt lat="53.941878005862236" lon="-9.983043987303972">
        <ele>56.369999999999997</ele>
        <time>2026-07-03T11:05:06Z</time>
      </trkpt>
      <trkpt lat="53.941925028339028" lon="-9.982786998152733">
        <ele>55.890000000000001</ele>
        <time>2026-07-03T11:05:07Z</time>
      </trkpt>
      <trkpt lat="53.94197397865355" lon="-9.982525985687971">
        <ele>54.93</ele>
        <time>2026-07-03T11:05:08Z</time>
      </trkpt>
      <trkpt lat="53.942196015268564" lon="-9.980131024494767">
        <ele>48.200000000000003</ele>
        <time>2026-07-03T11:05:16Z</time>
      </trkpt>
      <trkpt lat="53.942856006324291" lon="-9.977012034505606">
        <ele>41.950000000000003</ele>
        <time>2026-07-03T11:05:27Z</time>
      </trkpt>
      <trkpt lat="53.943655975162983" lon="-9.973282003775239">
        <ele>31.859999999999999</ele>
        <time>2026-07-03T11:05:40Z</time>
      </trkpt>
      <trkpt lat="53.944158973172307" lon="-9.971001036465168">
        <ele>28.5</ele>
        <time>2026-07-03T11:05:50Z</time>
      </trkpt>
      <trkpt lat="53.944238014519215" lon="-9.970696019008756">
        <ele>28.5</ele>
        <time>2026-07-03T11:05:53Z</time>
      </trkpt>
      <trkpt lat="53.944253018125892" lon="-9.970632987096906">
        <ele>28.5</ele>
        <time>2026-07-03T11:05:54Z</time>
      </trkpt>
      <trkpt lat="53.944263998419046" lon="-9.970591999590397">
        <ele>28.5</ele>
        <time>2026-07-03T11:05:55Z</time>
      </trkpt>
      <trkpt lat="53.94427103921771" lon="-9.970566015690565">
        <ele>28.98</ele>
        <time>2026-07-03T11:05:56Z</time>
      </trkpt>
      <trkpt lat="53.944275984540582" lon="-9.970546988770366">
        <ele>28.98</ele>
        <time>2026-07-03T11:05:57Z</time>
      </trkpt>
      <trkpt lat="53.944275984540582" lon="-9.970546988770366">
        <ele>28.98</ele>
        <time>2026-07-03T11:06:00Z</time>
      </trkpt>
      <trkpt lat="53.94435703754425" lon="-9.970540031790733">
        <ele>29.460000000000001</ele>
        <time>2026-07-03T11:06:01Z</time>
      </trkpt>
      <trkpt lat="53.944380003958941" lon="-9.970599040389061">
        <ele>29.460000000000001</ele>
        <time>2026-07-03T11:06:02Z</time>
      </trkpt>
      <trkpt lat="53.944416968151927" lon="-9.970697024837136">
        <ele>29.460000000000001</ele>
        <time>2026-07-03T11:06:03Z</time>
      </trkpt>
      <trkpt lat="53.944461978971958" lon="-9.97081596404314">
        <ele>29.460000000000001</ele>
        <time>2026-07-03T11:06:04Z</time>
      </trkpt>
      <trkpt lat="53.944515958428383" lon="-9.970959965139628">
        <ele>29.460000000000001</ele>
        <time>2026-07-03T11:06:05Z</time>
      </trkpt>
      <trkpt lat="53.944989033043385" lon="-9.972228985279799">
        <ele>27.050000000000001</ele>
        <time>2026-07-03T11:06:11Z</time>
      </trkpt>
      <trkpt lat="53.945401003584266" lon="-9.973207991570234">
        <ele>25.609999999999999</ele>
        <time>2026-07-03T11:06:15Z</time>
      </trkpt>
      <trkpt lat="53.945514997467399" lon="-9.973428016528487">
        <ele>25.129999999999999</ele>
        <time>2026-07-03T11:06:16Z</time>
      </trkpt>
      <trkpt lat="53.945657992735505" lon="-9.973616022616625">
        <ele>24.649999999999999</ele>
        <time>2026-07-03T11:06:17Z</time>
      </trkpt>
      <trkpt lat="53.945809034630656" lon="-9.973803022876382">
        <ele>24.170000000000002</ele>
        <time>2026-07-03T11:06:18Z</time>
      </trkpt>
      <trkpt lat="53.94597097299993" lon="-9.973978959023953">
        <ele>23.210000000000001</ele>
        <time>2026-07-03T11:06:19Z</time>
      </trkpt>
      <trkpt lat="53.946676980704069" lon="-9.974613972008228">
        <ele>20.809999999999999</ele>
        <time>2026-07-03T11:06:23Z</time>
      </trkpt>
      <trkpt lat="53.946865992620587" lon="-9.974743975326419">
        <ele>19.84</ele>
        <time>2026-07-03T11:06:24Z</time>
      </trkpt>
      <trkpt lat="53.948149010539055" lon="-9.975230041891336">
        <ele>16.960000000000001</ele>
        <time>2026-07-03T11:06:31Z</time>
      </trkpt>
      <trkpt lat="53.948846971616149" lon="-9.97532500885427">
        <ele>16.48</ele>
        <time>2026-07-03T11:06:35Z</time>
      </trkpt>
      <trkpt lat="53.949006982147694" lon="-9.975271029397845">
        <ele>16.48</ele>
        <time>2026-07-03T11:06:36Z</time>
      </trkpt>
      <trkpt lat="53.950435006991029" lon="-9.974726038053632">
        <ele>16.48</ele>
        <time>2026-07-03T11:06:45Z</time>
      </trkpt>
      <trkpt lat="53.950583031401038" lon="-9.974610032513738">
        <ele>16.48</ele>
        <time>2026-07-03T11:06:46Z</time>
      </trkpt>
      <trkpt lat="53.950712028890848" lon="-9.974440969526768">
        <ele>16</ele>
        <time>2026-07-03T11:06:47Z</time>
      </trkpt>
      <trkpt lat="53.950829962268472" lon="-9.97425296343863">
        <ele>16.48</ele>
        <time>2026-07-03T11:06:48Z</time>
      </trkpt>
      <trkpt lat="53.950941022485495" lon="-9.974054982885718">
        <ele>16.960000000000001</ele>
        <time>2026-07-03T11:06:49Z</time>
      </trkpt>
      <trkpt lat="53.95243501290679" lon="-9.971804022789002">
        <ele>18.879999999999999</ele>
        <time>2026-07-03T11:07:01Z</time>
      </trkpt>
      <trkpt lat="53.954151039943099" lon="-9.969978025183082">
        <ele>25.129999999999999</ele>
        <time>2026-07-03T11:07:13Z</time>
      </trkpt>
      <trkpt lat="53.955521984025836" lon="-9.969025002792478">
        <ele>29.940000000000001</ele>
        <time>2026-07-03T11:07:22Z</time>
      </trkpt>
      <trkpt lat="53.956361012533307" lon="-9.968781005591154">
        <ele>31.859999999999999</ele>
        <time>2026-07-03T11:07:29Z</time>
      </trkpt>
      <trkpt lat="53.956653960049152" lon="-9.968776982277632">
        <ele>32.340000000000003</ele>
        <time>2026-07-03T11:07:30Z</time>
      </trkpt>
      <trkpt lat="53.956793015822768" lon="-9.968849988654256">
        <ele>32.82</ele>
        <time>2026-07-03T11:07:31Z</time>
      </trkpt>
      <trkpt lat="53.956935005262494" lon="-9.96892299503088">
        <ele>33.299999999999997</ele>
        <time>2026-07-03T11:07:32Z</time>
      </trkpt>
      <trkpt lat="53.95707699470222" lon="-9.968998013064265">
        <ele>34.259999999999998</ele>
        <time>2026-07-03T11:07:33Z</time>
      </trkpt>
      <trkpt lat="53.958541983738542" lon="-9.970358982682228">
        <ele>35.229999999999997</ele>
        <time>2026-07-03T11:07:44Z</time>
      </trkpt>
      <trkpt lat="53.959899013862014" lon="-9.971976019442082">
        <ele>25.129999999999999</ele>
        <time>2026-07-03T11:07:53Z</time>
      </trkpt>
      <trkpt lat="53.961258977651596" lon="-9.974075015634298">
        <ele>20.809999999999999</ele>
        <time>2026-07-03T11:08:03Z</time>
      </trkpt>
      <trkpt lat="53.962926976382732" lon="-9.976267972961068">
        <ele>26.57</ele>
        <time>2026-07-03T11:08:16Z</time>
      </trkpt>
      <trkpt lat="53.96466001868248" lon="-9.978184998035431">
        <ele>27.050000000000001</ele>
        <time>2026-07-03T11:08:29Z</time>
      </trkpt>
      <trkpt lat="53.966818023473024" lon="-9.980928981676698">
        <ele>30.899999999999999</ele>
        <time>2026-07-03T11:08:45Z</time>
      </trkpt>
      <trkpt lat="53.968260968104005" lon="-9.982433030381799">
        <ele>36.189999999999998</ele>
        <time>2026-07-03T11:08:56Z</time>
      </trkpt>
      <trkpt lat="53.968508988618851" lon="-9.982546018436551">
        <ele>37.630000000000003</ele>
        <time>2026-07-03T11:08:58Z</time>
      </trkpt>
      <trkpt lat="53.9686359744519" lon="-9.982570996508002">
        <ele>38.590000000000003</ele>
        <time>2026-07-03T11:08:59Z</time>
      </trkpt>
      <trkpt lat="53.968775030225515" lon="-9.982598992064595">
        <ele>39.549999999999997</ele>
        <time>2026-07-03T11:09:00Z</time>
      </trkpt>
      <trkpt lat="53.968912996351719" lon="-9.982603015378118">
        <ele>40.509999999999998</ele>
        <time>2026-07-03T11:09:01Z</time>
      </trkpt>
      <trkpt lat="53.969059009104967" lon="-9.982603015378118">
        <ele>41.950000000000003</ele>
        <time>2026-07-03T11:09:02Z</time>
      </trkpt>
      <trkpt lat="53.970254017040133" lon="-9.982933010905981">
        <ele>46.759999999999998</ele>
        <time>2026-07-03T11:09:10Z</time>
      </trkpt>
      <trkpt lat="53.972720978781581" lon="-9.984002038836479">
        <ele>57.340000000000003</ele>
        <time>2026-07-03T11:09:27Z</time>
      </trkpt>
      <trkpt lat="53.974362993612885" lon="-9.985107025131583">
        <ele>64.069999999999993</ele>
        <time>2026-07-03T11:09:38Z</time>
      </trkpt>
      <trkpt lat="53.974791979417205" lon="-9.985418999567628">
        <ele>64.069999999999993</ele>
        <time>2026-07-03T11:09:41Z</time>
      </trkpt>
      <trkpt lat="53.974923994392157" lon="-9.985543973743916">
        <ele>64.549999999999997</ele>
        <time>2026-07-03T11:09:42Z</time>
      </trkpt>
      <trkpt lat="53.975049974396825" lon="-9.985682023689151">
        <ele>65.030000000000001</ele>
        <time>2026-07-03T11:09:43Z</time>
      </trkpt>
      <trkpt lat="53.975153993815184" lon="-9.98585301451385">
        <ele>65.989999999999995</ele>
        <time>2026-07-03T11:09:44Z</time>
      </trkpt>
      <trkpt lat="53.975250972434878" lon="-9.986035991460085">
        <ele>66.469999999999999</ele>
        <time>2026-07-03T11:09:45Z</time>
      </trkpt>
      <trkpt lat="53.975336970761418" lon="-9.986255010589957">
        <ele>66.469999999999999</ele>
        <time>2026-07-03T11:09:46Z</time>
      </trkpt>
      <trkpt lat="53.975423974916339" lon="-9.986478975042701">
        <ele>66.950000000000003</ele>
        <time>2026-07-03T11:09:47Z</time>
      </trkpt>
      <trkpt lat="53.976452015340328" lon="-9.988816017284989">
        <ele>66.469999999999999</ele>
        <time>2026-07-03T11:09:57Z</time>
      </trkpt>
      <trkpt lat="53.977383999153972" lon="-9.990113032981753">
        <ele>68.390000000000001</ele>
        <time>2026-07-03T11:10:04Z</time>
      </trkpt>
      <trkpt lat="53.9784100279212" lon="-9.991410970687866">
        <ele>76.560000000000002</ele>
        <time>2026-07-03T11:10:12Z</time>
      </trkpt>
      <trkpt lat="53.978509018197656" lon="-9.99161196872592">
        <ele>77.519999999999996</ele>
        <time>2026-07-03T11:10:13Z</time>
      </trkpt>
      <trkpt lat="53.97927101701498" lon="-9.993902994319797">
        <ele>86.180000000000007</ele>
        <time>2026-07-03T11:10:22Z</time>
      </trkpt>
      <trkpt lat="53.979589026421309" lon="-9.995159022510052">
        <ele>88.099999999999994</ele>
        <time>2026-07-03T11:10:27Z</time>
      </trkpt>
      <trkpt lat="53.979695979505777" lon="-9.995357003062964">
        <ele>88.099999999999994</ele>
        <time>2026-07-03T11:10:28Z</time>
      </trkpt>
      <trkpt lat="53.979816008359194" lon="-9.995540985837579">
        <ele>88.579999999999998</ele>
        <time>2026-07-03T11:10:29Z</time>
      </trkpt>
      <trkpt lat="53.980549005791545" lon="-9.996750997379422">
        <ele>90.019999999999996</ele>
        <time>2026-07-03T11:10:35Z</time>
      </trkpt>
      <trkpt lat="53.980644978582859" lon="-9.996949983760715">
        <ele>89.540000000000006</ele>
        <time>2026-07-03T11:10:36Z</time>
      </trkpt>
      <trkpt lat="53.980704993009567" lon="-9.997162967920303">
        <ele>90.019999999999996</ele>
        <time>2026-07-03T11:10:37Z</time>
      </trkpt>
      <trkpt lat="53.980759978294373" lon="-9.997386010363698">
        <ele>90.5</ele>
        <time>2026-07-03T11:10:38Z</time>
      </trkpt>
      <trkpt lat="53.980816975235939" lon="-9.997611986473203">
        <ele>90.5</ele>
        <time>2026-07-03T11:10:39Z</time>
      </trkpt>
      <trkpt lat="53.980873972177505" lon="-9.997846009209752">
        <ele>90.5</ele>
        <time>2026-07-03T11:10:40Z</time>
      </trkpt>
      <trkpt lat="53.980900961905718" lon="-9.998102998360992">
        <ele>90.5</ele>
        <time>2026-07-03T11:10:41Z</time>
      </trkpt>
      <trkpt lat="53.981233974918723" lon="-10.001165997236967">
        <ele>87.140000000000001</ele>
        <time>2026-07-03T11:10:52Z</time>
      </trkpt>
      <trkpt lat="53.981345035135746" lon="-10.004053981974721">
        <ele>81.370000000000005</ele>
        <time>2026-07-03T11:11:01Z</time>
      </trkpt>
      <trkpt lat="53.981578974053264" lon="-10.008567972108722">
        <ele>69.829999999999998</ele>
        <time>2026-07-03T11:11:14Z</time>
      </trkpt>
      <trkpt lat="53.981622979044914" lon="-10.011991979554296">
        <ele>62.140000000000001</ele>
        <time>2026-07-03T11:11:24Z</time>
      </trkpt>
      <trkpt lat="53.98165499791503" lon="-10.014506969600916">
        <ele>56.369999999999997</ele>
        <time>2026-07-03T11:11:32Z</time>
      </trkpt>
      <trkpt lat="53.981666984036565" lon="-10.016625998541713">
        <ele>54.450000000000003</ele>
        <time>2026-07-03T11:11:40Z</time>
      </trkpt>
      <trkpt lat="53.981666984036565" lon="-10.017991997301579">
        <ele>52.049999999999997</ele>
        <time>2026-07-03T11:11:45Z</time>
      </trkpt>
      <trkpt lat="53.981666984036565" lon="-10.020002983510494">
        <ele>48.68</ele>
        <time>2026-07-03T11:11:51Z</time>
      </trkpt>
      <trkpt lat="53.981789024546742" lon="-10.022543035447598">
        <ele>43.880000000000003</ele>
        <time>2026-07-03T11:11:58Z</time>
      </trkpt>
      <trkpt lat="53.982056993991137" lon="-10.024702968075871">
        <ele>41.469999999999999</ele>
        <time>2026-07-03T11:12:05Z</time>
      </trkpt>
      <trkpt lat="53.982036961242557" lon="-10.025734025985003">
        <ele>39.549999999999997</ele>
        <time>2026-07-03T11:12:09Z</time>
      </trkpt>
      <trkpt lat="53.981981975957751" lon="-10.026015993207693">
        <ele>39.07</ele>
        <time>2026-07-03T11:12:10Z</time>
      </trkpt>
      <trkpt lat="53.981919027864933" lon="-10.026338025927544">
        <ele>38.109999999999999</ele>
        <time>2026-07-03T11:12:11Z</time>
      </trkpt>
      <trkpt lat="53.981838980689645" lon="-10.026688976213336">
        <ele>37.149999999999999</ele>
        <time>2026-07-03T11:12:12Z</time>
      </trkpt>
      <trkpt lat="53.98174099624157" lon="-10.027059959247708">
        <ele>35.710000000000001</ele>
        <time>2026-07-03T11:12:13Z</time>
      </trkpt>
      <trkpt lat="53.981082011014223" lon="-10.029549971222878">
        <ele>32.82</ele>
        <time>2026-07-03T11:12:20Z</time>
      </trkpt>
      <trkpt lat="53.980766013264656" lon="-10.031993966549635">
        <ele>29.460000000000001</ele>
        <time>2026-07-03T11:12:28Z</time>
      </trkpt>
      <trkpt lat="53.980695018544793" lon="-10.034148031845689">
        <ele>24.170000000000002</ele>
        <time>2026-07-03T11:12:35Z</time>
      </trkpt>
      <trkpt lat="53.980819992721081" lon="-10.03619103692472">
        <ele>21.77</ele>
        <time>2026-07-03T11:12:42Z</time>
      </trkpt>
      <trkpt lat="53.980811024084687" lon="-10.036493958905339">
        <ele>20.809999999999999</ele>
        <time>2026-07-03T11:12:43Z</time>
      </trkpt>
      <trkpt lat="53.98077498190105" lon="-10.036802999675274">
        <ele>19.84</ele>
        <time>2026-07-03T11:12:44Z</time>
      </trkpt>
      <trkpt lat="53.980210041627288" lon="-10.040049981325865">
        <ele>13.119999999999999</ele>
        <time>2026-07-03T11:12:55Z</time>
      </trkpt>
      <trkpt lat="53.979510990902781" lon="-10.042812991887331">
        <ele>15.039999999999999</ele>
        <time>2026-07-03T11:13:06Z</time>
      </trkpt>
      <trkpt lat="53.97905501537025" lon="-10.04549796693027">
        <ele>15.039999999999999</ele>
        <time>2026-07-03T11:13:16Z</time>
      </trkpt>
      <trkpt lat="53.978532990440726" lon="-10.050501963123679">
        <ele>8.789999999999999</ele>
        <time>2026-07-03T11:13:32Z</time>
      </trkpt>
      <trkpt lat="53.978051031008363" lon="-10.05404700525105">
        <ele>8.789999999999999</ele>
        <time>2026-07-03T11:13:44Z</time>
      </trkpt>
      <trkpt lat="53.977410988882184" lon="-10.058261007070541">
        <ele>4.46</ele>
        <time>2026-07-03T11:13:58Z</time>
      </trkpt>
      <trkpt lat="53.976953001692891" lon="-10.062558995559812">
        <ele>3.5</ele>
        <time>2026-07-03T11:14:13Z</time>
      </trkpt>
      <trkpt lat="53.976688971742988" lon="-10.065257968381047">
        <ele>5.42</ele>
        <time>2026-07-03T11:14:23Z</time>
      </trkpt>
      <trkpt lat="53.976705987006426" lon="-10.065474975854158">
        <ele>5.42</ele>
        <time>2026-07-03T11:14:24Z</time>
      </trkpt>
      <trkpt lat="53.976897010579705" lon="-10.06818501278758">
        <ele>5.91</ele>
        <time>2026-07-03T11:14:34Z</time>
      </trkpt>
      <trkpt lat="53.976753009483218" lon="-10.070939976722002">
        <ele>7.35</ele>
        <time>2026-07-03T11:14:44Z</time>
      </trkpt>
      <trkpt lat="53.976766001433134" lon="-10.073991995304823">
        <ele>8.310000000000001</ele>
        <time>2026-07-03T11:14:55Z</time>
      </trkpt>
      <trkpt lat="53.976407004520297" lon="-10.07570500485599">
        <ele>7.35</ele>
        <time>2026-07-03T11:15:03Z</time>
      </trkpt>
      <trkpt lat="53.976232996210456" lon="-10.077526979148388">
        <ele>6.39</ele>
        <time>2026-07-03T11:15:10Z</time>
      </trkpt>
      <trkpt lat="53.976235007867217" lon="-10.079616000875831">
        <ele>8.310000000000001</ele>
        <time>2026-07-03T11:15:20Z</time>
      </trkpt>
      <trkpt lat="53.976163007318974" lon="-10.080390991643071">
        <ele>8.789999999999999</ele>
        <time>2026-07-03T11:15:24Z</time>
      </trkpt>
      <trkpt lat="53.976109027862549" lon="-10.080546978861094">
        <ele>8.789999999999999</ele>
        <time>2026-07-03T11:15:25Z</time>
      </trkpt>
      <trkpt lat="53.976026969030499" lon="-10.080688968300819">
        <ele>9.27</ele>
        <time>2026-07-03T11:15:26Z</time>
      </trkpt>
      <trkpt lat="53.975943988189101" lon="-10.080832969397306">
        <ele>9.27</ele>
        <time>2026-07-03T11:15:27Z</time>
      </trkpt>
      <trkpt lat="53.975857989862561" lon="-10.080981999635696">
        <ele>9.27</ele>
        <time>2026-07-03T11:15:28Z</time>
      </trkpt>
      <trkpt lat="53.974796002730727" lon="-10.082342969253659">
        <ele>9.27</ele>
        <time>2026-07-03T11:15:40Z</time>
      </trkpt>
      <trkpt lat="53.974379003047943" lon="-10.083103962242603">
        <ele>10.23</ele>
        <time>2026-07-03T11:15:47Z</time>
      </trkpt>
      <trkpt lat="53.97432703524828" lon="-10.08322399109602">
        <ele>10.23</ele>
        <time>2026-07-03T11:15:48Z</time>
      </trkpt>
      <trkpt lat="53.974315971136093" lon="-10.083362041041255">
        <ele>10.710000000000001</ele>
        <time>2026-07-03T11:15:49Z</time>
      </trkpt>
      <trkpt lat="53.974315971136093" lon="-10.083510987460613">
        <ele>11.19</ele>
        <time>2026-07-03T11:15:50Z</time>
      </trkpt>
      <trkpt lat="53.974343966692686" lon="-10.08363202214241">
        <ele>11.67</ele>
        <time>2026-07-03T11:15:51Z</time>
      </trkpt>
      <trkpt lat="53.974369028583169" lon="-10.083738975226879">
        <ele>12.15</ele>
        <time>2026-07-03T11:15:52Z</time>
      </trkpt>
      <trkpt lat="53.974390989169478" lon="-10.083833020180464">
        <ele>12.15</ele>
        <time>2026-07-03T11:15:53Z</time>
      </trkpt>
      <trkpt lat="53.974412027746439" lon="-10.083921030163765">
        <ele>12.630000000000001</ele>
        <time>2026-07-03T11:15:54Z</time>
      </trkpt>
      <trkpt lat="53.974474975839257" lon="-10.084193022921681">
        <ele>13.119999999999999</ele>
        <time>2026-07-03T11:15:57Z</time>
      </trkpt>
      <trkpt lat="53.97454303689301" lon="-10.084483958780766">
        <ele>15.039999999999999</ele>
        <time>2026-07-03T11:16:04Z</time>
      </trkpt>
      <trkpt lat="53.974510012194514" lon="-10.084767015650868">
        <ele>16.48</ele>
        <time>2026-07-03T11:16:09Z</time>
      </trkpt>
      <trkpt lat="53.974498026072979" lon="-10.084875980392098">
        <ele>16.48</ele>
        <time>2026-07-03T11:16:10Z</time>
      </trkpt>
      <trkpt lat="53.974486039951444" lon="-10.084973964840174">
        <ele>16.48</ele>
        <time>2026-07-03T11:16:11Z</time>
      </trkpt>
      <trkpt lat="53.974440023303032" lon="-10.085373027250171">
        <ele>16</ele>
        <time>2026-07-03T11:16:19Z</time>
      </trkpt>
      <trkpt lat="53.974426025524735" lon="-10.085499007254839">
        <ele>15.039999999999999</ele>
        <time>2026-07-03T11:16:21Z</time>
      </trkpt>
      <trkpt lat="53.974398029968143" lon="-10.085733029991388">
        <ele>14.56</ele>
        <time>2026-07-03T11:16:24Z</time>
      </trkpt>
      <trkpt lat="53.974387971684337" lon="-10.0858239736408">
        <ele>14.56</ele>
        <time>2026-07-03T11:16:25Z</time>
      </trkpt>
      <trkpt lat="53.974376991391182" lon="-10.085913995280862">
        <ele>14.08</ele>
        <time>2026-07-03T11:16:26Z</time>
      </trkpt>
      <trkpt lat="53.974331980571151" lon="-10.086093032732606">
        <ele>14.08</ele>
        <time>2026-07-03T11:16:28Z</time>
      </trkpt>
      <trkpt lat="53.97396300919354" lon="-10.087054017931223">
        <ele>13.6</ele>
        <time>2026-07-03T11:16:37Z</time>
      </trkpt>
      <trkpt lat="53.973402008414268" lon="-10.088320020586252">
        <ele>14.08</ele>
        <time>2026-07-03T11:16:46Z</time>
      </trkpt>
      <trkpt lat="53.972830027341843" lon="-10.090242996811867">
        <ele>19.359999999999999</ele>
        <time>2026-07-03T11:16:55Z</time>
      </trkpt>
      <trkpt lat="53.972254022955894" lon="-10.092348027974367">
        <ele>27.050000000000001</ele>
        <time>2026-07-03T11:17:05Z</time>
      </trkpt>
      <trkpt lat="53.97157802246511" lon="-10.095336008816957">
        <ele>32.340000000000003</ele>
        <time>2026-07-03T11:17:19Z</time>
      </trkpt>
      <trkpt lat="53.971152976155281" lon="-10.098381992429495">
        <ele>33.780000000000001</ele>
        <time>2026-07-03T11:17:31Z</time>
      </trkpt>
      <trkpt lat="53.971026996150613" lon="-10.101914964616299">
        <ele>33.299999999999997</ele>
        <time>2026-07-03T11:17:43Z</time>
      </trkpt>
      <trkpt lat="53.971055997535586" lon="-10.10219600982964">
        <ele>33.780000000000001</ele>
        <time>2026-07-03T11:17:44Z</time>
      </trkpt>
      <trkpt lat="53.971087010577321" lon="-10.102474959567189">
        <ele>34.259999999999998</ele>
        <time>2026-07-03T11:17:45Z</time>
      </trkpt>
      <trkpt lat="53.971648011356592" lon="-10.104833040386438">
        <ele>35.710000000000001</ele>
        <time>2026-07-03T11:17:54Z</time>
      </trkpt>
      <trkpt lat="53.972319988533854" lon="-10.107189025729895">
        <ele>39.549999999999997</ele>
        <time>2026-07-03T11:18:05Z</time>
      </trkpt>
      <trkpt lat="53.97282600402832" lon="-10.109225995838642">
        <ele>43.399999999999999</ele>
        <time>2026-07-03T11:18:15Z</time>
      </trkpt>
      <trkpt lat="53.97316999733448" lon="-10.111477039754391">
        <ele>47.240000000000002</ele>
        <time>2026-07-03T11:18:25Z</time>
      </trkpt>
      <trkpt lat="53.97316999733448" lon="-10.11169102974236">
        <ele>47.719999999999999</ele>
        <time>2026-07-03T11:18:26Z</time>
      </trkpt>
      <trkpt lat="53.973161028698087" lon="-10.11190501973033">
        <ele>48.200000000000003</ele>
        <time>2026-07-03T11:18:27Z</time>
      </trkpt>
      <trkpt lat="53.9728909637779" lon="-10.113957999274135">
        <ele>51.090000000000003</ele>
        <time>2026-07-03T11:18:36Z</time>
      </trkpt>
      <trkpt lat="53.972898004576564" lon="-10.114178024232388">
        <ele>51.090000000000003</ele>
        <time>2026-07-03T11:18:37Z</time>
      </trkpt>
      <trkpt lat="53.972923988476396" lon="-10.114395031705499">
        <ele>51.090000000000003</ele>
        <time>2026-07-03T11:18:38Z</time>
      </trkpt>
      <trkpt lat="53.972950978204608" lon="-10.114618996158242">
        <ele>51.090000000000003</ele>
        <time>2026-07-03T11:18:39Z</time>
      </trkpt>
      <trkpt lat="53.972994983196259" lon="-10.114839021116495">
        <ele>50.609999999999999</ele>
        <time>2026-07-03T11:18:40Z</time>
      </trkpt>
      <trkpt lat="53.97304099984467" lon="-10.115060973912477">
        <ele>50.130000000000003</ele>
        <time>2026-07-03T11:18:41Z</time>
      </trkpt>
      <trkpt lat="53.973450036719441" lon="-10.117324003949761">
        <ele>39.549999999999997</ele>
        <time>2026-07-03T11:18:51Z</time>
      </trkpt>
      <trkpt lat="53.973946999758482" lon="-10.120192961767316">
        <ele>24.170000000000002</ele>
        <time>2026-07-03T11:19:04Z</time>
      </trkpt>
      <trkpt lat="53.974155960604548" lon="-10.121437003836036">
        <ele>17.920000000000002</ele>
        <time>2026-07-03T11:19:12Z</time>
      </trkpt>
      <trkpt lat="53.974193008616567" lon="-10.121657028794289">
        <ele>16</ele>
        <time>2026-07-03T11:19:17Z</time>
      </trkpt>
      <trkpt lat="53.974193008616567" lon="-10.121657028794289">
        <ele>15.52</ele>
        <time>2026-07-03T11:19:18Z</time>
      </trkpt>
      <trkpt lat="53.974193008616567" lon="-10.121657028794289">
        <ele>15.039999999999999</ele>
        <time>2026-07-03T11:19:36Z</time>
      </trkpt>
      <trkpt lat="53.974193008616567" lon="-10.121657028794289">
        <ele>14.56</ele>
        <time>2026-07-03T11:20:20Z</time>
      </trkpt>
      <trkpt lat="53.974193008616567" lon="-10.121657028794289">
        <ele>14.08</ele>
        <time>2026-07-03T11:20:59Z</time>
      </trkpt>
      <trkpt lat="53.974193008616567" lon="-10.121657028794289">
        <ele>14.08</ele>
        <time>2026-07-03T11:21:45Z</time>
      </trkpt>
      <trkpt lat="53.974193008616567" lon="-10.121657028794289">
        <ele>14.08</ele>
        <time>2026-07-03T11:22:30Z</time>
      </trkpt>
      <trkpt lat="53.974193008616567" lon="-10.121657028794289">
        <ele>14.08</ele>
        <time>2026-07-03T11:23:17Z</time>
      </trkpt>
      <trkpt lat="53.974193008616567" lon="-10.121657028794289">
        <ele>14.08</ele>
        <time>2026-07-03T11:24:05Z</time>
      </trkpt>
      <trkpt lat="53.974193008616567" lon="-10.121657028794289">
        <ele>14.08</ele>
        <time>2026-07-03T11:24:50Z</time>
      </trkpt>
      <trkpt lat="53.974193008616567" lon="-10.121657028794289">
        <ele>14.08</ele>
        <time>2026-07-03T11:25:37Z</time>
      </trkpt>
      <trkpt lat="53.974224021658301" lon="-10.121842017397285">
        <ele>14.56</ele>
        <time>2026-07-03T11:26:06Z</time>
      </trkpt>
      <trkpt lat="53.974284958094358" lon="-10.122166983783245">
        <ele>14.56</ele>
        <time>2026-07-03T11:26:09Z</time>
      </trkpt>
      <trkpt lat="53.974571032449603" lon="-10.123749990016222">
        <ele>14.08</ele>
        <time>2026-07-03T11:26:18Z</time>
      </trkpt>
      <trkpt lat="53.9749959949404" lon="-10.126272020861506">
        <ele>8.789999999999999</ele>
        <time>2026-07-03T11:26:31Z</time>
      </trkpt>
      <trkpt lat="53.975067995488644" lon="-10.128294993191957">
        <ele>6.87</ele>
        <time>2026-07-03T11:26:40Z</time>
      </trkpt>
      <trkpt lat="53.974788961932063" lon="-10.130102969706059">
        <ele>9.27</ele>
        <time>2026-07-03T11:26:49Z</time>
      </trkpt>
      <trkpt lat="53.974082032218575" lon="-10.132672023028135">
        <ele>13.6</ele>
        <time>2026-07-03T11:27:02Z</time>
      </trkpt>
      <trkpt lat="53.973056003451347" lon="-10.136158978566527">
        <ele>16</ele>
        <time>2026-07-03T11:27:18Z</time>
      </trkpt>
      <trkpt lat="53.971951017156243" lon="-10.139726987108588">
        <ele>22.25</ele>
        <time>2026-07-03T11:27:34Z</time>
      </trkpt>
      <trkpt lat="53.971915980800986" lon="-10.139952041208744">
        <ele>23.210000000000001</ele>
        <time>2026-07-03T11:27:35Z</time>
      </trkpt>
      <trkpt lat="53.971897959709167" lon="-10.140185980126262">
        <ele>24.170000000000002</ele>
        <time>2026-07-03T11:27:36Z</time>
      </trkpt>
      <trkpt lat="53.97188002243638" lon="-10.140426959842443">
        <ele>25.129999999999999</ele>
        <time>2026-07-03T11:27:37Z</time>
      </trkpt>
      <trkpt lat="53.971712971106172" lon="-10.142764002084732">
        <ele>30.899999999999999</ele>
        <time>2026-07-03T11:27:46Z</time>
      </trkpt>
      <trkpt lat="53.971034958958626" lon="-10.146037973463535">
        <ele>31.859999999999999</ele>
        <time>2026-07-03T11:27:59Z</time>
      </trkpt>
      <trkpt lat="53.970259968191385" lon="-10.149464998394251">
        <ele>36.189999999999998</ele>
        <time>2026-07-03T11:28:12Z</time>
      </trkpt>
      <trkpt lat="53.96964599378407" lon="-10.152124995365739">
        <ele>47.240000000000002</ele>
        <time>2026-07-03T11:28:23Z</time>
      </trkpt>
      <trkpt lat="53.969313986599445" lon="-10.154716009274125">
        <ele>64.069999999999993</ele>
        <time>2026-07-03T11:28:34Z</time>
      </trkpt>
      <trkpt lat="53.969246009364724" lon="-10.157566023990512">
        <ele>82.810000000000002</ele>
        <time>2026-07-03T11:28:46Z</time>
      </trkpt>
      <trkpt lat="53.969426974654198" lon="-10.159897031262517">
        <ele>97.709999999999994</ele>
        <time>2026-07-03T11:28:57Z</time>
      </trkpt>
      <trkpt lat="53.969700979068875" lon="-10.16222502104938">
        <ele>110.20999999999999</ele>
        <time>2026-07-03T11:29:08Z</time>
      </trkpt>
      <trkpt lat="53.970097023993731" lon="-10.164311025291681">
        <ele>128.94999999999999</ele>
        <time>2026-07-03T11:29:19Z</time>
      </trkpt>
      <trkpt lat="53.970114039257169" lon="-10.164473969489336">
        <ele>130.88</ele>
        <time>2026-07-03T11:29:20Z</time>
      </trkpt>
      <trkpt lat="53.970114039257169" lon="-10.164473969489336">
        <ele>132.80000000000001</ele>
        <time>2026-07-03T11:29:21Z</time>
      </trkpt>
      <trkpt lat="53.970089983195066" lon="-10.164816034957767">
        <ele>134.24000000000001</ele>
        <time>2026-07-03T11:29:22Z</time>
      </trkpt>
      <trkpt lat="53.970069028437138" lon="-10.164983002468944">
        <ele>135.19999999999999</ele>
        <time>2026-07-03T11:29:23Z</time>
      </trkpt>
      <trkpt lat="53.969787983223796" lon="-10.167157016694546">
        <ele>148.66</ele>
        <time>2026-07-03T11:29:34Z</time>
      </trkpt>
      <trkpt lat="53.969522025436163" lon="-10.169756999239326">
        <ele>157.31</ele>
        <time>2026-07-03T11:29:46Z</time>
      </trkpt>
      <trkpt lat="53.969574999064207" lon="-10.170863997191191">
        <ele>159.24000000000001</ele>
        <time>2026-07-03T11:29:52Z</time>
      </trkpt>
      <trkpt lat="53.969606012105942" lon="-10.171027025207877">
        <ele>159.72</ele>
        <time>2026-07-03T11:29:53Z</time>
      </trkpt>
      <trkpt lat="53.969638030976057" lon="-10.171191981062293">
        <ele>159.72</ele>
        <time>2026-07-03T11:29:54Z</time>
      </trkpt>
      <trkpt lat="53.969683963805437" lon="-10.171354003250599">
        <ele>159.72</ele>
        <time>2026-07-03T11:29:55Z</time>
      </trkpt>
      <trkpt lat="53.969740960747004" lon="-10.171515019610524">
        <ele>160.19999999999999</ele>
        <time>2026-07-03T11:29:56Z</time>
      </trkpt>
      <trkpt lat="53.969820002093911" lon="-10.171825988218188">
        <ele>160.19999999999999</ele>
        <time>2026-07-03T11:29:58Z</time>
      </trkpt>
      <trkpt lat="53.969841040670872" lon="-10.171982981264591">
        <ele>160.68000000000001</ele>
        <time>2026-07-03T11:29:59Z</time>
      </trkpt>
      <trkpt lat="53.969865012913942" lon="-10.172160007059574">
        <ele>160.68000000000001</ele>
        <time>2026-07-03T11:30:00Z</time>
      </trkpt>
      <trkpt lat="53.969833999872208" lon="-10.172315994277596">
        <ele>161.16</ele>
        <time>2026-07-03T11:30:01Z</time>
      </trkpt>
      <trkpt lat="53.969802986830473" lon="-10.172474998980761">
        <ele>161.16</ele>
        <time>2026-07-03T11:30:02Z</time>
      </trkpt>
      <trkpt lat="53.969769962131977" lon="-10.172639032825828">
        <ele>161.16</ele>
        <time>2026-07-03T11:30:03Z</time>
      </trkpt>
      <trkpt lat="53.969591008499265" lon="-10.173532040789723">
        <ele>161.16</ele>
        <time>2026-07-03T11:30:08Z</time>
      </trkpt>
      <trkpt lat="53.969554966315627" lon="-10.173712000250816">
        <ele>161.16</ele>
        <time>2026-07-03T11:30:09Z</time>
      </trkpt>
      <trkpt lat="53.969504004344344" lon="-10.174392024055123">
        <ele>162.59999999999999</ele>
        <time>2026-07-03T11:30:13Z</time>
      </trkpt>
      <trkpt lat="53.969527976587415" lon="-10.17453501932323">
        <ele>162.59999999999999</ele>
        <time>2026-07-03T11:30:14Z</time>
      </trkpt>
      <trkpt lat="53.969561001285911" lon="-10.174668962135911">
        <ele>162.59999999999999</ele>
        <time>2026-07-03T11:30:15Z</time>
      </trkpt>
      <trkpt lat="53.969614980742335" lon="-10.174795025959611">
        <ele>162.59999999999999</ele>
        <time>2026-07-03T11:30:16Z</time>
      </trkpt>
      <trkpt lat="53.96966896019876" lon="-10.174918994307518">
        <ele>162.59999999999999</ele>
        <time>2026-07-03T11:30:17Z</time>
      </trkpt>
      <trkpt lat="53.969719000160694" lon="-10.175037011504173">
        <ele>162.59999999999999</ele>
        <time>2026-07-03T11:30:18Z</time>
      </trkpt>
      <trkpt lat="53.969737021252513" lon="-10.175175983458757">
        <ele>162.59999999999999</ele>
        <time>2026-07-03T11:30:19Z</time>
      </trkpt>
      <trkpt lat="53.969737021252513" lon="-10.175319984555244">
        <ele>162.59999999999999</ele>
        <time>2026-07-03T11:30:20Z</time>
      </trkpt>
      <trkpt lat="53.969737021252513" lon="-10.175463985651731">
        <ele>162.59999999999999</ele>
        <time>2026-07-03T11:30:21Z</time>
      </trkpt>
      <trkpt lat="53.969737021252513" lon="-10.17576296813786">
        <ele>162.12</ele>
        <time>2026-07-03T11:30:23Z</time>
      </trkpt>
      <trkpt lat="53.969741966575384" lon="-10.175919961184263">
        <ele>161.63999999999999</ele>
        <time>2026-07-03T11:30:24Z</time>
      </trkpt>
      <trkpt lat="53.969760993495584" lon="-10.176086006686091">
        <ele>161.63999999999999</ele>
        <time>2026-07-03T11:30:25Z</time>
      </trkpt>
      <trkpt lat="53.969800975173712" lon="-10.176434023305774">
        <ele>160.68000000000001</ele>
        <time>2026-07-03T11:30:27Z</time>
      </trkpt>
      <trkpt lat="53.969822013750672" lon="-10.176617000252008">
        <ele>160.68000000000001</ele>
        <time>2026-07-03T11:30:28Z</time>
      </trkpt>
      <trkpt lat="53.9700329862535" lon="-10.177901023998857">
        <ele>156.83000000000001</ele>
        <time>2026-07-03T11:30:34Z</time>
      </trkpt>
      <trkpt lat="53.97016198374331" lon="-10.178449032828212">
        <ele>155.38999999999999</ele>
        <time>2026-07-03T11:30:37Z</time>
      </trkpt>
      <trkpt lat="53.970200037583709" lon="-10.178626980632544">
        <ele>154.91</ele>
        <time>2026-07-03T11:30:38Z</time>
      </trkpt>
      <trkpt lat="53.970343032851815" lon="-10.179437007755041">
        <ele>153.47</ele>
        <time>2026-07-03T11:30:42Z</time>
      </trkpt>
      <trkpt lat="53.970436993986368" lon="-10.179966995492578">
        <ele>152.50999999999999</ele>
        <time>2026-07-03T11:30:45Z</time>
      </trkpt>
      <trkpt lat="53.970435988157988" lon="-10.180114014074206">
        <ele>152.03</ele>
        <time>2026-07-03T11:30:46Z</time>
      </trkpt>
      <trkpt lat="53.970425007864833" lon="-10.180248040705919">
        <ele>151.53999999999999</ele>
        <time>2026-07-03T11:30:47Z</time>
      </trkpt>
      <trkpt lat="53.970402041450143" lon="-10.180385001003742">
        <ele>150.09999999999999</ele>
        <time>2026-07-03T11:30:48Z</time>
      </trkpt>
      <trkpt lat="53.970373962074518" lon="-10.180536964908242">
        <ele>148.66</ele>
        <time>2026-07-03T11:30:49Z</time>
      </trkpt>
      <trkpt lat="53.970289975404739" lon="-10.181072987616062">
        <ele>143.37</ele>
        <time>2026-07-03T11:30:52Z</time>
      </trkpt>
      <trkpt lat="53.970283018425107" lon="-10.181249007582664">
        <ele>141.93000000000001</ele>
        <time>2026-07-03T11:30:53Z</time>
      </trkpt>
      <trkpt lat="53.970275977626443" lon="-10.181415975093842">
        <ele>140.49000000000001</ele>
        <time>2026-07-03T11:30:54Z</time>
      </trkpt>
      <trkpt lat="53.970430037006736" lon="-10.183180030435324">
        <ele>127.51000000000001</ele>
        <time>2026-07-03T11:31:03Z</time>
      </trkpt>
      <trkpt lat="53.970577977597713" lon="-10.184766976162791">
        <ele>112.13</ele>
        <time>2026-07-03T11:31:12Z</time>
      </trkpt>
      <trkpt lat="53.970850976184011" lon="-10.186455007642508">
        <ele>100.59999999999999</ele>
        <time>2026-07-03T11:31:20Z</time>
      </trkpt>
      <trkpt lat="53.970983996987343" lon="-10.187253970652819">
        <ele>95.790000000000006</ele>
        <time>2026-07-03T11:31:24Z</time>
      </trkpt>
      <trkpt lat="53.971044011414051" lon="-10.189134031534195">
        <ele>85.689999999999998</ele>
        <time>2026-07-03T11:31:33Z</time>
      </trkpt>
      <trkpt lat="53.971012998372316" lon="-10.189293958246708">
        <ele>84.730000000000004</ele>
        <time>2026-07-03T11:31:34Z</time>
      </trkpt>
      <trkpt lat="53.970973016694188" lon="-10.189437959343195">
        <ele>83.769999999999996</ele>
        <time>2026-07-03T11:31:35Z</time>
      </trkpt>
      <trkpt lat="53.970925994217396" lon="-10.189585983753204">
        <ele>82.810000000000002</ele>
        <time>2026-07-03T11:31:36Z</time>
      </trkpt>
      <trkpt lat="53.970856005325913" lon="-10.189717998728156">
        <ele>81.849999999999994</ele>
        <time>2026-07-03T11:31:37Z</time>
      </trkpt>
      <trkpt lat="53.970545036718249" lon="-10.19030699506402">
        <ele>76.079999999999998</ele>
        <time>2026-07-03T11:31:41Z</time>
      </trkpt>
      <trkpt lat="53.970504971221089" lon="-10.190444961190224">
        <ele>74.640000000000001</ele>
        <time>2026-07-03T11:31:42Z</time>
      </trkpt>
      <trkpt lat="53.970472030341625" lon="-10.190589968115091">
        <ele>73.200000000000003</ele>
        <time>2026-07-03T11:31:43Z</time>
      </trkpt>
      <trkpt lat="53.970469012856483" lon="-10.190746961161494">
        <ele>72.239999999999995</ele>
        <time>2026-07-03T11:31:44Z</time>
      </trkpt>
      <trkpt lat="53.970472030341625" lon="-10.190922981128097">
        <ele>71.269999999999996</ele>
        <time>2026-07-03T11:31:45Z</time>
      </trkpt>
      <trkpt lat="53.970488039776683" lon="-10.191679028794169">
        <ele>67.909999999999997</ele>
        <time>2026-07-03T11:31:49Z</time>
      </trkpt>
      <trkpt lat="53.970523998141289" lon="-10.191862005740404">
        <ele>66.469999999999999</ele>
        <time>2026-07-03T11:31:50Z</time>
      </trkpt>
      <trkpt lat="53.970561968162656" lon="-10.192050011828542">
        <ele>65.030000000000001</ele>
        <time>2026-07-03T11:31:51Z</time>
      </trkpt>
      <trkpt lat="53.970702029764652" lon="-10.192737998440862">
        <ele>61.659999999999997</ele>
        <time>2026-07-03T11:31:55Z</time>
      </trkpt>
      <trkpt lat="53.970694988965988" lon="-10.192826008424163">
        <ele>60.700000000000003</ele>
        <time>2026-07-03T11:31:56Z</time>
      </trkpt>
      <trkpt lat="53.970680991187692" lon="-10.192994987592101">
        <ele>59.740000000000002</ele>
        <time>2026-07-03T11:31:57Z</time>
      </trkpt>
      <trkpt lat="53.97063497453928" lon="-10.193124990910292">
        <ele>59.740000000000002</ele>
        <time>2026-07-03T11:31:58Z</time>
      </trkpt>
      <trkpt lat="53.970430959016085" lon="-10.193706024438143">
        <ele>57.82</ele>
        <time>2026-07-03T11:32:02Z</time>
      </trkpt>
      <trkpt lat="53.970295004546642" lon="-10.193883972242475">
        <ele>56.859999999999999</ele>
        <time>2026-07-03T11:32:04Z</time>
      </trkpt>
      <trkpt lat="53.970209006220102" lon="-10.193961001932621">
        <ele>56.369999999999997</ele>
        <time>2026-07-03T11:32:05Z</time>
      </trkpt>
      <trkpt lat="53.970127031207085" lon="-10.193957984447479">
        <ele>55.890000000000001</ele>
        <time>2026-07-03T11:32:06Z</time>
      </trkpt>
      <trkpt lat="53.970043966546655" lon="-10.193954966962337">
        <ele>54.93</ele>
        <time>2026-07-03T11:32:07Z</time>
      </trkpt>
      <trkpt lat="53.969825031235814" lon="-10.193945998325944">
        <ele>53.009999999999998</ele>
        <time>2026-07-03T11:32:10Z</time>
      </trkpt>
      <trkpt lat="53.969763005152345" lon="-10.193943986669183">
        <ele>52.530000000000001</ele>
        <time>2026-07-03T11:32:11Z</time>
      </trkpt>
      <trkpt lat="53.969598971307278" lon="-10.193901993334293">
        <ele>50.130000000000003</ele>
        <time>2026-07-03T11:32:15Z</time>
      </trkpt>
      <trkpt lat="53.96955999545753" lon="-10.193875003606081">
        <ele>49.649999999999999</ele>
        <time>2026-07-03T11:32:16Z</time>
      </trkpt>
      <trkpt lat="53.969521019607782" lon="-10.193846002221107">
        <ele>49.159999999999997</ele>
        <time>2026-07-03T11:32:17Z</time>
      </trkpt>
      <trkpt lat="53.969500986859202" lon="-10.193832004442811">
        <ele>49.159999999999997</ele>
        <time>2026-07-03T11:32:18Z</time>
      </trkpt>
      <trkpt lat="53.969462011009455" lon="-10.193688003346324">
        <ele>48.200000000000003</ele>
        <time>2026-07-03T11:32:27Z</time>
      </trkpt>
      <trkpt lat="53.969462011009455" lon="-10.193688003346324">
        <ele>48.200000000000003</ele>
        <time>2026-07-03T11:32:51Z</time>
      </trkpt>
      <trkpt lat="53.9694510307163" lon="-10.193646010011435">
        <ele>47.719999999999999</ele>
        <time>2026-07-03T11:33:09Z</time>
      </trkpt>
      <trkpt lat="53.969428986310959" lon="-10.193562023341656">
        <ele>48.200000000000003</ele>
        <time>2026-07-03T11:33:59Z</time>
      </trkpt>
      <trkpt lat="53.969420017674565" lon="-10.19352899864316">
        <ele>48.200000000000003</ele>
        <time>2026-07-03T11:34:00Z</time>
      </trkpt>
      <trkpt lat="53.969414988532662" lon="-10.19350997172296">
        <ele>48.200000000000003</ele>
        <time>2026-07-03T11:34:01Z</time>
      </trkpt>
      <trkpt lat="53.969414988532662" lon="-10.19350997172296">
        <ele>48.68</ele>
        <time>2026-07-03T11:34:02Z</time>
      </trkpt>
      <trkpt lat="53.969414988532662" lon="-10.19350997172296">
        <ele>48.68</ele>
        <time>2026-07-03T11:34:03Z</time>
      </trkpt>
      <trkpt lat="53.969428986310959" lon="-10.193434031680226">
        <ele>48.68</ele>
        <time>2026-07-03T11:34:04Z</time>
      </trkpt>
      <trkpt lat="53.969435021281242" lon="-10.19340100698173">
        <ele>49.159999999999997</ele>
        <time>2026-07-03T11:34:05Z</time>
      </trkpt>
      <trkpt lat="53.969457987695932" lon="-10.193274021148682">
        <ele>49.159999999999997</ele>
        <time>2026-07-03T11:34:06Z</time>
      </trkpt>
      <trkpt lat="53.969457987695932" lon="-10.193274021148682">
        <ele>49.159999999999997</ele>
        <time>2026-07-03T11:34:07Z</time>
      </trkpt>
      <trkpt lat="53.969457987695932" lon="-10.193274021148682">
        <ele>48.200000000000003</ele>
        <time>2026-07-03T11:34:19Z</time>
      </trkpt>
      <trkpt lat="53.969457987695932" lon="-10.193274021148682">
        <ele>48.200000000000003</ele>
        <time>2026-07-03T11:34:20Z</time>
      </trkpt>
      <trkpt lat="53.969423035159707" lon="-10.193538973107934">
        <ele>47.719999999999999</ele>
        <time>2026-07-03T11:34:30Z</time>
      </trkpt>
      <trkpt lat="53.969423035159707" lon="-10.193538973107934">
        <ele>47.240000000000002</ele>
        <time>2026-07-03T11:34:35Z</time>
      </trkpt>
      <trkpt lat="53.969500986859202" lon="-10.193832004442811">
        <ele>47.240000000000002</ele>
        <time>2026-07-03T11:34:36Z</time>
      </trkpt>
      <trkpt lat="53.969535017386079" lon="-10.19320897758007">
        <ele>47.719999999999999</ele>
        <time>2026-07-03T11:34:42Z</time>
      </trkpt>
      <trkpt lat="53.969648005440831" lon="-10.193005967885256">
        <ele>47.240000000000002</ele>
        <time>2026-07-03T11:34:44Z</time>
      </trkpt>
      <trkpt lat="53.969710031524301" lon="-10.192918041720986">
        <ele>46.759999999999998</ele>
        <time>2026-07-03T11:34:45Z</time>
      </trkpt>
      <trkpt lat="53.969822013750672" lon="-10.192759959027171">
        <ele>46.280000000000001</ele>
        <time>2026-07-03T11:34:47Z</time>
      </trkpt>
      <trkpt lat="53.969845985993743" lon="-10.192660968750715">
        <ele>45.799999999999997</ele>
        <time>2026-07-03T11:34:48Z</time>
      </trkpt>
      <trkpt lat="53.969872975721955" lon="-10.192546974867582">
        <ele>44.840000000000003</ele>
        <time>2026-07-03T11:34:49Z</time>
      </trkpt>
      <trkpt lat="53.969898037612438" lon="-10.192437004297972">
        <ele>44.359999999999999</ele>
        <time>2026-07-03T11:34:50Z</time>
      </trkpt>
      <trkpt lat="53.969884961843491" lon="-10.192342959344387">
        <ele>43.880000000000003</ele>
        <time>2026-07-03T11:34:51Z</time>
      </trkpt>
      <trkpt lat="53.969833999872208" lon="-10.192230977118015">
        <ele>43.399999999999999</ele>
        <time>2026-07-03T11:34:52Z</time>
      </trkpt>
      <trkpt lat="53.969778008759022" lon="-10.192135004326701">
        <ele>42.439999999999998</ele>
        <time>2026-07-03T11:34:53Z</time>
      </trkpt>
      <trkpt lat="53.969697961583734" lon="-10.192055040970445">
        <ele>40.990000000000002</ele>
        <time>2026-07-03T11:34:54Z</time>
      </trkpt>
      <trkpt lat="53.96962596103549" lon="-10.192037019878626">
        <ele>39.549999999999997</ele>
        <time>2026-07-03T11:34:55Z</time>
      </trkpt>
      <trkpt lat="53.969529988244176" lon="-10.192053029313684">
        <ele>37.630000000000003</ele>
        <time>2026-07-03T11:34:56Z</time>
      </trkpt>
      <trkpt lat="53.969414988532662" lon="-10.192072978243232">
        <ele>36.189999999999998</ele>
        <time>2026-07-03T11:34:57Z</time>
      </trkpt>
      <trkpt lat="53.969341982156038" lon="-10.192156964913011">
        <ele>34.740000000000002</ele>
        <time>2026-07-03T11:34:58Z</time>
      </trkpt>
      <trkpt lat="53.969248021021485" lon="-10.192264001816511">
        <ele>33.299999999999997</ele>
        <time>2026-07-03T11:34:59Z</time>
      </trkpt>
      <trkpt lat="53.969154981896281" lon="-10.192371038720012">
        <ele>31.859999999999999</ele>
        <time>2026-07-03T11:35:00Z</time>
      </trkpt>
      <trkpt lat="53.969065966084599" lon="-10.192473968490958">
        <ele>30.420000000000002</ele>
        <time>2026-07-03T11:35:01Z</time>
      </trkpt>
      <trkpt lat="53.968974016606808" lon="-10.192597014829516">
        <ele>29.460000000000001</ele>
        <time>2026-07-03T11:35:02Z</time>
      </trkpt>
      <trkpt lat="53.968909978866577" lon="-10.192765993997455">
        <ele>28.02</ele>
        <time>2026-07-03T11:35:03Z</time>
      </trkpt>
      <trkpt lat="53.968843007460237" lon="-10.192942013964057">
        <ele>26.57</ele>
        <time>2026-07-03T11:35:04Z</time>
      </trkpt>
      <trkpt lat="53.968777963891625" lon="-10.193114010617137">
        <ele>25.129999999999999</ele>
        <time>2026-07-03T11:35:05Z</time>
      </trkpt>
      <trkpt lat="53.968161977827549" lon="-10.194340031594038">
        <ele>16</ele>
        <time>2026-07-03T11:35:14Z</time>
      </trkpt>
      <trkpt lat="53.96790599450469" lon="-10.194641025736928">
        <ele>16</ele>
        <time>2026-07-03T11:35:18Z</time>
      </trkpt>
      <trkpt lat="53.967850003391504" lon="-10.194705985486507">
        <ele>16</ele>
        <time>2026-07-03T11:35:19Z</time>
      </trkpt>
      <trkpt lat="53.967803986743093" lon="-10.194791983813047">
        <ele>16</ele>
        <time>2026-07-03T11:35:20Z</time>
      </trkpt>
      <trkpt lat="53.967770962044597" lon="-10.194876976311207">
        <ele>16.48</ele>
        <time>2026-07-03T11:35:21Z</time>
      </trkpt>
      <trkpt lat="53.967741038650274" lon="-10.194953000172973">
        <ele>16.48</ele>
        <time>2026-07-03T11:35:22Z</time>
      </trkpt>
      <trkpt lat="53.96771295927465" lon="-10.195022989064455">
        <ele>16.48</ele>
        <time>2026-07-03T11:35:23Z</time>
      </trkpt>
      <trkpt lat="53.967684963718057" lon="-10.195094989612699">
        <ele>16.48</ele>
        <time>2026-07-03T11:35:24Z</time>
      </trkpt>
      <trkpt lat="53.967664008960128" lon="-10.195148969069123">
        <ele>16.960000000000001</ele>
        <time>2026-07-03T11:35:25Z</time>
      </trkpt>
      <trkpt lat="53.967591002583504" lon="-10.195334041491151">
        <ele>17.920000000000002</ele>
        <time>2026-07-03T11:35:32Z</time>
      </trkpt>
      <trkpt lat="53.967591002583504" lon="-10.195334041491151">
        <ele>18.879999999999999</ele>
        <time>2026-07-03T11:35:45Z</time>
      </trkpt>
      <trkpt lat="53.967591002583504" lon="-10.195334041491151">
        <ele>18.879999999999999</ele>
        <time>2026-07-03T11:36:04Z</time>
      </trkpt>
      <trkpt lat="53.967591002583504" lon="-10.195334041491151">
        <ele>18.879999999999999</ele>
        <time>2026-07-03T11:36:11Z</time>
      </trkpt>
      <trkpt lat="53.967615980654955" lon="-10.195475025102496">
        <ele>17.920000000000002</ele>
        <time>2026-07-03T11:36:25Z</time>
      </trkpt>
      <trkpt lat="53.967615980654955" lon="-10.195479970425367">
        <ele>17.440000000000001</ele>
        <time>2026-07-03T11:37:18Z</time>
      </trkpt>
      <trkpt lat="53.967617992311716" lon="-10.195481982082129">
        <ele>17.440000000000001</ele>
        <time>2026-07-03T11:38:13Z</time>
      </trkpt>
      <trkpt lat="53.967620003968477" lon="-10.195486005395651">
        <ele>17.440000000000001</ele>
        <time>2026-07-03T11:38:25Z</time>
      </trkpt>
      <trkpt lat="53.967588990926743" lon="-10.19552699290216">
        <ele>13.119999999999999</ele>
        <time>2026-07-03T11:45:18Z</time>
      </trkpt>
      <trkpt lat="53.967542974278331" lon="-10.195477036759257">
        <ele>18.399999999999999</ele>
        <time>2026-07-03T11:45:43Z</time>
      </trkpt>
      <trkpt lat="53.967568036168814" lon="-10.195438982918859">
        <ele>20.809999999999999</ele>
        <time>2026-07-03T11:45:53Z</time>
      </trkpt>
      <trkpt lat="53.967591002583504" lon="-10.195334041491151">
        <ele>21.289999999999999</ele>
        <time>2026-07-03T11:45:55Z</time>
      </trkpt>
      <trkpt lat="53.96760399453342" lon="-10.195301016792655">
        <ele>20.809999999999999</ele>
        <time>2026-07-03T11:45:56Z</time>
      </trkpt>
      <trkpt lat="53.967783031985164" lon="-10.194845963269472">
        <ele>20.32</ele>
        <time>2026-07-03T11:46:03Z</time>
      </trkpt>
      <trkpt lat="53.967783031985164" lon="-10.194845963269472">
        <ele>20.809999999999999</ele>
        <time>2026-07-03T11:46:36Z</time>
      </trkpt>
      <trkpt lat="53.967827036976814" lon="-10.19473297521472">
        <ele>20.32</ele>
        <time>2026-07-03T11:46:39Z</time>
      </trkpt>
      <trkpt lat="53.967889985069633" lon="-10.194658963009715">
        <ele>20.32</ele>
        <time>2026-07-03T11:46:40Z</time>
      </trkpt>
      <trkpt lat="53.967952011153102" lon="-10.194586040452123">
        <ele>20.32</ele>
        <time>2026-07-03T11:46:41Z</time>
      </trkpt>
      <trkpt lat="53.968514017760754" lon="-10.19381096586585">
        <ele>18.399999999999999</ele>
        <time>2026-07-03T11:46:48Z</time>
      </trkpt>
      <trkpt lat="53.96859297528863" lon="-10.193600999191403">
        <ele>18.399999999999999</ele>
        <time>2026-07-03T11:46:49Z</time>
      </trkpt>
      <trkpt lat="53.968950966373086" lon="-10.192657029256225">
        <ele>23.690000000000001</ele>
        <time>2026-07-03T11:46:55Z</time>
      </trkpt>
      <trkpt lat="53.969024978578091" lon="-10.192520990967751">
        <ele>24.649999999999999</ele>
        <time>2026-07-03T11:46:56Z</time>
      </trkpt>
      <trkpt lat="53.96910997107625" lon="-10.192424012348056">
        <ele>26.09</ele>
        <time>2026-07-03T11:46:57Z</time>
      </trkpt>
      <trkpt lat="53.969374001026154" lon="-10.192118994891644">
        <ele>30.420000000000002</ele>
        <time>2026-07-03T11:47:00Z</time>
      </trkpt>
      <trkpt lat="53.969466034322977" lon="-10.192064009606838">
        <ele>31.859999999999999</ele>
        <time>2026-07-03T11:47:01Z</time>
      </trkpt>
      <trkpt lat="53.969558989629149" lon="-10.192049006000161">
        <ele>33.299999999999997</ele>
        <time>2026-07-03T11:47:02Z</time>
      </trkpt>
      <trkpt lat="53.969643982127309" lon="-10.192034002393484">
        <ele>35.229999999999997</ele>
        <time>2026-07-03T11:47:03Z</time>
      </trkpt>
      <trkpt lat="53.969728974625468" lon="-10.192085970193148">
        <ele>36.670000000000002</ele>
        <time>2026-07-03T11:47:04Z</time>
      </trkpt>
      <trkpt lat="53.969802986830473" lon="-10.192162999883294">
        <ele>38.109999999999999</ele>
        <time>2026-07-03T11:47:05Z</time>
      </trkpt>
      <trkpt lat="53.969854032620788" lon="-10.192274982109666">
        <ele>39.549999999999997</ele>
        <time>2026-07-03T11:47:06Z</time>
      </trkpt>
      <trkpt lat="53.96990398876369" lon="-10.192385036498308">
        <ele>40.509999999999998</ele>
        <time>2026-07-03T11:47:07Z</time>
      </trkpt>
      <trkpt lat="53.969876999035478" lon="-10.192529959604144">
        <ele>40.990000000000002</ele>
        <time>2026-07-03T11:47:08Z</time>
      </trkpt>
      <trkpt lat="53.969850009307265" lon="-10.192643031477928">
        <ele>41.950000000000003</ele>
        <time>2026-07-03T11:47:09Z</time>
      </trkpt>
      <trkpt lat="53.969823019579053" lon="-10.192759037017822">
        <ele>42.920000000000002</ele>
        <time>2026-07-03T11:47:10Z</time>
      </trkpt>
      <trkpt lat="53.969756970182061" lon="-10.192850986495614">
        <ele>43.399999999999999</ele>
        <time>2026-07-03T11:47:11Z</time>
      </trkpt>
      <trkpt lat="53.969684969633818" lon="-10.192952994257212">
        <ele>43.399999999999999</ele>
        <time>2026-07-03T11:47:12Z</time>
      </trkpt>
      <trkpt lat="53.969485983252525" lon="-10.193234039470553">
        <ele>43.880000000000003</ele>
        <time>2026-07-03T11:47:15Z</time>
      </trkpt>
      <trkpt lat="53.969447007402778" lon="-10.193335963413119">
        <ele>44.359999999999999</ele>
        <time>2026-07-03T11:47:16Z</time>
      </trkpt>
      <trkpt lat="53.969426974654198" lon="-10.193445011973381">
        <ele>44.359999999999999</ele>
        <time>2026-07-03T11:47:17Z</time>
      </trkpt>
      <trkpt lat="53.969423035159707" lon="-10.193540984764695">
        <ele>44.840000000000003</ele>
        <time>2026-07-03T11:47:18Z</time>
      </trkpt>
      <trkpt lat="53.969446001574397" lon="-10.193625977262855">
        <ele>44.840000000000003</ele>
        <time>2026-07-03T11:47:19Z</time>
      </trkpt>
      <trkpt lat="53.969469973817468" lon="-10.193718010559678">
        <ele>45.32</ele>
        <time>2026-07-03T11:47:20Z</time>
      </trkpt>
      <trkpt lat="53.969500986859202" lon="-10.193832004442811">
        <ele>45.32</ele>
        <time>2026-07-03T11:47:21Z</time>
      </trkpt>
      <trkpt lat="53.969500986859202" lon="-10.193832004442811">
        <ele>45.799999999999997</ele>
        <time>2026-07-03T11:47:22Z</time>
      </trkpt>
      <trkpt lat="53.969611963257194" lon="-10.193910961970687">
        <ele>45.799999999999997</ele>
        <time>2026-07-03T11:47:23Z</time>
      </trkpt>
      <trkpt lat="53.969683041796088" lon="-10.19393996335566">
        <ele>46.280000000000001</ele>
        <time>2026-07-03T11:47:24Z</time>
      </trkpt>
      <trkpt lat="53.969760993495584" lon="-10.193942980840802">
        <ele>46.759999999999998</ele>
        <time>2026-07-03T11:47:25Z</time>
      </trkpt>
      <trkpt lat="53.969931984320283" lon="-10.193950021639466">
        <ele>48.68</ele>
        <time>2026-07-03T11:47:27Z</time>
      </trkpt>
      <trkpt lat="53.970175981521606" lon="-10.19395999610424">
        <ele>51.57</ele>
        <time>2026-07-03T11:47:30Z</time>
      </trkpt>
      <trkpt lat="53.97024798206985" lon="-10.193925965577364">
        <ele>52.530000000000001</ele>
        <time>2026-07-03T11:47:31Z</time>
      </trkpt>
      <trkpt lat="53.970313025638461" lon="-10.193867962807417">
        <ele>53.490000000000002</ele>
        <time>2026-07-03T11:47:32Z</time>
      </trkpt>
      <trkpt lat="53.970382008701563" lon="-10.19380702637136">
        <ele>54.450000000000003</ele>
        <time>2026-07-03T11:47:33Z</time>
      </trkpt>
      <trkpt lat="53.970437999814749" lon="-10.193686997517943">
        <ele>55.409999999999997</ele>
        <time>2026-07-03T11:47:34Z</time>
      </trkpt>
      <trkpt lat="53.970487033948302" lon="-10.193548025563359">
        <ele>55.890000000000001</ele>
        <time>2026-07-03T11:47:35Z</time>
      </trkpt>
      <trkpt lat="53.970539001747966" lon="-10.193397989496589">
        <ele>56.369999999999997</ele>
        <time>2026-07-03T11:47:36Z</time>
      </trkpt>
      <trkpt lat="53.970688031986356" lon="-10.192915024235845">
        <ele>59.259999999999998</ele>
        <time>2026-07-03T11:47:39Z</time>
      </trkpt>
      <trkpt lat="53.970700018107891" lon="-10.192763982340693">
        <ele>60.219999999999999</ele>
        <time>2026-07-03T11:47:40Z</time>
      </trkpt>
      <trkpt lat="53.970681997016072" lon="-10.192636996507645">
        <ele>61.659999999999997</ele>
        <time>2026-07-03T11:47:41Z</time>
      </trkpt>
      <trkpt lat="53.970650983974338" lon="-10.192486038431525">
        <ele>62.619999999999997</ele>
        <time>2026-07-03T11:47:42Z</time>
      </trkpt>
      <trkpt lat="53.970617959275842" lon="-10.1923250220716">
        <ele>63.579999999999998</ele>
        <time>2026-07-03T11:47:43Z</time>
      </trkpt>
      <trkpt lat="53.970582000911236" lon="-10.192147996276617">
        <ele>64.549999999999997</ele>
        <time>2026-07-03T11:47:44Z</time>
      </trkpt>
      <trkpt lat="53.970507988706231" lon="-10.191786987707019">
        <ele>66.950000000000003</ele>
        <time>2026-07-03T11:47:46Z</time>
      </trkpt>
      <trkpt lat="53.970486028119922" lon="-10.191619014367461">
        <ele>67.909999999999997</ele>
        <time>2026-07-03T11:47:47Z</time>
      </trkpt>
      <trkpt lat="53.97048301063478" lon="-10.191440982744098">
        <ele>68.870000000000005</ele>
        <time>2026-07-03T11:47:48Z</time>
      </trkpt>
      <trkpt lat="53.970468007028103" lon="-10.190704967826605">
        <ele>71.760000000000005</ele>
        <time>2026-07-03T11:47:52Z</time>
      </trkpt>
      <trkpt lat="53.97048301063478" lon="-10.19054202362895">
        <ele>72.719999999999999</ele>
        <time>2026-07-03T11:47:53Z</time>
      </trkpt>
      <trkpt lat="53.970517963171005" lon="-10.190388970077038">
        <ele>73.680000000000007</ele>
        <time>2026-07-03T11:47:54Z</time>
      </trkpt>
      <trkpt lat="53.970576971769333" lon="-10.190245974808931">
        <ele>74.640000000000001</ele>
        <time>2026-07-03T11:47:55Z</time>
      </trkpt>
      <trkpt lat="53.970646038651466" lon="-10.190115971490741">
        <ele>75.599999999999994</ele>
        <time>2026-07-03T11:47:56Z</time>
      </trkpt>
      <trkpt lat="53.970718961209059" lon="-10.189976999536157">
        <ele>77.040000000000006</ele>
        <time>2026-07-03T11:47:57Z</time>
      </trkpt>
      <trkpt lat="53.970793979242444" lon="-10.189835010096431">
        <ele>78.480000000000004</ele>
        <time>2026-07-03T11:47:58Z</time>
      </trkpt>
      <trkpt lat="53.97097603417933" lon="-10.189427984878421">
        <ele>83.769999999999996</ele>
        <time>2026-07-03T11:48:01Z</time>
      </trkpt>
      <trkpt lat="53.971015010029078" lon="-10.189287001267076">
        <ele>85.209999999999994</ele>
        <time>2026-07-03T11:48:02Z</time>
      </trkpt>
      <trkpt lat="53.971046023070812" lon="-10.189176024869084">
        <ele>86.659999999999997</ele>
        <time>2026-07-03T11:48:03Z</time>
      </trkpt>
      <trkpt lat="53.971039988100529" lon="-10.188992964103818">
        <ele>88.099999999999994</ele>
        <time>2026-07-03T11:48:04Z</time>
      </trkpt>
      <trkpt lat="53.971034036949277" lon="-10.188825996592641">
        <ele>89.060000000000002</ele>
        <time>2026-07-03T11:48:05Z</time>
      </trkpt>
      <trkpt lat="53.971029007807374" lon="-10.188650982454419">
        <ele>90.5</ele>
        <time>2026-07-03T11:48:06Z</time>
      </trkpt>
      <trkpt lat="53.970981985330582" lon="-10.187181970104575">
        <ele>95.790000000000006</ele>
        <time>2026-07-03T11:48:13Z</time>
      </trkpt>
      <trkpt lat="53.970950972288847" lon="-10.186992036178708">
        <ele>96.269999999999996</ele>
        <time>2026-07-03T11:48:14Z</time>
      </trkpt>
      <trkpt lat="53.970600022003055" lon="-10.185007033869624">
        <ele>106.84</ele>
        <time>2026-07-03T11:48:23Z</time>
      </trkpt>
      <trkpt lat="53.97039701230824" lon="-10.182822961360216">
        <ele>124.63</ele>
        <time>2026-07-03T11:48:34Z</time>
      </trkpt>
      <trkpt lat="53.970283018425107" lon="-10.181237021461129">
        <ele>137.13</ele>
        <time>2026-07-03T11:48:43Z</time>
      </trkpt>
      <trkpt lat="53.970289975404739" lon="-10.181065024808049">
        <ele>138.56999999999999</ele>
        <time>2026-07-03T11:48:44Z</time>
      </trkpt>
      <trkpt lat="53.970305984839797" lon="-10.18089797347784">
        <ele>140.00999999999999</ele>
        <time>2026-07-03T11:48:45Z</time>
      </trkpt>
      <trkpt lat="53.970335992053151" lon="-10.180736035108566">
        <ele>141.93000000000001</ele>
        <time>2026-07-03T11:48:46Z</time>
      </trkpt>
      <trkpt lat="53.970365999266505" lon="-10.180577030405402">
        <ele>143.37</ele>
        <time>2026-07-03T11:48:47Z</time>
      </trkpt>
      <trkpt lat="53.970422996208072" lon="-10.18027301877737">
        <ele>147.22</ele>
        <time>2026-07-03T11:48:49Z</time>
      </trkpt>
      <trkpt lat="53.970434982329607" lon="-10.180129017680883">
        <ele>148.66</ele>
        <time>2026-07-03T11:48:50Z</time>
      </trkpt>
      <trkpt lat="53.970439005643129" lon="-10.179983004927635">
        <ele>149.62</ele>
        <time>2026-07-03T11:48:51Z</time>
      </trkpt>
      <trkpt lat="53.970414027571678" lon="-10.179837998002768">
        <ele>150.58000000000001</ele>
        <time>2026-07-03T11:48:52Z</time>
      </trkpt>
      <trkpt lat="53.970387959852815" lon="-10.179691985249519">
        <ele>151.06</ele>
        <time>2026-07-03T11:48:53Z</time>
      </trkpt>
      <trkpt lat="53.970361975952983" lon="-10.179545972496271">
        <ele>151.53999999999999</ele>
        <time>2026-07-03T11:48:54Z</time>
      </trkpt>
      <trkpt lat="53.97033398039639" lon="-10.179382022470236">
        <ele>152.03</ele>
        <time>2026-07-03T11:48:55Z</time>
      </trkpt>
      <trkpt lat="53.970301961526275" lon="-10.179201979190111">
        <ele>152.50999999999999</ele>
        <time>2026-07-03T11:48:56Z</time>
      </trkpt>
      <trkpt lat="53.970123007893562" lon="-10.178282987326384">
        <ele>153.47</ele>
        <time>2026-07-03T11:49:01Z</time>
      </trkpt>
      <trkpt lat="53.969945982098579" lon="-10.177532974630594">
        <ele>152.99000000000001</ele>
        <time>2026-07-03T11:49:05Z</time>
      </trkpt>
      <trkpt lat="53.969904994592071" lon="-10.177342034876347">
        <ele>153.47</ele>
        <time>2026-07-03T11:49:06Z</time>
      </trkpt>
      <trkpt lat="53.969882028177381" lon="-10.177141958847642">
        <ele>153.47</ele>
        <time>2026-07-03T11:49:07Z</time>
      </trkpt>
      <trkpt lat="53.969737021252513" lon="-10.175793981179595">
        <ele>156.83000000000001</ele>
        <time>2026-07-03T11:49:15Z</time>
      </trkpt>
      <trkpt lat="53.969737021252513" lon="-10.175647968426347">
        <ele>157.31</ele>
        <time>2026-07-03T11:49:16Z</time>
      </trkpt>
      <trkpt lat="53.969737021252513" lon="-10.175508996471763">
        <ele>157.31</ele>
        <time>2026-07-03T11:49:17Z</time>
      </trkpt>
      <trkpt lat="53.969737021252513" lon="-10.175384022295475">
        <ele>157.31</ele>
        <time>2026-07-03T11:49:18Z</time>
      </trkpt>
      <trkpt lat="53.969737021252513" lon="-10.175257958471775">
        <ele>157.31</ele>
        <time>2026-07-03T11:49:19Z</time>
      </trkpt>
      <trkpt lat="53.969737021252513" lon="-10.175133990123868">
        <ele>157.31</ele>
        <time>2026-07-03T11:49:20Z</time>
      </trkpt>
      <trkpt lat="53.969707014039159" lon="-10.1750080101192">
        <ele>157.31</ele>
        <time>2026-07-03T11:49:21Z</time>
      </trkpt>
      <trkpt lat="53.969657979905605" lon="-10.174894016236067">
        <ele>157.31</ele>
        <time>2026-07-03T11:49:22Z</time>
      </trkpt>
      <trkpt lat="53.969608023762703" lon="-10.174778010696173">
        <ele>157.31</ele>
        <time>2026-07-03T11:49:23Z</time>
      </trkpt>
      <trkpt lat="53.969561001285911" lon="-10.174668040126562">
        <ele>157.31</ele>
        <time>2026-07-03T11:49:24Z</time>
      </trkpt>
      <trkpt lat="53.969530994072556" lon="-10.174551028758287">
        <ele>157.31</ele>
        <time>2026-07-03T11:49:25Z</time>
      </trkpt>
      <trkpt lat="53.969510039314628" lon="-10.174423959106207">
        <ele>157.31</ele>
        <time>2026-07-03T11:49:26Z</time>
      </trkpt>
      <trkpt lat="53.969506016001105" lon="-10.174292027950287">
        <ele>157.31</ele>
        <time>2026-07-03T11:49:27Z</time>
      </trkpt>
      <trkpt lat="53.96951699629426" lon="-10.174140986055136">
        <ele>156.83000000000001</ele>
        <time>2026-07-03T11:49:28Z</time>
      </trkpt>
      <trkpt lat="53.969528982415795" lon="-10.173975024372339">
        <ele>156.83000000000001</ele>
        <time>2026-07-03T11:49:29Z</time>
      </trkpt>
      <trkpt lat="53.969755964353681" lon="-10.17270902171731">
        <ele>155.38999999999999</ele>
        <time>2026-07-03T11:49:36Z</time>
      </trkpt>
      <trkpt lat="53.969814972952008" lon="-10.172414984554052">
        <ele>156.34999999999999</ele>
        <time>2026-07-03T11:49:38Z</time>
      </trkpt>
      <trkpt lat="53.969843974336982" lon="-10.172265032306314">
        <ele>156.34999999999999</ele>
        <time>2026-07-03T11:49:39Z</time>
      </trkpt>
      <trkpt lat="53.969855038449168" lon="-10.172082977369428">
        <ele>156.34999999999999</ele>
        <time>2026-07-03T11:49:40Z</time>
      </trkpt>
      <trkpt lat="53.969833999872208" lon="-10.171925984323025">
        <ele>156.34999999999999</ele>
        <time>2026-07-03T11:49:41Z</time>
      </trkpt>
      <trkpt lat="53.969812039285898" lon="-10.171766979619861">
        <ele>156.34999999999999</ele>
        <time>2026-07-03T11:49:42Z</time>
      </trkpt>
      <trkpt lat="53.96977499127388" lon="-10.171613004058599">
        <ele>155.87</ele>
        <time>2026-07-03T11:49:43Z</time>
      </trkpt>
      <trkpt lat="53.969724029302597" lon="-10.171467997133732">
        <ele>155.87</ele>
        <time>2026-07-03T11:49:44Z</time>
      </trkpt>
      <trkpt lat="53.969673989340663" lon="-10.171323996037245">
        <ele>155.87</ele>
        <time>2026-07-03T11:49:45Z</time>
      </trkpt>
      <trkpt lat="53.969604000449181" lon="-10.171014033257961">
        <ele>155.38999999999999</ele>
        <time>2026-07-03T11:49:47Z</time>
      </trkpt>
      <trkpt lat="53.969576004892588" lon="-10.170871037989855">
        <ele>155.38999999999999</ele>
        <time>2026-07-03T11:49:48Z</time>
      </trkpt>
      <trkpt lat="53.969551026821136" lon="-10.170739023014903">
        <ele>155.38999999999999</ele>
        <time>2026-07-03T11:49:49Z</time>
      </trkpt>
      <trkpt lat="53.969541974365711" lon="-10.170612959191203">
        <ele>154.91</ele>
        <time>2026-07-03T11:49:50Z</time>
      </trkpt>
      <trkpt lat="53.969538034871221" lon="-10.17047599889338">
        <ele>154.91</ele>
        <time>2026-07-03T11:49:51Z</time>
      </trkpt>
      <trkpt lat="53.9696029946208" lon="-10.168876983225346">
        <ele>154.43000000000001</ele>
        <time>2026-07-03T11:50:00Z</time>
      </trkpt>
      <trkpt lat="53.969809021800756" lon="-10.167000023648143">
        <ele>146.74000000000001</ele>
        <time>2026-07-03T11:50:10Z</time>
      </trkpt>
      <trkpt lat="53.970065005123615" lon="-10.165008986368775">
        <ele>134.24000000000001</ele>
        <time>2026-07-03T11:50:20Z</time>
      </trkpt>
      <trkpt lat="53.970115967094898" lon="-10.164491990581155">
        <ele>130.88</ele>
        <time>2026-07-03T11:50:23Z</time>
      </trkpt>
      <trkpt lat="53.970100041478872" lon="-10.164338015019894">
        <ele>129.43000000000001</ele>
        <time>2026-07-03T11:50:24Z</time>
      </trkpt>
      <trkpt lat="53.970082020387053" lon="-10.164170963689685">
        <ele>127.98999999999999</ele>
        <time>2026-07-03T11:50:25Z</time>
      </trkpt>
      <trkpt lat="53.970063999295235" lon="-10.163991004228592">
        <ele>126.55</ele>
        <time>2026-07-03T11:50:26Z</time>
      </trkpt>
      <trkpt lat="53.970028962939978" lon="-10.163805009797215">
        <ele>125.11</ele>
        <time>2026-07-03T11:50:27Z</time>
      </trkpt>
      <trkpt lat="53.969649011269212" lon="-10.161934001371264">
        <ele>108.29000000000001</ele>
        <time>2026-07-03T11:50:38Z</time>
      </trkpt>
      <trkpt lat="53.969442984089255" lon="-10.160122001543641">
        <ele>97.230000000000004</ele>
        <time>2026-07-03T11:50:48Z</time>
      </trkpt>
      <trkpt lat="53.96930200047791" lon="-10.158362975344062">
        <ele>88.099999999999994</ele>
        <time>2026-07-03T11:50:58Z</time>
      </trkpt>
      <trkpt lat="53.969220025464892" lon="-10.156047977507114">
        <ele>72.239999999999995</ele>
        <time>2026-07-03T11:51:10Z</time>
      </trkpt>
      <trkpt lat="53.969441978260875" lon="-10.153286978602409">
        <ele>53.969999999999999</ele>
        <time>2026-07-03T11:51:23Z</time>
      </trkpt>
      <trkpt lat="53.969982024282217" lon="-10.15062103047967">
        <ele>40.030000000000001</ele>
        <time>2026-07-03T11:51:35Z</time>
      </trkpt>
      <trkpt lat="53.970927000045776" lon="-10.146516999229789">
        <ele>32.340000000000003</ele>
        <time>2026-07-03T11:51:52Z</time>
      </trkpt>
      <trkpt lat="53.971653962507844" lon="-10.14308201149106">
        <ele>31.859999999999999</ele>
        <time>2026-07-03T11:52:07Z</time>
      </trkpt>
      <trkpt lat="53.971853032708168" lon="-10.140876984223723">
        <ele>27.530000000000001</ele>
        <time>2026-07-03T11:52:16Z</time>
      </trkpt>
      <trkpt lat="53.971914974972606" lon="-10.13996796682477">
        <ele>25.129999999999999</ele>
        <time>2026-07-03T11:52:20Z</time>
      </trkpt>
      <trkpt lat="53.97194498218596" lon="-10.13975003734231">
        <ele>24.170000000000002</ele>
        <time>2026-07-03T11:52:21Z</time>
      </trkpt>
      <trkpt lat="53.972593992948532" lon="-10.137585997581482">
        <ele>17.440000000000001</ele>
        <time>2026-07-03T11:52:32Z</time>
      </trkpt>
      <trkpt lat="53.973155999556184" lon="-10.135845998302102">
        <ele>15.52</ele>
        <time>2026-07-03T11:52:42Z</time>
      </trkpt>
      <trkpt lat="53.973811967298388" lon="-10.133615992963314">
        <ele>15.52</ele>
        <time>2026-07-03T11:52:53Z</time>
      </trkpt>
      <trkpt lat="53.974710004404187" lon="-10.130392983555794">
        <ele>10.710000000000001</ele>
        <time>2026-07-03T11:53:10Z</time>
      </trkpt>
      <trkpt lat="53.975066989660263" lon="-10.128297004848719">
        <ele>9.75</ele>
        <time>2026-07-03T11:53:21Z</time>
      </trkpt>
      <trkpt lat="53.975079981610179" lon="-10.12814998626709">
        <ele>8.789999999999999</ele>
        <time>2026-07-03T11:53:22Z</time>
      </trkpt>
      <trkpt lat="53.975017033517361" lon="-10.126730008050799">
        <ele>6.39</ele>
        <time>2026-07-03T11:53:33Z</time>
      </trkpt>
      <trkpt lat="53.975010998547077" lon="-10.126593969762325">
        <ele>6.39</ele>
        <time>2026-07-03T11:53:34Z</time>
      </trkpt>
      <trkpt lat="53.974877977743745" lon="-10.125596020370722">
        <ele>7.83</ele>
        <time>2026-07-03T11:53:39Z</time>
      </trkpt>
      <trkpt lat="53.974443962797523" lon="-10.123011041432619">
        <ele>11.67</ele>
        <time>2026-07-03T11:53:52Z</time>
      </trkpt>
      <trkpt lat="53.973972983658314" lon="-10.120348026975989">
        <ele>18.879999999999999</ele>
        <time>2026-07-03T11:54:04Z</time>
      </trkpt>
      <trkpt lat="53.973374012857676" lon="-10.116900969296694">
        <ele>36.670000000000002</ele>
        <time>2026-07-03T11:54:19Z</time>
      </trkpt>
      <trkpt lat="53.972903033718467" lon="-10.114219011738896">
        <ele>47.240000000000002</ele>
        <time>2026-07-03T11:54:30Z</time>
      </trkpt>
      <trkpt lat="53.9728909637779" lon="-10.113971997052431">
        <ele>47.719999999999999</ele>
        <time>2026-07-03T11:54:31Z</time>
      </trkpt>
      <trkpt lat="53.972909990698099" lon="-10.113724982365966">
        <ele>48.200000000000003</ele>
        <time>2026-07-03T11:54:32Z</time>
      </trkpt>
      <trkpt lat="53.972936980426311" lon="-10.113476039841771">
        <ele>48.68</ele>
        <time>2026-07-03T11:54:33Z</time>
      </trkpt>
      <trkpt lat="53.972965981811285" lon="-10.113228019326925">
        <ele>48.68</ele>
        <time>2026-07-03T11:54:34Z</time>
      </trkpt>
      <trkpt lat="53.97316999733448" lon="-10.11162699200213">
        <ele>46.280000000000001</ele>
        <time>2026-07-03T11:54:40Z</time>
      </trkpt>
      <trkpt lat="53.973161028698087" lon="-10.111357010900974">
        <ele>45.799999999999997</ele>
        <time>2026-07-03T11:54:41Z</time>
      </trkpt>
      <trkpt lat="53.972837990149856" lon="-10.109274024143815">
        <ele>40.990000000000002</ele>
        <time>2026-07-03T11:54:50Z</time>
      </trkpt>
      <trkpt lat="53.972468012943864" lon="-10.107763018459082">
        <ele>37.149999999999999</ele>
        <time>2026-07-03T11:54:59Z</time>
      </trkpt>
      <trkpt lat="53.971928972750902" lon="-10.105750020593405">
        <ele>31.379999999999999</ele>
        <time>2026-07-03T11:55:11Z</time>
      </trkpt>
      <trkpt lat="53.971210978925228" lon="-10.10311902500689">
        <ele>30.420000000000002</ele>
        <time>2026-07-03T11:55:23Z</time>
      </trkpt>
      <trkpt lat="53.971050968393683" lon="-10.101165035739541">
        <ele>29.940000000000001</ele>
        <time>2026-07-03T11:55:31Z</time>
      </trkpt>
      <trkpt lat="53.971314998343587" lon="-10.09690803475678">
        <ele>29.460000000000001</ele>
        <time>2026-07-03T11:55:47Z</time>
      </trkpt>
      <trkpt lat="53.971743984147906" lon="-10.094495974481106">
        <ele>28.98</ele>
        <time>2026-07-03T11:55:57Z</time>
      </trkpt>
      <trkpt lat="53.972429959103465" lon="-10.091621987521648">
        <ele>21.77</ele>
        <time>2026-07-03T11:56:09Z</time>
      </trkpt>
      <trkpt lat="53.973119035363197" lon="-10.089316964149475">
        <ele>13.6</ele>
        <time>2026-07-03T11:56:19Z</time>
      </trkpt>
      <trkpt lat="53.973446013405919" lon="-10.088162021711469">
        <ele>9.75</ele>
        <time>2026-07-03T11:56:24Z</time>
      </trkpt>
      <trkpt lat="53.97353402338922" lon="-10.08797200396657">
        <ele>9.27</ele>
        <time>2026-07-03T11:56:25Z</time>
      </trkpt>
      <trkpt lat="53.974227961152792" lon="-10.086435014382005">
        <ele>9.27</ele>
        <time>2026-07-03T11:56:34Z</time>
      </trkpt>
      <trkpt lat="53.974376991391182" lon="-10.085917012766004">
        <ele>10.23</ele>
        <time>2026-07-03T11:56:37Z</time>
      </trkpt>
      <trkpt lat="53.974399035796523" lon="-10.085724983364344">
        <ele>10.710000000000001</ele>
        <time>2026-07-03T11:56:38Z</time>
      </trkpt>
      <trkpt lat="53.974515963345766" lon="-10.084722004830837">
        <ele>11.19</ele>
        <time>2026-07-03T11:56:43Z</time>
      </trkpt>
      <trkpt lat="53.974538007751107" lon="-10.084525030106306">
        <ele>10.23</ele>
        <time>2026-07-03T11:56:44Z</time>
      </trkpt>
      <trkpt lat="53.974510012194514" lon="-10.08434297516942">
        <ele>9.75</ele>
        <time>2026-07-03T11:56:45Z</time>
      </trkpt>
      <trkpt lat="53.974467013031244" lon="-10.084159998223186">
        <ele>8.789999999999999</ele>
        <time>2026-07-03T11:56:46Z</time>
      </trkpt>
      <trkpt lat="53.974426025524735" lon="-10.083983978256583">
        <ele>8.310000000000001</ele>
        <time>2026-07-03T11:56:47Z</time>
      </trkpt>
      <trkpt lat="53.974387971684337" lon="-10.083819022402167">
        <ele>7.83</ele>
        <time>2026-07-03T11:56:48Z</time>
      </trkpt>
      <trkpt lat="53.97435000166297" lon="-10.083657000213861">
        <ele>6.87</ele>
        <time>2026-07-03T11:56:49Z</time>
      </trkpt>
      <trkpt lat="53.974313037469983" lon="-10.083497995510697">
        <ele>6.39</ele>
        <time>2026-07-03T11:56:50Z</time>
      </trkpt>
      <trkpt lat="53.974317982792854" lon="-10.083341002464294">
        <ele>5.42</ele>
        <time>2026-07-03T11:56:51Z</time>
      </trkpt>
      <trkpt lat="53.974328963086009" lon="-10.083195995539427">
        <ele>5.42</ele>
        <time>2026-07-03T11:56:52Z</time>
      </trkpt>
      <trkpt lat="53.974388977512717" lon="-10.083087030798197">
        <ele>4.94</ele>
        <time>2026-07-03T11:56:53Z</time>
      </trkpt>
      <trkpt lat="53.974453015252948" lon="-10.082969013601542">
        <ele>4.94</ele>
        <time>2026-07-03T11:56:54Z</time>
      </trkpt>
      <trkpt lat="53.974519986659288" lon="-10.082846973091364">
        <ele>4.46</ele>
        <time>2026-07-03T11:56:55Z</time>
      </trkpt>
      <trkpt lat="53.975256001576781" lon="-10.081781968474388">
        <ele>3.98</ele>
        <time>2026-07-03T11:57:04Z</time>
      </trkpt>
      <trkpt lat="53.976230984553695" lon="-10.080398032441735">
        <ele>6.87</ele>
        <time>2026-07-03T11:57:16Z</time>
      </trkpt>
      <trkpt lat="53.977284003049135" lon="-10.078985011205077">
        <ele>9.27</ele>
        <time>2026-07-03T11:57:28Z</time>
      </trkpt>
      <trkpt lat="53.977611986920238" lon="-10.078456029295921">
        <ele>10.23</ele>
        <time>2026-07-03T11:57:32Z</time>
      </trkpt>
      <trkpt lat="53.977716006338596" lon="-10.078362990170717">
        <ele>10.23</ele>
        <time>2026-07-03T11:57:33Z</time>
      </trkpt>
      <trkpt lat="53.977818014100194" lon="-10.078316973522305">
        <ele>10.23</ele>
        <time>2026-07-03T11:57:34Z</time>
      </trkpt>
      <trkpt lat="53.977936031296849" lon="-10.078320996835828">
        <ele>10.23</ele>
        <time>2026-07-03T11:57:35Z</time>
      </trkpt>
      <trkpt lat="53.97804600186646" lon="-10.078341029584408">
        <ele>10.23</ele>
        <time>2026-07-03T11:57:36Z</time>
      </trkpt>
      <trkpt lat="53.97815496660769" lon="-10.078361984342337">
        <ele>10.23</ele>
        <time>2026-07-03T11:57:37Z</time>
      </trkpt>
      <trkpt lat="53.978642039000988" lon="-10.07845401763916">
        <ele>10.23</ele>
        <time>2026-07-03T11:57:42Z</time>
      </trkpt>
      <trkpt lat="53.978715967386961" lon="-10.078423004597425">
        <ele>10.710000000000001</ele>
        <time>2026-07-03T11:57:43Z</time>
      </trkpt>
      <trkpt lat="53.978813029825687" lon="-10.078383022919297">
        <ele>11.19</ele>
        <time>2026-07-03T11:57:44Z</time>
      </trkpt>
      <trkpt lat="53.978916965425014" lon="-10.078340023756027">
        <ele>11.19</ele>
        <time>2026-07-03T11:57:45Z</time>
      </trkpt>
      <trkpt lat="53.979026013985276" lon="-10.078295012935996">
        <ele>11.19</ele>
        <time>2026-07-03T11:57:46Z</time>
      </trkpt>
      <trkpt lat="53.97995799779892" lon="-10.078059984371066">
        <ele>10.23</ele>
        <time>2026-07-03T11:57:54Z</time>
      </trkpt>
      <trkpt lat="53.981142025440931" lon="-10.078025031834841">
        <ele>14.08</ele>
        <time>2026-07-03T11:58:05Z</time>
      </trkpt>
      <trkpt lat="53.982461001724005" lon="-10.078025031834841">
        <ele>20.32</ele>
        <time>2026-07-03T11:58:17Z</time>
      </trkpt>
      <trkpt lat="53.983456017449498" lon="-10.077964011579752">
        <ele>23.690000000000001</ele>
        <time>2026-07-03T11:58:27Z</time>
      </trkpt>
      <trkpt lat="53.984163030982018" lon="-10.077793020755053">
        <ele>26.57</ele>
        <time>2026-07-03T11:58:34Z</time>
      </trkpt>
      <trkpt lat="53.985571023076773" lon="-10.077350037172437">
        <ele>27.050000000000001</ele>
        <time>2026-07-03T11:58:45Z</time>
      </trkpt>
      <trkpt lat="53.987170960754156" lon="-10.076838992536068">
        <ele>23.210000000000001</ele>
        <time>2026-07-03T11:58:56Z</time>
      </trkpt>
      <trkpt lat="53.988089030608535" lon="-10.076545039191842">
        <ele>18.399999999999999</ele>
        <time>2026-07-03T11:59:04Z</time>
      </trkpt>
      <trkpt lat="53.989802962169051" lon="-10.075997030362487">
        <ele>13.119999999999999</ele>
        <time>2026-07-03T11:59:15Z</time>
      </trkpt>
      <trkpt lat="53.991406001150608" lon="-10.075529990717769">
        <ele>9.27</ele>
        <time>2026-07-03T11:59:26Z</time>
      </trkpt>
      <trkpt lat="53.992271013557911" lon="-10.075255986303091">
        <ele>10.23</ele>
        <time>2026-07-03T11:59:35Z</time>
      </trkpt>
      <trkpt lat="53.992903009057045" lon="-10.075030010193586">
        <ele>11.67</ele>
        <time>2026-07-03T11:59:44Z</time>
      </trkpt>
      <trkpt lat="53.994157025590539" lon="-10.074727004393935">
        <ele>14.08</ele>
        <time>2026-07-03T11:59:55Z</time>
      </trkpt>
      <trkpt lat="53.995374999940395" lon="-10.074470015242696">
        <ele>19.84</ele>
        <time>2026-07-03T12:00:06Z</time>
      </trkpt>
      <trkpt lat="53.9956009760499" lon="-10.074421986937523">
        <ele>22.73</ele>
        <time>2026-07-03T12:00:13Z</time>
      </trkpt>
      <trkpt lat="53.9956009760499" lon="-10.074421986937523">
        <ele>23.210000000000001</ele>
        <time>2026-07-03T12:00:24Z</time>
      </trkpt>
      <trkpt lat="53.995632994920015" lon="-10.074415029957891">
        <ele>23.210000000000001</ele>
        <time>2026-07-03T12:00:26Z</time>
      </trkpt>
      <trkpt lat="53.995656967163086" lon="-10.074410000815988">
        <ele>23.210000000000001</ele>
        <time>2026-07-03T12:00:27Z</time>
      </trkpt>
      <trkpt lat="53.995959972962737" lon="-10.075327986851335">
        <ele>25.129999999999999</ele>
        <time>2026-07-03T12:00:35Z</time>
      </trkpt>
      <trkpt lat="53.996103974059224" lon="-10.075743980705738">
        <ele>28.02</ele>
        <time>2026-07-03T12:00:43Z</time>
      </trkpt>
      <trkpt lat="53.99611696600914" lon="-10.075754960998893">
        <ele>28.5</ele>
        <time>2026-07-03T12:00:45Z</time>
      </trkpt>
      <trkpt lat="53.996174968779087" lon="-10.07574699819088">
        <ele>29.460000000000001</ele>
        <time>2026-07-03T12:00:58Z</time>
      </trkpt>
      <trkpt lat="53.996177986264229" lon="-10.075745992362499">
        <ele>29.460000000000001</ele>
        <time>2026-07-03T12:01:25Z</time>
      </trkpt>
      <trkpt lat="53.99617999792099" lon="-10.07574800401926">
        <ele>29.940000000000001</ele>
        <time>2026-07-03T12:02:07Z</time>
      </trkpt>
      <trkpt lat="53.996182009577751" lon="-10.07574800401926">
        <ele>29.940000000000001</ele>
        <time>2026-07-03T12:03:13Z</time>
      </trkpt>
      <trkpt lat="53.996182009577751" lon="-10.07574800401926">
        <ele>29.940000000000001</ele>
        <time>2026-07-03T12:03:34Z</time>
      </trkpt>
      <trkpt lat="53.99617999792099" lon="-10.075750015676022">
        <ele>26.09</ele>
        <time>2026-07-03T12:13:37Z</time>
      </trkpt>
      <trkpt lat="53.996131969615817" lon="-10.07576996460557">
        <ele>28.02</ele>
        <time>2026-07-03T12:14:01Z</time>
      </trkpt>
      <trkpt lat="53.996128030121326" lon="-10.075758984312415">
        <ele>28.5</ele>
        <time>2026-07-03T12:14:04Z</time>
      </trkpt>
      <trkpt lat="53.99592200294137" lon="-10.07525397464633">
        <ele>24.170000000000002</ele>
        <time>2026-07-03T12:14:12Z</time>
      </trkpt>
      <trkpt lat="53.995652021840215" lon="-10.074411006644368">
        <ele>18.879999999999999</ele>
        <time>2026-07-03T12:14:19Z</time>
      </trkpt>
      <trkpt lat="53.995616985484958" lon="-10.074417963624001">
        <ele>18.399999999999999</ele>
        <time>2026-07-03T12:14:20Z</time>
      </trkpt>
      <trkpt lat="53.995579015463591" lon="-10.074427016079426">
        <ele>17.440000000000001</ele>
        <time>2026-07-03T12:14:21Z</time>
      </trkpt>
      <trkpt lat="53.995531992986798" lon="-10.0744369905442">
        <ele>16.48</ele>
        <time>2026-07-03T12:14:22Z</time>
      </trkpt>
      <trkpt lat="53.995476001873612" lon="-10.074447970837355">
        <ele>15.52</ele>
        <time>2026-07-03T12:14:23Z</time>
      </trkpt>
      <trkpt lat="53.995412969961762" lon="-10.074461968615651">
        <ele>14.56</ele>
        <time>2026-07-03T12:14:24Z</time>
      </trkpt>
      <trkpt lat="53.994516022503376" lon="-10.074650980532169">
        <ele>8.789999999999999</ele>
        <time>2026-07-03T12:14:33Z</time>
      </trkpt>
      <trkpt lat="53.993463004007936" lon="-10.074891960248351">
        <ele>3.98</ele>
        <time>2026-07-03T12:14:42Z</time>
      </trkpt>
      <trkpt lat="53.992704022675753" lon="-10.075078960508108">
        <ele>3.02</ele>
        <time>2026-07-03T12:14:51Z</time>
      </trkpt>
      <trkpt lat="53.992460025474429" lon="-10.075041996315122">
        <ele>2.06</ele>
        <time>2026-07-03T12:14:58Z</time>
      </trkpt>
      <trkpt lat="53.992460025474429" lon="-10.075041996315122">
        <ele>2.54</ele>
        <time>2026-07-03T12:14:59Z</time>
      </trkpt>
      <trkpt lat="53.992467988282442" lon="-10.074986005201936">
        <ele>2.54</ele>
        <time>2026-07-03T12:15:00Z</time>
      </trkpt>
      <trkpt lat="53.992579970508814" lon="-10.074182013049722">
        <ele>3.98</ele>
        <time>2026-07-03T12:15:06Z</time>
      </trkpt>
      <trkpt lat="53.99276495911181" lon="-10.072851972654462">
        <ele>5.91</ele>
        <time>2026-07-03T12:15:13Z</time>
      </trkpt>
      <trkpt lat="53.992986995726824" lon="-10.071262009441853">
        <ele>7.35</ele>
        <time>2026-07-03T12:15:24Z</time>
      </trkpt>
      <trkpt lat="53.993066037073731" lon="-10.070788012817502">
        <ele>9.27</ele>
        <time>2026-07-03T12:15:26Z</time>
      </trkpt>
      <trkpt lat="53.993136025965214" lon="-10.070544015616179">
        <ele>9.75</ele>
        <time>2026-07-03T12:15:27Z</time>
      </trkpt>
      <trkpt lat="53.993209032341838" lon="-10.0702890381217">
        <ele>10.710000000000001</ele>
        <time>2026-07-03T12:15:28Z</time>
      </trkpt>
      <trkpt lat="53.994179992005229" lon="-10.06689696572721">
        <ele>10.710000000000001</ele>
        <time>2026-07-03T12:15:40Z</time>
      </trkpt>
      <trkpt lat="53.994909971952438" lon="-10.064027002081275">
        <ele>9.75</ele>
        <time>2026-07-03T12:15:50Z</time>
      </trkpt>
      <trkpt lat="53.995306016877294" lon="-10.061129964888096">
        <ele>11.67</ele>
        <time>2026-07-03T12:16:00Z</time>
      </trkpt>
      <trkpt lat="53.995530987158418" lon="-10.05898998118937">
        <ele>16.48</ele>
        <time>2026-07-03T12:16:09Z</time>
      </trkpt>
      <trkpt lat="53.99581303820014" lon="-10.05619796924293">
        <ele>19.359999999999999</ele>
        <time>2026-07-03T12:16:20Z</time>
      </trkpt>
      <trkpt lat="53.996127024292946" lon="-10.053593041375279">
        <ele>28.02</ele>
        <time>2026-07-03T12:16:31Z</time>
      </trkpt>
      <trkpt lat="53.996521979570389" lon="-10.051310984417796">
        <ele>35.229999999999997</ele>
        <time>2026-07-03T12:16:40Z</time>
      </trkpt>
      <trkpt lat="53.997364025563002" lon="-10.048257037997246">
        <ele>37.630000000000003</ele>
        <time>2026-07-03T12:16:54Z</time>
      </trkpt>
      <trkpt lat="53.998014964163303" lon="-10.046514021232724">
        <ele>40.509999999999998</ele>
        <time>2026-07-03T12:17:03Z</time>
      </trkpt>
      <trkpt lat="53.998071039095521" lon="-10.046332972124219">
        <ele>40.990000000000002</ele>
        <time>2026-07-03T12:17:04Z</time>
      </trkpt>
      <trkpt lat="53.998117977753282" lon="-10.046143960207701">
        <ele>40.509999999999998</ele>
        <time>2026-07-03T12:17:05Z</time>
      </trkpt>
      <trkpt lat="53.998636985197663" lon="-10.04405602812767">
        <ele>33.780000000000001</ele>
        <time>2026-07-03T12:17:15Z</time>
      </trkpt>
      <trkpt lat="53.999083992093801" lon="-10.042255008593202">
        <ele>26.57</ele>
        <time>2026-07-03T12:17:24Z</time>
      </trkpt>
      <trkpt lat="53.999677011743188" lon="-10.039870021864772">
        <ele>21.77</ele>
        <time>2026-07-03T12:17:35Z</time>
      </trkpt>
      <trkpt lat="53.999733002856374" lon="-10.039482023566961">
        <ele>21.77</ele>
        <time>2026-07-03T12:17:37Z</time>
      </trkpt>
      <trkpt lat="53.999730991199613" lon="-10.039278008043766">
        <ele>22.25</ele>
        <time>2026-07-03T12:17:38Z</time>
      </trkpt>
      <trkpt lat="53.999727973714471" lon="-10.03907198086381">
        <ele>23.210000000000001</ele>
        <time>2026-07-03T12:17:39Z</time>
      </trkpt>
      <trkpt lat="53.999717999249697" lon="-10.037595005705953">
        <ele>28.98</ele>
        <time>2026-07-03T12:17:46Z</time>
      </trkpt>
      <trkpt lat="53.999868035316467" lon="-10.035081021487713">
        <ele>39.549999999999997</ele>
        <time>2026-07-03T12:17:57Z</time>
      </trkpt>
      <trkpt lat="54.00009099394083" lon="-10.03329299390316">
        <ele>46.759999999999998</ele>
        <time>2026-07-03T12:18:06Z</time>
      </trkpt>
      <trkpt lat="54.000129969790578" lon="-10.033105993643403">
        <ele>46.759999999999998</ele>
        <time>2026-07-03T12:18:07Z</time>
      </trkpt>
      <trkpt lat="54.000834971666336" lon="-10.031549977138638">
        <ele>42.920000000000002</ele>
        <time>2026-07-03T12:18:16Z</time>
      </trkpt>
      <trkpt lat="54.001802997663617" lon="-10.030143996700644">
        <ele>36.670000000000002</ele>
        <time>2026-07-03T12:18:25Z</time>
      </trkpt>
      <trkpt lat="54.002457959577441" lon="-10.029563969001174">
        <ele>31.379999999999999</ele>
        <time>2026-07-03T12:18:33Z</time>
      </trkpt>
      <trkpt lat="54.003576021641493" lon="-10.028752014040947">
        <ele>24.170000000000002</ele>
        <time>2026-07-03T12:18:44Z</time>
      </trkpt>
      <trkpt lat="54.004749990999699" lon="-10.02789999358356">
        <ele>16.960000000000001</ele>
        <time>2026-07-03T12:18:54Z</time>
      </trkpt>
      <trkpt lat="54.005868975073099" lon="-10.027142018079758">
        <ele>8.310000000000001</ele>
        <time>2026-07-03T12:19:03Z</time>
      </trkpt>
      <trkpt lat="54.007600005716085" lon="-10.026251021772623">
        <ele>-1.3</ele>
        <time>2026-07-03T12:19:15Z</time>
      </trkpt>
      <trkpt lat="54.009346961975098" lon="-10.025245025753975">
        <ele>-3.23</ele>
        <time>2026-07-03T12:19:28Z</time>
      </trkpt>
      <trkpt lat="54.009440001100302" lon="-10.025175036862493">
        <ele>-3.23</ele>
        <time>2026-07-03T12:19:29Z</time>
      </trkpt>
      <trkpt lat="54.009523987770081" lon="-10.025113010779023">
        <ele>-3.23</ele>
        <time>2026-07-03T12:19:30Z</time>
      </trkpt>
      <trkpt lat="54.009604034945369" lon="-10.025019971653819">
        <ele>-3.23</ele>
        <time>2026-07-03T12:19:31Z</time>
      </trkpt>
      <trkpt lat="54.009663965553045" lon="-10.024878988042474">
        <ele>-3.71</ele>
        <time>2026-07-03T12:19:32Z</time>
      </trkpt>
      <trkpt lat="54.009731020778418" lon="-10.024727024137974">
        <ele>-3.71</ele>
        <time>2026-07-03T12:19:33Z</time>
      </trkpt>
      <trkpt lat="54.010482961311936" lon="-10.022906977683306">
        <ele>-1.79</ele>
        <time>2026-07-03T12:19:43Z</time>
      </trkpt>
      <trkpt lat="54.011360965669155" lon="-10.020727012306452">
        <ele>1.1</ele>
        <time>2026-07-03T12:19:55Z</time>
      </trkpt>
      <trkpt lat="54.01218700222671" lon="-10.019481964409351">
        <ele>6.87</ele>
        <time>2026-07-03T12:20:04Z</time>
      </trkpt>
      <trkpt lat="54.012879012152553" lon="-10.018849968910217">
        <ele>13.6</ele>
        <time>2026-07-03T12:20:11Z</time>
      </trkpt>
      <trkpt lat="54.012961992993951" lon="-10.018748966977">
        <ele>13.6</ele>
        <time>2026-07-03T12:20:12Z</time>
      </trkpt>
      <trkpt lat="54.013031981885433" lon="-10.018630027770996">
        <ele>14.08</ele>
        <time>2026-07-03T12:20:13Z</time>
      </trkpt>
      <trkpt lat="54.013098031282425" lon="-10.018517961725593">
        <ele>14.56</ele>
        <time>2026-07-03T12:20:14Z</time>
      </trkpt>
      <trkpt lat="54.013159973546863" lon="-10.018406985327601">
        <ele>15.039999999999999</ele>
        <time>2026-07-03T12:20:15Z</time>
      </trkpt>
      <trkpt lat="54.013215964660048" lon="-10.018287962302566">
        <ele>15.039999999999999</ele>
        <time>2026-07-03T12:20:16Z</time>
      </trkpt>
      <trkpt lat="54.013457028195262" lon="-10.01778001897037">
        <ele>15.039999999999999</ele>
        <time>2026-07-03T12:20:21Z</time>
      </trkpt>
      <trkpt lat="54.013500027358532" lon="-10.017688991501927">
        <ele>15.039999999999999</ele>
        <time>2026-07-03T12:20:22Z</time>
      </trkpt>
      <trkpt lat="54.013534979894757" lon="-10.01758698374033">
        <ele>15.52</ele>
        <time>2026-07-03T12:20:23Z</time>
      </trkpt>
      <trkpt lat="54.013546966016293" lon="-10.017473995685577">
        <ele>16</ele>
        <time>2026-07-03T12:20:24Z</time>
      </trkpt>
      <trkpt lat="54.013547971844673" lon="-10.017341980710626">
        <ele>16.960000000000001</ele>
        <time>2026-07-03T12:20:25Z</time>
      </trkpt>
      <trkpt lat="54.013533974066377" lon="-10.017190016806126">
        <ele>17.440000000000001</ele>
        <time>2026-07-03T12:20:26Z</time>
      </trkpt>
      <trkpt lat="54.0135189704597" lon="-10.017017014324665">
        <ele>18.399999999999999</ele>
        <time>2026-07-03T12:20:27Z</time>
      </trkpt>
      <trkpt lat="54.013502039015293" lon="-10.016825990751386">
        <ele>18.879999999999999</ele>
        <time>2026-07-03T12:20:28Z</time>
      </trkpt>
      <trkpt lat="54.01349600404501" lon="-10.016635973006487">
        <ele>19.359999999999999</ele>
        <time>2026-07-03T12:20:29Z</time>
      </trkpt>
      <trkpt lat="54.013526011258364" lon="-10.016458025202155">
        <ele>20.32</ele>
        <time>2026-07-03T12:20:30Z</time>
      </trkpt>
      <trkpt lat="54.013558030128479" lon="-10.016271024942398">
        <ele>20.809999999999999</ele>
        <time>2026-07-03T12:20:31Z</time>
      </trkpt>
      <trkpt lat="54.013592982664704" lon="-10.016069021075964">
        <ele>21.77</ele>
        <time>2026-07-03T12:20:32Z</time>
      </trkpt>
      <trkpt lat="54.013628019019961" lon="-10.015859976410866">
        <ele>21.77</ele>
        <time>2026-07-03T12:20:33Z</time>
      </trkpt>
      <trkpt lat="54.013635981827974" lon="-10.015646992251277">
        <ele>22.73</ele>
        <time>2026-07-03T12:20:34Z</time>
      </trkpt>
      <trkpt lat="54.013630030676723" lon="-10.015422021970153">
        <ele>23.210000000000001</ele>
        <time>2026-07-03T12:20:35Z</time>
      </trkpt>
      <trkpt lat="54.013617960736156" lon="-10.014089969918132">
        <ele>28.02</ele>
        <time>2026-07-03T12:20:42Z</time>
      </trkpt>
      <trkpt lat="54.013617960736156" lon="-10.013897018507123">
        <ele>28.5</ele>
        <time>2026-07-03T12:20:43Z</time>
      </trkpt>
      <trkpt lat="54.013617960736156" lon="-10.013710018247366">
        <ele>28.98</ele>
        <time>2026-07-03T12:20:44Z</time>
      </trkpt>
      <trkpt lat="54.01375500485301" lon="-10.011986028403044">
        <ele>33.780000000000001</ele>
        <time>2026-07-03T12:20:53Z</time>
      </trkpt>
      <trkpt lat="54.013857012614608" lon="-10.009453017264605">
        <ele>31.379999999999999</ele>
        <time>2026-07-03T12:21:03Z</time>
      </trkpt>
      <trkpt lat="54.013950973749161" lon="-10.005570016801357">
        <ele>22.73</ele>
        <time>2026-07-03T12:21:18Z</time>
      </trkpt>
      <trkpt lat="54.01411903090775" lon="-10.004430999979377">
        <ele>23.690000000000001</ele>
        <time>2026-07-03T12:21:23Z</time>
      </trkpt>
      <trkpt lat="54.014120036736131" lon="-10.004179961979389">
        <ele>24.170000000000002</ele>
        <time>2026-07-03T12:21:24Z</time>
      </trkpt>
      <trkpt lat="54.014193965122104" lon="-10.002178028225899">
        <ele>24.170000000000002</ele>
        <time>2026-07-03T12:21:33Z</time>
      </trkpt>
      <trkpt lat="54.014177033677697" lon="-10.001992033794522">
        <ele>23.690000000000001</ele>
        <time>2026-07-03T12:21:34Z</time>
      </trkpt>
      <trkpt lat="54.014149038121104" lon="-10.001807967200875">
        <ele>23.210000000000001</ele>
        <time>2026-07-03T12:21:35Z</time>
      </trkpt>
      <trkpt lat="54.014110984280705" lon="-10.001625996083021">
        <ele>22.25</ele>
        <time>2026-07-03T12:21:36Z</time>
      </trkpt>
      <trkpt lat="54.0140559989959" lon="-10.001442013308406">
        <ele>21.77</ele>
        <time>2026-07-03T12:21:37Z</time>
      </trkpt>
      <trkpt lat="54.013997996225953" lon="-10.001247972249985">
        <ele>20.809999999999999</ele>
        <time>2026-07-03T12:21:38Z</time>
      </trkpt>
      <trkpt lat="54.013294000178576" lon="-9.99904302880168">
        <ele>10.23</ele>
        <time>2026-07-03T12:21:48Z</time>
      </trkpt>
      <trkpt lat="54.012681031599641" lon="-9.996439022943378">
        <ele>1.58</ele>
        <time>2026-07-03T12:21:59Z</time>
      </trkpt>
      <trkpt lat="54.011896988376975" lon="-9.9945970159024">
        <ele>1.1</ele>
        <time>2026-07-03T12:22:08Z</time>
      </trkpt>
      <trkpt lat="54.011081010103226" lon="-9.99287897720933">
        <ele>-0.34</ele>
        <time>2026-07-03T12:22:17Z</time>
      </trkpt>
      <trkpt lat="54.010985037311912" lon="-9.992714021354914">
        <ele>-0.34</ele>
        <time>2026-07-03T12:22:18Z</time>
      </trkpt>
      <trkpt lat="54.009975017979741" lon="-9.991380041465163">
        <ele>-2.27</ele>
        <time>2026-07-03T12:22:27Z</time>
      </trkpt>
      <trkpt lat="54.009899999946356" lon="-9.991197986528277">
        <ele>-2.75</ele>
        <time>2026-07-03T12:22:28Z</time>
      </trkpt>
      <trkpt lat="54.009853983297944" lon="-9.991000005975366">
        <ele>-3.23</ele>
        <time>2026-07-03T12:22:29Z</time>
      </trkpt>
      <trkpt lat="54.009552989155054" lon="-9.988849963992834">
        <ele>-5.63</ele>
        <time>2026-07-03T12:22:38Z</time>
      </trkpt>
      <trkpt lat="54.009499009698629" lon="-9.984888006001711">
        <ele>-3.23</ele>
        <time>2026-07-03T12:22:53Z</time>
      </trkpt>
      <trkpt lat="54.009530022740364" lon="-9.984126007184386">
        <ele>-1.3</ele>
        <time>2026-07-03T12:22:56Z</time>
      </trkpt>
      <trkpt lat="54.009544020518661" lon="-9.983893996104598">
        <ele>-0.82</ele>
        <time>2026-07-03T12:22:57Z</time>
      </trkpt>
      <trkpt lat="54.010001001879573" lon="-9.981210026890039">
        <ele>5.91</ele>
        <time>2026-07-03T12:23:08Z</time>
      </trkpt>
      <trkpt lat="54.010129999369383" lon="-9.979455024003983">
        <ele>7.83</ele>
        <time>2026-07-03T12:23:15Z</time>
      </trkpt>
      <trkpt lat="54.010123964399099" lon="-9.979247990995646">
        <ele>8.310000000000001</ele>
        <time>2026-07-03T12:23:16Z</time>
      </trkpt>
      <trkpt lat="54.010069984942675" lon="-9.979094015434384">
        <ele>8.310000000000001</ele>
        <time>2026-07-03T12:23:17Z</time>
      </trkpt>
      <trkpt lat="54.010012988001108" lon="-9.978931993246079">
        <ele>8.310000000000001</ele>
        <time>2026-07-03T12:23:18Z</time>
      </trkpt>
      <trkpt lat="54.0099529735744" lon="-9.978757984936237">
        <ele>7.83</ele>
        <time>2026-07-03T12:23:19Z</time>
      </trkpt>
      <trkpt lat="54.009167002514005" lon="-9.976799972355366">
        <ele>7.35</ele>
        <time>2026-07-03T12:23:29Z</time>
      </trkpt>
      <trkpt lat="54.008794007822871" lon="-9.975891960784793">
        <ele>5.42</ele>
        <time>2026-07-03T12:23:36Z</time>
      </trkpt>
      <trkpt lat="54.008761988952756" lon="-9.975813003256917">
        <ele>4.94</ele>
        <time>2026-07-03T12:23:37Z</time>
      </trkpt>
      <trkpt lat="54.008733993396163" lon="-9.975746031850576">
        <ele>3.98</ele>
        <time>2026-07-03T12:23:38Z</time>
      </trkpt>
      <trkpt lat="54.00868596509099" lon="-9.975682999938726">
        <ele>3.5</ele>
        <time>2026-07-03T12:23:39Z</time>
      </trkpt>
      <trkpt lat="54.008639026433229" lon="-9.975710995495319">
        <ele>3.02</ele>
        <time>2026-07-03T12:23:40Z</time>
      </trkpt>
      <trkpt lat="54.008574988692999" lon="-9.975745026022196">
        <ele>2.54</ele>
        <time>2026-07-03T12:23:41Z</time>
      </trkpt>
      <trkpt lat="54.008502988144755" lon="-9.97577503323555">
        <ele>2.06</ele>
        <time>2026-07-03T12:23:42Z</time>
      </trkpt>
      <trkpt lat="54.007661025971174" lon="-9.976121038198471">
        <ele>3.02</ele>
        <time>2026-07-03T12:23:50Z</time>
      </trkpt>
      <trkpt lat="54.00713698938489" lon="-9.976337039843202">
        <ele>2.54</ele>
        <time>2026-07-03T12:23:54Z</time>
      </trkpt>
      <trkpt lat="54.007010003551841" lon="-9.976322958245874">
        <ele>2.06</ele>
        <time>2026-07-03T12:23:55Z</time>
      </trkpt>
      <trkpt lat="54.005392966791987" lon="-9.975979970768094">
        <ele>-1.3</ele>
        <time>2026-07-03T12:24:06Z</time>
      </trkpt>
      <trkpt lat="54.003728991374373" lon="-9.975180001929402">
        <ele>-1.3</ele>
        <time>2026-07-03T12:24:17Z</time>
      </trkpt>
      <trkpt lat="54.001871980726719" lon="-9.974286993965507">
        <ele>0.14</ele>
        <time>2026-07-03T12:24:29Z</time>
      </trkpt>
      <trkpt lat="53.999819001182914" lon="-9.973001964390278">
        <ele>4.46</ele>
        <time>2026-07-03T12:24:43Z</time>
      </trkpt>
      <trkpt lat="53.998084031045437" lon="-9.97148098424077">
        <ele>-0.82</ele>
        <time>2026-07-03T12:24:56Z</time>
      </trkpt>
      <trkpt lat="53.997374000027776" lon="-9.970917971804738">
        <ele>-2.27</ele>
        <time>2026-07-03T12:25:02Z</time>
      </trkpt>
      <trkpt lat="53.997257994487882" lon="-9.970828033983707">
        <ele>-2.27</ele>
        <time>2026-07-03T12:25:03Z</time>
      </trkpt>
      <trkpt lat="53.997119022533298" lon="-9.970778999850154">
        <ele>-2.75</ele>
        <time>2026-07-03T12:25:04Z</time>
      </trkpt>
      <trkpt lat="53.995371982455254" lon="-9.970410028472543">
        <ele>-0.34</ele>
        <time>2026-07-03T12:25:15Z</time>
      </trkpt>
      <trkpt lat="53.993263011798263" lon="-9.969937037676573">
        <ele>3.02</ele>
        <time>2026-07-03T12:25:28Z</time>
      </trkpt>
      <trkpt lat="53.991275997832417" lon="-9.969491036608815">
        <ele>10.23</ele>
        <time>2026-07-03T12:25:41Z</time>
      </trkpt>
      <trkpt lat="53.989688968285918" lon="-9.968969011679292">
        <ele>11.67</ele>
        <time>2026-07-03T12:25:52Z</time>
      </trkpt>
      <trkpt lat="53.988364962860942" lon="-9.968899022787809">
        <ele>10.710000000000001</ele>
        <time>2026-07-03T12:26:02Z</time>
      </trkpt>
      <trkpt lat="53.987087979912758" lon="-9.969293978065252">
        <ele>15.039999999999999</ele>
        <time>2026-07-03T12:26:12Z</time>
      </trkpt>
      <trkpt lat="53.986551035195589" lon="-9.969507968053222">
        <ele>16.960000000000001</ele>
        <time>2026-07-03T12:26:20Z</time>
      </trkpt>
      <trkpt lat="53.985519977286458" lon="-9.969650963321328">
        <ele>19.359999999999999</ele>
        <time>2026-07-03T12:26:28Z</time>
      </trkpt>
      <trkpt lat="53.984164036810398" lon="-9.969799993559718">
        <ele>22.73</ele>
        <time>2026-07-03T12:26:38Z</time>
      </trkpt>
      <trkpt lat="53.982712039723992" lon="-9.96984601020813">
        <ele>28.98</ele>
        <time>2026-07-03T12:26:50Z</time>
      </trkpt>
      <trkpt lat="53.982621012255549" lon="-9.969880040735006">
        <ele>29.460000000000001</ele>
        <time>2026-07-03T12:26:51Z</time>
      </trkpt>
      <trkpt lat="53.982540965080261" lon="-9.969936031848192">
        <ele>29.940000000000001</ele>
        <time>2026-07-03T12:26:52Z</time>
      </trkpt>
      <trkpt lat="53.982465025037527" lon="-9.970039967447519">
        <ele>30.899999999999999</ele>
        <time>2026-07-03T12:26:53Z</time>
      </trkpt>
      <trkpt lat="53.982383972033858" lon="-9.970149016007781">
        <ele>31.859999999999999</ele>
        <time>2026-07-03T12:26:54Z</time>
      </trkpt>
      <trkpt lat="53.982301997020841" lon="-9.970258986577392">
        <ele>32.82</ele>
        <time>2026-07-03T12:26:55Z</time>
      </trkpt>
      <trkpt lat="53.982138969004154" lon="-9.970479011535645">
        <ele>35.229999999999997</ele>
        <time>2026-07-03T12:26:57Z</time>
      </trkpt>
      <trkpt lat="53.982041990384459" lon="-9.970560986548662">
        <ele>35.710000000000001</ele>
        <time>2026-07-03T12:26:58Z</time>
      </trkpt>
      <trkpt lat="53.981939982622862" lon="-9.970645979046822">
        <ele>37.149999999999999</ele>
        <time>2026-07-03T12:26:59Z</time>
      </trkpt>
      <trkpt lat="53.981831017881632" lon="-9.970714962109923">
        <ele>37.630000000000003</ele>
        <time>2026-07-03T12:27:00Z</time>
      </trkpt>
      <trkpt lat="53.981704032048583" lon="-9.97077003121376">
        <ele>38.109999999999999</ele>
        <time>2026-07-03T12:27:01Z</time>
      </trkpt>
      <trkpt lat="53.980713961645961" lon="-9.97124201618135">
        <ele>40.990000000000002</ele>
        <time>2026-07-03T12:27:09Z</time>
      </trkpt>
      <trkpt lat="53.980633998289704" lon="-9.97130798175931">
        <ele>41.469999999999999</ele>
        <time>2026-07-03T12:27:10Z</time>
      </trkpt>
      <trkpt lat="53.980572978034616" lon="-9.971359027549624">
        <ele>41.950000000000003</ele>
        <time>2026-07-03T12:27:11Z</time>
      </trkpt>
      <trkpt lat="53.980530984699726" lon="-9.971462963148952">
        <ele>42.439999999999998</ele>
        <time>2026-07-03T12:27:12Z</time>
      </trkpt>
      <trkpt lat="53.980489997193217" lon="-9.97156698256731">
        <ele>42.439999999999998</ele>
        <time>2026-07-03T12:27:13Z</time>
      </trkpt>
      <trkpt lat="53.980465019121766" lon="-9.971692962571979">
        <ele>42.920000000000002</ele>
        <time>2026-07-03T12:27:14Z</time>
      </trkpt>
      <trkpt lat="53.980437023565173" lon="-9.971842998638749">
        <ele>43.399999999999999</ele>
        <time>2026-07-03T12:27:15Z</time>
      </trkpt>
      <trkpt lat="53.980134017765522" lon="-9.973185025155544">
        <ele>43.880000000000003</ele>
        <time>2026-07-03T12:27:23Z</time>
      </trkpt>
      <trkpt lat="53.979640994220972" lon="-9.975316040217876">
        <ele>45.32</ele>
        <time>2026-07-03T12:27:32Z</time>
      </trkpt>
      <trkpt lat="53.979441002011299" lon="-9.977019997313619">
        <ele>49.159999999999997</ele>
        <time>2026-07-03T12:27:39Z</time>
      </trkpt>
      <trkpt lat="53.979391967877746" lon="-9.977235998958349">
        <ele>49.159999999999997</ele>
        <time>2026-07-03T12:27:40Z</time>
      </trkpt>
      <trkpt lat="53.979320973157883" lon="-9.977447977289558">
        <ele>49.649999999999999</ele>
        <time>2026-07-03T12:27:41Z</time>
      </trkpt>
      <trkpt lat="53.978357976302505" lon="-9.97970899567008">
        <ele>53.969999999999999</ele>
        <time>2026-07-03T12:27:51Z</time>
      </trkpt>
      <trkpt lat="53.977227006107569" lon="-9.982031034305692">
        <ele>52.530000000000001</ele>
        <time>2026-07-03T12:28:02Z</time>
      </trkpt>
      <trkpt lat="53.976002996787429" lon="-9.984170012176037">
        <ele>53.969999999999999</ele>
        <time>2026-07-03T12:28:13Z</time>
      </trkpt>
      <trkpt lat="53.975290032103658" lon="-9.985368959605694">
        <ele>55.409999999999997</ele>
        <time>2026-07-03T12:28:21Z</time>
      </trkpt>
      <trkpt lat="53.975036982446909" lon="-9.985668025910854">
        <ele>58.299999999999997</ele>
        <time>2026-07-03T12:28:27Z</time>
      </trkpt>
      <trkpt lat="53.974989959970117" lon="-9.985615974292159">
        <ele>57.82</ele>
        <time>2026-07-03T12:28:28Z</time>
      </trkpt>
      <trkpt lat="53.974925000220537" lon="-9.985544979572296">
        <ele>56.859999999999999</ele>
        <time>2026-07-03T12:28:29Z</time>
      </trkpt>
      <trkpt lat="53.974141040816903" lon="-9.984946008771658">
        <ele>53.009999999999998</ele>
        <time>2026-07-03T12:28:36Z</time>
      </trkpt>
      <trkpt lat="53.972594998776913" lon="-9.98392098583281">
        <ele>47.240000000000002</ele>
        <time>2026-07-03T12:28:46Z</time>
      </trkpt>
      <trkpt lat="53.970305984839797" lon="-9.982952959835529">
        <ele>36.189999999999998</ele>
        <time>2026-07-03T12:28:59Z</time>
      </trkpt>
      <trkpt lat="53.969371989369392" lon="-9.982603015378118">
        <ele>32.82</ele>
        <time>2026-07-03T12:29:05Z</time>
      </trkpt>
      <trkpt lat="53.969249026849866" lon="-9.982603015378118">
        <ele>31.859999999999999</ele>
        <time>2026-07-03T12:29:06Z</time>
      </trkpt>
      <trkpt lat="53.968566991388798" lon="-9.982558004558086">
        <ele>27.530000000000001</ele>
        <time>2026-07-03T12:29:11Z</time>
      </trkpt>
      <trkpt lat="53.96842097863555" lon="-9.982513999566436">
        <ele>26.57</ele>
        <time>2026-07-03T12:29:12Z</time>
      </trkpt>
      <trkpt lat="53.968273960053921" lon="-9.982439987361431">
        <ele>25.609999999999999</ele>
        <time>2026-07-03T12:29:13Z</time>
      </trkpt>
      <trkpt lat="53.968130964785814" lon="-9.982328005135059">
        <ele>24.649999999999999</ele>
        <time>2026-07-03T12:29:14Z</time>
      </trkpt>
      <trkpt lat="53.96799098700285" lon="-9.982188027352095">
        <ele>24.170000000000002</ele>
        <time>2026-07-03T12:29:15Z</time>
      </trkpt>
      <trkpt lat="53.967847991734743" lon="-9.982045032083988">
        <ele>23.210000000000001</ele>
        <time>2026-07-03T12:29:16Z</time>
      </trkpt>
      <trkpt lat="53.966147974133492" lon="-9.980076961219311">
        <ele>15.52</ele>
        <time>2026-07-03T12:29:28Z</time>
      </trkpt>
      <trkpt lat="53.964293980970979" lon="-9.977761963382363">
        <ele>11.19</ele>
        <time>2026-07-03T12:29:41Z</time>
      </trkpt>
      <trkpt lat="53.962632017210126" lon="-9.975911993533373">
        <ele>12.15</ele>
        <time>2026-07-03T12:29:53Z</time>
      </trkpt>
      <trkpt lat="53.960925964638591" lon="-9.973580986261368">
        <ele>11.19</ele>
        <time>2026-07-03T12:30:06Z</time>
      </trkpt>
      <trkpt lat="53.959366008639336" lon="-9.971324997022748">
        <ele>14.08</ele>
        <time>2026-07-03T12:30:18Z</time>
      </trkpt>
      <trkpt lat="53.957522995769978" lon="-9.969338988885284">
        <ele>26.09</ele>
        <time>2026-07-03T12:30:31Z</time>
      </trkpt>
      <trkpt lat="53.956429995596409" lon="-9.968775976449251">
        <ele>22.73</ele>
        <time>2026-07-03T12:30:38Z</time>
      </trkpt>
      <trkpt lat="53.956265039741993" lon="-9.968787040561438">
        <ele>22.25</ele>
        <time>2026-07-03T12:30:39Z</time>
      </trkpt>
      <trkpt lat="53.956095976755023" lon="-9.968799026682973">
        <ele>21.77</ele>
        <time>2026-07-03T12:30:40Z</time>
      </trkpt>
      <trkpt lat="53.954789992421865" lon="-9.969464968889952">
        <ele>16.48</ele>
        <time>2026-07-03T12:30:48Z</time>
      </trkpt>
      <trkpt lat="53.953205980360508" lon="-9.970979997888207">
        <ele>8.310000000000001</ele>
        <time>2026-07-03T12:30:59Z</time>
      </trkpt>
      <trkpt lat="53.951620040461421" lon="-9.972984027117491">
        <ele>5.42</ele>
        <time>2026-07-03T12:31:11Z</time>
      </trkpt>
      <trkpt lat="53.950597029179335" lon="-9.974598968401551">
        <ele>6.39</ele>
        <time>2026-07-03T12:31:20Z</time>
      </trkpt>
      <trkpt lat="53.950474988669157" lon="-9.974695025011897">
        <ele>6.39</ele>
        <time>2026-07-03T12:31:21Z</time>
      </trkpt>
      <trkpt lat="53.95035102032125" lon="-9.974792003631592">
        <ele>6.39</ele>
        <time>2026-07-03T12:31:22Z</time>
      </trkpt>
      <trkpt lat="53.950221017003059" lon="-9.974859980866313">
        <ele>5.91</ele>
        <time>2026-07-03T12:31:23Z</time>
      </trkpt>
      <trkpt lat="53.950077015906572" lon="-9.974909014999867">
        <ele>5.91</ele>
        <time>2026-07-03T12:31:24Z</time>
      </trkpt>
      <trkpt lat="53.948424020782113" lon="-9.975283015519381">
        <ele>3.5</ele>
        <time>2026-07-03T12:31:35Z</time>
      </trkpt>
      <trkpt lat="53.947105966508389" lon="-9.97487498447299">
        <ele>3.02</ele>
        <time>2026-07-03T12:31:44Z</time>
      </trkpt>
      <trkpt lat="53.945870976895094" lon="-9.973879968747497">
        <ele>9.27</ele>
        <time>2026-07-03T12:31:53Z</time>
      </trkpt>
      <trkpt lat="53.945206040516496" lon="-9.97281102463603">
        <ele>12.630000000000001</ele>
        <time>2026-07-03T12:32:00Z</time>
      </trkpt>
      <trkpt lat="53.944373968988657" lon="-9.970585964620113">
        <ele>16.48</ele>
        <time>2026-07-03T12:32:10Z</time>
      </trkpt>
      <trkpt lat="53.942966982722282" lon="-9.966584024950862">
        <ele>21.77</ele>
        <time>2026-07-03T12:32:26Z</time>
      </trkpt>
      <trkpt lat="53.941580029204488" lon="-9.962876038625836">
        <ele>27.050000000000001</ele>
        <time>2026-07-03T12:32:41Z</time>
      </trkpt>
      <trkpt lat="53.940284019336104" lon="-9.959764005616307">
        <ele>27.050000000000001</ele>
        <time>2026-07-03T12:32:53Z</time>
      </trkpt>
      <trkpt lat="53.939134022220969" lon="-9.956932011991739">
        <ele>25.129999999999999</ele>
        <time>2026-07-03T12:33:04Z</time>
      </trkpt>
      <trkpt lat="53.93780498765409" lon="-9.954279977828264">
        <ele>21.77</ele>
        <time>2026-07-03T12:33:14Z</time>
      </trkpt>
      <trkpt lat="53.936706958338618" lon="-9.952733013778925">
        <ele>20.32</ele>
        <time>2026-07-03T12:33:22Z</time>
      </trkpt>
      <trkpt lat="53.935370966792107" lon="-9.951714025810361">
        <ele>16</ele>
        <time>2026-07-03T12:33:31Z</time>
      </trkpt>
      <trkpt lat="53.933502975851297" lon="-9.95081003755331">
        <ele>8.789999999999999</ele>
        <time>2026-07-03T12:33:43Z</time>
      </trkpt>
      <trkpt lat="53.932620026171207" lon="-9.950380967929959">
        <ele>3.98</ele>
        <time>2026-07-03T12:33:49Z</time>
      </trkpt>
      <trkpt lat="53.932487005367875" lon="-9.950253982096911">
        <ele>3.5</ele>
        <time>2026-07-03T12:33:50Z</time>
      </trkpt>
      <trkpt lat="53.932359013706446" lon="-9.950103024020791">
        <ele>2.06</ele>
        <time>2026-07-03T12:33:51Z</time>
      </trkpt>
      <trkpt lat="53.932116022333503" lon="-9.949767999351025">
        <ele>1.1</ele>
        <time>2026-07-03T12:33:53Z</time>
      </trkpt>
      <trkpt lat="53.931913012638688" lon="-9.949409002438188">
        <ele>0.62</ele>
        <time>2026-07-03T12:33:55Z</time>
      </trkpt>
      <trkpt lat="53.931611012667418" lon="-9.948557987809181">
        <ele>-0.34</ele>
        <time>2026-07-03T12:33:59Z</time>
      </trkpt>
      <trkpt lat="53.931558039039373" lon="-9.948332011699677">
        <ele>-0.82</ele>
        <time>2026-07-03T12:34:00Z</time>
      </trkpt>
      <trkpt lat="53.931463994085789" lon="-9.947857009246945">
        <ele>-1.3</ele>
        <time>2026-07-03T12:34:02Z</time>
      </trkpt>
      <trkpt lat="53.931437004357576" lon="-9.947598008438945">
        <ele>-1.3</ele>
        <time>2026-07-03T12:34:03Z</time>
      </trkpt>
      <trkpt lat="53.931141961365938" lon="-9.945177985355258">
        <ele>-4.67</ele>
        <time>2026-07-03T12:34:12Z</time>
      </trkpt>
      <trkpt lat="53.930618008598685" lon="-9.942533997818828">
        <ele>-7.55</ele>
        <time>2026-07-03T12:34:21Z</time>
      </trkpt>
      <trkpt lat="53.930131020024419" lon="-9.940537009388208">
        <ele>-6.59</ele>
        <time>2026-07-03T12:34:28Z</time>
      </trkpt>
      <trkpt lat="53.930011996999383" lon="-9.939981959760189">
        <ele>-6.11</ele>
        <time>2026-07-03T12:34:30Z</time>
      </trkpt>
      <trkpt lat="53.929955000057817" lon="-9.939717007800937">
        <ele>-5.15</ele>
        <time>2026-07-03T12:34:31Z</time>
      </trkpt>
      <trkpt lat="53.929907977581024" lon="-9.939462030306459">
        <ele>-5.15</ele>
        <time>2026-07-03T12:34:32Z</time>
      </trkpt>
      <trkpt lat="53.929890040308237" lon="-9.939206968992949">
        <ele>-4.67</ele>
        <time>2026-07-03T12:34:33Z</time>
      </trkpt>
      <trkpt lat="53.929873025044799" lon="-9.938952997326851">
        <ele>-4.19</ele>
        <time>2026-07-03T12:34:34Z</time>
      </trkpt>
      <trkpt lat="53.92985500395298" lon="-9.938691984862089">
        <ele>-3.71</ele>
        <time>2026-07-03T12:34:35Z</time>
      </trkpt>
      <trkpt lat="53.930028006434441" lon="-9.935929980129004">
        <ele>-2.75</ele>
        <time>2026-07-03T12:34:45Z</time>
      </trkpt>
      <trkpt lat="53.930232021957636" lon="-9.933336032554507">
        <ele>0.14</ele>
        <time>2026-07-03T12:34:55Z</time>
      </trkpt>
      <trkpt lat="53.930435031652451" lon="-9.930747030302882">
        <ele>2.54</ele>
        <time>2026-07-03T12:35:07Z</time>
      </trkpt>
      <trkpt lat="53.930448023602366" lon="-9.929953012615442">
        <ele>4.46</ele>
        <time>2026-07-03T12:35:12Z</time>
      </trkpt>
      <trkpt lat="53.930309973657131" lon="-9.928692039102316">
        <ele>3.98</ele>
        <time>2026-07-03T12:35:23Z</time>
      </trkpt>
      <trkpt lat="53.930218024179339" lon="-9.927273988723755">
        <ele>2.06</ele>
        <time>2026-07-03T12:35:32Z</time>
      </trkpt>
      <trkpt lat="53.930235961452127" lon="-9.927107021212578">
        <ele>2.06</ele>
        <time>2026-07-03T12:35:33Z</time>
      </trkpt>
      <trkpt lat="53.930254988372326" lon="-9.926936030387878">
        <ele>1.58</ele>
        <time>2026-07-03T12:35:34Z</time>
      </trkpt>
      <trkpt lat="53.930274015292525" lon="-9.926767973229289">
        <ele>1.58</ele>
        <time>2026-07-03T12:35:35Z</time>
      </trkpt>
      <trkpt lat="53.930313996970654" lon="-9.926611986011267">
        <ele>1.1</ele>
        <time>2026-07-03T12:35:36Z</time>
      </trkpt>
      <trkpt lat="53.930354984477162" lon="-9.926463961601257">
        <ele>0.62</ele>
        <time>2026-07-03T12:35:37Z</time>
      </trkpt>
      <trkpt lat="53.930513989180326" lon="-9.925920981913805">
        <ele>-0.82</ele>
        <time>2026-07-03T12:35:41Z</time>
      </trkpt>
      <trkpt lat="53.930724039673805" lon="-9.925427958369255">
        <ele>-0.34</ele>
        <time>2026-07-03T12:35:46Z</time>
      </trkpt>
      <trkpt lat="53.930766033008695" lon="-9.92532704025507">
        <ele>0.14</ele>
        <time>2026-07-03T12:35:47Z</time>
      </trkpt>
      <trkpt lat="53.931472040712833" lon="-9.924157010391355">
        <ele>0.14</ele>
        <time>2026-07-03T12:36:00Z</time>
      </trkpt>
      <trkpt lat="53.931516967713833" lon="-9.924110993742943">
        <ele>0.14</ele>
        <time>2026-07-03T12:36:01Z</time>
      </trkpt>
      <trkpt lat="53.931827014312148" lon="-9.923790972679853">
        <ele>0.14</ele>
        <time>2026-07-03T12:36:09Z</time>
      </trkpt>
      <trkpt lat="53.931862972676754" lon="-9.923753002658486">
        <ele>0.14</ele>
        <time>2026-07-03T12:36:10Z</time>
      </trkpt>
      <trkpt lat="53.931901026517153" lon="-9.923714026808739">
        <ele>-0.34</ele>
        <time>2026-07-03T12:36:11Z</time>
      </trkpt>
      <trkpt lat="53.931945031508803" lon="-9.923668010160327">
        <ele>-0.34</ele>
        <time>2026-07-03T12:36:12Z</time>
      </trkpt>
      <trkpt lat="53.931996999308467" lon="-9.923615036532283">
        <ele>-0.82</ele>
        <time>2026-07-03T12:36:13Z</time>
      </trkpt>
      <trkpt lat="53.932053996250033" lon="-9.923556027933955">
        <ele>-0.82</ele>
        <time>2026-07-03T12:36:14Z</time>
      </trkpt>
      <trkpt lat="53.932162960991263" lon="-9.923382019624114">
        <ele>-1.3</ele>
        <time>2026-07-03T12:36:16Z</time>
      </trkpt>
      <trkpt lat="53.932219035923481" lon="-9.923270959407091">
        <ele>-1.3</ele>
        <time>2026-07-03T12:36:17Z</time>
      </trkpt>
      <trkpt lat="53.932279972359538" lon="-9.923149002715945">
        <ele>-0.82</ele>
        <time>2026-07-03T12:36:18Z</time>
      </trkpt>
      <trkpt lat="53.932846002280712" lon="-9.921458959579468">
        <ele>-0.82</ele>
        <time>2026-07-03T12:36:28Z</time>
      </trkpt>
      <trkpt lat="53.933666003867984" lon="-9.919079001992941">
        <ele>3.98</ele>
        <time>2026-07-03T12:36:40Z</time>
      </trkpt>
      <trkpt lat="53.933880999684334" lon="-9.918165039271116">
        <ele>4.46</ele>
        <time>2026-07-03T12:36:45Z</time>
      </trkpt>
      <trkpt lat="53.933888040482998" lon="-9.917932022362948">
        <ele>3.98</ele>
        <time>2026-07-03T12:36:46Z</time>
      </trkpt>
      <trkpt lat="53.93389499746263" lon="-9.917710991576314">
        <ele>3.98</ele>
        <time>2026-07-03T12:36:47Z</time>
      </trkpt>
      <trkpt lat="53.933902038261294" lon="-9.917497001588345">
        <ele>4.46</ele>
        <time>2026-07-03T12:36:48Z</time>
      </trkpt>
      <trkpt lat="53.93387395888567" lon="-9.917290974408388">
        <ele>4.46</ele>
        <time>2026-07-03T12:36:49Z</time>
      </trkpt>
      <trkpt lat="53.933841018006206" lon="-9.917076984420419">
        <ele>4.94</ele>
        <time>2026-07-03T12:36:50Z</time>
      </trkpt>
      <trkpt lat="53.93380799330771" lon="-9.916856037452817">
        <ele>5.42</ele>
        <time>2026-07-03T12:36:51Z</time>
      </trkpt>
      <trkpt lat="53.933413038030267" lon="-9.914439031854272">
        <ele>10.710000000000001</ele>
        <time>2026-07-03T12:37:02Z</time>
      </trkpt>
      <trkpt lat="53.933497024700046" lon="-9.912465009838343">
        <ele>13.6</ele>
        <time>2026-07-03T12:37:11Z</time>
      </trkpt>
      <trkpt lat="53.93354999832809" lon="-9.912246996536851">
        <ele>13.6</ele>
        <time>2026-07-03T12:37:12Z</time>
      </trkpt>
      <trkpt lat="53.933602971956134" lon="-9.912025965750217">
        <ele>13.6</ele>
        <time>2026-07-03T12:37:13Z</time>
      </trkpt>
      <trkpt lat="53.933686958625913" lon="-9.911829996854067">
        <ele>13.6</ele>
        <time>2026-07-03T12:37:14Z</time>
      </trkpt>
      <trkpt lat="53.933790978044271" lon="-9.911653976887465">
        <ele>13.6</ele>
        <time>2026-07-03T12:37:15Z</time>
      </trkpt>
      <trkpt lat="53.933912012726068" lon="-9.911504024639726">
        <ele>13.6</ele>
        <time>2026-07-03T12:37:16Z</time>
      </trkpt>
      <trkpt lat="53.934038998559117" lon="-9.911348959431052">
        <ele>13.119999999999999</ele>
        <time>2026-07-03T12:37:17Z</time>
      </trkpt>
      <trkpt lat="53.935710014775395" lon="-9.909359011799097">
        <ele>11.67</ele>
        <time>2026-07-03T12:37:29Z</time>
      </trkpt>
      <trkpt lat="53.936866968870163" lon="-9.907867033034563">
        <ele>11.67</ele>
        <time>2026-07-03T12:37:38Z</time>
      </trkpt>
      <trkpt lat="53.938130959868431" lon="-9.905257998034358">
        <ele>15.039999999999999</ele>
        <time>2026-07-03T12:37:50Z</time>
      </trkpt>
      <trkpt lat="53.938645021989942" lon="-9.902924979105592">
        <ele>15.52</ele>
        <time>2026-07-03T12:37:59Z</time>
      </trkpt>
      <trkpt lat="53.939361004158854" lon="-9.900308987125754">
        <ele>22.25</ele>
        <time>2026-07-03T12:38:10Z</time>
      </trkpt>
      <trkpt lat="53.940249988809228" lon="-9.897787962108851">
        <ele>21.77</ele>
        <time>2026-07-03T12:38:20Z</time>
      </trkpt>
      <trkpt lat="53.941573994234204" lon="-9.89383103325963">
        <ele>26.57</ele>
        <time>2026-07-03T12:38:35Z</time>
      </trkpt>
      <trkpt lat="53.942757016047835" lon="-9.890711037442088">
        <ele>27.050000000000001</ele>
        <time>2026-07-03T12:38:47Z</time>
      </trkpt>
      <trkpt lat="53.943397980183363" lon="-9.888595025986433">
        <ele>23.690000000000001</ele>
        <time>2026-07-03T12:38:55Z</time>
      </trkpt>
      <trkpt lat="53.944187974557281" lon="-9.884726023301482">
        <ele>17.440000000000001</ele>
        <time>2026-07-03T12:39:09Z</time>
      </trkpt>
      <trkpt lat="53.94500101916492" lon="-9.881074028089643">
        <ele>22.25</ele>
        <time>2026-07-03T12:39:23Z</time>
      </trkpt>
      <trkpt lat="53.946008021011949" lon="-9.878074983134866">
        <ele>25.129999999999999</ele>
        <time>2026-07-03T12:39:35Z</time>
      </trkpt>
      <trkpt lat="53.946926007047296" lon="-9.876186037436128">
        <ele>28.98</ele>
        <time>2026-07-03T12:39:44Z</time>
      </trkpt>
      <trkpt lat="53.947918005287647" lon="-9.874681988731027">
        <ele>25.129999999999999</ele>
        <time>2026-07-03T12:39:53Z</time>
      </trkpt>
      <trkpt lat="53.949209991842508" lon="-9.873051038011909">
        <ele>20.809999999999999</ele>
        <time>2026-07-03T12:40:04Z</time>
      </trkpt>
      <trkpt lat="53.949449965730309" lon="-9.872468998655677">
        <ele>20.32</ele>
        <time>2026-07-03T12:40:07Z</time>
      </trkpt>
      <trkpt lat="53.950024964287877" lon="-9.869742030277848">
        <ele>18.399999999999999</ele>
        <time>2026-07-03T12:40:19Z</time>
      </trkpt>
      <trkpt lat="53.950137030333281" lon="-9.86920801922679">
        <ele>18.879999999999999</ele>
        <time>2026-07-03T12:40:25Z</time>
      </trkpt>
      <trkpt lat="53.950274996459484" lon="-9.868507962673903">
        <ele>19.359999999999999</ele>
        <time>2026-07-03T12:40:31Z</time>
      </trkpt>
      <trkpt lat="53.950600968673825" lon="-9.866790007799864">
        <ele>18.399999999999999</ele>
        <time>2026-07-03T12:40:38Z</time>
      </trkpt>
      <trkpt lat="53.951275963336229" lon="-9.863219987601042">
        <ele>22.73</ele>
        <time>2026-07-03T12:40:49Z</time>
      </trkpt>
      <trkpt lat="53.951981971040368" lon="-9.85943203791976">
        <ele>24.649999999999999</ele>
        <time>2026-07-03T12:41:00Z</time>
      </trkpt>
      <trkpt lat="53.952363012358546" lon="-9.857068005949259">
        <ele>23.210000000000001</ele>
        <time>2026-07-03T12:41:08Z</time>
      </trkpt>
      <trkpt lat="53.952933987602592" lon="-9.854093017056584">
        <ele>18.399999999999999</ele>
        <time>2026-07-03T12:41:19Z</time>
      </trkpt>
      <trkpt lat="53.953543016687036" lon="-9.850636990740895">
        <ele>16</ele>
        <time>2026-07-03T12:41:31Z</time>
      </trkpt>
      <trkpt lat="53.954296968877316" lon="-9.846637984737754">
        <ele>13.6</ele>
        <time>2026-07-03T12:41:45Z</time>
      </trkpt>
      <trkpt lat="53.954328987747431" lon="-9.845753023400903">
        <ele>12.15</ele>
        <time>2026-07-03T12:41:48Z</time>
      </trkpt>
      <trkpt lat="53.954303003847599" lon="-9.84546803869307">
        <ele>12.15</ele>
        <time>2026-07-03T12:41:49Z</time>
      </trkpt>
      <trkpt lat="53.954277019947767" lon="-9.845184981822968">
        <ele>12.15</ele>
        <time>2026-07-03T12:41:50Z</time>
      </trkpt>
      <trkpt lat="53.954232009127736" lon="-9.844909971579909">
        <ele>12.630000000000001</ele>
        <time>2026-07-03T12:41:51Z</time>
      </trkpt>
      <trkpt lat="53.954170988872647" lon="-9.844636972993612">
        <ele>12.630000000000001</ele>
        <time>2026-07-03T12:41:52Z</time>
      </trkpt>
      <trkpt lat="53.954108040779829" lon="-9.844353999942541">
        <ele>12.630000000000001</ele>
        <time>2026-07-03T12:41:53Z</time>
      </trkpt>
      <trkpt lat="53.953548967838287" lon="-9.841809002682567">
        <ele>10.710000000000001</ele>
        <time>2026-07-03T12:42:02Z</time>
      </trkpt>
      <trkpt lat="53.952497960999608" lon="-9.839364001527429">
        <ele>7.83</ele>
        <time>2026-07-03T12:42:12Z</time>
      </trkpt>
      <trkpt lat="53.951502023264766" lon="-9.836711967363954">
        <ele>3.5</ele>
        <time>2026-07-03T12:42:22Z</time>
      </trkpt>
      <trkpt lat="53.950372980907559" lon="-9.834553962573409">
        <ele>2.06</ele>
        <time>2026-07-03T12:42:31Z</time>
      </trkpt>
      <trkpt lat="53.949109995737672" lon="-9.833023007959127">
        <ele>2.06</ele>
        <time>2026-07-03T12:42:40Z</time>
      </trkpt>
      <trkpt lat="53.947626985609531" lon="-9.831778965890408">
        <ele>4.94</ele>
        <time>2026-07-03T12:42:51Z</time>
      </trkpt>
      <trkpt lat="53.946254029870033" lon="-9.831044040620327">
        <ele>5.42</ele>
        <time>2026-07-03T12:42:59Z</time>
      </trkpt>
      <trkpt lat="53.94487302750349" lon="-9.830252034589648">
        <ele>3.02</ele>
        <time>2026-07-03T12:43:07Z</time>
      </trkpt>
      <trkpt lat="53.944728020578623" lon="-9.830163018777967">
        <ele>3.5</ele>
        <time>2026-07-03T12:43:08Z</time>
      </trkpt>
      <trkpt lat="53.944582007825375" lon="-9.830103004351258">
        <ele>3.98</ele>
        <time>2026-07-03T12:43:09Z</time>
      </trkpt>
      <trkpt lat="53.944425014778972" lon="-9.830103004351258">
        <ele>4.46</ele>
        <time>2026-07-03T12:43:10Z</time>
      </trkpt>
      <trkpt lat="53.942891964688897" lon="-9.830221021547914">
        <ele>7.83</ele>
        <time>2026-07-03T12:43:19Z</time>
      </trkpt>
      <trkpt lat="53.942721979692578" lon="-9.830142986029387">
        <ele>7.83</ele>
        <time>2026-07-03T12:43:20Z</time>
      </trkpt>
      <trkpt lat="53.942549983039498" lon="-9.830064028501511">
        <ele>7.83</ele>
        <time>2026-07-03T12:43:21Z</time>
      </trkpt>
      <trkpt lat="53.940972005948424" lon="-9.82943999581039">
        <ele>9.75</ele>
        <time>2026-07-03T12:43:30Z</time>
      </trkpt>
      <trkpt lat="53.938848031684756" lon="-9.828830966725946">
        <ele>10.710000000000001</ele>
        <time>2026-07-03T12:43:42Z</time>
      </trkpt>
      <trkpt lat="53.937691999599338" lon="-9.828498037531972">
        <ele>8.310000000000001</ele>
        <time>2026-07-03T12:43:49Z</time>
      </trkpt>
      <trkpt lat="53.937570964917541" lon="-9.828394018113613">
        <ele>8.310000000000001</ele>
        <time>2026-07-03T12:43:50Z</time>
      </trkpt>
      <trkpt lat="53.937454959377646" lon="-9.828287987038493">
        <ele>8.310000000000001</ele>
        <time>2026-07-03T12:43:51Z</time>
      </trkpt>
      <trkpt lat="53.937357980757952" lon="-9.828140968456864">
        <ele>8.310000000000001</ele>
        <time>2026-07-03T12:43:52Z</time>
      </trkpt>
      <trkpt lat="53.937279023230076" lon="-9.827961008995771">
        <ele>8.789999999999999</ele>
        <time>2026-07-03T12:43:53Z</time>
      </trkpt>
      <trkpt lat="53.937196964398026" lon="-9.827771997079253">
        <ele>9.27</ele>
        <time>2026-07-03T12:43:54Z</time>
      </trkpt>
      <trkpt lat="53.937106020748615" lon="-9.827564964070916">
        <ele>9.75</ele>
        <time>2026-07-03T12:43:55Z</time>
      </trkpt>
      <trkpt lat="53.936344021931291" lon="-9.826058987528086">
        <ele>10.710000000000001</ele>
        <time>2026-07-03T12:44:02Z</time>
      </trkpt>
      <trkpt lat="53.935703979805112" lon="-9.825152987614274">
        <ele>13.119999999999999</ele>
        <time>2026-07-03T12:44:07Z</time>
      </trkpt>
      <trkpt lat="53.934143017977476" lon="-9.823944987729192">
        <ele>18.399999999999999</ele>
        <time>2026-07-03T12:44:17Z</time>
      </trkpt>
      <trkpt lat="53.932860000059009" lon="-9.822831032797694">
        <ele>16.960000000000001</ele>
        <time>2026-07-03T12:44:25Z</time>
      </trkpt>
      <trkpt lat="53.931558961048722" lon="-9.821293037384749">
        <ele>14.56</ele>
        <time>2026-07-03T12:44:34Z</time>
      </trkpt>
      <trkpt lat="53.929919041693211" lon="-9.819255983456969">
        <ele>16.960000000000001</ele>
        <time>2026-07-03T12:44:46Z</time>
      </trkpt>
      <trkpt lat="53.928493028506637" lon="-9.81796701438725">
        <ele>19.359999999999999</ele>
        <time>2026-07-03T12:44:55Z</time>
      </trkpt>
      <trkpt lat="53.926334017887712" lon="-9.815610023215413">
        <ele>20.809999999999999</ele>
        <time>2026-07-03T12:45:10Z</time>
      </trkpt>
      <trkpt lat="53.925578976050019" lon="-9.814695976674557">
        <ele>21.77</ele>
        <time>2026-07-03T12:45:16Z</time>
      </trkpt>
      <trkpt lat="53.925434974953532" lon="-9.814647026360035">
        <ele>22.25</ele>
        <time>2026-07-03T12:45:17Z</time>
      </trkpt>
      <trkpt lat="53.925286028534174" lon="-9.81459598056972">
        <ele>22.25</ele>
        <time>2026-07-03T12:45:18Z</time>
      </trkpt>
      <trkpt lat="53.925134986639023" lon="-9.814543006941676">
        <ele>22.25</ele>
        <time>2026-07-03T12:45:19Z</time>
      </trkpt>
      <trkpt lat="53.924972964450717" lon="-9.814514005556703">
        <ele>21.77</ele>
        <time>2026-07-03T12:45:20Z</time>
      </trkpt>
      <trkpt lat="53.924817983061075" lon="-9.814548958092928">
        <ele>21.289999999999999</ele>
        <time>2026-07-03T12:45:21Z</time>
      </trkpt>
      <trkpt lat="53.924658978357911" lon="-9.814585000276566">
        <ele>20.809999999999999</ele>
        <time>2026-07-03T12:45:22Z</time>
      </trkpt>
      <trkpt lat="53.924501985311508" lon="-9.814620036631823">
        <ele>20.32</ele>
        <time>2026-07-03T12:45:23Z</time>
      </trkpt>
      <trkpt lat="53.924353960901499" lon="-9.814653983339667">
        <ele>19.84</ele>
        <time>2026-07-03T12:45:24Z</time>
      </trkpt>
      <trkpt lat="53.924209037795663" lon="-9.81463897973299">
        <ele>19.84</ele>
        <time>2026-07-03T12:45:25Z</time>
      </trkpt>
      <trkpt lat="53.924109041690826" lon="-9.814605033025146">
        <ele>19.359999999999999</ele>
        <time>2026-07-03T12:45:26Z</time>
      </trkpt>
      <trkpt lat="53.924017008394003" lon="-9.814521968364716">
        <ele>18.879999999999999</ele>
        <time>2026-07-03T12:45:27Z</time>
      </trkpt>
      <trkpt lat="53.923924975097179" lon="-9.814438987523317">
        <ele>18.879999999999999</ele>
        <time>2026-07-03T12:45:28Z</time>
      </trkpt>
      <trkpt lat="53.923846017569304" lon="-9.814328011125326">
        <ele>18.879999999999999</ele>
        <time>2026-07-03T12:45:29Z</time>
      </trkpt>
      <trkpt lat="53.923478974029422" lon="-9.813811015337706">
        <ele>19.84</ele>
        <time>2026-07-03T12:45:33Z</time>
      </trkpt>
      <trkpt lat="53.923369003459811" lon="-9.813698027282953">
        <ele>20.32</ele>
        <time>2026-07-03T12:45:34Z</time>
      </trkpt>
      <trkpt lat="53.923255009576678" lon="-9.813595013692975">
        <ele>20.32</ele>
        <time>2026-07-03T12:45:35Z</time>
      </trkpt>
      <trkpt lat="53.923131041228771" lon="-9.813526030629873">
        <ele>20.809999999999999</ele>
        <time>2026-07-03T12:45:36Z</time>
      </trkpt>
      <trkpt lat="53.922999026253819" lon="-9.813474984839559">
        <ele>20.809999999999999</ele>
        <time>2026-07-03T12:45:37Z</time>
      </trkpt>
      <trkpt lat="53.922861982136965" lon="-9.813421005383134">
        <ele>20.809999999999999</ele>
        <time>2026-07-03T12:45:38Z</time>
      </trkpt>
      <trkpt lat="53.922717981040478" lon="-9.813384963199496">
        <ele>21.289999999999999</ele>
        <time>2026-07-03T12:45:39Z</time>
      </trkpt>
      <trkpt lat="53.92113002948463" lon="-9.813033007085323">
        <ele>21.289999999999999</ele>
        <time>2026-07-03T12:45:49Z</time>
      </trkpt>
      <trkpt lat="53.92068000510335" lon="-9.812894035130739">
        <ele>21.289999999999999</ele>
        <time>2026-07-03T12:45:52Z</time>
      </trkpt>
      <trkpt lat="53.920548995956779" lon="-9.812799990177155">
        <ele>21.289999999999999</ele>
        <time>2026-07-03T12:45:53Z</time>
      </trkpt>
      <trkpt lat="53.920425027608871" lon="-9.812670992687345">
        <ele>20.809999999999999</ele>
        <time>2026-07-03T12:45:54Z</time>
      </trkpt>
      <trkpt lat="53.920320002362132" lon="-9.812497990205884">
        <ele>20.809999999999999</ele>
        <time>2026-07-03T12:45:55Z</time>
      </trkpt>
      <trkpt lat="53.920216988772154" lon="-9.812307972460985">
        <ele>21.289999999999999</ele>
        <time>2026-07-03T12:45:56Z</time>
      </trkpt>
      <trkpt lat="53.920139959082007" lon="-9.812085013836622">
        <ele>21.77</ele>
        <time>2026-07-03T12:45:57Z</time>
      </trkpt>
      <trkpt lat="53.919895961880684" lon="-9.811466010287404">
        <ele>21.77</ele>
        <time>2026-07-03T12:46:00Z</time>
      </trkpt>
      <trkpt lat="53.919795965775847" lon="-9.811266018077731">
        <ele>21.77</ele>
        <time>2026-07-03T12:46:01Z</time>
      </trkpt>
      <trkpt lat="53.919669985771179" lon="-9.811100978404284">
        <ele>21.289999999999999</ele>
        <time>2026-07-03T12:46:02Z</time>
      </trkpt>
      <trkpt lat="53.918259982019663" lon="-9.809488970786333">
        <ele>17.440000000000001</ele>
        <time>2026-07-03T12:46:12Z</time>
      </trkpt>
      <trkpt lat="53.917139992117882" lon="-9.808894023299217">
        <ele>17.920000000000002</ele>
        <time>2026-07-03T12:46:19Z</time>
      </trkpt>
      <trkpt lat="53.915882036089897" lon="-9.808582970872521">
        <ele>14.08</ele>
        <time>2026-07-03T12:46:27Z</time>
      </trkpt>
      <trkpt lat="53.9157800283283" lon="-9.808562016114593">
        <ele>13.6</ele>
        <time>2026-07-03T12:46:28Z</time>
      </trkpt>
      <trkpt lat="53.915696041658521" lon="-9.808465037494898">
        <ele>13.6</ele>
        <time>2026-07-03T12:46:29Z</time>
      </trkpt>
      <trkpt lat="53.915604008361697" lon="-9.808349031955004">
        <ele>13.6</ele>
        <time>2026-07-03T12:46:30Z</time>
      </trkpt>
      <trkpt lat="53.915506023913622" lon="-9.808226991444826">
        <ele>14.08</ele>
        <time>2026-07-03T12:46:31Z</time>
      </trkpt>
      <trkpt lat="53.915405021980405" lon="-9.808098999783397">
        <ele>14.08</ele>
        <time>2026-07-03T12:46:32Z</time>
      </trkpt>
      <trkpt lat="53.914464991539717" lon="-9.806933999061585">
        <ele>14.08</ele>
        <time>2026-07-03T12:46:40Z</time>
      </trkpt>
      <trkpt lat="53.913414990529418" lon="-9.806040991097689">
        <ele>14.08</ele>
        <time>2026-07-03T12:46:48Z</time>
      </trkpt>
      <trkpt lat="53.912512008100748" lon="-9.805268011987209">
        <ele>13.119999999999999</ele>
        <time>2026-07-03T12:46:55Z</time>
      </trkpt>
      <trkpt lat="53.912402959540486" lon="-9.805129040032625">
        <ele>13.119999999999999</ele>
        <time>2026-07-03T12:46:56Z</time>
      </trkpt>
      <trkpt lat="53.912314027547836" lon="-9.804951008409262">
        <ele>13.119999999999999</ele>
        <time>2026-07-03T12:46:57Z</time>
      </trkpt>
      <trkpt lat="53.912209002301097" lon="-9.804740035906434">
        <ele>13.119999999999999</ele>
        <time>2026-07-03T12:46:58Z</time>
      </trkpt>
      <trkpt lat="53.912140019237995" lon="-9.804555969312787">
        <ele>13.119999999999999</ele>
        <time>2026-07-03T12:46:59Z</time>
      </trkpt>
      <trkpt lat="53.911402998492122" lon="-9.80294999666512">
        <ele>12.630000000000001</ele>
        <time>2026-07-03T12:47:07Z</time>
      </trkpt>
      <trkpt lat="53.911278024315834" lon="-9.802802978083491">
        <ele>13.6</ele>
        <time>2026-07-03T12:47:08Z</time>
      </trkpt>
      <trkpt lat="53.91034796833992" lon="-9.801892032846808">
        <ele>17.920000000000002</ele>
        <time>2026-07-03T12:47:15Z</time>
      </trkpt>
      <trkpt lat="53.910231040790677" lon="-9.801850039511919">
        <ele>17.920000000000002</ele>
        <time>2026-07-03T12:47:16Z</time>
      </trkpt>
      <trkpt lat="53.910109000280499" lon="-9.801830006763339">
        <ele>17.920000000000002</ele>
        <time>2026-07-03T12:47:17Z</time>
      </trkpt>
      <trkpt lat="53.909982014447451" lon="-9.801851967349649">
        <ele>18.399999999999999</ele>
        <time>2026-07-03T12:47:18Z</time>
      </trkpt>
      <trkpt lat="53.909854022786021" lon="-9.801898989826441">
        <ele>18.399999999999999</ele>
        <time>2026-07-03T12:47:19Z</time>
      </trkpt>
      <trkpt lat="53.909454960376024" lon="-9.802036033943296">
        <ele>20.32</ele>
        <time>2026-07-03T12:47:22Z</time>
      </trkpt>
      <trkpt lat="53.909321017563343" lon="-9.802036033943296">
        <ele>20.809999999999999</ele>
        <time>2026-07-03T12:47:23Z</time>
      </trkpt>
      <trkpt lat="53.909192020073533" lon="-9.802017007023096">
        <ele>21.77</ele>
        <time>2026-07-03T12:47:24Z</time>
      </trkpt>
      <trkpt lat="53.909072997048497" lon="-9.801948023959994">
        <ele>22.73</ele>
        <time>2026-07-03T12:47:25Z</time>
      </trkpt>
      <trkpt lat="53.908950034528971" lon="-9.801876023411751">
        <ele>24.170000000000002</ele>
        <time>2026-07-03T12:47:26Z</time>
      </trkpt>
      <trkpt lat="53.908818019554019" lon="-9.801799999549985">
        <ele>25.129999999999999</ele>
        <time>2026-07-03T12:47:27Z</time>
      </trkpt>
      <trkpt lat="53.908694973215461" lon="-9.801688017323613">
        <ele>26.09</ele>
        <time>2026-07-03T12:47:28Z</time>
      </trkpt>
      <trkpt lat="53.907593004405499" lon="-9.800723008811474">
        <ele>29.940000000000001</ele>
        <time>2026-07-03T12:47:36Z</time>
      </trkpt>
      <trkpt lat="53.907493008300662" lon="-9.800584958866239">
        <ele>30.899999999999999</ele>
        <time>2026-07-03T12:47:37Z</time>
      </trkpt>
      <trkpt lat="53.907394018024206" lon="-9.80043601244688">
        <ele>31.379999999999999</ele>
        <time>2026-07-03T12:47:38Z</time>
      </trkpt>
      <trkpt lat="53.907324029132724" lon="-9.80024297721684">
        <ele>31.859999999999999</ele>
        <time>2026-07-03T12:47:39Z</time>
      </trkpt>
      <trkpt lat="53.907267032191157" lon="-9.800019012764096">
        <ele>31.859999999999999</ele>
        <time>2026-07-03T12:47:40Z</time>
      </trkpt>
      <trkpt lat="53.907207017764449" lon="-9.799779960885644">
        <ele>31.859999999999999</ele>
        <time>2026-07-03T12:47:41Z</time>
      </trkpt>
      <trkpt lat="53.90660997480154" lon="-9.797184001654387">
        <ele>37.630000000000003</ele>
        <time>2026-07-03T12:47:51Z</time>
      </trkpt>
      <trkpt lat="53.906153999269009" lon="-9.794617965817452">
        <ele>38.590000000000003</ele>
        <time>2026-07-03T12:48:01Z</time>
      </trkpt>
      <trkpt lat="53.906140001490712" lon="-9.794378997758031">
        <ele>38.590000000000003</ele>
        <time>2026-07-03T12:48:02Z</time>
      </trkpt>
      <trkpt lat="53.906153999269009" lon="-9.794131983071566">
        <ele>38.590000000000003</ele>
        <time>2026-07-03T12:48:03Z</time>
      </trkpt>
      <trkpt lat="53.906259024515748" lon="-9.792698007076979">
        <ele>36.189999999999998</ele>
        <time>2026-07-03T12:48:09Z</time>
      </trkpt>
      <trkpt lat="53.906313003972173" lon="-9.792501032352448">
        <ele>35.710000000000001</ele>
        <time>2026-07-03T12:48:10Z</time>
      </trkpt>
      <trkpt lat="53.906366983428597" lon="-9.792306991294026">
        <ele>35.229999999999997</ele>
        <time>2026-07-03T12:48:11Z</time>
      </trkpt>
      <trkpt lat="53.90643697232008" lon="-9.792131977155805">
        <ele>34.740000000000002</ele>
        <time>2026-07-03T12:48:12Z</time>
      </trkpt>
      <trkpt lat="53.906524982303381" lon="-9.791973978281021">
        <ele>34.259999999999998</ele>
        <time>2026-07-03T12:48:13Z</time>
      </trkpt>
      <trkpt lat="53.906612992286682" lon="-9.791815979406238">
        <ele>34.259999999999998</ele>
        <time>2026-07-03T12:48:14Z</time>
      </trkpt>
      <trkpt lat="53.907244987785816" lon="-9.790622983127832">
        <ele>28.5</ele>
        <time>2026-07-03T12:48:23Z</time>
      </trkpt>
      <trkpt lat="53.907281029969454" lon="-9.790499014779925">
        <ele>27.530000000000001</ele>
        <time>2026-07-03T12:48:24Z</time>
      </trkpt>
      <trkpt lat="53.90729502774775" lon="-9.790388038381934">
        <ele>27.050000000000001</ele>
        <time>2026-07-03T12:48:25Z</time>
      </trkpt>
      <trkpt lat="53.90729502774775" lon="-9.790302040055394">
        <ele>27.050000000000001</ele>
        <time>2026-07-03T12:48:26Z</time>
      </trkpt>
      <trkpt lat="53.90729502774775" lon="-9.7902309615165">
        <ele>26.57</ele>
        <time>2026-07-03T12:48:27Z</time>
      </trkpt>
      <trkpt lat="53.907384965568781" lon="-9.790129037573934">
        <ele>26.57</ele>
        <time>2026-07-03T12:48:28Z</time>
      </trkpt>
      <trkpt lat="53.907439028844237" lon="-9.790116967633367">
        <ele>26.57</ele>
        <time>2026-07-03T12:48:29Z</time>
      </trkpt>
      <trkpt lat="53.907513041049242" lon="-9.790117973461747">
        <ele>26.09</ele>
        <time>2026-07-03T12:48:30Z</time>
      </trkpt>
      <trkpt lat="53.907593004405499" lon="-9.790157033130527">
        <ele>26.09</ele>
        <time>2026-07-03T12:48:31Z</time>
      </trkpt>
      <trkpt lat="53.907688977196813" lon="-9.790203971788287">
        <ele>26.09</ele>
        <time>2026-07-03T12:48:32Z</time>
      </trkpt>
      <trkpt lat="53.907797019928694" lon="-9.790257029235363">
        <ele>26.09</ele>
        <time>2026-07-03T12:48:33Z</time>
      </trkpt>
      <trkpt lat="53.907913025468588" lon="-9.790313020348549">
        <ele>26.09</ele>
        <time>2026-07-03T12:48:34Z</time>
      </trkpt>
      <trkpt lat="53.908810978755355" lon="-9.790585013106465">
        <ele>25.609999999999999</ele>
        <time>2026-07-03T12:48:41Z</time>
      </trkpt>
      <trkpt lat="53.909046007320285" lon="-9.790633963420987">
        <ele>24.170000000000002</ele>
        <time>2026-07-03T12:48:43Z</time>
      </trkpt>
      <trkpt lat="53.909138962626457" lon="-9.790727002546191">
        <ele>23.690000000000001</ele>
        <time>2026-07-03T12:48:44Z</time>
      </trkpt>
      <trkpt lat="53.909226972609758" lon="-9.790840996429324">
        <ele>23.210000000000001</ele>
        <time>2026-07-03T12:48:45Z</time>
      </trkpt>
      <trkpt lat="53.909312970936298" lon="-9.790961025282741">
        <ele>22.73</ele>
        <time>2026-07-03T12:48:46Z</time>
      </trkpt>
      <trkpt lat="53.909397041425109" lon="-9.791078958660364">
        <ele>22.25</ele>
        <time>2026-07-03T12:48:47Z</time>
      </trkpt>
      <trkpt lat="53.909479016438127" lon="-9.791193036362529">
        <ele>22.25</ele>
        <time>2026-07-03T12:48:48Z</time>
      </trkpt>
      <trkpt lat="53.909554034471512" lon="-9.791247015818954">
        <ele>21.289999999999999</ele>
        <time>2026-07-03T12:48:49Z</time>
      </trkpt>
      <trkpt lat="53.909612037241459" lon="-9.791285991668701">
        <ele>20.809999999999999</ele>
        <time>2026-07-03T12:48:50Z</time>
      </trkpt>
      <trkpt lat="53.909750003367662" lon="-9.791275011375547">
        <ele>19.84</ele>
        <time>2026-07-03T12:48:51Z</time>
      </trkpt>
      <trkpt lat="53.909866008907557" lon="-9.791265036910772">
        <ele>19.359999999999999</ele>
        <time>2026-07-03T12:48:52Z</time>
      </trkpt>
      <trkpt lat="53.909980002790689" lon="-9.791214996948838">
        <ele>18.399999999999999</ele>
        <time>2026-07-03T12:48:53Z</time>
      </trkpt>
      <trkpt lat="53.910103971138597" lon="-9.791159005835652">
        <ele>17.440000000000001</ele>
        <time>2026-07-03T12:48:54Z</time>
      </trkpt>
      <trkpt lat="53.910214025527239" lon="-9.791043000295758">
        <ele>16.48</ele>
        <time>2026-07-03T12:48:55Z</time>
      </trkpt>
      <trkpt lat="53.910328019410372" lon="-9.790922971442342">
        <ele>15.039999999999999</ele>
        <time>2026-07-03T12:48:56Z</time>
      </trkpt>
      <trkpt lat="53.910444024950266" lon="-9.790801014751196">
        <ele>13.6</ele>
        <time>2026-07-03T12:48:57Z</time>
      </trkpt>
      <trkpt lat="53.910548966377974" lon="-9.790670005604625">
        <ele>12.15</ele>
        <time>2026-07-03T12:48:58Z</time>
      </trkpt>
      <trkpt lat="53.9106460288167" lon="-9.790533967316151">
        <ele>10.710000000000001</ele>
        <time>2026-07-03T12:48:59Z</time>
      </trkpt>
      <trkpt lat="53.911147015169263" lon="-9.789931979030371">
        <ele>4.94</ele>
        <time>2026-07-03T12:49:04Z</time>
      </trkpt>
      <trkpt lat="53.911237958818674" lon="-9.789858972653747">
        <ele>3.5</ele>
        <time>2026-07-03T12:49:05Z</time>
      </trkpt>
      <trkpt lat="53.911324040964246" lon="-9.789835000410676">
        <ele>2.06</ele>
        <time>2026-07-03T12:49:06Z</time>
      </trkpt>
      <trkpt lat="53.911407021805644" lon="-9.789842963218689">
        <ele>1.1</ele>
        <time>2026-07-03T12:49:07Z</time>
      </trkpt>
      <trkpt lat="53.911501988768578" lon="-9.789870958775282">
        <ele>0.62</ele>
        <time>2026-07-03T12:49:08Z</time>
      </trkpt>
      <trkpt lat="53.911573989316821" lon="-9.789986964315176">
        <ele>0.62</ele>
        <time>2026-07-03T12:49:09Z</time>
      </trkpt>
      <trkpt lat="53.911652024835348" lon="-9.790113028138876">
        <ele>0.14</ele>
        <time>2026-07-03T12:49:10Z</time>
      </trkpt>
      <trkpt lat="53.911738023161888" lon="-9.790249988436699">
        <ele>0.14</ele>
        <time>2026-07-03T12:49:11Z</time>
      </trkpt>
      <trkpt lat="53.911828966811299" lon="-9.790394995361567">
        <ele>0.14</ele>
        <time>2026-07-03T12:49:12Z</time>
      </trkpt>
      <trkpt lat="53.911927035078406" lon="-9.79055198840797">
        <ele>-0.34</ele>
        <time>2026-07-03T12:49:13Z</time>
      </trkpt>
      <trkpt lat="53.912029964849353" lon="-9.790717028081417">
        <ele>-0.34</ele>
        <time>2026-07-03T12:49:14Z</time>
      </trkpt>
      <trkpt lat="53.912135995924473" lon="-9.790886007249355">
        <ele>-0.82</ele>
        <time>2026-07-03T12:49:15Z</time>
      </trkpt>
      <trkpt lat="53.913046019151807" lon="-9.792594993487001">
        <ele>3.02</ele>
        <time>2026-07-03T12:49:24Z</time>
      </trkpt>
      <trkpt lat="53.913145009428263" lon="-9.792733965441585">
        <ele>4.46</ele>
        <time>2026-07-03T12:49:25Z</time>
      </trkpt>
      <trkpt lat="53.913797037675977" lon="-9.79364600032568">
        <ele>9.27</ele>
        <time>2026-07-03T12:49:31Z</time>
      </trkpt>
      <trkpt lat="53.913923017680645" lon="-9.793725041672587">
        <ele>9.75</ele>
        <time>2026-07-03T12:49:32Z</time>
      </trkpt>
      <trkpt lat="53.914051009342074" lon="-9.793805005028844">
        <ele>9.75</ele>
        <time>2026-07-03T12:49:33Z</time>
      </trkpt>
      <trkpt lat="53.914185035973787" lon="-9.793868036940694">
        <ele>9.75</ele>
        <time>2026-07-03T12:49:34Z</time>
      </trkpt>
      <trkpt lat="53.914333982393146" lon="-9.793892009183765">
        <ele>9.75</ele>
        <time>2026-07-03T12:49:35Z</time>
      </trkpt>
      <trkpt lat="53.914487035945058" lon="-9.793915981426835">
        <ele>9.75</ele>
        <time>2026-07-03T12:49:36Z</time>
      </trkpt>
      <trkpt lat="53.915913971140981" lon="-9.794213036075234">
        <ele>3.98</ele>
        <time>2026-07-03T12:49:45Z</time>
      </trkpt>
      <trkpt lat="53.916947962716222" lon="-9.794429037719965">
        <ele>2.06</ele>
        <time>2026-07-03T12:49:52Z</time>
      </trkpt>
      <trkpt lat="53.917079977691174" lon="-9.794500032439828">
        <ele>2.06</ele>
        <time>2026-07-03T12:49:53Z</time>
      </trkpt>
      <trkpt lat="53.918356960639358" lon="-9.794988026842475">
        <ele>-0.34</ele>
        <time>2026-07-03T12:50:02Z</time>
      </trkpt>
      <trkpt lat="53.91849098727107" lon="-9.795015016570687">
        <ele>-0.34</ele>
        <time>2026-07-03T12:50:03Z</time>
      </trkpt>
      <trkpt lat="53.918617973104119" lon="-9.795092968270183">
        <ele>-0.34</ele>
        <time>2026-07-03T12:50:04Z</time>
      </trkpt>
      <trkpt lat="53.918864987790585" lon="-9.795270999893546">
        <ele>0.62</ele>
        <time>2026-07-03T12:50:06Z</time>
      </trkpt>
      <trkpt lat="53.918988034129143" lon="-9.795312993228436">
        <ele>0.62</ele>
        <time>2026-07-03T12:50:07Z</time>
      </trkpt>
      <trkpt lat="53.919109990820289" lon="-9.795333025977016">
        <ele>0.62</ele>
        <time>2026-07-03T12:50:08Z</time>
      </trkpt>
      <trkpt lat="53.919232031330466" lon="-9.795304024592042">
        <ele>0.62</ele>
        <time>2026-07-03T12:50:09Z</time>
      </trkpt>
      <trkpt lat="53.91934996470809" lon="-9.795241998508573">
        <ele>0.14</ele>
        <time>2026-07-03T12:50:10Z</time>
      </trkpt>
      <trkpt lat="53.919470999389887" lon="-9.795177960768342">
        <ele>0.62</ele>
        <time>2026-07-03T12:50:11Z</time>
      </trkpt>
      <trkpt lat="53.920470960438251" lon="-9.794704969972372">
        <ele>2.06</ele>
        <time>2026-07-03T12:50:18Z</time>
      </trkpt>
      <trkpt lat="53.9206169731915" lon="-9.794688960537314">
        <ele>2.06</ele>
        <time>2026-07-03T12:50:19Z</time>
      </trkpt>
      <trkpt lat="53.920760974287987" lon="-9.794673034921289">
        <ele>2.54</ele>
        <time>2026-07-03T12:50:20Z</time>
      </trkpt>
      <trkpt lat="53.921160036697984" lon="-9.794607991352677">
        <ele>3.02</ele>
        <time>2026-07-03T12:50:23Z</time>
      </trkpt>
      <trkpt lat="53.921293979510665" lon="-9.794533979147673">
        <ele>3.02</ele>
        <time>2026-07-03T12:50:24Z</time>
      </trkpt>
      <trkpt lat="53.921430017799139" lon="-9.794458039104939">
        <ele>3.02</ele>
        <time>2026-07-03T12:50:25Z</time>
      </trkpt>
      <trkpt lat="53.921565972268581" lon="-9.794382015243173">
        <ele>2.54</ele>
        <time>2026-07-03T12:50:26Z</time>
      </trkpt>
      <trkpt lat="53.921698993071914" lon="-9.794304985553026">
        <ele>2.54</ele>
        <time>2026-07-03T12:50:27Z</time>
      </trkpt>
      <trkpt lat="53.921820027753711" lon="-9.794185040518642">
        <ele>2.54</ele>
        <time>2026-07-03T12:50:28Z</time>
      </trkpt>
      <trkpt lat="53.922829041257501" lon="-9.792948039248586">
        <ele>1.1</ele>
        <time>2026-07-03T12:50:36Z</time>
      </trkpt>
      <trkpt lat="53.923504035919905" lon="-9.792029969394207">
        <ele>0.14</ele>
        <time>2026-07-03T12:50:42Z</time>
      </trkpt>
      <trkpt lat="53.923607971519232" lon="-9.791929973289371">
        <ele>0.62</ele>
        <time>2026-07-03T12:50:43Z</time>
      </trkpt>
      <trkpt lat="53.923996975645423" lon="-9.791555972769857">
        <ele>2.06</ele>
        <time>2026-07-03T12:50:47Z</time>
      </trkpt>
      <trkpt lat="53.924081968143582" lon="-9.791447008028626">
        <ele>2.06</ele>
        <time>2026-07-03T12:50:48Z</time>
      </trkpt>
      <trkpt lat="53.924167966470122" lon="-9.791318010538817">
        <ele>2.54</ele>
        <time>2026-07-03T12:50:49Z</time>
      </trkpt>
      <trkpt lat="53.924353960901499" lon="-9.791039982810617">
        <ele>2.54</ele>
        <time>2026-07-03T12:50:51Z</time>
      </trkpt>
      <trkpt lat="53.924448005855083" lon="-9.790897993370891">
        <ele>2.54</ele>
        <time>2026-07-03T12:50:52Z</time>
      </trkpt>
      <trkpt lat="53.924552025273442" lon="-9.790774025022984">
        <ele>2.54</ele>
        <time>2026-07-03T12:50:53Z</time>
      </trkpt>
      <trkpt lat="53.924675993621349" lon="-9.790671011433005">
        <ele>2.54</ele>
        <time>2026-07-03T12:50:54Z</time>
      </trkpt>
      <trkpt lat="53.924809014424682" lon="-9.790576966479421">
        <ele>2.54</ele>
        <time>2026-07-03T12:50:55Z</time>
      </trkpt>
      <trkpt lat="53.924947986379266" lon="-9.790513012558222">
        <ele>2.06</ele>
        <time>2026-07-03T12:50:56Z</time>
      </trkpt>
      <trkpt lat="53.925083018839359" lon="-9.790448974817991">
        <ele>2.06</ele>
        <time>2026-07-03T12:50:57Z</time>
      </trkpt>
      <trkpt lat="53.926227986812592" lon="-9.790236996486783">
        <ele>-2.27</ele>
        <time>2026-07-03T12:51:05Z</time>
      </trkpt>
      <trkpt lat="53.927474962547421" lon="-9.790189974009991">
        <ele>-2.27</ele>
        <time>2026-07-03T12:51:14Z</time>
      </trkpt>
      <trkpt lat="53.927614018321037" lon="-9.790218975394964">
        <ele>-2.75</ele>
        <time>2026-07-03T12:51:15Z</time>
      </trkpt>
      <trkpt lat="53.927757013589144" lon="-9.790279995650053">
        <ele>-3.23</ele>
        <time>2026-07-03T12:51:16Z</time>
      </trkpt>
      <trkpt lat="53.929098034277558" lon="-9.790816018357873">
        <ele>-2.27</ele>
        <time>2026-07-03T12:51:25Z</time>
      </trkpt>
      <trkpt lat="53.929700022563338" lon="-9.790936969220638">
        <ele>-0.34</ele>
        <time>2026-07-03T12:51:29Z</time>
      </trkpt>
      <trkpt lat="53.929835977032781" lon="-9.791012993082404">
        <ele>0.14</ele>
        <time>2026-07-03T12:51:30Z</time>
      </trkpt>
      <trkpt lat="53.929965980350971" lon="-9.791084993630648">
        <ele>0.62</ele>
        <time>2026-07-03T12:51:31Z</time>
      </trkpt>
      <trkpt lat="53.931336002424359" lon="-9.791941959410906">
        <ele>2.06</ele>
        <time>2026-07-03T12:51:41Z</time>
      </trkpt>
      <trkpt lat="53.931734981015325" lon="-9.792142035439611">
        <ele>2.06</ele>
        <time>2026-07-03T12:51:44Z</time>
      </trkpt>
      <trkpt lat="53.931861966848373" lon="-9.792129965499044">
        <ele>2.06</ele>
        <time>2026-07-03T12:51:45Z</time>
      </trkpt>
      <trkpt lat="53.931986019015312" lon="-9.792091995477676">
        <ele>2.06</ele>
        <time>2026-07-03T12:51:46Z</time>
      </trkpt>
      <trkpt lat="53.932108981534839" lon="-9.792024018242955">
        <ele>2.06</ele>
        <time>2026-07-03T12:51:47Z</time>
      </trkpt>
      <trkpt lat="53.932236973196268" lon="-9.791954029351473">
        <ele>2.54</ele>
        <time>2026-07-03T12:51:48Z</time>
      </trkpt>
      <trkpt lat="53.932789005339146" lon="-9.791652029380202">
        <ele>3.02</ele>
        <time>2026-07-03T12:51:52Z</time>
      </trkpt>
      <trkpt lat="53.932926971465349" lon="-9.791628979146481">
        <ele>3.5</ele>
        <time>2026-07-03T12:51:53Z</time>
      </trkpt>
      <trkpt lat="53.93305404111743" lon="-9.791650017723441">
        <ele>4.46</ele>
        <time>2026-07-03T12:51:54Z</time>
      </trkpt>
      <trkpt lat="53.933160994201899" lon="-9.791717994958162">
        <ele>4.94</ele>
        <time>2026-07-03T12:51:55Z</time>
      </trkpt>
      <trkpt lat="53.93327297642827" lon="-9.791789995506406">
        <ele>4.94</ele>
        <time>2026-07-03T12:51:56Z</time>
      </trkpt>
      <trkpt lat="53.934028018265963" lon="-9.792209006845951">
        <ele>5.42</ele>
        <time>2026-07-03T12:52:02Z</time>
      </trkpt>
      <trkpt lat="53.93417201936245" lon="-9.792209006845951">
        <ele>4.94</ele>
        <time>2026-07-03T12:52:03Z</time>
      </trkpt>
      <trkpt lat="53.934320965781808" lon="-9.792209006845951">
        <ele>4.94</ele>
        <time>2026-07-03T12:52:04Z</time>
      </trkpt>
      <trkpt lat="53.934459015727043" lon="-9.792209006845951">
        <ele>4.46</ele>
        <time>2026-07-03T12:52:05Z</time>
      </trkpt>
      <trkpt lat="53.934575021266937" lon="-9.792114961892366">
        <ele>3.98</ele>
        <time>2026-07-03T12:52:06Z</time>
      </trkpt>
      <trkpt lat="53.934683986008167" lon="-9.792026029899716">
        <ele>3.5</ele>
        <time>2026-07-03T12:52:07Z</time>
      </trkpt>
      <trkpt lat="53.934795968234539" lon="-9.791933996602893">
        <ele>3.02</ele>
        <time>2026-07-03T12:52:08Z</time>
      </trkpt>
      <trkpt lat="53.935791989788413" lon="-9.791404008865356">
        <ele>-0.82</ele>
        <time>2026-07-03T12:52:15Z</time>
      </trkpt>
      <trkpt lat="53.937951000407338" lon="-9.790743011981249">
        <ele>-3.71</ele>
        <time>2026-07-03T12:52:28Z</time>
      </trkpt>
      <trkpt lat="53.940322995185852" lon="-9.790025018155575">
        <ele>-0.34</ele>
        <time>2026-07-03T12:52:42Z</time>
      </trkpt>
      <trkpt lat="53.941173003986478" lon="-9.789999034255743">
        <ele>-0.82</ele>
        <time>2026-07-03T12:52:47Z</time>
      </trkpt>
      <trkpt lat="53.941333014518023" lon="-9.790046978741884">
        <ele>-0.82</ele>
        <time>2026-07-03T12:52:48Z</time>
      </trkpt>
      <trkpt lat="53.941944977268577" lon="-9.7901860345155">
        <ele>0.62</ele>
        <time>2026-07-03T12:52:52Z</time>
      </trkpt>
      <trkpt lat="53.942091995850205" lon="-9.790178993716836">
        <ele>0.14</ele>
        <time>2026-07-03T12:52:53Z</time>
      </trkpt>
      <trkpt lat="53.94227103330195" lon="-9.790170025080442">
        <ele>0.14</ele>
        <time>2026-07-03T12:52:54Z</time>
      </trkpt>
      <trkpt lat="53.942400030791759" lon="-9.790117973461747">
        <ele>0.14</ele>
        <time>2026-07-03T12:52:55Z</time>
      </trkpt>
      <trkpt lat="53.942557023838162" lon="-9.790054019540548">
        <ele>0.14</ele>
        <time>2026-07-03T12:52:56Z</time>
      </trkpt>
      <trkpt lat="53.944496009498835" lon="-9.789166962727904">
        <ele>0.14</ele>
        <time>2026-07-03T12:53:07Z</time>
      </trkpt>
      <trkpt lat="53.946426026523113" lon="-9.788118973374367">
        <ele>-0.82</ele>
        <time>2026-07-03T12:53:18Z</time>
      </trkpt>
      <trkpt lat="53.947124993428588" lon="-9.787968015298247">
        <ele>-1.3</ele>
        <time>2026-07-03T12:53:22Z</time>
      </trkpt>
      <trkpt lat="53.947299001738429" lon="-9.787986958399415">
        <ele>-1.3</ele>
        <time>2026-07-03T12:53:23Z</time>
      </trkpt>
      <trkpt lat="53.947478039190173" lon="-9.788020988926292">
        <ele>-0.82</ele>
        <time>2026-07-03T12:53:24Z</time>
      </trkpt>
      <trkpt lat="53.949270006269217" lon="-9.788838978856802">
        <ele>2.54</ele>
        <time>2026-07-03T12:53:34Z</time>
      </trkpt>
      <trkpt lat="53.949736962094903" lon="-9.788950961083174">
        <ele>3.5</ele>
        <time>2026-07-03T12:53:37Z</time>
      </trkpt>
      <trkpt lat="53.949846010655165" lon="-9.788933023810387">
        <ele>3.5</ele>
        <time>2026-07-03T12:53:38Z</time>
      </trkpt>
      <trkpt lat="53.949961010366678" lon="-9.788891030475497">
        <ele>4.46</ele>
        <time>2026-07-03T12:53:39Z</time>
      </trkpt>
      <trkpt lat="53.950370969250798" lon="-9.788694977760315">
        <ele>6.39</ele>
        <time>2026-07-03T12:53:42Z</time>
      </trkpt>
      <trkpt lat="53.950524022802711" lon="-9.78870403021574">
        <ele>7.35</ele>
        <time>2026-07-03T12:53:43Z</time>
      </trkpt>
      <trkpt lat="53.950679004192352" lon="-9.788719033822417">
        <ele>8.310000000000001</ele>
        <time>2026-07-03T12:53:44Z</time>
      </trkpt>
      <trkpt lat="53.950838008895516" lon="-9.788750968873501">
        <ele>8.789999999999999</ele>
        <time>2026-07-03T12:53:45Z</time>
      </trkpt>
      <trkpt lat="53.950987961143255" lon="-9.788853982463479">
        <ele>9.75</ele>
        <time>2026-07-03T12:53:46Z</time>
      </trkpt>
      <trkpt lat="53.951136991381645" lon="-9.788955990225077">
        <ele>10.710000000000001</ele>
        <time>2026-07-03T12:53:47Z</time>
      </trkpt>
      <trkpt lat="53.951289961114526" lon="-9.789060009643436">
        <ele>11.67</ele>
        <time>2026-07-03T12:53:48Z</time>
      </trkpt>
      <trkpt lat="53.951443014666438" lon="-9.789165034890175">
        <ele>12.15</ele>
        <time>2026-07-03T12:53:49Z</time>
      </trkpt>
      <trkpt lat="53.951594978570938" lon="-9.789268970489502">
        <ele>12.15</ele>
        <time>2026-07-03T12:53:50Z</time>
      </trkpt>
      <trkpt lat="53.951754989102483" lon="-9.789316998794675">
        <ele>12.15</ele>
        <time>2026-07-03T12:53:51Z</time>
      </trkpt>
      <trkpt lat="53.953334977850318" lon="-9.789899960160255">
        <ele>11.19</ele>
        <time>2026-07-03T12:54:00Z</time>
      </trkpt>
      <trkpt lat="53.956101005896926" lon="-9.791860990226269">
        <ele>6.87</ele>
        <time>2026-07-03T12:54:16Z</time>
      </trkpt>
      <trkpt lat="53.958845995366573" lon="-9.793848004192114">
        <ele>4.94</ele>
        <time>2026-07-03T12:54:32Z</time>
      </trkpt>
      <trkpt lat="53.961206004023552" lon="-9.795554978772998">
        <ele>3.98</ele>
        <time>2026-07-03T12:54:46Z</time>
      </trkpt>
      <trkpt lat="53.961891978979111" lon="-9.796016989275813">
        <ele>4.46</ele>
        <time>2026-07-03T12:54:50Z</time>
      </trkpt>
      <trkpt lat="53.962066993117332" lon="-9.796101981773973">
        <ele>4.46</ele>
        <time>2026-07-03T12:54:51Z</time>
      </trkpt>
      <trkpt lat="53.962249970063567" lon="-9.796154033392668">
        <ele>3.98</ele>
        <time>2026-07-03T12:54:52Z</time>
      </trkpt>
      <trkpt lat="53.964980961754918" lon="-9.796615960076451">
        <ele>6.39</ele>
        <time>2026-07-03T12:55:06Z</time>
      </trkpt>
      <trkpt lat="53.966499008238316" lon="-9.796506995335221">
        <ele>7.35</ele>
        <time>2026-07-03T12:55:14Z</time>
      </trkpt>
      <trkpt lat="53.969463016837835" lon="-9.795379964634776">
        <ele>8.789999999999999</ele>
        <time>2026-07-03T12:55:29Z</time>
      </trkpt>
      <trkpt lat="53.972476981580257" lon="-9.794746963307262">
        <ele>3.98</ele>
        <time>2026-07-03T12:55:44Z</time>
      </trkpt>
      <trkpt lat="53.974713021889329" lon="-9.794442029669881">
        <ele>1.1</ele>
        <time>2026-07-03T12:55:55Z</time>
      </trkpt>
      <trkpt lat="53.975283997133374" lon="-9.794553006067872">
        <ele>0.62</ele>
        <time>2026-07-03T12:55:58Z</time>
      </trkpt>
      <trkpt lat="53.975462028756738" lon="-9.794659959152341">
        <ele>1.1</ele>
        <time>2026-07-03T12:55:59Z</time>
      </trkpt>
      <trkpt lat="53.975632013753057" lon="-9.794793985784054">
        <ele>2.06</ele>
        <time>2026-07-03T12:56:00Z</time>
      </trkpt>
      <trkpt lat="53.975809039548039" lon="-9.794933963567019">
        <ele>2.54</ele>
        <time>2026-07-03T12:56:01Z</time>
      </trkpt>
      <trkpt lat="53.975955974310637" lon="-9.79510897770524">
        <ele>3.5</ele>
        <time>2026-07-03T12:56:02Z</time>
      </trkpt>
      <trkpt lat="53.976109027862549" lon="-9.795291032642126">
        <ele>4.46</ele>
        <time>2026-07-03T12:56:03Z</time>
      </trkpt>
      <trkpt lat="53.977159028872848" lon="-9.796419991180301">
        <ele>8.789999999999999</ele>
        <time>2026-07-03T12:56:10Z</time>
      </trkpt>
      <trkpt lat="53.977324990555644" lon="-9.796530967578292">
        <ele>8.310000000000001</ele>
        <time>2026-07-03T12:56:11Z</time>
      </trkpt>
      <trkpt lat="53.979024002328515" lon="-9.797038994729519">
        <ele>6.87</ele>
        <time>2026-07-03T12:56:20Z</time>
      </trkpt>
      <trkpt lat="53.98053802549839" lon="-9.797167992219329">
        <ele>5.42</ele>
        <time>2026-07-03T12:56:28Z</time>
      </trkpt>
      <trkpt lat="53.980687977746129" lon="-9.797273017466068">
        <ele>5.42</ele>
        <time>2026-07-03T12:56:29Z</time>
      </trkpt>
      <trkpt lat="53.980815969407558" lon="-9.797392040491104">
        <ele>5.42</ele>
        <time>2026-07-03T12:56:30Z</time>
      </trkpt>
      <trkpt lat="53.980916971340775" lon="-9.797535035759211">
        <ele>5.42</ele>
        <time>2026-07-03T12:56:31Z</time>
      </trkpt>
      <trkpt lat="53.981001963838935" lon="-9.797708038240671">
        <ele>5.42</ele>
        <time>2026-07-03T12:56:32Z</time>
      </trkpt>
      <trkpt lat="53.981095002964139" lon="-9.797897972166538">
        <ele>5.91</ele>
        <time>2026-07-03T12:56:33Z</time>
      </trkpt>
      <trkpt lat="53.981194999068975" lon="-9.798103999346495">
        <ele>6.39</ele>
        <time>2026-07-03T12:56:34Z</time>
      </trkpt>
      <trkpt lat="53.981300024315715" lon="-9.798317989334464">
        <ele>6.87</ele>
        <time>2026-07-03T12:56:35Z</time>
      </trkpt>
      <trkpt lat="53.981429021805525" lon="-9.798500966280699">
        <ele>7.35</ele>
        <time>2026-07-03T12:56:36Z</time>
      </trkpt>
      <trkpt lat="53.98157000541687" lon="-9.798682015389204">
        <ele>7.83</ele>
        <time>2026-07-03T12:56:37Z</time>
      </trkpt>
      <trkpt lat="53.981716018170118" lon="-9.798869015648961">
        <ele>8.310000000000001</ele>
        <time>2026-07-03T12:56:38Z</time>
      </trkpt>
      <trkpt lat="53.981860019266605" lon="-9.799054004251957">
        <ele>8.789999999999999</ele>
        <time>2026-07-03T12:56:39Z</time>
      </trkpt>
      <trkpt lat="53.982368968427181" lon="-9.799502016976476">
        <ele>9.27</ele>
        <time>2026-07-03T12:56:42Z</time>
      </trkpt>
      <trkpt lat="53.982554040849209" lon="-9.799586003646255">
        <ele>9.27</ele>
        <time>2026-07-03T12:56:43Z</time>
      </trkpt>
      <trkpt lat="53.982741041108966" lon="-9.79964098893106">
        <ele>9.27</ele>
        <time>2026-07-03T12:56:44Z</time>
      </trkpt>
      <trkpt lat="53.982934998348355" lon="-9.799664039164782">
        <ele>8.789999999999999</ele>
        <time>2026-07-03T12:56:45Z</time>
      </trkpt>
      <trkpt lat="53.983130967244506" lon="-9.79966496117413">
        <ele>8.310000000000001</ele>
        <time>2026-07-03T12:56:46Z</time>
      </trkpt>
      <trkpt lat="53.983322996646166" lon="-9.79964199475944">
        <ele>7.83</ele>
        <time>2026-07-03T12:56:47Z</time>
      </trkpt>
      <trkpt lat="53.984077032655478" lon="-9.799607964232564">
        <ele>8.789999999999999</ele>
        <time>2026-07-03T12:56:51Z</time>
      </trkpt>
      <trkpt lat="53.984241988509893" lon="-9.799649035558105">
        <ele>9.75</ele>
        <time>2026-07-03T12:56:52Z</time>
      </trkpt>
      <trkpt lat="53.984394036233425" lon="-9.799715001136065">
        <ele>11.19</ele>
        <time>2026-07-03T12:56:53Z</time>
      </trkpt>
      <trkpt lat="53.984530996531248" lon="-9.79983301833272">
        <ele>12.15</ele>
        <time>2026-07-03T12:56:54Z</time>
      </trkpt>
      <trkpt lat="53.984676003456116" lon="-9.79996201582253">
        <ele>12.15</ele>
        <time>2026-07-03T12:56:55Z</time>
      </trkpt>
      <trkpt lat="53.984812963753939" lon="-9.800143986940384">
        <ele>12.630000000000001</ele>
        <time>2026-07-03T12:56:56Z</time>
      </trkpt>
      <trkpt lat="53.986524967476726" lon="-9.802405005320907">
        <ele>15.52</ele>
        <time>2026-07-03T12:57:07Z</time>
      </trkpt>
      <trkpt lat="53.988446015864611" lon="-9.804931981489062">
        <ele>14.56</ele>
        <time>2026-07-03T12:57:19Z</time>
      </trkpt>
      <trkpt lat="53.990405034273863" lon="-9.807514026761055">
        <ele>15.52</ele>
        <time>2026-07-03T12:57:33Z</time>
      </trkpt>
      <trkpt lat="53.991832975298166" lon="-9.809250002726913">
        <ele>19.359999999999999</ele>
        <time>2026-07-03T12:57:43Z</time>
      </trkpt>
      <trkpt lat="53.991989968344569" lon="-9.809360979124904">
        <ele>19.84</ele>
        <time>2026-07-03T12:57:44Z</time>
      </trkpt>
      <trkpt lat="53.993765003979206" lon="-9.810269996523857">
        <ele>22.25</ele>
        <time>2026-07-03T12:57:54Z</time>
      </trkpt>
      <trkpt lat="53.994710985571146" lon="-9.811002993956208">
        <ele>23.210000000000001</ele>
        <time>2026-07-03T12:58:00Z</time>
      </trkpt>
      <trkpt lat="53.994854986667633" lon="-9.811202986165881">
        <ele>23.210000000000001</ele>
        <time>2026-07-03T12:58:01Z</time>
      </trkpt>
      <trkpt lat="53.996564978733659" lon="-9.813888967037201">
        <ele>24.649999999999999</ele>
        <time>2026-07-03T12:58:13Z</time>
      </trkpt>
      <trkpt lat="53.998376978561282" lon="-9.816826991736889">
        <ele>24.170000000000002</ele>
        <time>2026-07-03T12:58:26Z</time>
      </trkpt>
      <trkpt lat="53.998475968837738" lon="-9.817033018916845">
        <ele>24.170000000000002</ele>
        <time>2026-07-03T12:58:27Z</time>
      </trkpt>
      <trkpt lat="53.998561967164278" lon="-9.817257989197969">
        <ele>23.210000000000001</ele>
        <time>2026-07-03T12:58:28Z</time>
      </trkpt>
      <trkpt lat="53.998627010732889" lon="-9.817505003884435">
        <ele>23.210000000000001</ele>
        <time>2026-07-03T12:58:29Z</time>
      </trkpt>
      <trkpt lat="53.999341987073421" lon="-9.820272037759423">
        <ele>22.73</ele>
        <time>2026-07-03T12:58:39Z</time>
      </trkpt>
      <trkpt lat="53.99953200481832" lon="-9.820991959422827">
        <ele>22.73</ele>
        <time>2026-07-03T12:58:42Z</time>
      </trkpt>
      <trkpt lat="53.999623032286763" lon="-9.82118901796639">
        <ele>22.73</ele>
        <time>2026-07-03T12:58:43Z</time>
      </trkpt>
      <trkpt lat="53.999719005078077" lon="-9.821377024054527">
        <ele>22.73</ele>
        <time>2026-07-03T12:58:44Z</time>
      </trkpt>
      <trkpt lat="53.999841967597604" lon="-9.821523958817124">
        <ele>22.25</ele>
        <time>2026-07-03T12:58:45Z</time>
      </trkpt>
      <trkpt lat="53.999971970915794" lon="-9.82166200876236">
        <ele>22.25</ele>
        <time>2026-07-03T12:58:46Z</time>
      </trkpt>
      <trkpt lat="54.000115972012281" lon="-9.821773990988731">
        <ele>22.25</ele>
        <time>2026-07-03T12:58:47Z</time>
      </trkpt>
      <trkpt lat="54.001473002135754" lon="-9.822833966463804">
        <ele>22.73</ele>
        <time>2026-07-03T12:58:55Z</time>
      </trkpt>
      <trkpt lat="54.003605023026466" lon="-9.824344972148538">
        <ele>21.289999999999999</ele>
        <time>2026-07-03T12:59:07Z</time>
      </trkpt>
      <trkpt lat="54.004935985431075" lon="-9.824468018487096">
        <ele>16.48</ele>
        <time>2026-07-03T12:59:14Z</time>
      </trkpt>
      <trkpt lat="54.006915958598256" lon="-9.824322005733848">
        <ele>13.6</ele>
        <time>2026-07-03T12:59:24Z</time>
      </trkpt>
      <trkpt lat="54.008945971727371" lon="-9.824478998780251">
        <ele>12.630000000000001</ele>
        <time>2026-07-03T12:59:34Z</time>
      </trkpt>
      <trkpt lat="54.01115401647985" lon="-9.824448991566896">
        <ele>11.19</ele>
        <time>2026-07-03T12:59:45Z</time>
      </trkpt>
      <trkpt lat="54.013252006843686" lon="-9.82389603741467">
        <ele>12.630000000000001</ele>
        <time>2026-07-03T12:59:56Z</time>
      </trkpt>
      <trkpt lat="54.013961032032967" lon="-9.823752036318183">
        <ele>13.6</ele>
        <time>2026-07-03T13:00:00Z</time>
      </trkpt>
      <trkpt lat="54.014137974008918" lon="-9.823792017996311">
        <ele>13.6</ele>
        <time>2026-07-03T13:00:01Z</time>
      </trkpt>
      <trkpt lat="54.016180979087949" lon="-9.824513029307127">
        <ele>17.920000000000002</ele>
        <time>2026-07-03T13:00:12Z</time>
      </trkpt>
      <trkpt lat="54.017888037487864" lon="-9.825323978438973">
        <ele>20.809999999999999</ele>
        <time>2026-07-03T13:00:22Z</time>
      </trkpt>
      <trkpt lat="54.019278008490801" lon="-9.825501004233956">
        <ele>21.289999999999999</ele>
        <time>2026-07-03T13:00:30Z</time>
      </trkpt>
      <trkpt lat="54.021671963855624" lon="-9.825717005878687">
        <ele>21.289999999999999</ele>
        <time>2026-07-03T13:00:42Z</time>
      </trkpt>
      <trkpt lat="54.023471977561712" lon="-9.825921021401882">
        <ele>19.359999999999999</ele>
        <time>2026-07-03T13:00:53Z</time>
      </trkpt>
      <trkpt lat="54.024510998278856" lon="-9.826349001377821">
        <ele>20.809999999999999</ele>
        <time>2026-07-03T13:01:01Z</time>
      </trkpt>
      <trkpt lat="54.025991996750236" lon="-9.827074036002159">
        <ele>19.84</ele>
        <time>2026-07-03T13:01:12Z</time>
      </trkpt>
      <trkpt lat="54.027567962184548" lon="-9.827851038426161">
        <ele>21.289999999999999</ele>
        <time>2026-07-03T13:01:23Z</time>
      </trkpt>
      <trkpt lat="54.029134036973119" lon="-9.828609013929963">
        <ele>20.809999999999999</ele>
        <time>2026-07-03T13:01:36Z</time>
      </trkpt>
      <trkpt lat="54.030715031549335" lon="-9.829091979190707">
        <ele>16.48</ele>
        <time>2026-07-03T13:01:47Z</time>
      </trkpt>
      <trkpt lat="54.032503981143236" lon="-9.829072030261159">
        <ele>12.15</ele>
        <time>2026-07-03T13:01:57Z</time>
      </trkpt>
      <trkpt lat="54.032675977796316" lon="-9.829016039147973">
        <ele>12.15</ele>
        <time>2026-07-03T13:01:58Z</time>
      </trkpt>
      <trkpt lat="54.032845040783286" lon="-9.828928029164672">
        <ele>12.15</ele>
        <time>2026-07-03T13:01:59Z</time>
      </trkpt>
      <trkpt lat="54.034501975402236" lon="-9.828243982046843">
        <ele>12.15</ele>
        <time>2026-07-03T13:02:08Z</time>
      </trkpt>
      <trkpt lat="54.037336986511946" lon="-9.827551972121">
        <ele>21.289999999999999</ele>
        <time>2026-07-03T13:02:23Z</time>
      </trkpt>
      <trkpt lat="54.038830976933241" lon="-9.827781971544027">
        <ele>27.530000000000001</ele>
        <time>2026-07-03T13:02:31Z</time>
      </trkpt>
      <trkpt lat="54.03979598544538" lon="-9.828413967043161">
        <ele>31.859999999999999</ele>
        <time>2026-07-03T13:02:37Z</time>
      </trkpt>
      <trkpt lat="54.03992498293519" lon="-9.828576995059848">
        <ele>32.340000000000003</ele>
        <time>2026-07-03T13:02:38Z</time>
      </trkpt>
      <trkpt lat="54.041344961151481" lon="-9.830320011824369">
        <ele>40.030000000000001</ele>
        <time>2026-07-03T13:02:48Z</time>
      </trkpt>
      <trkpt lat="54.042921010404825" lon="-9.832010976970196">
        <ele>47.240000000000002</ele>
        <time>2026-07-03T13:02:58Z</time>
      </trkpt>
      <trkpt lat="54.043923988938332" lon="-9.833281002938747">
        <ele>51.090000000000003</ele>
        <time>2026-07-03T13:03:05Z</time>
      </trkpt>
      <trkpt lat="54.04407000169158" lon="-9.833420980721712">
        <ele>51.57</ele>
        <time>2026-07-03T13:03:06Z</time>
      </trkpt>
      <trkpt lat="54.044233029708266" lon="-9.833505973219872">
        <ele>51.57</ele>
        <time>2026-07-03T13:03:07Z</time>
      </trkpt>
      <trkpt lat="54.044396979734302" lon="-9.833590965718031">
        <ele>51.57</ele>
        <time>2026-07-03T13:03:08Z</time>
      </trkpt>
      <trkpt lat="54.044553972780704" lon="-9.8336720187217">
        <ele>51.57</ele>
        <time>2026-07-03T13:03:09Z</time>
      </trkpt>
      <trkpt lat="54.044717000797391" lon="-9.833664977923036">
        <ele>52.049999999999997</ele>
        <time>2026-07-03T13:03:10Z</time>
      </trkpt>
      <trkpt lat="54.044870976358652" lon="-9.833641005679965">
        <ele>52.530000000000001</ele>
        <time>2026-07-03T13:03:11Z</time>
      </trkpt>
      <trkpt lat="54.045020006597042" lon="-9.83360898680985">
        <ele>53.009999999999998</ele>
        <time>2026-07-03T13:03:12Z</time>
      </trkpt>
      <trkpt lat="54.04516501352191" lon="-9.833545032888651">
        <ele>54.450000000000003</ele>
        <time>2026-07-03T13:03:13Z</time>
      </trkpt>
      <trkpt lat="54.04531697742641" lon="-9.83347998932004">
        <ele>55.409999999999997</ele>
        <time>2026-07-03T13:03:14Z</time>
      </trkpt>
      <trkpt lat="54.04692898504436" lon="-9.832907002419233">
        <ele>54.93</ele>
        <time>2026-07-03T13:03:23Z</time>
      </trkpt>
      <trkpt lat="54.049274995923042" lon="-9.832081971690059">
        <ele>43.399999999999999</ele>
        <time>2026-07-03T13:03:34Z</time>
      </trkpt>
      <trkpt lat="54.050998985767365" lon="-9.830885035917163">
        <ele>40.030000000000001</ele>
        <time>2026-07-03T13:03:43Z</time>
      </trkpt>
      <trkpt lat="54.051752015948296" lon="-9.830571971833706">
        <ele>37.149999999999999</ele>
        <time>2026-07-03T13:03:47Z</time>
      </trkpt>
      <trkpt lat="54.051941027864814" lon="-9.830531990155578">
        <ele>36.670000000000002</ele>
        <time>2026-07-03T13:03:48Z</time>
      </trkpt>
      <trkpt lat="54.054215038195252" lon="-9.830592004582286">
        <ele>28.5</ele>
        <time>2026-07-03T13:03:59Z</time>
      </trkpt>
      <trkpt lat="54.057259010151029" lon="-9.830964999273419">
        <ele>28.02</ele>
        <time>2026-07-03T13:04:13Z</time>
      </trkpt>
      <trkpt lat="54.060798017308116" lon="-9.831906035542488">
        <ele>17.920000000000002</ele>
        <time>2026-07-03T13:04:29Z</time>
      </trkpt>
      <trkpt lat="54.063865961506963" lon="-9.832668034359813">
        <ele>7.83</ele>
        <time>2026-07-03T13:04:43Z</time>
      </trkpt>
      <trkpt lat="54.065653989091516" lon="-9.832880012691021">
        <ele>6.39</ele>
        <time>2026-07-03T13:04:52Z</time>
      </trkpt>
      <trkpt lat="54.067949037998915" lon="-9.832848999649286">
        <ele>1.58</ele>
        <time>2026-07-03T13:05:04Z</time>
      </trkpt>
      <trkpt lat="54.069277988746762" lon="-9.833257030695677">
        <ele>4.94</ele>
        <time>2026-07-03T13:05:12Z</time>
      </trkpt>
      <trkpt lat="54.069845024496317" lon="-9.833445036783814">
        <ele>7.35</ele>
        <time>2026-07-03T13:05:16Z</time>
      </trkpt>
      <trkpt lat="54.06998299062252" lon="-9.833433972671628">
        <ele>7.35</ele>
        <time>2026-07-03T13:05:17Z</time>
      </trkpt>
      <trkpt lat="54.070117017254233" lon="-9.833377981558442">
        <ele>7.83</ele>
        <time>2026-07-03T13:05:18Z</time>
      </trkpt>
      <trkpt lat="54.070249032229185" lon="-9.833274967968464">
        <ele>8.310000000000001</ele>
        <time>2026-07-03T13:05:19Z</time>
      </trkpt>
      <trkpt lat="54.07038901001215" lon="-9.833167009055615">
        <ele>8.310000000000001</ele>
        <time>2026-07-03T13:05:20Z</time>
      </trkpt>
      <trkpt lat="54.070527981966734" lon="-9.833024013787508">
        <ele>8.789999999999999</ele>
        <time>2026-07-03T13:05:21Z</time>
      </trkpt>
      <trkpt lat="54.071697006002069" lon="-9.831323996186256">
        <ele>6.87</ele>
        <time>2026-07-03T13:05:30Z</time>
      </trkpt>
      <trkpt lat="54.071789961308241" lon="-9.831060972064734">
        <ele>6.87</ele>
        <time>2026-07-03T13:05:31Z</time>
      </trkpt>
      <trkpt lat="54.071857016533613" lon="-9.830779004842043">
        <ele>7.35</ele>
        <time>2026-07-03T13:05:32Z</time>
      </trkpt>
      <trkpt lat="54.071909990161657" lon="-9.830484967678785">
        <ele>7.83</ele>
        <time>2026-07-03T13:05:33Z</time>
      </trkpt>
      <trkpt lat="54.071959024295211" lon="-9.830182967707515">
        <ele>7.83</ele>
        <time>2026-07-03T13:05:34Z</time>
      </trkpt>
      <trkpt lat="54.072739966213703" lon="-9.825887996703386">
        <ele>11.67</ele>
        <time>2026-07-03T13:05:48Z</time>
      </trkpt>
      <trkpt lat="54.073472963646054" lon="-9.823921015486121">
        <ele>12.630000000000001</ele>
        <time>2026-07-03T13:05:55Z</time>
      </trkpt>
      <trkpt lat="54.075208017602563" lon="-9.820661963894963">
        <ele>15.039999999999999</ele>
        <time>2026-07-03T13:06:08Z</time>
      </trkpt>
      <trkpt lat="54.076023995876312" lon="-9.819756969809532">
        <ele>15.039999999999999</ele>
        <time>2026-07-03T13:06:13Z</time>
      </trkpt>
      <trkpt lat="54.076158022508025" lon="-9.819521019235253">
        <ele>15.039999999999999</ele>
        <time>2026-07-03T13:06:14Z</time>
      </trkpt>
      <trkpt lat="54.076284002512693" lon="-9.819268975406885">
        <ele>14.56</ele>
        <time>2026-07-03T13:06:15Z</time>
      </trkpt>
      <trkpt lat="54.076403025537729" lon="-9.819031013175845">
        <ele>14.56</ele>
        <time>2026-07-03T13:06:16Z</time>
      </trkpt>
      <trkpt lat="54.076474020257592" lon="-9.818754997104406">
        <ele>14.56</ele>
        <time>2026-07-03T13:06:17Z</time>
      </trkpt>
      <trkpt lat="54.076544009149075" lon="-9.818487027660012">
        <ele>14.56</ele>
        <time>2026-07-03T13:06:18Z</time>
      </trkpt>
      <trkpt lat="54.076568987220526" lon="-9.818208999931812">
        <ele>15.039999999999999</ele>
        <time>2026-07-03T13:06:19Z</time>
      </trkpt>
      <trkpt lat="54.076588014140725" lon="-9.817916974425316">
        <ele>15.039999999999999</ele>
        <time>2026-07-03T13:06:20Z</time>
      </trkpt>
      <trkpt lat="54.076904011890292" lon="-9.815383041277528">
        <ele>16.960000000000001</ele>
        <time>2026-07-03T13:06:28Z</time>
      </trkpt>
      <trkpt lat="54.078111005946994" lon="-9.811051022261381">
        <ele>17.440000000000001</ele>
        <time>2026-07-03T13:06:41Z</time>
      </trkpt>
      <trkpt lat="54.07990699633956" lon="-9.805043041706085">
        <ele>16.960000000000001</ele>
        <time>2026-07-03T13:06:59Z</time>
      </trkpt>
      <trkpt lat="54.081099992617965" lon="-9.800973040983081">
        <ele>20.809999999999999</ele>
        <time>2026-07-03T13:07:11Z</time>
      </trkpt>
      <trkpt lat="54.082603035494685" lon="-9.795993017032743">
        <ele>18.879999999999999</ele>
        <time>2026-07-03T13:07:25Z</time>
      </trkpt>
      <trkpt lat="54.083981020376086" lon="-9.791332008317113">
        <ele>21.289999999999999</ele>
        <time>2026-07-03T13:07:39Z</time>
      </trkpt>
      <trkpt lat="54.085175022482872" lon="-9.78718196041882">
        <ele>34.259999999999998</ele>
        <time>2026-07-03T13:07:52Z</time>
      </trkpt>
      <trkpt lat="54.085995024070144" lon="-9.784647021442652">
        <ele>37.149999999999999</ele>
        <time>2026-07-03T13:08:01Z</time>
      </trkpt>
      <trkpt lat="54.08714996650815" lon="-9.781080018728972">
        <ele>41.469999999999999</ele>
        <time>2026-07-03T13:08:13Z</time>
      </trkpt>
      <trkpt lat="54.088155040517449" lon="-9.778694026172161">
        <ele>39.549999999999997</ele>
        <time>2026-07-03T13:08:21Z</time>
      </trkpt>
      <trkpt lat="54.089757995679975" lon="-9.774982016533613">
        <ele>31.379999999999999</ele>
        <time>2026-07-03T13:08:33Z</time>
      </trkpt>
      <trkpt lat="54.091548034921288" lon="-9.770833980292082">
        <ele>36.670000000000002</ele>
        <time>2026-07-03T13:08:47Z</time>
      </trkpt>
      <trkpt lat="54.092981005087495" lon="-9.767502006143332">
        <ele>43.399999999999999</ele>
        <time>2026-07-03T13:09:00Z</time>
      </trkpt>
      <trkpt lat="54.093613000586629" lon="-9.766051014885306">
        <ele>40.509999999999998</ele>
        <time>2026-07-03T13:09:06Z</time>
      </trkpt>
      <trkpt lat="54.093719031661749" lon="-9.765891004353762">
        <ele>39.549999999999997</ele>
        <time>2026-07-03T13:09:07Z</time>
      </trkpt>
      <trkpt lat="54.093834031373262" lon="-9.765788996592164">
        <ele>39.07</ele>
        <time>2026-07-03T13:09:08Z</time>
      </trkpt>
      <trkpt lat="54.093957999721169" lon="-9.765696041285992">
        <ele>38.590000000000003</ele>
        <time>2026-07-03T13:09:09Z</time>
      </trkpt>
      <trkpt lat="54.094089008867741" lon="-9.765598978847265">
        <ele>38.109999999999999</ele>
        <time>2026-07-03T13:09:10Z</time>
      </trkpt>
      <trkpt lat="54.094699965789914" lon="-9.765363028272986">
        <ele>35.710000000000001</ele>
        <time>2026-07-03T13:09:14Z</time>
      </trkpt>
      <trkpt lat="54.094859976321459" lon="-9.765356993302703">
        <ele>35.229999999999997</ele>
        <time>2026-07-03T13:09:15Z</time>
      </trkpt>
      <trkpt lat="54.095026021823287" lon="-9.765350036323071">
        <ele>34.740000000000002</ele>
        <time>2026-07-03T13:09:16Z</time>
      </trkpt>
      <trkpt lat="54.095198018476367" lon="-9.765352969989181">
        <ele>33.780000000000001</ele>
        <time>2026-07-03T13:09:17Z</time>
      </trkpt>
      <trkpt lat="54.095365991815925" lon="-9.765434022992849">
        <ele>32.82</ele>
        <time>2026-07-03T13:09:18Z</time>
      </trkpt>
      <trkpt lat="54.095533965155482" lon="-9.765515998005867">
        <ele>31.859999999999999</ele>
        <time>2026-07-03T13:09:19Z</time>
      </trkpt>
      <trkpt lat="54.095984995365143" lon="-9.765699980780482">
        <ele>28.98</ele>
        <time>2026-07-03T13:09:22Z</time>
      </trkpt>
      <trkpt lat="54.096114998683333" lon="-9.765718001872301">
        <ele>28.02</ele>
        <time>2026-07-03T13:09:23Z</time>
      </trkpt>
      <trkpt lat="54.09623603336513" lon="-9.765714984387159">
        <ele>27.050000000000001</ele>
        <time>2026-07-03T13:09:24Z</time>
      </trkpt>
      <trkpt lat="54.096358995884657" lon="-9.765646001324058">
        <ele>26.09</ele>
        <time>2026-07-03T13:09:25Z</time>
      </trkpt>
      <trkpt lat="54.096484975889325" lon="-9.765547011047602">
        <ele>25.129999999999999</ele>
        <time>2026-07-03T13:09:26Z</time>
      </trkpt>
      <trkpt lat="54.096615985035896" lon="-9.765427988022566">
        <ele>24.649999999999999</ele>
        <time>2026-07-03T13:09:27Z</time>
      </trkpt>
      <trkpt lat="54.097144966945052" lon="-9.764970000833273">
        <ele>25.609999999999999</ele>
        <time>2026-07-03T13:09:31Z</time>
      </trkpt>
      <trkpt lat="54.097272958606482" lon="-9.764935970306397">
        <ele>26.09</ele>
        <time>2026-07-03T13:09:32Z</time>
      </trkpt>
      <trkpt lat="54.097431041300297" lon="-9.764892971143127">
        <ele>26.09</ele>
        <time>2026-07-03T13:09:33Z</time>
      </trkpt>
      <trkpt lat="54.097532965242863" lon="-9.764944016933441">
        <ele>26.09</ele>
        <time>2026-07-03T13:09:34Z</time>
      </trkpt>
      <trkpt lat="54.097663974389434" lon="-9.765017023310065">
        <ele>26.57</ele>
        <time>2026-07-03T13:09:35Z</time>
      </trkpt>
      <trkpt lat="54.097793977707624" lon="-9.765130011364818">
        <ele>26.57</ele>
        <time>2026-07-03T13:09:36Z</time>
      </trkpt>
      <trkpt lat="54.097929010167718" lon="-9.765249034389854">
        <ele>27.530000000000001</ele>
        <time>2026-07-03T13:09:37Z</time>
      </trkpt>
      <trkpt lat="54.09866401925683" lon="-9.765828978270292">
        <ele>29.940000000000001</ele>
        <time>2026-07-03T13:09:42Z</time>
      </trkpt>
      <trkpt lat="54.098828975111246" lon="-9.765846999362111">
        <ele>29.940000000000001</ele>
        <time>2026-07-03T13:09:43Z</time>
      </trkpt>
      <trkpt lat="54.098988985642791" lon="-9.765856973826885">
        <ele>29.940000000000001</ele>
        <time>2026-07-03T13:09:44Z</time>
      </trkpt>
      <trkpt lat="54.099142961204052" lon="-9.765788996592164">
        <ele>29.460000000000001</ele>
        <time>2026-07-03T13:09:45Z</time>
      </trkpt>
      <trkpt lat="54.099294003099203" lon="-9.765705009922385">
        <ele>29.460000000000001</ele>
        <time>2026-07-03T13:09:46Z</time>
      </trkpt>
      <trkpt lat="54.099446972832084" lon="-9.765618005767465">
        <ele>29.460000000000001</ele>
        <time>2026-07-03T13:09:47Z</time>
      </trkpt>
      <trkpt lat="54.101046994328499" lon="-9.76466397754848">
        <ele>28.5</ele>
        <time>2026-07-03T13:09:56Z</time>
      </trkpt>
      <trkpt lat="54.10352099686861" lon="-9.763166969642043">
        <ele>26.57</ele>
        <time>2026-07-03T13:10:08Z</time>
      </trkpt>
      <trkpt lat="54.106144029647112" lon="-9.761580023914576">
        <ele>27.530000000000001</ele>
        <time>2026-07-03T13:10:21Z</time>
      </trkpt>
      <trkpt lat="54.107871036976576" lon="-9.760534968227148">
        <ele>31.859999999999999</ele>
        <time>2026-07-03T13:10:30Z</time>
      </trkpt>
      <trkpt lat="54.109924016520381" lon="-9.759380025789142">
        <ele>26.57</ele>
        <time>2026-07-03T13:10:41Z</time>
      </trkpt>
      <trkpt lat="54.110235990956426" lon="-9.759232001379132">
        <ele>25.609999999999999</ele>
        <time>2026-07-03T13:10:43Z</time>
      </trkpt>
      <trkpt lat="54.110371023416519" lon="-9.759211968630552">
        <ele>25.609999999999999</ele>
        <time>2026-07-03T13:10:44Z</time>
      </trkpt>
      <trkpt lat="54.110489962622523" lon="-9.759241975843906">
        <ele>26.09</ele>
        <time>2026-07-03T13:10:45Z</time>
      </trkpt>
      <trkpt lat="54.110995978116989" lon="-9.759352030232549">
        <ele>28.02</ele>
        <time>2026-07-03T13:10:49Z</time>
      </trkpt>
      <trkpt lat="54.111138973385096" lon="-9.759336020797491">
        <ele>28.02</ele>
        <time>2026-07-03T13:10:50Z</time>
      </trkpt>
      <trkpt lat="54.111284986138344" lon="-9.759257985278964">
        <ele>28.5</ele>
        <time>2026-07-03T13:10:51Z</time>
      </trkpt>
      <trkpt lat="54.112996989861131" lon="-9.758306974545121">
        <ele>30.899999999999999</ele>
        <time>2026-07-03T13:11:01Z</time>
      </trkpt>
      <trkpt lat="54.115016022697091" lon="-9.75714297965169">
        <ele>33.299999999999997</ele>
        <time>2026-07-03T13:11:13Z</time>
      </trkpt>
      <trkpt lat="54.116189992055297" lon="-9.756118040531874">
        <ele>34.259999999999998</ele>
        <time>2026-07-03T13:11:20Z</time>
      </trkpt>
      <trkpt lat="54.117703009396791" lon="-9.754468984901905">
        <ele>31.859999999999999</ele>
        <time>2026-07-03T13:11:30Z</time>
      </trkpt>
      <trkpt lat="54.117862014099956" lon="-9.754407964646816">
        <ele>32.340000000000003</ele>
        <time>2026-07-03T13:11:31Z</time>
      </trkpt>
      <trkpt lat="54.118012972176075" lon="-9.75435096770525">
        <ele>32.340000000000003</ele>
        <time>2026-07-03T13:11:32Z</time>
      </trkpt>
      <trkpt lat="54.118164014071226" lon="-9.754358008503914">
        <ele>32.82</ele>
        <time>2026-07-03T13:11:33Z</time>
      </trkpt>
      <trkpt lat="54.11832201294601" lon="-9.754389021545649">
        <ele>32.82</ele>
        <time>2026-07-03T13:11:34Z</time>
      </trkpt>
      <trkpt lat="54.118481017649174" lon="-9.754421040415764">
        <ele>32.82</ele>
        <time>2026-07-03T13:11:35Z</time>
      </trkpt>
      <trkpt lat="54.120340961962938" lon="-9.754788000136614">
        <ele>31.859999999999999</ele>
        <time>2026-07-03T13:11:45Z</time>
      </trkpt>
      <trkpt lat="54.122070986777544" lon="-9.755140040069819">
        <ele>29.460000000000001</ele>
        <time>2026-07-03T13:11:54Z</time>
      </trkpt>
      <trkpt lat="54.124385984614491" lon="-9.755368027836084">
        <ele>29.460000000000001</ele>
        <time>2026-07-03T13:12:06Z</time>
      </trkpt>
      <trkpt lat="54.126483974978328" lon="-9.755496019497514">
        <ele>28.5</ele>
        <time>2026-07-03T13:12:17Z</time>
      </trkpt>
      <trkpt lat="54.1285299975425" lon="-9.756607040762901">
        <ele>28.98</ele>
        <time>2026-07-03T13:12:28Z</time>
      </trkpt>
      <trkpt lat="54.129441026598215" lon="-9.757102997973561">
        <ele>28.98</ele>
        <time>2026-07-03T13:12:33Z</time>
      </trkpt>
      <trkpt lat="54.129612017422915" lon="-9.757154965773225">
        <ele>28.98</ele>
        <time>2026-07-03T13:12:34Z</time>
      </trkpt>
      <trkpt lat="54.129792982712388" lon="-9.757181033492088">
        <ele>28.5</ele>
        <time>2026-07-03T13:12:35Z</time>
      </trkpt>
      <trkpt lat="54.131483025848866" lon="-9.756966959685087">
        <ele>28.02</ele>
        <time>2026-07-03T13:12:44Z</time>
      </trkpt>
      <trkpt lat="54.133187988772988" lon="-9.756640987470746">
        <ele>26.09</ele>
        <time>2026-07-03T13:12:54Z</time>
      </trkpt>
      <trkpt lat="54.133327966555953" lon="-9.756560018286109">
        <ele>26.09</ele>
        <time>2026-07-03T13:12:55Z</time>
      </trkpt>
      <trkpt lat="54.133447995409369" lon="-9.756404031068087">
        <ele>25.609999999999999</ele>
        <time>2026-07-03T13:12:56Z</time>
      </trkpt>
      <trkpt lat="54.133565006777644" lon="-9.756233040243387">
        <ele>25.129999999999999</ele>
        <time>2026-07-03T13:12:57Z</time>
      </trkpt>
      <trkpt lat="54.133685035631061" lon="-9.756055008620024">
        <ele>25.129999999999999</ele>
        <time>2026-07-03T13:12:58Z</time>
      </trkpt>
      <trkpt lat="54.13486503995955" lon="-9.754162039607763">
        <ele>21.289999999999999</ele>
        <time>2026-07-03T13:13:07Z</time>
      </trkpt>
      <trkpt lat="54.136458020657301" lon="-9.751674039289355">
        <ele>20.32</ele>
        <time>2026-07-03T13:13:20Z</time>
      </trkpt>
      <trkpt lat="54.137563006952405" lon="-9.749142033979297">
        <ele>21.289999999999999</ele>
        <time>2026-07-03T13:13:32Z</time>
      </trkpt>
      <trkpt lat="54.13825904019177" lon="-9.74612002260983">
        <ele>24.170000000000002</ele>
        <time>2026-07-03T13:13:44Z</time>
      </trkpt>
      <trkpt lat="54.13903302513063" lon="-9.743692958727479">
        <ele>25.129999999999999</ele>
        <time>2026-07-03T13:13:54Z</time>
      </trkpt>
      <trkpt lat="54.139952016994357" lon="-9.742036024108529">
        <ele>26.09</ele>
        <time>2026-07-03T13:14:03Z</time>
      </trkpt>
      <trkpt lat="54.140798002481461" lon="-9.740958027541637">
        <ele>25.129999999999999</ele>
        <time>2026-07-03T13:14:10Z</time>
      </trkpt>
      <trkpt lat="54.140919959172606" lon="-9.740833975374699">
        <ele>25.129999999999999</ele>
        <time>2026-07-03T13:14:11Z</time>
      </trkpt>
      <trkpt lat="54.141050968319178" lon="-9.740790976211429">
        <ele>25.129999999999999</ele>
        <time>2026-07-03T13:14:12Z</time>
      </trkpt>
      <trkpt lat="54.141178037971258" lon="-9.740747977048159">
        <ele>25.129999999999999</ele>
        <time>2026-07-03T13:14:13Z</time>
      </trkpt>
      <trkpt lat="54.141310974955559" lon="-9.740710007026792">
        <ele>25.129999999999999</ele>
        <time>2026-07-03T13:14:14Z</time>
      </trkpt>
      <trkpt lat="54.141437960788608" lon="-9.740710007026792">
        <ele>25.129999999999999</ele>
        <time>2026-07-03T13:14:15Z</time>
      </trkpt>
      <trkpt lat="54.141569975763559" lon="-9.740721993148327">
        <ele>25.129999999999999</ele>
        <time>2026-07-03T13:14:16Z</time>
      </trkpt>
      <trkpt lat="54.141680030152202" lon="-9.740784019231796">
        <ele>25.129999999999999</ele>
        <time>2026-07-03T13:14:17Z</time>
      </trkpt>
      <trkpt lat="54.141784971579909" lon="-9.740844033658505">
        <ele>25.609999999999999</ele>
        <time>2026-07-03T13:14:18Z</time>
      </trkpt>
      <trkpt lat="54.141887985169888" lon="-9.740901030600071">
        <ele>25.609999999999999</ele>
        <time>2026-07-03T13:14:19Z</time>
      </trkpt>
      <trkpt lat="54.141980018466711" lon="-9.741006977856159">
        <ele>26.09</ele>
        <time>2026-07-03T13:14:20Z</time>
      </trkpt>
      <trkpt lat="54.142069034278393" lon="-9.741109991446137">
        <ele>26.57</ele>
        <time>2026-07-03T13:14:21Z</time>
      </trkpt>
      <trkpt lat="54.142156960442662" lon="-9.741215016692877">
        <ele>27.530000000000001</ele>
        <time>2026-07-03T13:14:22Z</time>
      </trkpt>
      <trkpt lat="54.142242958769202" lon="-9.741333033889532">
        <ele>28.5</ele>
        <time>2026-07-03T13:14:23Z</time>
      </trkpt>
      <trkpt lat="54.143257001414895" lon="-9.742487976327539">
        <ele>28.02</ele>
        <time>2026-07-03T13:14:34Z</time>
      </trkpt>
      <trkpt lat="54.143649023026228" lon="-9.742771033197641">
        <ele>29.940000000000001</ele>
        <time>2026-07-03T13:14:39Z</time>
      </trkpt>
      <trkpt lat="54.14371901191771" lon="-9.742795005440712">
        <ele>30.420000000000002</ele>
        <time>2026-07-03T13:14:40Z</time>
      </trkpt>
      <trkpt lat="54.144336003810167" lon="-9.742887960746884">
        <ele>33.780000000000001</ele>
        <time>2026-07-03T13:14:50Z</time>
      </trkpt>
      <trkpt lat="54.144528033211827" lon="-9.742882009595633">
        <ele>33.299999999999997</ele>
        <time>2026-07-03T13:14:59Z</time>
      </trkpt>
      <trkpt lat="54.144634986296296" lon="-9.742838004603982">
        <ele>33.299999999999997</ele>
        <time>2026-07-03T13:15:12Z</time>
      </trkpt>
      <trkpt lat="54.144630040973425" lon="-9.742783019319177">
        <ele>33.780000000000001</ele>
        <time>2026-07-03T13:15:13Z</time>
      </trkpt>
      <trkpt lat="54.144624006003141" lon="-9.742710012942553">
        <ele>33.780000000000001</ele>
        <time>2026-07-03T13:15:14Z</time>
      </trkpt>
      <trkpt lat="54.144558040425181" lon="-9.741913983598352">
        <ele>36.189999999999998</ele>
        <time>2026-07-03T13:15:24Z</time>
      </trkpt>
      <trkpt lat="54.144552005454898" lon="-9.741837959736586">
        <ele>36.189999999999998</ele>
        <time>2026-07-03T13:15:25Z</time>
      </trkpt>
      <trkpt lat="54.144510012120008" lon="-9.741334961727262">
        <ele>36.189999999999998</ele>
        <time>2026-07-03T13:15:34Z</time>
      </trkpt>
      <trkpt lat="54.144474975764751" lon="-9.740919973701239">
        <ele>35.710000000000001</ele>
        <time>2026-07-03T13:15:40Z</time>
      </trkpt>
      <trkpt lat="54.144467012956738" lon="-9.740817965939641">
        <ele>35.229999999999997</ele>
        <time>2026-07-03T13:15:41Z</time>
      </trkpt>
      <trkpt lat="54.144379002973437" lon="-9.739906014874578">
        <ele>33.299999999999997</ele>
        <time>2026-07-03T13:15:50Z</time>
      </trkpt>
      <trkpt lat="54.144367016851902" lon="-9.739827979356051">
        <ele>33.299999999999997</ele>
        <time>2026-07-03T13:15:51Z</time>
      </trkpt>
      <trkpt lat="54.144356958568096" lon="-9.739763019606471">
        <ele>32.82</ele>
        <time>2026-07-03T13:15:52Z</time>
      </trkpt>
      <trkpt lat="54.144338015466928" lon="-9.739641984924674">
        <ele>31.859999999999999</ele>
        <time>2026-07-03T13:16:00Z</time>
      </trkpt>
      <trkpt lat="54.144338015466928" lon="-9.739641984924674">
        <ele>31.859999999999999</ele>
        <time>2026-07-03T13:16:08Z</time>
      </trkpt>
      <trkpt lat="54.144331980496645" lon="-9.739637961611152">
        <ele>31.859999999999999</ele>
        <time>2026-07-03T13:16:09Z</time>
      </trkpt>
      <trkpt lat="54.144313959404826" lon="-9.739639973267913">
        <ele>31.859999999999999</ele>
        <time>2026-07-03T13:16:10Z</time>
      </trkpt>
      <trkpt lat="54.144296022132039" lon="-9.739641984924674">
        <ele>31.859999999999999</ele>
        <time>2026-07-03T13:16:11Z</time>
      </trkpt>
      <trkpt lat="54.144336003810167" lon="-9.739621030166745">
        <ele>31.859999999999999</ele>
        <time>2026-07-03T13:16:12Z</time>
      </trkpt>
      <trkpt lat="54.144339021295309" lon="-9.739646008238196">
        <ele>31.379999999999999</ele>
        <time>2026-07-03T13:16:13Z</time>
      </trkpt>
      <trkpt lat="54.144345978274941" lon="-9.739691019058228">
        <ele>31.379999999999999</ele>
        <time>2026-07-03T13:16:14Z</time>
      </trkpt>
      <trkpt lat="54.144357964396477" lon="-9.739766959100962">
        <ele>31.379999999999999</ele>
        <time>2026-07-03T13:16:15Z</time>
      </trkpt>
      <trkpt lat="54.144462989643216" lon="-9.740775972604752">
        <ele>32.340000000000003</ele>
        <time>2026-07-03T13:16:21Z</time>
      </trkpt>
      <trkpt lat="54.144541025161743" lon="-9.741708040237427">
        <ele>33.299999999999997</ele>
        <time>2026-07-03T13:16:28Z</time>
      </trkpt>
      <trkpt lat="54.14455502294004" lon="-9.741877019405365">
        <ele>32.82</ele>
        <time>2026-07-03T13:16:30Z</time>
      </trkpt>
      <trkpt lat="54.144560974091291" lon="-9.74195103161037">
        <ele>32.82</ele>
        <time>2026-07-03T13:16:31Z</time>
      </trkpt>
      <trkpt lat="54.144567009061575" lon="-9.742019008845091">
        <ele>32.82</ele>
        <time>2026-07-03T13:16:32Z</time>
      </trkpt>
      <trkpt lat="54.144591987133026" lon="-9.742320002987981">
        <ele>33.299999999999997</ele>
        <time>2026-07-03T13:16:41Z</time>
      </trkpt>
      <trkpt lat="54.144591987133026" lon="-9.742320002987981">
        <ele>33.299999999999997</ele>
        <time>2026-07-03T13:16:57Z</time>
      </trkpt>
      <trkpt lat="54.144591987133026" lon="-9.742320002987981">
        <ele>33.299999999999997</ele>
        <time>2026-07-03T13:17:40Z</time>
      </trkpt>
      <trkpt lat="54.144591987133026" lon="-9.742320002987981">
        <ele>33.780000000000001</ele>
        <time>2026-07-03T13:18:19Z</time>
      </trkpt>
      <trkpt lat="54.144591987133026" lon="-9.742320002987981">
        <ele>34.259999999999998</ele>
        <time>2026-07-03T13:19:05Z</time>
      </trkpt>
      <trkpt lat="54.144591987133026" lon="-9.742320002987981">
        <ele>34.259999999999998</ele>
        <time>2026-07-03T13:19:45Z</time>
      </trkpt>
      <trkpt lat="54.144606990739703" lon="-9.742505997419357">
        <ele>37.149999999999999</ele>
        <time>2026-07-03T13:20:01Z</time>
      </trkpt>
      <trkpt lat="54.144650995731354" lon="-9.743028022348881">
        <ele>38.590000000000003</ele>
        <time>2026-07-03T13:20:08Z</time>
      </trkpt>
      <trkpt lat="54.144658036530018" lon="-9.743102034553886">
        <ele>38.590000000000003</ele>
        <time>2026-07-03T13:20:09Z</time>
      </trkpt>
      <trkpt lat="54.144665999338031" lon="-9.743189038708806">
        <ele>38.590000000000003</ele>
        <time>2026-07-03T13:20:10Z</time>
      </trkpt>
      <trkpt lat="54.144673962146044" lon="-9.74328400567174">
        <ele>38.590000000000003</ele>
        <time>2026-07-03T13:20:11Z</time>
      </trkpt>
      <trkpt lat="54.144683014601469" lon="-9.743385007604957">
        <ele>38.590000000000003</ele>
        <time>2026-07-03T13:20:12Z</time>
      </trkpt>
      <trkpt lat="54.144692989066243" lon="-9.743501013144851">
        <ele>38.590000000000003</ele>
        <time>2026-07-03T13:20:13Z</time>
      </trkpt>
      <trkpt lat="54.144904967397451" lon="-9.744682023301721">
        <ele>35.710000000000001</ele>
        <time>2026-07-03T13:20:21Z</time>
      </trkpt>
      <trkpt lat="54.145262036472559" lon="-9.745576959103346">
        <ele>34.740000000000002</ele>
        <time>2026-07-03T13:20:29Z</time>
      </trkpt>
      <trkpt lat="54.145876010879874" lon="-9.746927032247186">
        <ele>37.630000000000003</ele>
        <time>2026-07-03T13:20:39Z</time>
      </trkpt>
      <trkpt lat="54.146150015294552" lon="-9.747504964470863">
        <ele>39.07</ele>
        <time>2026-07-03T13:20:44Z</time>
      </trkpt>
      <trkpt lat="54.146199971437454" lon="-9.747609989717603">
        <ele>39.07</ele>
        <time>2026-07-03T13:20:45Z</time>
      </trkpt>
      <trkpt lat="54.146185973659158" lon="-9.747745022177696">
        <ele>39.07</ele>
        <time>2026-07-03T13:20:46Z</time>
      </trkpt>
      <trkpt lat="54.14616895839572" lon="-9.74786102771759">
        <ele>39.549999999999997</ele>
        <time>2026-07-03T13:20:47Z</time>
      </trkpt>
      <trkpt lat="54.146150015294552" lon="-9.747988013550639">
        <ele>39.549999999999997</ele>
        <time>2026-07-03T13:20:48Z</time>
      </trkpt>
      <trkpt lat="54.146127970889211" lon="-9.748135032132268">
        <ele>39.549999999999997</ele>
        <time>2026-07-03T13:20:49Z</time>
      </trkpt>
      <trkpt lat="54.14599796757102" lon="-9.749969998374581">
        <ele>36.670000000000002</ele>
        <time>2026-07-03T13:20:59Z</time>
      </trkpt>
      <trkpt lat="54.145840974524617" lon="-9.752627983689308">
        <ele>31.379999999999999</ele>
        <time>2026-07-03T13:21:09Z</time>
      </trkpt>
      <trkpt lat="54.145304029807448" lon="-9.755479004234076">
        <ele>27.530000000000001</ele>
        <time>2026-07-03T13:21:19Z</time>
      </trkpt>
      <trkpt lat="54.144409010186791" lon="-9.759774981066585">
        <ele>22.73</ele>
        <time>2026-07-03T13:21:34Z</time>
      </trkpt>
      <trkpt lat="54.143477026373148" lon="-9.763847999274731">
        <ele>21.289999999999999</ele>
        <time>2026-07-03T13:21:48Z</time>
      </trkpt>
      <trkpt lat="54.143064972013235" lon="-9.765477022156119">
        <ele>21.289999999999999</ele>
        <time>2026-07-03T13:21:54Z</time>
      </trkpt>
      <trkpt lat="54.143050974234939" lon="-9.765764018520713">
        <ele>21.289999999999999</ele>
        <time>2026-07-03T13:21:55Z</time>
      </trkpt>
      <trkpt lat="54.143036976456642" lon="-9.766054032370448">
        <ele>20.809999999999999</ele>
        <time>2026-07-03T13:21:56Z</time>
      </trkpt>
      <trkpt lat="54.14296799339354" lon="-9.769262038171291">
        <ele>18.879999999999999</ele>
        <time>2026-07-03T13:22:07Z</time>
      </trkpt>
      <trkpt lat="54.143367977812886" lon="-9.771908037364483">
        <ele>17.920000000000002</ele>
        <time>2026-07-03T13:22:16Z</time>
      </trkpt>
      <trkpt lat="54.143926966935396" lon="-9.775607977062464">
        <ele>17.920000000000002</ele>
        <time>2026-07-03T13:22:28Z</time>
      </trkpt>
      <trkpt lat="54.144023023545742" lon="-9.775906959548593">
        <ele>17.440000000000001</ele>
        <time>2026-07-03T13:22:29Z</time>
      </trkpt>
      <trkpt lat="54.14414799772203" lon="-9.776141988113523">
        <ele>17.440000000000001</ele>
        <time>2026-07-03T13:22:30Z</time>
      </trkpt>
      <trkpt lat="54.145449958741665" lon="-9.778963001444936">
        <ele>16</ele>
        <time>2026-07-03T13:22:41Z</time>
      </trkpt>
      <trkpt lat="54.145839968696237" lon="-9.781060991808772">
        <ele>15.52</ele>
        <time>2026-07-03T13:22:48Z</time>
      </trkpt>
      <trkpt lat="54.145905012264848" lon="-9.784019971266389">
        <ele>14.56</ele>
        <time>2026-07-03T13:22:57Z</time>
      </trkpt>
      <trkpt lat="54.146172981709242" lon="-9.786454997956753">
        <ele>14.56</ele>
        <time>2026-07-03T13:23:05Z</time>
      </trkpt>
      <trkpt lat="54.146241964772344" lon="-9.786725984886289">
        <ele>14.56</ele>
        <time>2026-07-03T13:23:06Z</time>
      </trkpt>
      <trkpt lat="54.146394012495875" lon="-9.787195036187768">
        <ele>14.08</ele>
        <time>2026-07-03T13:23:08Z</time>
      </trkpt>
      <trkpt lat="54.146418990567327" lon="-9.787454959005117">
        <ele>13.6</ele>
        <time>2026-07-03T13:23:09Z</time>
      </trkpt>
      <trkpt lat="54.146418990567327" lon="-9.787711026147008">
        <ele>13.6</ele>
        <time>2026-07-03T13:23:10Z</time>
      </trkpt>
      <trkpt lat="54.146418990567327" lon="-9.787980001419783">
        <ele>13.119999999999999</ele>
        <time>2026-07-03T13:23:11Z</time>
      </trkpt>
      <trkpt lat="54.146413039416075" lon="-9.788256017491221">
        <ele>13.119999999999999</ele>
        <time>2026-07-03T13:23:12Z</time>
      </trkpt>
      <trkpt lat="54.146381020545959" lon="-9.788539996370673">
        <ele>13.119999999999999</ele>
        <time>2026-07-03T13:23:13Z</time>
      </trkpt>
      <trkpt lat="54.146349001675844" lon="-9.78883202187717">
        <ele>13.119999999999999</ele>
        <time>2026-07-03T13:23:14Z</time>
      </trkpt>
      <trkpt lat="54.145866958424449" lon="-9.793307958170772">
        <ele>12.630000000000001</ele>
        <time>2026-07-03T13:23:28Z</time>
      </trkpt>
      <trkpt lat="54.145666966214776" lon="-9.797258013859391">
        <ele>10.710000000000001</ele>
        <time>2026-07-03T13:23:39Z</time>
      </trkpt>
      <trkpt lat="54.145752964541316" lon="-9.800137029960752">
        <ele>10.710000000000001</ele>
        <time>2026-07-03T13:23:47Z</time>
      </trkpt>
      <trkpt lat="54.145753970369697" lon="-9.803060973063111">
        <ele>9.27</ele>
        <time>2026-07-03T13:23:56Z</time>
      </trkpt>
      <trkpt lat="54.145711977034807" lon="-9.804598968476057">
        <ele>8.789999999999999</ele>
        <time>2026-07-03T13:24:01Z</time>
      </trkpt>
      <trkpt lat="54.145640982314944" lon="-9.804853023961186">
        <ele>9.27</ele>
        <time>2026-07-03T13:24:02Z</time>
      </trkpt>
      <trkpt lat="54.14556697010994" lon="-9.805114958435297">
        <ele>9.27</ele>
        <time>2026-07-03T13:24:03Z</time>
      </trkpt>
      <trkpt lat="54.145018039271235" lon="-9.807735979557037">
        <ele>8.310000000000001</ele>
        <time>2026-07-03T13:24:12Z</time>
      </trkpt>
      <trkpt lat="54.144961964339018" lon="-9.808011995628476">
        <ele>7.83</ele>
        <time>2026-07-03T13:24:13Z</time>
      </trkpt>
      <trkpt lat="54.144874960184097" lon="-9.808246018365026">
        <ele>7.83</ele>
        <time>2026-07-03T13:24:14Z</time>
      </trkpt>
      <trkpt lat="54.144786028191447" lon="-9.808486998081207">
        <ele>7.83</ele>
        <time>2026-07-03T13:24:15Z</time>
      </trkpt>
      <trkpt lat="54.144665999338031" lon="-9.80870702303946">
        <ele>7.83</ele>
        <time>2026-07-03T13:24:16Z</time>
      </trkpt>
      <trkpt lat="54.144539013504982" lon="-9.808920007199049">
        <ele>8.310000000000001</ele>
        <time>2026-07-03T13:24:17Z</time>
      </trkpt>
      <trkpt lat="54.143307041376829" lon="-9.810783974826336">
        <ele>10.23</ele>
        <time>2026-07-03T13:24:26Z</time>
      </trkpt>
      <trkpt lat="54.141380041837692" lon="-9.813757035881281">
        <ele>13.6</ele>
        <time>2026-07-03T13:24:40Z</time>
      </trkpt>
      <trkpt lat="54.139518002048135" lon="-9.817164028063417">
        <ele>11.19</ele>
        <time>2026-07-03T13:24:55Z</time>
      </trkpt>
      <trkpt lat="54.139023972675204" lon="-9.817948993295431">
        <ele>11.67</ele>
        <time>2026-07-03T13:24:59Z</time>
      </trkpt>
      <trkpt lat="54.137749001383781" lon="-9.819130003452301">
        <ele>14.08</ele>
        <time>2026-07-03T13:25:07Z</time>
      </trkpt>
      <trkpt lat="54.13536099717021" lon="-9.821717999875546">
        <ele>17.920000000000002</ele>
        <time>2026-07-03T13:25:22Z</time>
      </trkpt>
      <trkpt lat="54.133487977087498" lon="-9.823997961357236">
        <ele>17.920000000000002</ele>
        <time>2026-07-03T13:25:34Z</time>
      </trkpt>
      <trkpt lat="54.131130985915661" lon="-9.827365977689624">
        <ele>15.52</ele>
        <time>2026-07-03T13:25:50Z</time>
      </trkpt>
      <trkpt lat="54.130387008190155" lon="-9.828590992838144">
        <ele>17.440000000000001</ele>
        <time>2026-07-03T13:25:56Z</time>
      </trkpt>
      <trkpt lat="54.130317019298673" lon="-9.82881797477603">
        <ele>17.440000000000001</ele>
        <time>2026-07-03T13:25:57Z</time>
      </trkpt>
      <trkpt lat="54.1302689909935" lon="-9.829057026654482">
        <ele>17.440000000000001</ele>
        <time>2026-07-03T13:25:58Z</time>
      </trkpt>
      <trkpt lat="54.130222974345088" lon="-9.829318961128593">
        <ele>16.960000000000001</ele>
        <time>2026-07-03T13:25:59Z</time>
      </trkpt>
      <trkpt lat="54.130174024030566" lon="-9.829599000513554">
        <ele>16.48</ele>
        <time>2026-07-03T13:26:00Z</time>
      </trkpt>
      <trkpt lat="54.129505986347795" lon="-9.832981014624238">
        <ele>14.56</ele>
        <time>2026-07-03T13:26:11Z</time>
      </trkpt>
      <trkpt lat="54.128626976162195" lon="-9.836817998439074">
        <ele>16.48</ele>
        <time>2026-07-03T13:26:24Z</time>
      </trkpt>
      <trkpt lat="54.127833964303136" lon="-9.840276036411524">
        <ele>16.960000000000001</ele>
        <time>2026-07-03T13:26:36Z</time>
      </trkpt>
      <trkpt lat="54.126984039321542" lon="-9.843927025794983">
        <ele>18.879999999999999</ele>
        <time>2026-07-03T13:26:49Z</time>
      </trkpt>
      <trkpt lat="54.126778012141585" lon="-9.845162015408278">
        <ele>19.359999999999999</ele>
        <time>2026-07-03T13:26:53Z</time>
      </trkpt>
      <trkpt lat="54.126769965514541" lon="-9.845500979572535">
        <ele>19.359999999999999</ele>
        <time>2026-07-03T13:26:54Z</time>
      </trkpt>
      <trkpt lat="54.126778012141585" lon="-9.845824018120766">
        <ele>19.84</ele>
        <time>2026-07-03T13:26:55Z</time>
      </trkpt>
      <trkpt lat="54.126863004639745" lon="-9.850378995761275">
        <ele>19.84</ele>
        <time>2026-07-03T13:27:08Z</time>
      </trkpt>
      <trkpt lat="54.126836014911532" lon="-9.852892979979515">
        <ele>18.879999999999999</ele>
        <time>2026-07-03T13:27:16Z</time>
      </trkpt>
      <trkpt lat="54.126591011881828" lon="-9.856501976028085">
        <ele>17.440000000000001</ele>
        <time>2026-07-03T13:27:27Z</time>
      </trkpt>
      <trkpt lat="54.125774027779698" lon="-9.860196970403194">
        <ele>18.399999999999999</ele>
        <time>2026-07-03T13:27:39Z</time>
      </trkpt>
      <trkpt lat="54.124870039522648" lon="-9.864277029410005">
        <ele>16.48</ele>
        <time>2026-07-03T13:27:52Z</time>
      </trkpt>
      <trkpt lat="54.124267967417836" lon="-9.868229012936354">
        <ele>14.08</ele>
        <time>2026-07-03T13:28:05Z</time>
      </trkpt>
      <trkpt lat="54.123789025470614" lon="-9.872559020295739">
        <ele>5.91</ele>
        <time>2026-07-03T13:28:18Z</time>
      </trkpt>
      <trkpt lat="54.123177984729409" lon="-9.875384978950024">
        <ele>11.19</ele>
        <time>2026-07-03T13:28:27Z</time>
      </trkpt>
      <trkpt lat="54.122093031182885" lon="-9.878574963659048">
        <ele>11.67</ele>
        <time>2026-07-03T13:28:38Z</time>
      </trkpt>
      <trkpt lat="54.120933981612325" lon="-9.881875002756715">
        <ele>7.35</ele>
        <time>2026-07-03T13:28:49Z</time>
      </trkpt>
      <trkpt lat="54.119937960058451" lon="-9.883913984522224">
        <ele>7.35</ele>
        <time>2026-07-03T13:28:57Z</time>
      </trkpt>
      <trkpt lat="54.118081033229828" lon="-9.887392977252603">
        <ele>10.710000000000001</ele>
        <time>2026-07-03T13:29:12Z</time>
      </trkpt>
      <trkpt lat="54.116989960893989" lon="-9.889598004519939">
        <ele>7.83</ele>
        <time>2026-07-03T13:29:22Z</time>
      </trkpt>
      <trkpt lat="54.11602302454412" lon="-9.891556017100811">
        <ele>9.75</ele>
        <time>2026-07-03T13:29:33Z</time>
      </trkpt>
      <trkpt lat="54.115884974598885" lon="-9.891833961009979">
        <ele>10.23</ele>
        <time>2026-07-03T13:29:38Z</time>
      </trkpt>
      <trkpt lat="54.115884974598885" lon="-9.891833961009979">
        <ele>10.23</ele>
        <time>2026-07-03T13:29:50Z</time>
      </trkpt>
      <trkpt lat="54.11587399430573" lon="-9.891857011243701">
        <ele>10.23</ele>
        <time>2026-07-03T13:29:51Z</time>
      </trkpt>
      <trkpt lat="54.115857984870672" lon="-9.891889030113816">
        <ele>10.710000000000001</ele>
        <time>2026-07-03T13:29:52Z</time>
      </trkpt>
      <trkpt lat="54.115841975435615" lon="-9.891919959336519">
        <ele>10.710000000000001</ele>
        <time>2026-07-03T13:29:53Z</time>
      </trkpt>
      <trkpt lat="54.115870976820588" lon="-9.892098996788263">
        <ele>10.710000000000001</ele>
        <time>2026-07-03T13:29:54Z</time>
      </trkpt>
      <trkpt lat="54.11589696072042" lon="-9.892100002616644">
        <ele>10.23</ele>
        <time>2026-07-03T13:29:55Z</time>
      </trkpt>
      <trkpt lat="54.115936020389199" lon="-9.892102014273405">
        <ele>9.75</ele>
        <time>2026-07-03T13:29:56Z</time>
      </trkpt>
      <trkpt lat="54.115982037037611" lon="-9.892104025930166">
        <ele>9.75</ele>
        <time>2026-07-03T13:29:57Z</time>
      </trkpt>
      <trkpt lat="54.116042973473668" lon="-9.892106037586927">
        <ele>9.27</ele>
        <time>2026-07-03T13:29:58Z</time>
      </trkpt>
      <trkpt lat="54.116272972896695" lon="-9.892117017880082">
        <ele>7.83</ele>
        <time>2026-07-03T13:30:01Z</time>
      </trkpt>
      <trkpt lat="54.116362994536757" lon="-9.892159011214972">
        <ele>7.35</ele>
        <time>2026-07-03T13:30:02Z</time>
      </trkpt>
      <trkpt lat="54.116459973156452" lon="-9.892205027863383">
        <ele>6.39</ele>
        <time>2026-07-03T13:30:03Z</time>
      </trkpt>
      <trkpt lat="54.11656198091805" lon="-9.892253978177905">
        <ele>6.39</ele>
        <time>2026-07-03T13:30:04Z</time>
      </trkpt>
      <trkpt lat="54.116664994508028" lon="-9.892303012311459">
        <ele>5.42</ele>
        <time>2026-07-03T13:30:05Z</time>
      </trkpt>
      <trkpt lat="54.116773959249258" lon="-9.892396973446012">
        <ele>5.42</ele>
        <time>2026-07-03T13:30:06Z</time>
      </trkpt>
      <trkpt lat="54.11686398088932" lon="-9.892512978985906">
        <ele>4.94</ele>
        <time>2026-07-03T13:30:07Z</time>
      </trkpt>
      <trkpt lat="54.116958025842905" lon="-9.892635019496083">
        <ele>4.94</ele>
        <time>2026-07-03T13:30:08Z</time>
      </trkpt>
      <trkpt lat="54.117053998634219" lon="-9.89275798201561">
        <ele>4.94</ele>
        <time>2026-07-03T13:30:09Z</time>
      </trkpt>
      <trkpt lat="54.118197038769722" lon="-9.894664026796818">
        <ele>6.87</ele>
        <time>2026-07-03T13:30:22Z</time>
      </trkpt>
      <trkpt lat="54.118959037587047" lon="-9.895969005301595">
        <ele>6.39</ele>
        <time>2026-07-03T13:30:28Z</time>
      </trkpt>
      <trkpt lat="54.120431989431381" lon="-9.898411994799972">
        <ele>6.39</ele>
        <time>2026-07-03T13:30:37Z</time>
      </trkpt>
      <trkpt lat="54.122166037559509" lon="-9.901281958445907">
        <ele>10.23</ele>
        <time>2026-07-03T13:30:49Z</time>
      </trkpt>
      <trkpt lat="54.12311595864594" lon="-9.902498004958034">
        <ele>10.23</ele>
        <time>2026-07-03T13:30:57Z</time>
      </trkpt>
      <trkpt lat="54.123250991106033" lon="-9.902576040476561">
        <ele>10.23</ele>
        <time>2026-07-03T13:30:58Z</time>
      </trkpt>
      <trkpt lat="54.123376971110702" lon="-9.902604036033154">
        <ele>10.710000000000001</ele>
        <time>2026-07-03T13:30:59Z</time>
      </trkpt>
      <trkpt lat="54.123499011620879" lon="-9.902632031589747">
        <ele>10.710000000000001</ele>
        <time>2026-07-03T13:31:00Z</time>
      </trkpt>
      <trkpt lat="54.123631026595831" lon="-9.902633037418127">
        <ele>11.19</ele>
        <time>2026-07-03T13:31:01Z</time>
      </trkpt>
      <trkpt lat="54.123756000772119" lon="-9.90257796831429">
        <ele>11.67</ele>
        <time>2026-07-03T13:31:02Z</time>
      </trkpt>
      <trkpt lat="54.123884998261929" lon="-9.902520971372724">
        <ele>11.67</ele>
        <time>2026-07-03T13:31:03Z</time>
      </trkpt>
      <trkpt lat="54.125416958704591" lon="-9.902079999446869">
        <ele>11.19</ele>
        <time>2026-07-03T13:31:13Z</time>
      </trkpt>
      <trkpt lat="54.127818960696459" lon="-9.90160902030766">
        <ele>7.83</ele>
        <time>2026-07-03T13:31:26Z</time>
      </trkpt>
      <trkpt lat="54.129272969439626" lon="-9.901721002534032">
        <ele>10.710000000000001</ele>
        <time>2026-07-03T13:31:34Z</time>
      </trkpt>
      <trkpt lat="54.131991975009441" lon="-9.902938976883888">
        <ele>13.119999999999999</ele>
        <time>2026-07-03T13:31:49Z</time>
      </trkpt>
      <trkpt lat="54.135056985542178" lon="-9.904373958706856">
        <ele>17.920000000000002</ele>
        <time>2026-07-03T13:32:06Z</time>
      </trkpt>
      <trkpt lat="54.137266036123037" lon="-9.905381966382265">
        <ele>23.210000000000001</ele>
        <time>2026-07-03T13:32:18Z</time>
      </trkpt>
      <trkpt lat="54.138129036873579" lon="-9.906226024031639">
        <ele>26.09</ele>
        <time>2026-07-03T13:32:24Z</time>
      </trkpt>
      <trkpt lat="54.139646999537945" lon="-9.908459968864918">
        <ele>24.170000000000002</ele>
        <time>2026-07-03T13:32:35Z</time>
      </trkpt>
      <trkpt lat="54.141653040423989" lon="-9.91179596632719">
        <ele>18.879999999999999</ele>
        <time>2026-07-03T13:32:49Z</time>
      </trkpt>
      <trkpt lat="54.143178965896368" lon="-9.914535004645586">
        <ele>15.52</ele>
        <time>2026-07-03T13:33:00Z</time>
      </trkpt>
      <trkpt lat="54.143438972532749" lon="-9.915001960471273">
        <ele>14.56</ele>
        <time>2026-07-03T13:33:02Z</time>
      </trkpt>
      <trkpt lat="54.143597977235913" lon="-9.915172029286623">
        <ele>14.56</ele>
        <time>2026-07-03T13:33:03Z</time>
      </trkpt>
      <trkpt lat="54.143770979717374" lon="-9.915313012897968">
        <ele>14.08</ele>
        <time>2026-07-03T13:33:04Z</time>
      </trkpt>
      <trkpt lat="54.145813984796405" lon="-9.917014958336949">
        <ele>10.710000000000001</ele>
        <time>2026-07-03T13:33:15Z</time>
      </trkpt>
      <trkpt lat="54.148121019825339" lon="-9.919046983122826">
        <ele>10.23</ele>
        <time>2026-07-03T13:33:28Z</time>
      </trkpt>
      <trkpt lat="54.149782983586192" lon="-9.92056000046432">
        <ele>5.91</ele>
        <time>2026-07-03T13:33:38Z</time>
      </trkpt>
      <trkpt lat="54.150517992675304" lon="-9.920865017920733">
        <ele>4.46</ele>
        <time>2026-07-03T13:33:42Z</time>
      </trkpt>
      <trkpt lat="54.150695018470287" lon="-9.920893013477325">
        <ele>4.46</ele>
        <time>2026-07-03T13:33:43Z</time>
      </trkpt>
      <trkpt lat="54.150877995416522" lon="-9.92092302069068">
        <ele>3.98</ele>
        <time>2026-07-03T13:33:44Z</time>
      </trkpt>
      <trkpt lat="54.15183998644352" lon="-9.920699978247285">
        <ele>7.35</ele>
        <time>2026-07-03T13:33:49Z</time>
      </trkpt>
      <trkpt lat="54.152024975046515" lon="-9.920598976314068">
        <ele>7.83</ele>
        <time>2026-07-03T13:33:50Z</time>
      </trkpt>
      <trkpt lat="54.153454005718231" lon="-9.919209005311132">
        <ele>11.67</ele>
        <time>2026-07-03T13:33:58Z</time>
      </trkpt>
      <trkpt lat="54.154742974787951" lon="-9.917263984680176">
        <ele>13.119999999999999</ele>
        <time>2026-07-03T13:34:07Z</time>
      </trkpt>
      <trkpt lat="54.155856007710099" lon="-9.915246041491628">
        <ele>11.19</ele>
        <time>2026-07-03T13:34:16Z</time>
      </trkpt>
      <trkpt lat="54.156402004882693" lon="-9.914428973570466">
        <ele>10.23</ele>
        <time>2026-07-03T13:34:21Z</time>
      </trkpt>
      <trkpt lat="54.156492026522756" lon="-9.914322020485997">
        <ele>10.23</ele>
        <time>2026-07-03T13:34:22Z</time>
      </trkpt>
      <trkpt lat="54.15658799931407" lon="-9.914299976080656">
        <ele>10.23</ele>
        <time>2026-07-03T13:34:23Z</time>
      </trkpt>
      <trkpt lat="54.15669796988368" lon="-9.914274998009205">
        <ele>10.23</ele>
        <time>2026-07-03T13:34:24Z</time>
      </trkpt>
      <trkpt lat="54.156820010393858" lon="-9.914256976917386">
        <ele>10.23</ele>
        <time>2026-07-03T13:34:25Z</time>
      </trkpt>
      <trkpt lat="54.15749098174274" lon="-9.914216995239258">
        <ele>9.27</ele>
        <time>2026-07-03T13:34:30Z</time>
      </trkpt>
      <trkpt lat="54.157605981454253" lon="-9.914302993565798">
        <ele>9.75</ele>
        <time>2026-07-03T13:34:31Z</time>
      </trkpt>
      <trkpt lat="54.157731039449573" lon="-9.914397038519383">
        <ele>9.75</ele>
        <time>2026-07-03T13:34:32Z</time>
      </trkpt>
      <trkpt lat="54.157847966998816" lon="-9.914549002423883">
        <ele>9.75</ele>
        <time>2026-07-03T13:34:33Z</time>
      </trkpt>
      <trkpt lat="54.15796397253871" lon="-9.914710018783808">
        <ele>10.23</ele>
        <time>2026-07-03T13:34:34Z</time>
      </trkpt>
      <trkpt lat="54.158469988033175" lon="-9.915416026487947">
        <ele>11.19</ele>
        <time>2026-07-03T13:34:38Z</time>
      </trkpt>
      <trkpt lat="54.15862999856472" lon="-9.915579976513982">
        <ele>10.710000000000001</ele>
        <time>2026-07-03T13:34:39Z</time>
      </trkpt>
      <trkpt lat="54.158790009096265" lon="-9.915659017860889">
        <ele>10.710000000000001</ele>
        <time>2026-07-03T13:34:40Z</time>
      </trkpt>
      <trkpt lat="54.160532020032406" lon="-9.916494023054838">
        <ele>9.75</ele>
        <time>2026-07-03T13:34:50Z</time>
      </trkpt>
      <trkpt lat="54.161891983821988" lon="-9.917124006897211">
        <ele>9.75</ele>
        <time>2026-07-03T13:34:58Z</time>
      </trkpt>
      <trkpt lat="54.16327097453177" lon="-9.917923975735903">
        <ele>11.19</ele>
        <time>2026-07-03T13:35:07Z</time>
      </trkpt>
      <trkpt lat="54.164137998595834" lon="-9.91899099200964">
        <ele>11.19</ele>
        <time>2026-07-03T13:35:14Z</time>
      </trkpt>
      <trkpt lat="54.164254004135728" lon="-9.919065004214644">
        <ele>11.19</ele>
        <time>2026-07-03T13:35:15Z</time>
      </trkpt>
      <trkpt lat="54.164358023554087" lon="-9.919130969792604">
        <ele>11.19</ele>
        <time>2026-07-03T13:35:16Z</time>
      </trkpt>
      <trkpt lat="54.164481991901994" lon="-9.919073972851038">
        <ele>11.19</ele>
        <time>2026-07-03T13:35:17Z</time>
      </trkpt>
      <trkpt lat="54.164596991613507" lon="-9.919020999222994">
        <ele>11.67</ele>
        <time>2026-07-03T13:35:18Z</time>
      </trkpt>
      <trkpt lat="54.164706040173769" lon="-9.918915973976255">
        <ele>12.630000000000001</ele>
        <time>2026-07-03T13:35:19Z</time>
      </trkpt>
      <trkpt lat="54.16481601074338" lon="-9.918779013678432">
        <ele>13.119999999999999</ele>
        <time>2026-07-03T13:35:20Z</time>
      </trkpt>
      <trkpt lat="54.165664007887244" lon="-9.917722977697849">
        <ele>19.359999999999999</ele>
        <time>2026-07-03T13:35:27Z</time>
      </trkpt>
      <trkpt lat="54.165796022862196" lon="-9.917586017400026">
        <ele>20.32</ele>
        <time>2026-07-03T13:35:28Z</time>
      </trkpt>
      <trkpt lat="54.165939018130302" lon="-9.917581994086504">
        <ele>20.809999999999999</ele>
        <time>2026-07-03T13:35:29Z</time>
      </trkpt>
      <trkpt lat="54.166089976206422" lon="-9.917578976601362">
        <ele>21.77</ele>
        <time>2026-07-03T13:35:30Z</time>
      </trkpt>
      <trkpt lat="54.166254010051489" lon="-9.917575037106872">
        <ele>22.25</ele>
        <time>2026-07-03T13:35:31Z</time>
      </trkpt>
      <trkpt lat="54.167927037924528" lon="-9.917528014630079">
        <ele>26.57</ele>
        <time>2026-07-03T13:35:40Z</time>
      </trkpt>
      <trkpt lat="54.169936012476683" lon="-9.916896019130945">
        <ele>30.420000000000002</ele>
        <time>2026-07-03T13:35:50Z</time>
      </trkpt>
      <trkpt lat="54.172362992540002" lon="-9.916002005338669">
        <ele>37.630000000000003</ele>
        <time>2026-07-03T13:36:03Z</time>
      </trkpt>
      <trkpt lat="54.173591025173664" lon="-9.915427006781101">
        <ele>38.109999999999999</ele>
        <time>2026-07-03T13:36:10Z</time>
      </trkpt>
      <trkpt lat="54.173741983249784" lon="-9.91527495905757">
        <ele>37.630000000000003</ele>
        <time>2026-07-03T13:36:11Z</time>
      </trkpt>
      <trkpt lat="54.173902999609709" lon="-9.915105979889631">
        <ele>36.670000000000002</ele>
        <time>2026-07-03T13:36:12Z</time>
      </trkpt>
      <trkpt lat="54.175943993031979" lon="-9.912834987044334">
        <ele>27.050000000000001</ele>
        <time>2026-07-03T13:36:24Z</time>
      </trkpt>
      <trkpt lat="54.178127981722355" lon="-9.910428961738944">
        <ele>30.899999999999999</ele>
        <time>2026-07-03T13:36:37Z</time>
      </trkpt>
      <trkpt lat="54.180303001776338" lon="-9.909046031534672">
        <ele>33.299999999999997</ele>
        <time>2026-07-03T13:36:49Z</time>
      </trkpt>
      <trkpt lat="54.182614982128143" lon="-9.908199962228537">
        <ele>26.09</ele>
        <time>2026-07-03T13:37:01Z</time>
      </trkpt>
      <trkpt lat="54.184975996613503" lon="-9.907721020281315">
        <ele>15.52</ele>
        <time>2026-07-03T13:37:13Z</time>
      </trkpt>
      <trkpt lat="54.187666000798345" lon="-9.907341990619898">
        <ele>10.710000000000001</ele>
        <time>2026-07-03T13:37:26Z</time>
      </trkpt>
      <trkpt lat="54.189329976215959" lon="-9.906977964565158">
        <ele>10.710000000000001</ele>
        <time>2026-07-03T13:37:35Z</time>
      </trkpt>
      <trkpt lat="54.191270973533392" lon="-9.906007004901767">
        <ele>22.25</ele>
        <time>2026-07-03T13:37:46Z</time>
      </trkpt>
      <trkpt lat="54.191771959885955" lon="-9.90575797855854">
        <ele>29.460000000000001</ele>
        <time>2026-07-03T13:37:52Z</time>
      </trkpt>
      <trkpt lat="54.191864999011159" lon="-9.90571497939527">
        <ele>30.899999999999999</ele>
        <time>2026-07-03T13:37:54Z</time>
      </trkpt>
      <trkpt lat="54.191903974860907" lon="-9.905696958303452">
        <ele>31.859999999999999</ele>
        <time>2026-07-03T13:37:55Z</time>
      </trkpt>
      <trkpt lat="54.191933982074261" lon="-9.905682960525155">
        <ele>32.82</ele>
        <time>2026-07-03T13:37:56Z</time>
      </trkpt>
      <trkpt lat="54.191957032307982" lon="-9.905671980232">
        <ele>33.299999999999997</ele>
        <time>2026-07-03T13:37:57Z</time>
      </trkpt>
      <trkpt lat="54.19197597540915" lon="-9.905663011595607">
        <ele>33.780000000000001</ele>
        <time>2026-07-03T13:37:58Z</time>
      </trkpt>
      <trkpt lat="54.192096004262567" lon="-9.90573400631547">
        <ele>35.710000000000001</ele>
        <time>2026-07-03T13:38:05Z</time>
      </trkpt>
      <trkpt lat="54.192144032567739" lon="-9.905815981328487">
        <ele>35.710000000000001</ele>
        <time>2026-07-03T13:38:06Z</time>
      </trkpt>
      <trkpt lat="54.192199017852545" lon="-9.905911032110453">
        <ele>35.710000000000001</ele>
        <time>2026-07-03T13:38:07Z</time>
      </trkpt>
      <trkpt lat="54.192760018631816" lon="-9.906824994832277">
        <ele>35.229999999999997</ele>
        <time>2026-07-03T13:38:14Z</time>
      </trkpt>
      <trkpt lat="54.193891994655132" lon="-9.908141037449241">
        <ele>32.340000000000003</ele>
        <time>2026-07-03T13:38:22Z</time>
      </trkpt>
      <trkpt lat="54.195488998666406" lon="-9.909249963238835">
        <ele>25.129999999999999</ele>
        <time>2026-07-03T13:38:31Z</time>
      </trkpt>
      <trkpt lat="54.197326982393861" lon="-9.910346986725926">
        <ele>19.359999999999999</ele>
        <time>2026-07-03T13:38:42Z</time>
      </trkpt>
      <trkpt lat="54.199245013296604" lon="-9.911789009347558">
        <ele>11.19</ele>
        <time>2026-07-03T13:38:54Z</time>
      </trkpt>
      <trkpt lat="54.199382979422808" lon="-9.911985984072089">
        <ele>9.75</ele>
        <time>2026-07-03T13:38:55Z</time>
      </trkpt>
      <trkpt lat="54.199492027983069" lon="-9.91224599070847">
        <ele>8.789999999999999</ele>
        <time>2026-07-03T13:38:56Z</time>
      </trkpt>
      <trkpt lat="54.199594035744667" lon="-9.912505997344852">
        <ele>7.83</ele>
        <time>2026-07-03T13:38:57Z</time>
      </trkpt>
      <trkpt lat="54.200299959629774" lon="-9.91426401771605">
        <ele>3.5</ele>
        <time>2026-07-03T13:39:04Z</time>
      </trkpt>
      <trkpt lat="54.20080597512424" lon="-9.915240006521344">
        <ele>2.54</ele>
        <time>2026-07-03T13:39:12Z</time>
      </trkpt>
      <trkpt lat="54.201026000082493" lon="-9.915661029517651">
        <ele>2.06</ele>
        <time>2026-07-03T13:39:16Z</time>
      </trkpt>
      <trkpt lat="54.201065981760621" lon="-9.915736969560385">
        <ele>2.06</ele>
        <time>2026-07-03T13:39:17Z</time>
      </trkpt>
      <trkpt lat="54.201124990358949" lon="-9.91591801866889">
        <ele>2.54</ele>
        <time>2026-07-03T13:39:18Z</time>
      </trkpt>
      <trkpt lat="54.201100012287498" lon="-9.916028995066881">
        <ele>2.54</ele>
        <time>2026-07-03T13:39:19Z</time>
      </trkpt>
      <trkpt lat="54.201067993417382" lon="-9.916166961193085">
        <ele>3.02</ele>
        <time>2026-07-03T13:39:20Z</time>
      </trkpt>
      <trkpt lat="54.201032035052776" lon="-9.916326971724629">
        <ele>3.02</ele>
        <time>2026-07-03T13:39:21Z</time>
      </trkpt>
      <trkpt lat="54.200990963727236" lon="-9.916506009176374">
        <ele>3.5</ele>
        <time>2026-07-03T13:39:22Z</time>
      </trkpt>
      <trkpt lat="54.200567007064819" lon="-9.918358996510506">
        <ele>5.42</ele>
        <time>2026-07-03T13:39:30Z</time>
      </trkpt>
      <trkpt lat="54.199666036292911" lon="-9.922303017228842">
        <ele>10.23</ele>
        <time>2026-07-03T13:39:44Z</time>
      </trkpt>
      <trkpt lat="54.198808986693621" lon="-9.926584996283054">
        <ele>11.19</ele>
        <time>2026-07-03T13:39:58Z</time>
      </trkpt>
      <trkpt lat="54.198208004236221" lon="-9.92984002456069">
        <ele>15.039999999999999</ele>
        <time>2026-07-03T13:40:09Z</time>
      </trkpt>
      <trkpt lat="54.197840038686991" lon="-9.932844014838338">
        <ele>16</ele>
        <time>2026-07-03T13:40:20Z</time>
      </trkpt>
      <trkpt lat="54.197708023712039" lon="-9.935350958257914">
        <ele>20.809999999999999</ele>
        <time>2026-07-03T13:40:30Z</time>
      </trkpt>
      <trkpt lat="54.198016980662942" lon="-9.93718801997602">
        <ele>21.77</ele>
        <time>2026-07-03T13:40:38Z</time>
      </trkpt>
      <trkpt lat="54.198663979768753" lon="-9.940172983333468">
        <ele>21.289999999999999</ele>
        <time>2026-07-03T13:40:51Z</time>
      </trkpt>
      <trkpt lat="54.199308967217803" lon="-9.942713035270572">
        <ele>20.32</ele>
        <time>2026-07-03T13:41:02Z</time>
      </trkpt>
      <trkpt lat="54.200024027377367" lon="-9.945213021710515">
        <ele>17.440000000000001</ele>
        <time>2026-07-03T13:41:12Z</time>
      </trkpt>
      <trkpt lat="54.201001022011042" lon="-9.948635017499328">
        <ele>22.25</ele>
        <time>2026-07-03T13:41:27Z</time>
      </trkpt>
      <trkpt lat="54.201822029426694" lon="-9.951494000852108">
        <ele>22.73</ele>
        <time>2026-07-03T13:41:40Z</time>
      </trkpt>
      <trkpt lat="54.202644964680076" lon="-9.95360397733748">
        <ele>24.649999999999999</ele>
        <time>2026-07-03T13:41:50Z</time>
      </trkpt>
      <trkpt lat="54.204023033380508" lon="-9.955739015713334">
        <ele>24.170000000000002</ele>
        <time>2026-07-03T13:42:02Z</time>
      </trkpt>
      <trkpt lat="54.205588018521667" lon="-9.958038004115224">
        <ele>23.690000000000001</ele>
        <time>2026-07-03T13:42:16Z</time>
      </trkpt>
      <trkpt lat="54.206848992034793" lon="-9.960595993325114">
        <ele>22.73</ele>
        <time>2026-07-03T13:42:29Z</time>
      </trkpt>
      <trkpt lat="54.208384975790977" lon="-9.963713977485895">
        <ele>19.359999999999999</ele>
        <time>2026-07-03T13:42:45Z</time>
      </trkpt>
      <trkpt lat="54.209896987304091" lon="-9.966782005503774">
        <ele>17.440000000000001</ele>
        <time>2026-07-03T13:43:01Z</time>
      </trkpt>
      <trkpt lat="54.210635013878345" lon="-9.96827800758183">
        <ele>16</ele>
        <time>2026-07-03T13:43:10Z</time>
      </trkpt>
      <trkpt lat="54.211352001875639" lon="-9.969734027981758">
        <ele>12.630000000000001</ele>
        <time>2026-07-03T13:43:19Z</time>
      </trkpt>
      <trkpt lat="54.212585985660553" lon="-9.972237031906843">
        <ele>11.67</ele>
        <time>2026-07-03T13:43:33Z</time>
      </trkpt>
      <trkpt lat="54.213822986930609" lon="-9.9748520180583">
        <ele>12.15</ele>
        <time>2026-07-03T13:43:46Z</time>
      </trkpt>
      <trkpt lat="54.21515897847712" lon="-9.977545039728284">
        <ele>15.039999999999999</ele>
        <time>2026-07-03T13:43:59Z</time>
      </trkpt>
      <trkpt lat="54.216283997520804" lon="-9.979672031477094">
        <ele>17.440000000000001</ele>
        <time>2026-07-03T13:44:11Z</time>
      </trkpt>
      <trkpt lat="54.216829994693398" lon="-9.980699988082051">
        <ele>17.920000000000002</ele>
        <time>2026-07-03T13:44:21Z</time>
      </trkpt>
      <trkpt lat="54.217468025162816" lon="-9.981847973540425">
        <ele>19.84</ele>
        <time>2026-07-03T13:44:31Z</time>
      </trkpt>
      <trkpt lat="54.218377964571118" lon="-9.983638012781739">
        <ele>23.210000000000001</ele>
        <time>2026-07-03T13:44:42Z</time>
      </trkpt>
      <trkpt lat="54.218627996742725" lon="-9.984104968607426">
        <ele>23.210000000000001</ele>
        <time>2026-07-03T13:44:47Z</time>
      </trkpt>
      <trkpt lat="54.219087995588779" lon="-9.984974004328251">
        <ele>23.690000000000001</ele>
        <time>2026-07-03T13:44:56Z</time>
      </trkpt>
      <trkpt lat="54.219173993915319" lon="-9.985106019303203">
        <ele>23.690000000000001</ele>
        <time>2026-07-03T13:44:57Z</time>
      </trkpt>
      <trkpt lat="54.219262003898621" lon="-9.985242979601026">
        <ele>23.690000000000001</ele>
        <time>2026-07-03T13:44:58Z</time>
      </trkpt>
      <trkpt lat="54.219379015266895" lon="-9.985342975705862">
        <ele>23.690000000000001</ele>
        <time>2026-07-03T13:44:59Z</time>
      </trkpt>
      <trkpt lat="54.220433961600065" lon="-9.986141016706824">
        <ele>24.170000000000002</ele>
        <time>2026-07-03T13:45:09Z</time>
      </trkpt>
      <trkpt lat="54.221449010074139" lon="-9.986671004444361">
        <ele>19.359999999999999</ele>
        <time>2026-07-03T13:45:19Z</time>
      </trkpt>
      <trkpt lat="54.222715012729168" lon="-9.987247008830309">
        <ele>13.119999999999999</ele>
        <time>2026-07-03T13:45:32Z</time>
      </trkpt>
      <trkpt lat="54.223470976576209" lon="-9.987484971061349">
        <ele>11.19</ele>
        <time>2026-07-03T13:45:41Z</time>
      </trkpt>
      <trkpt lat="54.223491009324789" lon="-9.987491006031632">
        <ele>10.23</ele>
        <time>2026-07-03T13:45:49Z</time>
      </trkpt>
      <trkpt lat="54.223660994321108" lon="-9.987531993538141">
        <ele>7.83</ele>
        <time>2026-07-03T13:46:02Z</time>
      </trkpt>
      <trkpt lat="54.223796026781201" lon="-9.987558983266354">
        <ele>6.39</ele>
        <time>2026-07-03T13:46:06Z</time>
      </trkpt>
      <trkpt lat="54.223896022886038" lon="-9.987650010734797">
        <ele>6.39</ele>
        <time>2026-07-03T13:46:07Z</time>
      </trkpt>
      <trkpt lat="54.224059972912073" lon="-9.987625032663345">
        <ele>5.42</ele>
        <time>2026-07-03T13:46:10Z</time>
      </trkpt>
      <trkpt lat="54.224890032783151" lon="-9.9879589676857">
        <ele>5.42</ele>
        <time>2026-07-03T13:46:22Z</time>
      </trkpt>
      <trkpt lat="54.225567039102316" lon="-9.98823800124228">
        <ele>3.98</ele>
        <time>2026-07-03T13:46:31Z</time>
      </trkpt>
      <trkpt lat="54.226499022915959" lon="-9.988590041175485">
        <ele>3.5</ele>
        <time>2026-07-03T13:46:40Z</time>
      </trkpt>
      <trkpt lat="54.227537037804723" lon="-9.988982984796166">
        <ele>3.02</ele>
        <time>2026-07-03T13:46:50Z</time>
      </trkpt>
      <trkpt lat="54.228338012471795" lon="-9.98989200219512">
        <ele>3.5</ele>
        <time>2026-07-03T13:46:58Z</time>
      </trkpt>
      <trkpt lat="54.228888032957911" lon="-9.990658024325967">
        <ele>4.94</ele>
        <time>2026-07-03T13:47:05Z</time>
      </trkpt>
      <trkpt lat="54.228932037949562" lon="-9.990721978247166">
        <ele>5.42</ele>
        <time>2026-07-03T13:47:06Z</time>
      </trkpt>
      <trkpt lat="54.228966990485787" lon="-9.990976033732295">
        <ele>5.91</ele>
        <time>2026-07-03T13:47:07Z</time>
      </trkpt>
      <trkpt lat="54.228926002979279" lon="-9.991048034280539">
        <ele>5.91</ele>
        <time>2026-07-03T13:47:08Z</time>
      </trkpt>
      <trkpt lat="54.228871017694473" lon="-9.991144007071853">
        <ele>5.91</ele>
        <time>2026-07-03T13:47:09Z</time>
      </trkpt>
      <trkpt lat="54.228806979954243" lon="-9.991256995126605">
        <ele>5.91</ele>
        <time>2026-07-03T13:47:10Z</time>
      </trkpt>
      <trkpt lat="54.228734979405999" lon="-9.991381969302893">
        <ele>5.42</ele>
        <time>2026-07-03T13:47:11Z</time>
      </trkpt>
      <trkpt lat="54.228658033534884" lon="-9.991518007591367">
        <ele>4.94</ele>
        <time>2026-07-03T13:47:12Z</time>
      </trkpt>
      <trkpt lat="54.228218989446759" lon="-9.992334991693497">
        <ele>4.46</ele>
        <time>2026-07-03T13:47:17Z</time>
      </trkpt>
      <trkpt lat="54.228149000555277" lon="-9.992544036358595">
        <ele>4.46</ele>
        <time>2026-07-03T13:47:18Z</time>
      </trkpt>
      <trkpt lat="54.228085968643427" lon="-9.992742016911507">
        <ele>4.46</ele>
        <time>2026-07-03T13:47:19Z</time>
      </trkpt>
      <trkpt lat="54.228065013885498" lon="-9.992970004677773">
        <ele>4.46</ele>
        <time>2026-07-03T13:47:20Z</time>
      </trkpt>
      <trkpt lat="54.228043975308537" lon="-9.993203021585941">
        <ele>4.46</ele>
        <time>2026-07-03T13:47:21Z</time>
      </trkpt>
      <trkpt lat="54.228056967258453" lon="-9.993423968553543">
        <ele>4.46</ele>
        <time>2026-07-03T13:47:22Z</time>
      </trkpt>
      <trkpt lat="54.228069959208369" lon="-9.993657991290093">
        <ele>4.46</ele>
        <time>2026-07-03T13:47:23Z</time>
      </trkpt>
      <trkpt lat="54.228083034977317" lon="-9.993886984884739">
        <ele>4.46</ele>
        <time>2026-07-03T13:47:24Z</time>
      </trkpt>
      <trkpt lat="54.228164004161954" lon="-9.996413961052895">
        <ele>4.94</ele>
        <time>2026-07-03T13:47:34Z</time>
      </trkpt>
      <trkpt lat="54.227955965325236" lon="-9.997727992013097">
        <ele>6.87</ele>
        <time>2026-07-03T13:47:39Z</time>
      </trkpt>
      <trkpt lat="54.227865021675825" lon="-9.997953968122602">
        <ele>7.83</ele>
        <time>2026-07-03T13:47:40Z</time>
      </trkpt>
      <trkpt lat="54.227758990600705" lon="-9.998154966160655">
        <ele>8.310000000000001</ele>
        <time>2026-07-03T13:47:41Z</time>
      </trkpt>
      <trkpt lat="54.226691974326968" lon="-10.000240970402956">
        <ele>13.119999999999999</ele>
        <time>2026-07-03T13:47:51Z</time>
      </trkpt>
      <trkpt lat="54.226639000698924" lon="-10.000495025888085">
        <ele>13.119999999999999</ele>
        <time>2026-07-03T13:47:52Z</time>
      </trkpt>
      <trkpt lat="54.226603964343667" lon="-10.000742040574551">
        <ele>13.119999999999999</ele>
        <time>2026-07-03T13:47:53Z</time>
      </trkpt>
      <trkpt lat="54.226597007364035" lon="-10.001009004190564">
        <ele>13.119999999999999</ele>
        <time>2026-07-03T13:47:54Z</time>
      </trkpt>
      <trkpt lat="54.226589966565371" lon="-10.001278985291719">
        <ele>13.119999999999999</ele>
        <time>2026-07-03T13:47:55Z</time>
      </trkpt>
      <trkpt lat="54.226592984050512" lon="-10.001561958342791">
        <ele>13.119999999999999</ele>
        <time>2026-07-03T13:47:56Z</time>
      </trkpt>
      <trkpt lat="54.2268440220505" lon="-10.005277991294861">
        <ele>11.19</ele>
        <time>2026-07-03T13:48:08Z</time>
      </trkpt>
      <trkpt lat="54.227048959583044" lon="-10.008102022111416">
        <ele>9.75</ele>
        <time>2026-07-03T13:48:18Z</time>
      </trkpt>
      <trkpt lat="54.227111991494894" lon="-10.008897967636585">
        <ele>9.27</ele>
        <time>2026-07-03T13:48:26Z</time>
      </trkpt>
      <trkpt lat="54.227197989821434" lon="-10.009979987516999">
        <ele>9.27</ele>
        <time>2026-07-03T13:48:33Z</time>
      </trkpt>
      <trkpt lat="54.227291028946638" lon="-10.011709006503224">
        <ele>7.35</ele>
        <time>2026-07-03T13:48:40Z</time>
      </trkpt>
      <trkpt lat="54.227268984541297" lon="-10.011983010917902">
        <ele>7.35</ele>
        <time>2026-07-03T13:48:41Z</time>
      </trkpt>
      <trkpt lat="54.227230008691549" lon="-10.012260032817721">
        <ele>7.35</ele>
        <time>2026-07-03T13:48:42Z</time>
      </trkpt>
      <trkpt lat="54.226948041468859" lon="-10.013608010485768">
        <ele>6.39</ele>
        <time>2026-07-03T13:48:47Z</time>
      </trkpt>
      <trkpt lat="54.226843016222119" lon="-10.013799034059048">
        <ele>6.87</ele>
        <time>2026-07-03T13:48:48Z</time>
      </trkpt>
      <trkpt lat="54.226732961833477" lon="-10.013997014611959">
        <ele>6.87</ele>
        <time>2026-07-03T13:48:49Z</time>
      </trkpt>
      <trkpt lat="54.226585021242499" lon="-10.014120982959867">
        <ele>7.35</ele>
        <time>2026-07-03T13:48:50Z</time>
      </trkpt>
      <trkpt lat="54.226432973518968" lon="-10.014248974621296">
        <ele>8.789999999999999</ele>
        <time>2026-07-03T13:48:51Z</time>
      </trkpt>
      <trkpt lat="54.226277992129326" lon="-10.014378977939487">
        <ele>9.27</ele>
        <time>2026-07-03T13:48:52Z</time>
      </trkpt>
      <trkpt lat="54.226127034053206" lon="-10.014505041763186">
        <ele>10.23</ele>
        <time>2026-07-03T13:48:53Z</time>
      </trkpt>
      <trkpt lat="54.225990995764732" lon="-10.014663962647319">
        <ele>11.19</ele>
        <time>2026-07-03T13:48:54Z</time>
      </trkpt>
      <trkpt lat="54.225861998274922" lon="-10.014844005927444">
        <ele>12.15</ele>
        <time>2026-07-03T13:48:55Z</time>
      </trkpt>
      <trkpt lat="54.225738029927015" lon="-10.015026982873678">
        <ele>12.630000000000001</ele>
        <time>2026-07-03T13:48:56Z</time>
      </trkpt>
      <trkpt lat="54.22564297914505" lon="-10.015252958983183">
        <ele>13.119999999999999</ele>
        <time>2026-07-03T13:48:57Z</time>
      </trkpt>
      <trkpt lat="54.225546000525355" lon="-10.01548103056848">
        <ele>13.6</ele>
        <time>2026-07-03T13:48:58Z</time>
      </trkpt>
      <trkpt lat="54.225463019683957" lon="-10.015731984749436">
        <ele>14.08</ele>
        <time>2026-07-03T13:48:59Z</time>
      </trkpt>
      <trkpt lat="54.225385989993811" lon="-10.016003977507353">
        <ele>14.08</ele>
        <time>2026-07-03T13:49:00Z</time>
      </trkpt>
      <trkpt lat="54.224747037515044" lon="-10.018502958118916">
        <ele>14.56</ele>
        <time>2026-07-03T13:49:09Z</time>
      </trkpt>
      <trkpt lat="54.223789991810918" lon="-10.021759998053312">
        <ele>16.960000000000001</ele>
        <time>2026-07-03T13:49:21Z</time>
      </trkpt>
      <trkpt lat="54.223251035436988" lon="-10.023239990696311">
        <ele>19.84</ele>
        <time>2026-07-03T13:49:27Z</time>
      </trkpt>
      <trkpt lat="54.223122037947178" lon="-10.023425985127687">
        <ele>19.84</ele>
        <time>2026-07-03T13:49:28Z</time>
      </trkpt>
      <trkpt lat="54.22297996468842" lon="-10.023630000650883">
        <ele>20.809999999999999</ele>
        <time>2026-07-03T13:49:29Z</time>
      </trkpt>
      <trkpt lat="54.221705999225378" lon="-10.024816961959004">
        <ele>22.25</ele>
        <time>2026-07-03T13:49:37Z</time>
      </trkpt>
      <trkpt lat="54.219965999945998" lon="-10.02676198258996">
        <ele>22.73</ele>
        <time>2026-07-03T13:49:49Z</time>
      </trkpt>
      <trkpt lat="54.218546021729708" lon="-10.028831977397203">
        <ele>17.920000000000002</ele>
        <time>2026-07-03T13:50:00Z</time>
      </trkpt>
      <trkpt lat="54.217527033761144" lon="-10.029966970905662">
        <ele>12.15</ele>
        <time>2026-07-03T13:50:07Z</time>
      </trkpt>
      <trkpt lat="54.21722000464797" lon="-10.030147014185786">
        <ele>12.15</ele>
        <time>2026-07-03T13:50:09Z</time>
      </trkpt>
      <trkpt lat="54.217059994116426" lon="-10.030192025005817">
        <ele>12.15</ele>
        <time>2026-07-03T13:50:10Z</time>
      </trkpt>
      <trkpt lat="54.216894032433629" lon="-10.030181966722012">
        <ele>12.15</ele>
        <time>2026-07-03T13:50:11Z</time>
      </trkpt>
      <trkpt lat="54.216729998588562" lon="-10.030152965337038">
        <ele>12.15</ele>
        <time>2026-07-03T13:50:12Z</time>
      </trkpt>
      <trkpt lat="54.216563031077385" lon="-10.030079036951065">
        <ele>12.630000000000001</ele>
        <time>2026-07-03T13:50:13Z</time>
      </trkpt>
      <trkpt lat="54.215580001473427" lon="-10.029303040355444">
        <ele>12.15</ele>
        <time>2026-07-03T13:50:19Z</time>
      </trkpt>
      <trkpt lat="54.214348029345274" lon="-10.028474992141128">
        <ele>13.119999999999999</ele>
        <time>2026-07-03T13:50:26Z</time>
      </trkpt>
      <trkpt lat="54.213799014687538" lon="-10.028195958584547">
        <ele>13.119999999999999</ele>
        <time>2026-07-03T13:50:29Z</time>
      </trkpt>
      <trkpt lat="54.213622994720936" lon="-10.028175003826618">
        <ele>13.119999999999999</ele>
        <time>2026-07-03T13:50:30Z</time>
      </trkpt>
      <trkpt lat="54.213454015552998" lon="-10.028166035190225">
        <ele>13.119999999999999</ele>
        <time>2026-07-03T13:50:31Z</time>
      </trkpt>
      <trkpt lat="54.213291993364692" lon="-10.028235018253326">
        <ele>13.119999999999999</ele>
        <time>2026-07-03T13:50:32Z</time>
      </trkpt>
      <trkpt lat="54.213133994489908" lon="-10.028325961902738">
        <ele>13.6</ele>
        <time>2026-07-03T13:50:33Z</time>
      </trkpt>
      <trkpt lat="54.21298798173666" lon="-10.028471974655986">
        <ele>14.08</ele>
        <time>2026-07-03T13:50:34Z</time>
      </trkpt>
      <trkpt lat="54.212830988690257" lon="-10.028628967702389">
        <ele>14.08</ele>
        <time>2026-07-03T13:50:35Z</time>
      </trkpt>
      <trkpt lat="54.212713977321982" lon="-10.028828959912062">
        <ele>14.56</ele>
        <time>2026-07-03T13:50:36Z</time>
      </trkpt>
      <trkpt lat="54.212353974580765" lon="-10.029444023966789">
        <ele>15.52</ele>
        <time>2026-07-03T13:50:39Z</time>
      </trkpt>
      <trkpt lat="54.212276022881269" lon="-10.029675029218197">
        <ele>15.52</ele>
        <time>2026-07-03T13:50:40Z</time>
      </trkpt>
      <trkpt lat="54.212215002626181" lon="-10.029933024197817">
        <ele>16</ele>
        <time>2026-07-03T13:50:41Z</time>
      </trkpt>
      <trkpt lat="54.212175020948052" lon="-10.030204011127353">
        <ele>16</ele>
        <time>2026-07-03T13:50:42Z</time>
      </trkpt>
      <trkpt lat="54.212135961279273" lon="-10.030482038855553">
        <ele>16.48</ele>
        <time>2026-07-03T13:50:43Z</time>
      </trkpt>
      <trkpt lat="54.211602034047246" lon="-10.033194003626704">
        <ele>22.25</ele>
        <time>2026-07-03T13:50:53Z</time>
      </trkpt>
      <trkpt lat="54.211502959951758" lon="-10.033416040241718">
        <ele>22.73</ele>
        <time>2026-07-03T13:50:54Z</time>
      </trkpt>
      <trkpt lat="54.211401036009192" lon="-10.033628018572927">
        <ele>23.690000000000001</ele>
        <time>2026-07-03T13:50:55Z</time>
      </trkpt>
      <trkpt lat="54.21128997579217" lon="-10.033827004954219">
        <ele>24.649999999999999</ele>
        <time>2026-07-03T13:50:56Z</time>
      </trkpt>
      <trkpt lat="54.211166007444263" lon="-10.033977963030338">
        <ele>25.129999999999999</ele>
        <time>2026-07-03T13:50:57Z</time>
      </trkpt>
      <trkpt lat="54.211037009954453" lon="-10.034067984670401">
        <ele>26.09</ele>
        <time>2026-07-03T13:50:58Z</time>
      </trkpt>
      <trkpt lat="54.210899965837598" lon="-10.034141996875405">
        <ele>27.050000000000001</ele>
        <time>2026-07-03T13:50:59Z</time>
      </trkpt>
      <trkpt lat="54.210758982226253" lon="-10.034170998260379">
        <ele>28.02</ele>
        <time>2026-07-03T13:51:00Z</time>
      </trkpt>
      <trkpt lat="54.210609029978514" lon="-10.034178961068392">
        <ele>28.98</ele>
        <time>2026-07-03T13:51:01Z</time>
      </trkpt>
      <trkpt lat="54.210455976426601" lon="-10.034188013523817">
        <ele>29.940000000000001</ele>
        <time>2026-07-03T13:51:02Z</time>
      </trkpt>
      <trkpt lat="54.209159966558218" lon="-10.034508034586906">
        <ele>33.299999999999997</ele>
        <time>2026-07-03T13:51:10Z</time>
      </trkpt>
      <trkpt lat="54.206980001181364" lon="-10.035272967070341">
        <ele>31.859999999999999</ele>
        <time>2026-07-03T13:51:23Z</time>
      </trkpt>
      <trkpt lat="54.205759009346366" lon="-10.03567798063159">
        <ele>28.98</ele>
        <time>2026-07-03T13:51:32Z</time>
      </trkpt>
      <trkpt lat="54.204105008393526" lon="-10.036211991682649">
        <ele>25.609999999999999</ele>
        <time>2026-07-03T13:51:45Z</time>
      </trkpt>
      <trkpt lat="54.20284797437489" lon="-10.036608036607504">
        <ele>24.170000000000002</ele>
        <time>2026-07-03T13:51:56Z</time>
      </trkpt>
      <trkpt lat="54.201952032744884" lon="-10.036913976073265">
        <ele>23.690000000000001</ele>
        <time>2026-07-03T13:52:04Z</time>
      </trkpt>
      <trkpt lat="54.200314041227102" lon="-10.03743801265955">
        <ele>19.84</ele>
        <time>2026-07-03T13:52:14Z</time>
      </trkpt>
      <trkpt lat="54.198253015056252" lon="-10.037951990962029">
        <ele>16.48</ele>
        <time>2026-07-03T13:52:26Z</time>
      </trkpt>
      <trkpt lat="54.196044970303774" lon="-10.0383420009166">
        <ele>13.119999999999999</ele>
        <time>2026-07-03T13:52:39Z</time>
      </trkpt>
      <trkpt lat="54.194331038743258" lon="-10.038657998666167">
        <ele>11.67</ele>
        <time>2026-07-03T13:52:50Z</time>
      </trkpt>
      <trkpt lat="54.194216039031744" lon="-10.038710972294211">
        <ele>11.67</ele>
        <time>2026-07-03T13:52:51Z</time>
      </trkpt>
      <trkpt lat="54.194121994078159" lon="-10.03879202529788">
        <ele>11.19</ele>
        <time>2026-07-03T13:52:52Z</time>
      </trkpt>
      <trkpt lat="54.194029960781336" lon="-10.038922028616071">
        <ele>10.710000000000001</ele>
        <time>2026-07-03T13:52:53Z</time>
      </trkpt>
      <trkpt lat="54.193947985768318" lon="-10.039036022499204">
        <ele>10.23</ele>
        <time>2026-07-03T13:52:54Z</time>
      </trkpt>
      <trkpt lat="54.193891994655132" lon="-10.039226962253451">
        <ele>10.23</ele>
        <time>2026-07-03T13:52:55Z</time>
      </trkpt>
      <trkpt lat="54.193839021027088" lon="-10.039411028847098">
        <ele>10.23</ele>
        <time>2026-07-03T13:52:56Z</time>
      </trkpt>
      <trkpt lat="54.193807002156973" lon="-10.039633987471461">
        <ele>10.23</ele>
        <time>2026-07-03T13:52:57Z</time>
      </trkpt>
      <trkpt lat="54.193773977458477" lon="-10.039864992722869">
        <ele>9.75</ele>
        <time>2026-07-03T13:52:58Z</time>
      </trkpt>
      <trkpt lat="54.193411041051149" lon="-10.042395992204547">
        <ele>8.789999999999999</ele>
        <time>2026-07-03T13:53:07Z</time>
      </trkpt>
      <trkpt lat="54.19283595867455" lon="-10.04631201736629">
        <ele>7.83</ele>
        <time>2026-07-03T13:53:19Z</time>
      </trkpt>
      <trkpt lat="54.192044036462903" lon="-10.049623036757112">
        <ele>7.35</ele>
        <time>2026-07-03T13:53:30Z</time>
      </trkpt>
      <trkpt lat="54.190253997221589" lon="-10.053783981129527">
        <ele>8.789999999999999</ele>
        <time>2026-07-03T13:53:46Z</time>
      </trkpt>
      <trkpt lat="54.188333032652736" lon="-10.057866973802447">
        <ele>9.75</ele>
        <time>2026-07-03T13:54:02Z</time>
      </trkpt>
      <trkpt lat="54.186864020302892" lon="-10.060350028797984">
        <ele>16.960000000000001</ele>
        <time>2026-07-03T13:54:13Z</time>
      </trkpt>
      <trkpt lat="54.185642022639513" lon="-10.061991959810257">
        <ele>24.649999999999999</ele>
        <time>2026-07-03T13:54:21Z</time>
      </trkpt>
      <trkpt lat="54.184361016377807" lon="-10.06380395963788">
        <ele>26.09</ele>
        <time>2026-07-03T13:54:30Z</time>
      </trkpt>
      <trkpt lat="54.183041034266353" lon="-10.064714988693595">
        <ele>23.690000000000001</ele>
        <time>2026-07-03T13:54:38Z</time>
      </trkpt>
      <trkpt lat="54.1812530066818" lon="-10.066147958859801">
        <ele>15.52</ele>
        <time>2026-07-03T13:54:48Z</time>
      </trkpt>
      <trkpt lat="54.179566986858845" lon="-10.067480010911822">
        <ele>12.630000000000001</ele>
        <time>2026-07-03T13:54:58Z</time>
      </trkpt>
      <trkpt lat="54.177684998139739" lon="-10.067913020029664">
        <ele>10.23</ele>
        <time>2026-07-03T13:55:08Z</time>
      </trkpt>
      <trkpt lat="54.175620032474399" lon="-10.068156011402607">
        <ele>12.15</ele>
        <time>2026-07-03T13:55:19Z</time>
      </trkpt>
      <trkpt lat="54.175444012507796" lon="-10.068089962005615">
        <ele>12.15</ele>
        <time>2026-07-03T13:55:20Z</time>
      </trkpt>
      <trkpt lat="54.175262963399291" lon="-10.068021984770894">
        <ele>12.15</ele>
        <time>2026-07-03T13:55:21Z</time>
      </trkpt>
      <trkpt lat="54.173777019605041" lon="-10.067255962640047">
        <ele>11.19</ele>
        <time>2026-07-03T13:55:29Z</time>
      </trkpt>
      <trkpt lat="54.173595970496535" lon="-10.067214975133538">
        <ele>10.710000000000001</ele>
        <time>2026-07-03T13:55:30Z</time>
      </trkpt>
      <trkpt lat="54.173419028520584" lon="-10.067201983183622">
        <ele>10.23</ele>
        <time>2026-07-03T13:55:31Z</time>
      </trkpt>
      <trkpt lat="54.173243008553982" lon="-10.06724095903337">
        <ele>9.75</ele>
        <time>2026-07-03T13:55:32Z</time>
      </trkpt>
      <trkpt lat="54.173064976930618" lon="-10.067284964025021">
        <ele>9.27</ele>
        <time>2026-07-03T13:55:33Z</time>
      </trkpt>
      <trkpt lat="54.172880994156003" lon="-10.067358976230025">
        <ele>9.27</ele>
        <time>2026-07-03T13:55:34Z</time>
      </trkpt>
      <trkpt lat="54.171258006244898" lon="-10.068446025252342">
        <ele>9.27</ele>
        <time>2026-07-03T13:55:43Z</time>
      </trkpt>
      <trkpt lat="54.168924987316132" lon="-10.070390040054917">
        <ele>9.27</ele>
        <time>2026-07-03T13:55:57Z</time>
      </trkpt>
      <trkpt lat="54.166938979178667" lon="-10.071728965267539">
        <ele>9.27</ele>
        <time>2026-07-03T13:56:09Z</time>
      </trkpt>
      <trkpt lat="54.164072033017874" lon="-10.073440968990326">
        <ele>9.75</ele>
        <time>2026-07-03T13:56:25Z</time>
      </trkpt>
      <trkpt lat="54.163261000066996" lon="-10.073924018070102">
        <ele>12.15</ele>
        <time>2026-07-03T13:56:30Z</time>
      </trkpt>
      <trkpt lat="54.163125967606902" lon="-10.074074976146221">
        <ele>12.15</ele>
        <time>2026-07-03T13:56:31Z</time>
      </trkpt>
      <trkpt lat="54.163008034229279" lon="-10.074267005547881">
        <ele>11.67</ele>
        <time>2026-07-03T13:56:32Z</time>
      </trkpt>
      <trkpt lat="54.162891022861004" lon="-10.074459034949541">
        <ele>11.19</ele>
        <time>2026-07-03T13:56:33Z</time>
      </trkpt>
      <trkpt lat="54.162777028977871" lon="-10.074645029380918">
        <ele>10.710000000000001</ele>
        <time>2026-07-03T13:56:34Z</time>
      </trkpt>
      <trkpt lat="54.162699999287724" lon="-10.074873017147183">
        <ele>10.23</ele>
        <time>2026-07-03T13:56:35Z</time>
      </trkpt>
      <trkpt lat="54.162621041759849" lon="-10.075119026005268">
        <ele>10.23</ele>
        <time>2026-07-03T13:56:36Z</time>
      </trkpt>
      <trkpt lat="54.162548035383224" lon="-10.075368974357843">
        <ele>9.75</ele>
        <time>2026-07-03T13:56:37Z</time>
      </trkpt>
      <trkpt lat="54.162505958229303" lon="-10.075653037056327">
        <ele>9.75</ele>
        <time>2026-07-03T13:56:38Z</time>
      </trkpt>
      <trkpt lat="54.162469999864697" lon="-10.075900973752141">
        <ele>9.75</ele>
        <time>2026-07-03T13:56:39Z</time>
      </trkpt>
      <trkpt lat="54.162469999864697" lon="-10.076223006471992">
        <ele>9.27</ele>
        <time>2026-07-03T13:56:40Z</time>
      </trkpt>
      <trkpt lat="54.162469999864697" lon="-10.07652198895812">
        <ele>9.27</ele>
        <time>2026-07-03T13:56:41Z</time>
      </trkpt>
      <trkpt lat="54.16251702234149" lon="-10.076790964230895">
        <ele>8.789999999999999</ele>
        <time>2026-07-03T13:56:42Z</time>
      </trkpt>
      <trkpt lat="54.16258298791945" lon="-10.077071003615856">
        <ele>8.789999999999999</ele>
        <time>2026-07-03T13:56:43Z</time>
      </trkpt>
      <trkpt lat="54.162649037316442" lon="-10.077354982495308">
        <ele>8.789999999999999</ele>
        <time>2026-07-03T13:56:44Z</time>
      </trkpt>
      <trkpt lat="54.163096966221929" lon="-10.079973991960287">
        <ele>9.27</ele>
        <time>2026-07-03T13:56:53Z</time>
      </trkpt>
      <trkpt lat="54.162992024794221" lon="-10.082078017294407">
        <ele>10.23</ele>
        <time>2026-07-03T13:57:00Z</time>
      </trkpt>
      <trkpt lat="54.162595979869366" lon="-10.085367998108268">
        <ele>9.27</ele>
        <time>2026-07-03T13:57:12Z</time>
      </trkpt>
      <trkpt lat="54.16200203821063" lon="-10.088908011093736">
        <ele>6.87</ele>
        <time>2026-07-03T13:57:25Z</time>
      </trkpt>
      <trkpt lat="54.161170972511172" lon="-10.09087298065424">
        <ele>9.27</ele>
        <time>2026-07-03T13:57:33Z</time>
      </trkpt>
      <trkpt lat="54.159745965152979" lon="-10.092652961611748">
        <ele>9.27</ele>
        <time>2026-07-03T13:57:43Z</time>
      </trkpt>
      <trkpt lat="54.15807100944221" lon="-10.093796001747251">
        <ele>8.789999999999999</ele>
        <time>2026-07-03T13:57:53Z</time>
      </trkpt>
      <trkpt lat="54.156369986012578" lon="-10.093821985647082">
        <ele>8.789999999999999</ele>
        <time>2026-07-03T13:58:02Z</time>
      </trkpt>
      <trkpt lat="54.154512975364923" lon="-10.093363998457789">
        <ele>11.19</ele>
        <time>2026-07-03T13:58:12Z</time>
      </trkpt>
      <trkpt lat="54.153213026002049" lon="-10.093457959592342">
        <ele>14.56</ele>
        <time>2026-07-03T13:58:20Z</time>
      </trkpt>
      <trkpt lat="54.151149988174438" lon="-10.094604017212987">
        <ele>16</ele>
        <time>2026-07-03T13:58:32Z</time>
      </trkpt>
      <trkpt lat="54.147990010678768" lon="-10.096344016492367">
        <ele>17.920000000000002</ele>
        <time>2026-07-03T13:58:50Z</time>
      </trkpt>
      <trkpt lat="54.146840013563633" lon="-10.096880961209536">
        <ele>18.399999999999999</ele>
        <time>2026-07-03T13:58:57Z</time>
      </trkpt>
      <trkpt lat="54.146673968061805" lon="-10.096898982301354">
        <ele>18.399999999999999</ele>
        <time>2026-07-03T13:58:58Z</time>
      </trkpt>
      <trkpt lat="54.146500965580344" lon="-10.096892025321722">
        <ele>18.399999999999999</ele>
        <time>2026-07-03T13:58:59Z</time>
      </trkpt>
      <trkpt lat="54.146324023604393" lon="-10.096861012279987">
        <ele>18.399999999999999</ele>
        <time>2026-07-03T13:59:00Z</time>
      </trkpt>
      <trkpt lat="54.146144986152649" lon="-10.096829999238253">
        <ele>18.399999999999999</ele>
        <time>2026-07-03T13:59:01Z</time>
      </trkpt>
      <trkpt lat="54.144308008253574" lon="-10.096713993698359">
        <ele>23.210000000000001</ele>
        <time>2026-07-03T13:59:11Z</time>
      </trkpt>
      <trkpt lat="54.142066016793251" lon="-10.096635036170483">
        <ele>25.609999999999999</ele>
        <time>2026-07-03T13:59:23Z</time>
      </trkpt>
      <trkpt lat="54.139775997027755" lon="-10.096627995371819">
        <ele>28.98</ele>
        <time>2026-07-03T13:59:35Z</time>
      </trkpt>
      <trkpt lat="54.137299982830882" lon="-10.09725202806294">
        <ele>28.02</ele>
        <time>2026-07-03T13:59:48Z</time>
      </trkpt>
      <trkpt lat="54.134870991110802" lon="-10.097909001633525">
        <ele>26.57</ele>
        <time>2026-07-03T14:00:01Z</time>
      </trkpt>
      <trkpt lat="54.132593963295221" lon="-10.098649961873889">
        <ele>28.5</ele>
        <time>2026-07-03T14:00:14Z</time>
      </trkpt>
      <trkpt lat="54.131634989753366" lon="-10.099075008183718">
        <ele>30.420000000000002</ele>
        <time>2026-07-03T14:00:21Z</time>
      </trkpt>
      <trkpt lat="54.13052698597312" lon="-10.099876988679171">
        <ele>29.940000000000001</ele>
        <time>2026-07-03T14:00:28Z</time>
      </trkpt>
      <trkpt lat="54.130392037332058" lon="-10.09989601559937">
        <ele>29.460000000000001</ele>
        <time>2026-07-03T14:00:29Z</time>
      </trkpt>
      <trkpt lat="54.130251975730062" lon="-10.099915964528918">
        <ele>28.98</ele>
        <time>2026-07-03T14:00:30Z</time>
      </trkpt>
      <trkpt lat="54.129949975758791" lon="-10.099958963692188">
        <ele>27.530000000000001</ele>
        <time>2026-07-03T14:00:32Z</time>
      </trkpt>
      <trkpt lat="54.129792982712388" lon="-10.099994000047445">
        <ele>26.57</ele>
        <time>2026-07-03T14:00:33Z</time>
      </trkpt>
      <trkpt lat="54.129632972180843" lon="-10.100067006424069">
        <ele>25.609999999999999</ele>
        <time>2026-07-03T14:00:34Z</time>
      </trkpt>
      <trkpt lat="54.128491021692753" lon="-10.100546032190323">
        <ele>17.440000000000001</ele>
        <time>2026-07-03T14:00:41Z</time>
      </trkpt>
      <trkpt lat="54.128350960090756" lon="-10.100527005270123">
        <ele>16.48</ele>
        <time>2026-07-03T14:00:42Z</time>
      </trkpt>
      <trkpt lat="54.128208970651031" lon="-10.100494986400008">
        <ele>16</ele>
        <time>2026-07-03T14:00:43Z</time>
      </trkpt>
      <trkpt lat="54.126959983259439" lon="-10.099958041682839">
        <ele>11.67</ele>
        <time>2026-07-03T14:00:50Z</time>
      </trkpt>
      <trkpt lat="54.125061985105276" lon="-10.099618993699551">
        <ele>10.710000000000001</ele>
        <time>2026-07-03T14:01:00Z</time>
      </trkpt>
      <trkpt lat="54.12324302829802" lon="-10.099915964528918">
        <ele>17.440000000000001</ele>
        <time>2026-07-03T14:01:10Z</time>
      </trkpt>
      <trkpt lat="54.121652981266379" lon="-10.100368000566959">
        <ele>21.77</ele>
        <time>2026-07-03T14:01:20Z</time>
      </trkpt>
      <trkpt lat="54.120326964184642" lon="-10.100749041885138">
        <ele>23.690000000000001</ele>
        <time>2026-07-03T14:01:31Z</time>
      </trkpt>
      <trkpt lat="54.118629964068532" lon="-10.101319011300802">
        <ele>28.5</ele>
        <time>2026-07-03T14:01:46Z</time>
      </trkpt>
      <trkpt lat="54.118088996037841" lon="-10.101539036259055">
        <ele>28.02</ele>
        <time>2026-07-03T14:01:50Z</time>
      </trkpt>
      <trkpt lat="54.117932002991438" lon="-10.101578012108803">
        <ele>27.530000000000001</ele>
        <time>2026-07-03T14:01:51Z</time>
      </trkpt>
      <trkpt lat="54.117768974974751" lon="-10.101567031815648">
        <ele>27.050000000000001</ele>
        <time>2026-07-03T14:01:52Z</time>
      </trkpt>
      <trkpt lat="54.117599995806813" lon="-10.101542975753546">
        <ele>26.09</ele>
        <time>2026-07-03T14:01:53Z</time>
      </trkpt>
      <trkpt lat="54.117431016638875" lon="-10.101509029045701">
        <ele>25.129999999999999</ele>
        <time>2026-07-03T14:01:54Z</time>
      </trkpt>
      <trkpt lat="54.117276035249233" lon="-10.101409032940865">
        <ele>24.170000000000002</ele>
        <time>2026-07-03T14:01:55Z</time>
      </trkpt>
      <trkpt lat="54.117137985303998" lon="-10.101277017965913">
        <ele>23.690000000000001</ele>
        <time>2026-07-03T14:01:56Z</time>
      </trkpt>
      <trkpt lat="54.117003036662936" lon="-10.101112984120846">
        <ele>23.210000000000001</ele>
        <time>2026-07-03T14:01:57Z</time>
      </trkpt>
      <trkpt lat="54.116872027516365" lon="-10.100930007174611">
        <ele>22.73</ele>
        <time>2026-07-03T14:01:58Z</time>
      </trkpt>
      <trkpt lat="54.116748981177807" lon="-10.100706964731216">
        <ele>21.289999999999999</ele>
        <time>2026-07-03T14:01:59Z</time>
      </trkpt>
      <trkpt lat="54.116621995344758" lon="-10.100476965308189">
        <ele>20.809999999999999</ele>
        <time>2026-07-03T14:02:00Z</time>
      </trkpt>
      <trkpt lat="54.115300001576543" lon="-10.098045039921999">
        <ele>13.119999999999999</ele>
        <time>2026-07-03T14:02:10Z</time>
      </trkpt>
      <trkpt lat="54.113754965364933" lon="-10.095250010490417">
        <ele>10.23</ele>
        <time>2026-07-03T14:02:22Z</time>
      </trkpt>
      <trkpt lat="54.112760033458471" lon="-10.09327900595963">
        <ele>11.67</ele>
        <time>2026-07-03T14:02:31Z</time>
      </trkpt>
      <trkpt lat="54.112700019031763" lon="-10.093017993494868">
        <ele>11.67</ele>
        <time>2026-07-03T14:02:32Z</time>
      </trkpt>
      <trkpt lat="54.112640004605055" lon="-10.092737032100558">
        <ele>12.15</ele>
        <time>2026-07-03T14:02:33Z</time>
      </trkpt>
      <trkpt lat="54.111951012164354" lon="-10.089512011036277">
        <ele>13.6</ele>
        <time>2026-07-03T14:02:44Z</time>
      </trkpt>
      <trkpt lat="54.111133022233844" lon="-10.085920030251145">
        <ele>15.52</ele>
        <time>2026-07-03T14:02:56Z</time>
      </trkpt>
      <trkpt lat="54.110279995948076" lon="-10.082341963425279">
        <ele>16.48</ele>
        <time>2026-07-03T14:03:08Z</time>
      </trkpt>
      <trkpt lat="54.109468040987849" lon="-10.079656988382339">
        <ele>17.440000000000001</ele>
        <time>2026-07-03T14:03:18Z</time>
      </trkpt>
      <trkpt lat="54.10824503749609" lon="-10.077442992478609">
        <ele>16</ele>
        <time>2026-07-03T14:03:28Z</time>
      </trkpt>
      <trkpt lat="54.106898987665772" lon="-10.075113996863365">
        <ele>14.56</ele>
        <time>2026-07-03T14:03:39Z</time>
      </trkpt>
      <trkpt lat="54.105699034407735" lon="-10.073027992621064">
        <ele>12.630000000000001</ele>
        <time>2026-07-03T14:03:50Z</time>
      </trkpt>
      <trkpt lat="54.10450997762382" lon="-10.071426965296268">
        <ele>12.630000000000001</ele>
        <time>2026-07-03T14:04:00Z</time>
      </trkpt>
      <trkpt lat="54.102713987231255" lon="-10.069981003180146">
        <ele>11.19</ele>
        <time>2026-07-03T14:04:12Z</time>
      </trkpt>
      <trkpt lat="54.101180015131831" lon="-10.069292010739446">
        <ele>10.710000000000001</ele>
        <time>2026-07-03T14:04:22Z</time>
      </trkpt>
      <trkpt lat="54.101060992106795" lon="-10.069239037111402">
        <ele>11.19</ele>
        <time>2026-07-03T14:04:23Z</time>
      </trkpt>
      <trkpt lat="54.100970970466733" lon="-10.06915002129972">
        <ele>11.67</ele>
        <time>2026-07-03T14:04:24Z</time>
      </trkpt>
      <trkpt lat="54.100656984373927" lon="-10.068748025223613">
        <ele>12.15</ele>
        <time>2026-07-03T14:04:28Z</time>
      </trkpt>
      <trkpt lat="54.100464032962918" lon="-10.068362038582563">
        <ele>12.630000000000001</ele>
        <time>2026-07-03T14:04:31Z</time>
      </trkpt>
      <trkpt lat="54.100421033799648" lon="-10.068241003900766">
        <ele>12.630000000000001</ele>
        <time>2026-07-03T14:04:32Z</time>
      </trkpt>
      <trkpt lat="54.100382979959249" lon="-10.068074036389589">
        <ele>12.630000000000001</ele>
        <time>2026-07-03T14:04:33Z</time>
      </trkpt>
      <trkpt lat="54.100341992452741" lon="-10.067893993109465">
        <ele>12.630000000000001</ele>
        <time>2026-07-03T14:04:34Z</time>
      </trkpt>
      <trkpt lat="54.10029798746109" lon="-10.067701963707805">
        <ele>12.630000000000001</ele>
        <time>2026-07-03T14:04:35Z</time>
      </trkpt>
      <trkpt lat="54.100251970812678" lon="-10.067499959841371">
        <ele>12.630000000000001</ele>
        <time>2026-07-03T14:04:36Z</time>
      </trkpt>
      <trkpt lat="54.099702034145594" lon="-10.065161995589733">
        <ele>12.15</ele>
        <time>2026-07-03T14:04:47Z</time>
      </trkpt>
      <trkpt lat="54.09905000589788" lon="-10.062408959493041">
        <ele>11.67</ele>
        <time>2026-07-03T14:05:00Z</time>
      </trkpt>
      <trkpt lat="54.098801985383034" lon="-10.061221998184919">
        <ele>12.630000000000001</ele>
        <time>2026-07-03T14:05:08Z</time>
      </trkpt>
      <trkpt lat="54.09879301674664" lon="-10.061138011515141">
        <ele>12.630000000000001</ele>
        <time>2026-07-03T14:05:09Z</time>
      </trkpt>
      <trkpt lat="54.098784970119596" lon="-10.061070034280419">
        <ele>12.630000000000001</ele>
        <time>2026-07-03T14:05:10Z</time>
      </trkpt>
      <trkpt lat="54.098779018968344" lon="-10.061011025682092">
        <ele>13.119999999999999</ele>
        <time>2026-07-03T14:05:11Z</time>
      </trkpt>
      <trkpt lat="54.098773989826441" lon="-10.060967020690441">
        <ele>13.119999999999999</ele>
        <time>2026-07-03T14:05:12Z</time>
      </trkpt>
      <trkpt lat="54.098769966512918" lon="-10.060937013477087">
        <ele>13.6</ele>
        <time>2026-07-03T14:05:23Z</time>
      </trkpt>
      <trkpt lat="54.098754962906241" lon="-10.060799969360232">
        <ele>13.6</ele>
        <time>2026-07-03T14:05:33Z</time>
      </trkpt>
      <trkpt lat="54.098754962906241" lon="-10.060799969360232">
        <ele>13.6</ele>
        <time>2026-07-03T14:06:14Z</time>
      </trkpt>
      <trkpt lat="54.098754962906241" lon="-10.060799969360232">
        <ele>13.6</ele>
        <time>2026-07-03T14:07:07Z</time>
      </trkpt>
      <trkpt lat="54.098754962906241" lon="-10.060799969360232">
        <ele>13.119999999999999</ele>
        <time>2026-07-03T14:08:11Z</time>
      </trkpt>
      <trkpt lat="54.098780024796724" lon="-10.060863001272082">
        <ele>16.960000000000001</ele>
        <time>2026-07-03T14:12:47Z</time>
      </trkpt>
      <trkpt lat="54.098758986219764" lon="-10.060769040137529">
        <ele>12.15</ele>
        <time>2026-07-03T14:13:27Z</time>
      </trkpt>
      <trkpt lat="54.09874901175499" lon="-10.060745989903808">
        <ele>12.15</ele>
        <time>2026-07-03T14:13:29Z</time>
      </trkpt>
      <trkpt lat="54.09875001758337" lon="-10.060754958540201">
        <ele>12.15</ele>
        <time>2026-07-03T14:13:31Z</time>
      </trkpt>
      <trkpt lat="54.098756974563003" lon="-10.060812039300799">
        <ele>12.15</ele>
        <time>2026-07-03T14:13:32Z</time>
      </trkpt>
      <trkpt lat="54.098766027018428" lon="-10.060898037627339">
        <ele>12.15</ele>
        <time>2026-07-03T14:13:33Z</time>
      </trkpt>
      <trkpt lat="54.098777007311583" lon="-10.060999039560556">
        <ele>11.67</ele>
        <time>2026-07-03T14:13:34Z</time>
      </trkpt>
      <trkpt lat="54.098789999261498" lon="-10.061115967109799">
        <ele>11.67</ele>
        <time>2026-07-03T14:13:35Z</time>
      </trkpt>
      <trkpt lat="54.099086970090866" lon="-10.062567964196205">
        <ele>10.23</ele>
        <time>2026-07-03T14:13:44Z</time>
      </trkpt>
      <trkpt lat="54.099730029702187" lon="-10.065280012786388">
        <ele>9.75</ele>
        <time>2026-07-03T14:13:56Z</time>
      </trkpt>
      <trkpt lat="54.100196985527873" lon="-10.06726099178195">
        <ele>9.75</ele>
        <time>2026-07-03T14:14:05Z</time>
      </trkpt>
      <trkpt lat="54.100407036021352" lon="-10.068180989474058">
        <ele>9.27</ele>
        <time>2026-07-03T14:14:12Z</time>
      </trkpt>
      <trkpt lat="54.100414998829365" lon="-10.068218037486076">
        <ele>9.27</ele>
        <time>2026-07-03T14:14:13Z</time>
      </trkpt>
      <trkpt lat="54.100375017151237" lon="-10.068353991955519">
        <ele>8.789999999999999</ele>
        <time>2026-07-03T14:14:14Z</time>
      </trkpt>
      <trkpt lat="54.100334029644728" lon="-10.068387016654015">
        <ele>8.789999999999999</ele>
        <time>2026-07-03T14:14:15Z</time>
      </trkpt>
      <trkpt lat="54.1002750210464" lon="-10.068434961140156">
        <ele>8.789999999999999</ele>
        <time>2026-07-03T14:14:16Z</time>
      </trkpt>
      <trkpt lat="54.100206959992647" lon="-10.068490030243993">
        <ele>8.789999999999999</ele>
        <time>2026-07-03T14:14:17Z</time>
      </trkpt>
      <trkpt lat="54.100134959444404" lon="-10.06854903884232">
        <ele>8.789999999999999</ele>
        <time>2026-07-03T14:14:18Z</time>
      </trkpt>
      <trkpt lat="54.099772023037076" lon="-10.068842992186546">
        <ele>10.23</ele>
        <time>2026-07-03T14:14:22Z</time>
      </trkpt>
      <trkpt lat="54.099690970033407" lon="-10.068992022424936">
        <ele>10.710000000000001</ele>
        <time>2026-07-03T14:14:23Z</time>
      </trkpt>
      <trkpt lat="54.099618969485164" lon="-10.0691510271281">
        <ele>11.67</ele>
        <time>2026-07-03T14:14:24Z</time>
      </trkpt>
      <trkpt lat="54.09954696893692" lon="-10.069311959668994">
        <ele>12.630000000000001</ele>
        <time>2026-07-03T14:14:25Z</time>
      </trkpt>
      <trkpt lat="54.099473962560296" lon="-10.0694739818573">
        <ele>13.6</ele>
        <time>2026-07-03T14:14:26Z</time>
      </trkpt>
      <trkpt lat="54.098762003704906" lon="-10.071253962814808">
        <ele>21.77</ele>
        <time>2026-07-03T14:14:36Z</time>
      </trkpt>
      <trkpt lat="54.098032023757696" lon="-10.073726959526539">
        <ele>32.340000000000003</ele>
        <time>2026-07-03T14:14:48Z</time>
      </trkpt>
      <trkpt lat="54.09741603769362" lon="-10.075935004279017">
        <ele>42.439999999999998</ele>
        <time>2026-07-03T14:14:58Z</time>
      </trkpt>
      <trkpt lat="54.096956960856915" lon="-10.077535025775433">
        <ele>50.130000000000003</ele>
        <time>2026-07-03T14:15:06Z</time>
      </trkpt>
      <trkpt lat="54.096443988382816" lon="-10.080290995538235">
        <ele>57.82</ele>
        <time>2026-07-03T14:15:17Z</time>
      </trkpt>
      <trkpt lat="54.095898997038603" lon="-10.084149017930031">
        <ele>68.390000000000001</ele>
        <time>2026-07-03T14:15:32Z</time>
      </trkpt>
      <trkpt lat="54.095753990113735" lon="-10.085170017555356">
        <ele>67.430000000000007</ele>
        <time>2026-07-03T14:15:38Z</time>
      </trkpt>
      <trkpt lat="54.09574300982058" lon="-10.085541000589728">
        <ele>65.989999999999995</ele>
        <time>2026-07-03T14:15:48Z</time>
      </trkpt>
      <trkpt lat="54.09574300982058" lon="-10.085541000589728">
        <ele>65.989999999999995</ele>
        <time>2026-07-03T14:16:26Z</time>
      </trkpt>
      <trkpt lat="54.09574300982058" lon="-10.085541000589728">
        <ele>65.510000000000005</ele>
        <time>2026-07-03T14:17:18Z</time>
      </trkpt>
      <trkpt lat="54.09574300982058" lon="-10.085541000589728">
        <ele>65.510000000000005</ele>
        <time>2026-07-03T14:18:06Z</time>
      </trkpt>
      <trkpt lat="54.095750972628593" lon="-10.085783991962671">
        <ele>65.030000000000001</ele>
        <time>2026-07-03T14:18:39Z</time>
      </trkpt>
      <trkpt lat="54.095788020640612" lon="-10.087000038474798">
        <ele>62.619999999999997</ele>
        <time>2026-07-03T14:18:46Z</time>
      </trkpt>
      <trkpt lat="54.095918023958802" lon="-10.08994803763926">
        <ele>53.969999999999999</ele>
        <time>2026-07-03T14:18:58Z</time>
      </trkpt>
      <trkpt lat="54.096260005608201" lon="-10.093120001256466">
        <ele>43.399999999999999</ele>
        <time>2026-07-03T14:19:10Z</time>
      </trkpt>
      <trkpt lat="54.096786975860596" lon="-10.095798019319773">
        <ele>36.670000000000002</ele>
        <time>2026-07-03T14:19:21Z</time>
      </trkpt>
      <trkpt lat="54.097555009648204" lon="-10.097637008875608">
        <ele>40.030000000000001</ele>
        <time>2026-07-03T14:19:30Z</time>
      </trkpt>
      <trkpt lat="54.097895985469222" lon="-10.098277973011136">
        <ele>40.990000000000002</ele>
        <time>2026-07-03T14:19:34Z</time>
      </trkpt>
      <trkpt lat="54.097964968532324" lon="-10.098404036834836">
        <ele>41.469999999999999</ele>
        <time>2026-07-03T14:19:35Z</time>
      </trkpt>
      <trkpt lat="54.098028000444174" lon="-10.098519958555698">
        <ele>41.469999999999999</ele>
        <time>2026-07-03T14:19:36Z</time>
      </trkpt>
      <trkpt lat="54.098089020699263" lon="-10.098725985735655">
        <ele>40.990000000000002</ele>
        <time>2026-07-03T14:19:37Z</time>
      </trkpt>
      <trkpt lat="54.098073011264205" lon="-10.098879039287567">
        <ele>40.990000000000002</ele>
        <time>2026-07-03T14:19:38Z</time>
      </trkpt>
      <trkpt lat="54.098057001829147" lon="-10.099040977656841">
        <ele>40.990000000000002</ele>
        <time>2026-07-03T14:19:39Z</time>
      </trkpt>
      <trkpt lat="54.098039986565709" lon="-10.09920802898705">
        <ele>40.509999999999998</ele>
        <time>2026-07-03T14:19:40Z</time>
      </trkpt>
      <trkpt lat="54.098008973523974" lon="-10.099378013983369">
        <ele>40.509999999999998</ele>
        <time>2026-07-03T14:19:41Z</time>
      </trkpt>
      <trkpt lat="54.097964968532324" lon="-10.099546993151307">
        <ele>40.509999999999998</ele>
        <time>2026-07-03T14:19:42Z</time>
      </trkpt>
      <trkpt lat="54.097920041531324" lon="-10.099718989804387">
        <ele>40.509999999999998</ele>
        <time>2026-07-03T14:19:43Z</time>
      </trkpt>
      <trkpt lat="54.09737597219646" lon="-10.101493019610643">
        <ele>37.149999999999999</ele>
        <time>2026-07-03T14:19:53Z</time>
      </trkpt>
      <trkpt lat="54.096869034692645" lon="-10.103214997798204">
        <ele>35.710000000000001</ele>
        <time>2026-07-03T14:20:03Z</time>
      </trkpt>
      <trkpt lat="54.096826035529375" lon="-10.103351958096027">
        <ele>35.710000000000001</ele>
        <time>2026-07-03T14:20:04Z</time>
      </trkpt>
      <trkpt lat="54.096801979467273" lon="-10.103557985275984">
        <ele>36.189999999999998</ele>
        <time>2026-07-03T14:20:05Z</time>
      </trkpt>
      <trkpt lat="54.096829975023866" lon="-10.103717995807528">
        <ele>35.710000000000001</ele>
        <time>2026-07-03T14:20:06Z</time>
      </trkpt>
      <trkpt lat="54.096857970580459" lon="-10.103877000510693">
        <ele>35.710000000000001</ele>
        <time>2026-07-03T14:20:07Z</time>
      </trkpt>
      <trkpt lat="54.096894012764096" lon="-10.104025024920702">
        <ele>35.710000000000001</ele>
        <time>2026-07-03T14:20:08Z</time>
      </trkpt>
      <trkpt lat="54.096942963078618" lon="-10.104158967733383">
        <ele>35.710000000000001</ele>
        <time>2026-07-03T14:20:09Z</time>
      </trkpt>
      <trkpt lat="54.096993003040552" lon="-10.104296011850238">
        <ele>35.710000000000001</ele>
        <time>2026-07-03T14:20:10Z</time>
      </trkpt>
      <trkpt lat="54.097042037174106" lon="-10.104430038481951">
        <ele>35.710000000000001</ele>
        <time>2026-07-03T14:20:11Z</time>
      </trkpt>
      <trkpt lat="54.097113031893969" lon="-10.104539003223181">
        <ele>35.229999999999997</ele>
        <time>2026-07-03T14:20:12Z</time>
      </trkpt>
      <trkpt lat="54.097187966108322" lon="-10.10464696213603">
        <ele>35.229999999999997</ele>
        <time>2026-07-03T14:20:13Z</time>
      </trkpt>
      <trkpt lat="54.097281005233526" lon="-10.104783000424504">
        <ele>35.229999999999997</ele>
        <time>2026-07-03T14:20:14Z</time>
      </trkpt>
      <trkpt lat="54.098353972658515" lon="-10.105048036202788">
        <ele>36.189999999999998</ele>
        <time>2026-07-03T14:20:24Z</time>
      </trkpt>
      <trkpt lat="54.099662974476814" lon="-10.104832034558058">
        <ele>39.549999999999997</ele>
        <time>2026-07-03T14:20:36Z</time>
      </trkpt>
      <trkpt lat="54.10135000012815" lon="-10.103902984410524">
        <ele>48.68</ele>
        <time>2026-07-03T14:20:51Z</time>
      </trkpt>
      <trkpt lat="54.103010036051273" lon="-10.103298984467983">
        <ele>61.659999999999997</ele>
        <time>2026-07-03T14:21:04Z</time>
      </trkpt>
      <trkpt lat="54.103129981085658" lon="-10.103261014446616">
        <ele>62.619999999999997</ele>
        <time>2026-07-03T14:21:05Z</time>
      </trkpt>
      <trkpt lat="54.103246992453933" lon="-10.103234024718404">
        <ele>64.069999999999993</ele>
        <time>2026-07-03T14:21:06Z</time>
      </trkpt>
      <trkpt lat="54.103366015478969" lon="-10.103222960606217">
        <ele>65.030000000000001</ele>
        <time>2026-07-03T14:21:07Z</time>
      </trkpt>
      <trkpt lat="54.103491995483637" lon="-10.103253973647952">
        <ele>66.469999999999999</ele>
        <time>2026-07-03T14:21:08Z</time>
      </trkpt>
      <trkpt lat="54.10360699519515" lon="-10.103337038308382">
        <ele>67.430000000000007</ele>
        <time>2026-07-03T14:21:09Z</time>
      </trkpt>
      <trkpt lat="54.103726018220186" lon="-10.103422030806541">
        <ele>68.870000000000005</ele>
        <time>2026-07-03T14:21:10Z</time>
      </trkpt>
      <trkpt lat="54.103845963254571" lon="-10.103508029133081">
        <ele>70.310000000000002</ele>
        <time>2026-07-03T14:21:11Z</time>
      </trkpt>
      <trkpt lat="54.105490995571017" lon="-10.104659032076597">
        <ele>78</ele>
        <time>2026-07-03T14:21:24Z</time>
      </trkpt>
      <trkpt lat="54.106323989108205" lon="-10.105237970128655">
        <ele>71.269999999999996</ele>
        <time>2026-07-03T14:21:30Z</time>
      </trkpt>
      <trkpt lat="54.10646203905344" lon="-10.105251967906952">
        <ele>70.310000000000002</ele>
        <time>2026-07-03T14:21:31Z</time>
      </trkpt>
      <trkpt lat="54.106588019058108" lon="-10.105215003713965">
        <ele>69.349999999999994</ele>
        <time>2026-07-03T14:21:32Z</time>
      </trkpt>
      <trkpt lat="54.106724979355931" lon="-10.105175022035837">
        <ele>68.870000000000005</ele>
        <time>2026-07-03T14:21:33Z</time>
      </trkpt>
      <trkpt lat="54.106867974624038" lon="-10.105132022872567">
        <ele>67.909999999999997</ele>
        <time>2026-07-03T14:21:34Z</time>
      </trkpt>
      <trkpt lat="54.108392978087068" lon="-10.104740001261234">
        <ele>60.700000000000003</ele>
        <time>2026-07-03T14:21:44Z</time>
      </trkpt>
      <trkpt lat="54.108896981924772" lon="-10.104619972407818">
        <ele>58.780000000000001</ele>
        <time>2026-07-03T14:21:48Z</time>
      </trkpt>
      <trkpt lat="54.108993960544467" lon="-10.104568004608154">
        <ele>58.780000000000001</ele>
        <time>2026-07-03T14:21:49Z</time>
      </trkpt>
      <trkpt lat="54.109091022983193" lon="-10.104488041251898">
        <ele>58.299999999999997</ele>
        <time>2026-07-03T14:21:50Z</time>
      </trkpt>
      <trkpt lat="54.109156988561153" lon="-10.104357032105327">
        <ele>58.780000000000001</ele>
        <time>2026-07-03T14:21:51Z</time>
      </trkpt>
      <trkpt lat="54.109228989109397" lon="-10.10421697050333">
        <ele>58.780000000000001</ele>
        <time>2026-07-03T14:21:52Z</time>
      </trkpt>
      <trkpt lat="54.10930098965764" lon="-10.104073975235224">
        <ele>59.259999999999998</ele>
        <time>2026-07-03T14:21:53Z</time>
      </trkpt>
      <trkpt lat="54.110177988186479" lon="-10.102348979562521">
        <ele>55.409999999999997</ele>
        <time>2026-07-03T14:22:04Z</time>
      </trkpt>
      <trkpt lat="54.111015005037189" lon="-10.100703025236726">
        <ele>47.719999999999999</ele>
        <time>2026-07-03T14:22:15Z</time>
      </trkpt>
      <trkpt lat="54.111046018078923" lon="-10.100640999153256">
        <ele>47.240000000000002</ele>
        <time>2026-07-03T14:22:16Z</time>
      </trkpt>
      <trkpt lat="54.111121958121657" lon="-10.10060696862638">
        <ele>46.759999999999998</ele>
        <time>2026-07-03T14:22:17Z</time>
      </trkpt>
      <trkpt lat="54.111180966719985" lon="-10.100646028295159">
        <ele>46.759999999999998</ele>
        <time>2026-07-03T14:22:18Z</time>
      </trkpt>
      <trkpt lat="54.111249027773738" lon="-10.10069296695292">
        <ele>46.280000000000001</ele>
        <time>2026-07-03T14:22:19Z</time>
      </trkpt>
      <trkpt lat="54.111327985301614" lon="-10.100747030228376">
        <ele>45.32</ele>
        <time>2026-07-03T14:22:20Z</time>
      </trkpt>
      <trkpt lat="54.112395001575351" lon="-10.101471981033683">
        <ele>38.590000000000003</ele>
        <time>2026-07-03T14:22:30Z</time>
      </trkpt>
      <trkpt lat="54.114130977541208" lon="-10.102653997018933">
        <ele>25.129999999999999</ele>
        <time>2026-07-03T14:22:44Z</time>
      </trkpt>
      <trkpt lat="54.115933002904058" lon="-10.10374297387898">
        <ele>16.960000000000001</ele>
        <time>2026-07-03T14:22:57Z</time>
      </trkpt>
      <trkpt lat="54.117100015282631" lon="-10.104443030431867">
        <ele>21.77</ele>
        <time>2026-07-03T14:23:07Z</time>
      </trkpt>
      <trkpt lat="54.117245022207499" lon="-10.104530034586787">
        <ele>22.73</ele>
        <time>2026-07-03T14:23:09Z</time>
      </trkpt>
      <trkpt lat="54.117291960865259" lon="-10.10455803014338">
        <ele>22.73</ele>
        <time>2026-07-03T14:23:10Z</time>
      </trkpt>
      <trkpt lat="54.117368990555406" lon="-10.104502961039543">
        <ele>23.210000000000001</ele>
        <time>2026-07-03T14:23:11Z</time>
      </trkpt>
      <trkpt lat="54.117389023303986" lon="-10.104433977976441">
        <ele>23.690000000000001</ele>
        <time>2026-07-03T14:23:12Z</time>
      </trkpt>
      <trkpt lat="54.117418024688959" lon="-10.104336999356747">
        <ele>23.690000000000001</ele>
        <time>2026-07-03T14:23:13Z</time>
      </trkpt>
      <trkpt lat="54.117453983053565" lon="-10.10421403683722">
        <ele>23.690000000000001</ele>
        <time>2026-07-03T14:23:14Z</time>
      </trkpt>
      <trkpt lat="54.117493964731693" lon="-10.104073975235224">
        <ele>23.690000000000001</ele>
        <time>2026-07-03T14:23:15Z</time>
      </trkpt>
      <trkpt lat="54.118007021024823" lon="-10.102315032854676">
        <ele>26.09</ele>
        <time>2026-07-03T14:23:25Z</time>
      </trkpt>
      <trkpt lat="54.118209024891257" lon="-10.101623022928834">
        <ele>28.02</ele>
        <time>2026-07-03T14:23:32Z</time>
      </trkpt>
      <trkpt lat="54.118225034326315" lon="-10.101567031815648">
        <ele>28.02</ele>
        <time>2026-07-03T14:23:36Z</time>
      </trkpt>
      <trkpt lat="54.118240959942341" lon="-10.101515986025333">
        <ele>28.02</ele>
        <time>2026-07-03T14:23:37Z</time>
      </trkpt>
      <trkpt lat="54.118294017389417" lon="-10.101477010175586">
        <ele>28.02</ele>
        <time>2026-07-03T14:23:38Z</time>
      </trkpt>
      <trkpt lat="54.118358977138996" lon="-10.101447002962232">
        <ele>28.02</ele>
        <time>2026-07-03T14:23:39Z</time>
      </trkpt>
      <trkpt lat="54.118435001000762" lon="-10.101410960778594">
        <ele>28.02</ele>
        <time>2026-07-03T14:23:40Z</time>
      </trkpt>
      <trkpt lat="54.11851697601378" lon="-10.101372990757227">
        <ele>28.5</ele>
        <time>2026-07-03T14:23:41Z</time>
      </trkpt>
      <trkpt lat="54.119454994797707" lon="-10.10099203325808">
        <ele>27.530000000000001</ele>
        <time>2026-07-03T14:23:49Z</time>
      </trkpt>
      <trkpt lat="54.121240004897118" lon="-10.100485011935234">
        <ele>20.32</ele>
        <time>2026-07-03T14:24:01Z</time>
      </trkpt>
      <trkpt lat="54.122184980660677" lon="-10.100216958671808">
        <ele>18.399999999999999</ele>
        <time>2026-07-03T14:24:08Z</time>
      </trkpt>
      <trkpt lat="54.122477006167173" lon="-10.10013397783041">
        <ele>16.960000000000001</ele>
        <time>2026-07-03T14:24:19Z</time>
      </trkpt>
      <trkpt lat="54.122477006167173" lon="-10.10013397783041">
        <ele>16.960000000000001</ele>
        <time>2026-07-03T14:24:49Z</time>
      </trkpt>
      <trkpt lat="54.122454961761832" lon="-10.100140012800694">
        <ele>16.48</ele>
        <time>2026-07-03T14:24:52Z</time>
      </trkpt>
      <trkpt lat="54.122411040589213" lon="-10.100153004750609">
        <ele>16.48</ele>
        <time>2026-07-03T14:24:53Z</time>
      </trkpt>
      <trkpt lat="54.121860014274716" lon="-10.100308991968632">
        <ele>16.48</ele>
        <time>2026-07-03T14:24:59Z</time>
      </trkpt>
      <trkpt lat="54.121060967445374" lon="-10.100535973906517">
        <ele>19.84</ele>
        <time>2026-07-03T14:25:07Z</time>
      </trkpt>
      <trkpt lat="54.120661988854408" lon="-10.100650973618031">
        <ele>21.289999999999999</ele>
        <time>2026-07-03T14:25:14Z</time>
      </trkpt>
      <trkpt lat="54.120624018833041" lon="-10.100662037730217">
        <ele>21.289999999999999</ele>
        <time>2026-07-03T14:25:15Z</time>
      </trkpt>
      <trkpt lat="54.120590994134545" lon="-10.100672012194991">
        <ele>21.289999999999999</ele>
        <time>2026-07-03T14:25:16Z</time>
      </trkpt>
      <trkpt lat="54.120568027719855" lon="-10.100677963346243">
        <ele>21.77</ele>
        <time>2026-07-03T14:25:17Z</time>
      </trkpt>
      <trkpt lat="54.120651008561254" lon="-10.100967977195978">
        <ele>22.25</ele>
        <time>2026-07-03T14:25:25Z</time>
      </trkpt>
      <trkpt lat="54.120671041309834" lon="-10.101110972464085">
        <ele>22.73</ele>
        <time>2026-07-03T14:25:38Z</time>
      </trkpt>
      <trkpt lat="54.12068797275424" lon="-10.101094963029027">
        <ele>28.98</ele>
        <time>2026-07-03T14:49:49Z</time>
      </trkpt>
      <trkpt lat="54.120691996067762" lon="-10.10109999217093">
        <ele>25.609999999999999</ele>
        <time>2026-07-03T14:50:25Z</time>
      </trkpt>
      <trkpt lat="54.120704988017678" lon="-10.10103696025908">
        <ele>23.690000000000001</ele>
        <time>2026-07-03T14:50:53Z</time>
      </trkpt>
      <trkpt lat="54.120704988017678" lon="-10.101012988016009">
        <ele>21.289999999999999</ele>
        <time>2026-07-03T14:51:21Z</time>
      </trkpt>
      <trkpt lat="54.120725020766258" lon="-10.101038971915841">
        <ele>23.210000000000001</ele>
        <time>2026-07-03T14:52:06Z</time>
      </trkpt>
      <trkpt lat="54.120611026883125" lon="-10.100809978321195">
        <ele>24.170000000000002</ele>
        <time>2026-07-03T14:52:13Z</time>
      </trkpt>
      <trkpt lat="54.120604991912842" lon="-10.100667988881469">
        <ele>24.649999999999999</ele>
        <time>2026-07-03T14:52:18Z</time>
      </trkpt>
      <trkpt lat="54.120631981641054" lon="-10.100660026073456">
        <ele>24.170000000000002</ele>
        <time>2026-07-03T14:52:19Z</time>
      </trkpt>
      <trkpt lat="54.120681015774608" lon="-10.100646028295159">
        <ele>24.170000000000002</ele>
        <time>2026-07-03T14:52:20Z</time>
      </trkpt>
      <trkpt lat="54.12075100466609" lon="-10.100625995546579">
        <ele>23.690000000000001</ele>
        <time>2026-07-03T14:52:21Z</time>
      </trkpt>
      <trkpt lat="54.120829962193966" lon="-10.100603029131889">
        <ele>23.210000000000001</ele>
        <time>2026-07-03T14:52:22Z</time>
      </trkpt>
      <trkpt lat="54.120916966348886" lon="-10.100576961413026">
        <ele>22.73</ele>
        <time>2026-07-03T14:52:23Z</time>
      </trkpt>
      <trkpt lat="54.121856996789575" lon="-10.100309997797012">
        <ele>19.84</ele>
        <time>2026-07-03T14:52:31Z</time>
      </trkpt>
      <trkpt lat="54.123305976390839" lon="-10.099899033084512">
        <ele>17.440000000000001</ele>
        <time>2026-07-03T14:52:40Z</time>
      </trkpt>
      <trkpt lat="54.124594023451209" lon="-10.09963802061975">
        <ele>12.630000000000001</ele>
        <time>2026-07-03T14:52:49Z</time>
      </trkpt>
      <trkpt lat="54.126140987500548" lon="-10.099742962047458">
        <ele>9.27</ele>
        <time>2026-07-03T14:52:58Z</time>
      </trkpt>
      <trkpt lat="54.127793982625008" lon="-10.100294994190335">
        <ele>12.15</ele>
        <time>2026-07-03T14:53:08Z</time>
      </trkpt>
      <trkpt lat="54.128354983404279" lon="-10.100527005270123">
        <ele>15.039999999999999</ele>
        <time>2026-07-03T14:53:12Z</time>
      </trkpt>
      <trkpt lat="54.128497978672385" lon="-10.100546032190323">
        <ele>15.52</ele>
        <time>2026-07-03T14:53:13Z</time>
      </trkpt>
      <trkpt lat="54.12863602861762" lon="-10.100523987784982">
        <ele>15.52</ele>
        <time>2026-07-03T14:53:14Z</time>
      </trkpt>
      <trkpt lat="54.128781035542488" lon="-10.100457016378641">
        <ele>16</ele>
        <time>2026-07-03T14:53:15Z</time>
      </trkpt>
      <trkpt lat="54.128930987790227" lon="-10.10038903914392">
        <ele>16.48</ele>
        <time>2026-07-03T14:53:16Z</time>
      </trkpt>
      <trkpt lat="54.129996998235583" lon="-10.099953012540936">
        <ele>23.210000000000001</ele>
        <time>2026-07-03T14:53:23Z</time>
      </trkpt>
      <trkpt lat="54.130148962140083" lon="-10.099930968135595">
        <ele>24.170000000000002</ele>
        <time>2026-07-03T14:53:24Z</time>
      </trkpt>
      <trkpt lat="54.130438975989819" lon="-10.099889980629086">
        <ele>26.09</ele>
        <time>2026-07-03T14:53:26Z</time>
      </trkpt>
      <trkpt lat="54.130587000399828" lon="-10.099867014214396">
        <ele>27.050000000000001</ele>
        <time>2026-07-03T14:53:27Z</time>
      </trkpt>
      <trkpt lat="54.130725972354412" lon="-10.099760983139277">
        <ele>27.530000000000001</ele>
        <time>2026-07-03T14:53:28Z</time>
      </trkpt>
      <trkpt lat="54.130867961794138" lon="-10.099654030054808">
        <ele>28.02</ele>
        <time>2026-07-03T14:53:29Z</time>
      </trkpt>
      <trkpt lat="54.131006011739373" lon="-10.099550010636449">
        <ele>28.5</ele>
        <time>2026-07-03T14:53:30Z</time>
      </trkpt>
      <trkpt lat="54.132270002737641" lon="-10.098788011819124">
        <ele>28.5</ele>
        <time>2026-07-03T14:53:39Z</time>
      </trkpt>
      <trkpt lat="54.13362099789083" lon="-10.098258024081588">
        <ele>27.530000000000001</ele>
        <time>2026-07-03T14:53:48Z</time>
      </trkpt>
      <trkpt lat="54.136315025389194" lon="-10.097507005557418">
        <ele>24.170000000000002</ele>
        <time>2026-07-03T14:54:03Z</time>
      </trkpt>
      <trkpt lat="54.13924802094698" lon="-10.096744000911713">
        <ele>25.609999999999999</ele>
        <time>2026-07-03T14:54:19Z</time>
      </trkpt>
      <trkpt lat="54.140926999971271" lon="-10.096594970673323">
        <ele>24.649999999999999</ele>
        <time>2026-07-03T14:54:28Z</time>
      </trkpt>
      <trkpt lat="54.14399896748364" lon="-10.096703013405204">
        <ele>21.289999999999999</ele>
        <time>2026-07-03T14:54:44Z</time>
      </trkpt>
      <trkpt lat="54.145880034193397" lon="-10.096783982589841">
        <ele>16.960000000000001</ele>
        <time>2026-07-03T14:54:54Z</time>
      </trkpt>
      <trkpt lat="54.147138996049762" lon="-10.096799992024899">
        <ele>16</ele>
        <time>2026-07-03T14:55:01Z</time>
      </trkpt>
      <trkpt lat="54.149243021383882" lon="-10.095654018223286">
        <ele>14.08</ele>
        <time>2026-07-03T14:55:12Z</time>
      </trkpt>
      <trkpt lat="54.151777038350701" lon="-10.094259018078446">
        <ele>13.6</ele>
        <time>2026-07-03T14:55:26Z</time>
      </trkpt>
      <trkpt lat="54.153464986011386" lon="-10.093371961265802">
        <ele>12.15</ele>
        <time>2026-07-03T14:55:36Z</time>
      </trkpt>
      <trkpt lat="54.153632037341595" lon="-10.093325022608042">
        <ele>11.67</ele>
        <time>2026-07-03T14:55:37Z</time>
      </trkpt>
      <trkpt lat="54.153804033994675" lon="-10.093332985416055">
        <ele>11.19</ele>
        <time>2026-07-03T14:55:38Z</time>
      </trkpt>
      <trkpt lat="54.155692979693413" lon="-10.093592992052436">
        <ele>7.35</ele>
        <time>2026-07-03T14:55:48Z</time>
      </trkpt>
      <trkpt lat="54.157456029206514" lon="-10.093886023387313">
        <ele>8.310000000000001</ele>
        <time>2026-07-03T14:55:57Z</time>
      </trkpt>
      <trkpt lat="54.15858599357307" lon="-10.093530965968966">
        <ele>8.310000000000001</ele>
        <time>2026-07-03T14:56:03Z</time>
      </trkpt>
      <trkpt lat="54.160214010626078" lon="-10.092177037149668">
        <ele>9.27</ele>
        <time>2026-07-03T14:56:12Z</time>
      </trkpt>
      <trkpt lat="54.161398960277438" lon="-10.090468972921371">
        <ele>10.23</ele>
        <time>2026-07-03T14:56:20Z</time>
      </trkpt>
      <trkpt lat="54.162095999345183" lon="-10.088545996695757">
        <ele>7.83</ele>
        <time>2026-07-03T14:56:27Z</time>
      </trkpt>
      <trkpt lat="54.162534959614277" lon="-10.085876025259495">
        <ele>9.27</ele>
        <time>2026-07-03T14:56:36Z</time>
      </trkpt>
      <trkpt lat="54.163090009242296" lon="-10.081262039020658">
        <ele>10.23</ele>
        <time>2026-07-03T14:56:51Z</time>
      </trkpt>
      <trkpt lat="54.163009962067008" lon="-10.079058017581701">
        <ele>9.75</ele>
        <time>2026-07-03T14:56:58Z</time>
      </trkpt>
      <trkpt lat="54.162575025111437" lon="-10.07703797891736">
        <ele>9.27</ele>
        <time>2026-07-03T14:57:05Z</time>
      </trkpt>
      <trkpt lat="54.162469999864697" lon="-10.076524000614882">
        <ele>9.27</ele>
        <time>2026-07-03T14:57:07Z</time>
      </trkpt>
      <trkpt lat="54.162469999864697" lon="-10.076256031170487">
        <ele>9.27</ele>
        <time>2026-07-03T14:57:08Z</time>
      </trkpt>
      <trkpt lat="54.162469999864697" lon="-10.075984038412571">
        <ele>8.789999999999999</ele>
        <time>2026-07-03T14:57:09Z</time>
      </trkpt>
      <trkpt lat="54.16249698959291" lon="-10.075716990977526">
        <ele>8.789999999999999</ele>
        <time>2026-07-03T14:57:10Z</time>
      </trkpt>
      <trkpt lat="54.162535965442657" lon="-10.075452961027622">
        <ele>8.789999999999999</ele>
        <time>2026-07-03T14:57:11Z</time>
      </trkpt>
      <trkpt lat="54.162592040374875" lon="-10.07520804181695">
        <ele>8.789999999999999</ele>
        <time>2026-07-03T14:57:12Z</time>
      </trkpt>
      <trkpt lat="54.162663035094738" lon="-10.074987011030316">
        <ele>8.789999999999999</ele>
        <time>2026-07-03T14:57:13Z</time>
      </trkpt>
      <trkpt lat="54.162730006501079" lon="-10.074779978021979">
        <ele>9.27</ele>
        <time>2026-07-03T14:57:14Z</time>
      </trkpt>
      <trkpt lat="54.162809969857335" lon="-10.074591971933842">
        <ele>9.27</ele>
        <time>2026-07-03T14:57:15Z</time>
      </trkpt>
      <trkpt lat="54.162908960133791" lon="-10.074429027736187">
        <ele>9.27</ele>
        <time>2026-07-03T14:57:16Z</time>
      </trkpt>
      <trkpt lat="54.163008034229279" lon="-10.074267005547881">
        <ele>9.75</ele>
        <time>2026-07-03T14:57:17Z</time>
      </trkpt>
      <trkpt lat="54.163108030334115" lon="-10.074104983359575">
        <ele>10.23</ele>
        <time>2026-07-03T14:57:18Z</time>
      </trkpt>
      <trkpt lat="54.163222024217248" lon="-10.073956036940217">
        <ele>10.710000000000001</ele>
        <time>2026-07-03T14:57:19Z</time>
      </trkpt>
      <trkpt lat="54.163354961201549" lon="-10.073849000036716">
        <ele>11.19</ele>
        <time>2026-07-03T14:57:20Z</time>
      </trkpt>
      <trkpt lat="54.163499968126416" lon="-10.073732994496822">
        <ele>11.67</ele>
        <time>2026-07-03T14:57:21Z</time>
      </trkpt>
      <trkpt lat="54.163647992536426" lon="-10.073657976463437">
        <ele>12.15</ele>
        <time>2026-07-03T14:57:22Z</time>
      </trkpt>
      <trkpt lat="54.16380800306797" lon="-10.073576001450419">
        <ele>12.15</ele>
        <time>2026-07-03T14:57:23Z</time>
      </trkpt>
      <trkpt lat="54.16569996625185" lon="-10.072500016540289">
        <ele>9.27</ele>
        <time>2026-07-03T14:57:34Z</time>
      </trkpt>
      <trkpt lat="54.167617997154593" lon="-10.071307020261884">
        <ele>10.710000000000001</ele>
        <time>2026-07-03T14:57:46Z</time>
      </trkpt>
      <trkpt lat="54.16971598751843" lon="-10.069786040112376">
        <ele>8.789999999999999</ele>
        <time>2026-07-03T14:57:58Z</time>
      </trkpt>
      <trkpt lat="54.172059986740351" lon="-10.067787962034345">
        <ele>8.789999999999999</ele>
        <time>2026-07-03T14:58:11Z</time>
      </trkpt>
      <trkpt lat="54.173496980220079" lon="-10.067193014547229">
        <ele>8.789999999999999</ele>
        <time>2026-07-03T14:58:19Z</time>
      </trkpt>
      <trkpt lat="54.173668976873159" lon="-10.067230984568596">
        <ele>9.27</ele>
        <time>2026-07-03T14:58:20Z</time>
      </trkpt>
      <trkpt lat="54.173844996839762" lon="-10.067270966246724">
        <ele>9.27</ele>
        <time>2026-07-03T14:58:21Z</time>
      </trkpt>
      <trkpt lat="54.175649033859372" lon="-10.068166991695762">
        <ele>11.19</ele>
        <time>2026-07-03T14:58:31Z</time>
      </trkpt>
      <trkpt lat="54.175816001370549" lon="-10.06818501278758">
        <ele>11.67</ele>
        <time>2026-07-03T14:58:32Z</time>
      </trkpt>
      <trkpt lat="54.175995960831642" lon="-10.068160034716129">
        <ele>11.67</ele>
        <time>2026-07-03T14:58:33Z</time>
      </trkpt>
      <trkpt lat="54.17618396691978" lon="-10.068132961168885">
        <ele>11.67</ele>
        <time>2026-07-03T14:58:34Z</time>
      </trkpt>
      <trkpt lat="54.176378007978201" lon="-10.068105971440673">
        <ele>11.67</ele>
        <time>2026-07-03T14:58:35Z</time>
      </trkpt>
      <trkpt lat="54.178626034408808" lon="-10.067717973142862">
        <ele>10.23</ele>
        <time>2026-07-03T14:58:47Z</time>
      </trkpt>
      <trkpt lat="54.180215997621417" lon="-10.067039038985968">
        <ele>14.08</ele>
        <time>2026-07-03T14:58:56Z</time>
      </trkpt>
      <trkpt lat="54.181951973587275" lon="-10.06554102525115">
        <ele>18.879999999999999</ele>
        <time>2026-07-03T14:59:06Z</time>
      </trkpt>
      <trkpt lat="54.183419980108738" lon="-10.06450803950429">
        <ele>25.609999999999999</ele>
        <time>2026-07-03T14:59:16Z</time>
      </trkpt>
      <trkpt lat="54.184439973905683" lon="-10.06371402181685">
        <ele>28.02</ele>
        <time>2026-07-03T14:59:23Z</time>
      </trkpt>
      <trkpt lat="54.185714023187757" lon="-10.061873020604253">
        <ele>28.5</ele>
        <time>2026-07-03T14:59:32Z</time>
      </trkpt>
      <trkpt lat="54.186834013089538" lon="-10.060384981334209">
        <ele>23.210000000000001</ele>
        <time>2026-07-03T14:59:40Z</time>
      </trkpt>
      <trkpt lat="54.187835985794663" lon="-10.058797029778361">
        <ele>16</ele>
        <time>2026-07-03T14:59:47Z</time>
      </trkpt>
      <trkpt lat="54.189489986747503" lon="-10.055406969040632">
        <ele>13.119999999999999</ele>
        <time>2026-07-03T15:00:00Z</time>
      </trkpt>
      <trkpt lat="54.191257981583476" lon="-10.051518017426133">
        <ele>11.67</ele>
        <time>2026-07-03T15:00:15Z</time>
      </trkpt>
      <trkpt lat="54.192398004233837" lon="-10.048617962747812">
        <ele>11.19</ele>
        <time>2026-07-03T15:00:26Z</time>
      </trkpt>
      <trkpt lat="54.192895973101258" lon="-10.045919995754957">
        <ele>11.19</ele>
        <time>2026-07-03T15:00:34Z</time>
      </trkpt>
      <trkpt lat="54.193343985825777" lon="-10.042858002707362">
        <ele>12.15</ele>
        <time>2026-07-03T15:00:44Z</time>
      </trkpt>
      <trkpt lat="54.193862993270159" lon="-10.039326958358288">
        <ele>10.23</ele>
        <time>2026-07-03T15:00:57Z</time>
      </trkpt>
      <trkpt lat="54.193923007696867" lon="-10.039122020825744">
        <ele>9.75</ele>
        <time>2026-07-03T15:00:58Z</time>
      </trkpt>
      <trkpt lat="54.194010011851788" lon="-10.038950024172664">
        <ele>9.75</ele>
        <time>2026-07-03T15:00:59Z</time>
      </trkpt>
      <trkpt lat="54.194111013785005" lon="-10.038808034732938">
        <ele>10.23</ele>
        <time>2026-07-03T15:01:00Z</time>
      </trkpt>
      <trkpt lat="54.194236993789673" lon="-10.038702003657818">
        <ele>10.710000000000001</ele>
        <time>2026-07-03T15:01:01Z</time>
      </trkpt>
      <trkpt lat="54.194370014593005" lon="-10.038639977574348">
        <ele>10.710000000000001</ele>
        <time>2026-07-03T15:01:02Z</time>
      </trkpt>
      <trkpt lat="54.194507980719209" lon="-10.038596978411078">
        <ele>10.710000000000001</ele>
        <time>2026-07-03T15:01:03Z</time>
      </trkpt>
      <trkpt lat="54.194649970158935" lon="-10.038573006168008">
        <ele>11.19</ele>
        <time>2026-07-03T15:01:04Z</time>
      </trkpt>
      <trkpt lat="54.196843011304736" lon="-10.038207974284887">
        <ele>13.119999999999999</ele>
        <time>2026-07-03T15:01:18Z</time>
      </trkpt>
      <trkpt lat="54.198218984529376" lon="-10.037959031760693">
        <ele>15.039999999999999</ele>
        <time>2026-07-03T15:01:28Z</time>
      </trkpt>
      <trkpt lat="54.199979016557336" lon="-10.037534991279244">
        <ele>17.440000000000001</ele>
        <time>2026-07-03T15:01:39Z</time>
      </trkpt>
      <trkpt lat="54.201676016673446" lon="-10.037013972178102">
        <ele>19.84</ele>
        <time>2026-07-03T15:01:50Z</time>
      </trkpt>
      <trkpt lat="54.202692992985249" lon="-10.036657992750406">
        <ele>21.77</ele>
        <time>2026-07-03T15:02:00Z</time>
      </trkpt>
      <trkpt lat="54.203534033149481" lon="-10.036392034962773">
        <ele>23.690000000000001</ele>
        <time>2026-07-03T15:02:10Z</time>
      </trkpt>
      <trkpt lat="54.204603983089328" lon="-10.036052986979485">
        <ele>26.09</ele>
        <time>2026-07-03T15:02:22Z</time>
      </trkpt>
      <trkpt lat="54.205408981069922" lon="-10.035790968686342">
        <ele>27.530000000000001</ele>
        <time>2026-07-03T15:02:29Z</time>
      </trkpt>
      <trkpt lat="54.207082008942962" lon="-10.035237008705735">
        <ele>31.379999999999999</ele>
        <time>2026-07-03T15:02:39Z</time>
      </trkpt>
      <trkpt lat="54.208651017397642" lon="-10.034686988219619">
        <ele>31.859999999999999</ele>
        <time>2026-07-03T15:02:50Z</time>
      </trkpt>
      <trkpt lat="54.21025799587369" lon="-10.034199999645352">
        <ele>31.379999999999999</ele>
        <time>2026-07-03T15:03:01Z</time>
      </trkpt>
      <trkpt lat="54.210714977234602" lon="-10.034174015745521">
        <ele>29.940000000000001</ele>
        <time>2026-07-03T15:03:04Z</time>
      </trkpt>
      <trkpt lat="54.210857972502708" lon="-10.034164963290095">
        <ele>29.460000000000001</ele>
        <time>2026-07-03T15:03:05Z</time>
      </trkpt>
      <trkpt lat="54.210995016619563" lon="-10.034091034904122">
        <ele>28.5</ele>
        <time>2026-07-03T15:03:06Z</time>
      </trkpt>
      <trkpt lat="54.211136000230908" lon="-10.034015011042356">
        <ele>27.530000000000001</ele>
        <time>2026-07-03T15:03:07Z</time>
      </trkpt>
      <trkpt lat="54.211262986063957" lon="-10.033860029652715">
        <ele>26.57</ele>
        <time>2026-07-03T15:03:08Z</time>
      </trkpt>
      <trkpt lat="54.211381003260612" lon="-10.033671017736197">
        <ele>26.09</ele>
        <time>2026-07-03T15:03:09Z</time>
      </trkpt>
      <trkpt lat="54.211490973830223" lon="-10.03344202414155">
        <ele>25.129999999999999</ele>
        <time>2026-07-03T15:03:10Z</time>
      </trkpt>
      <trkpt lat="54.211689038202167" lon="-10.032933996990323">
        <ele>24.170000000000002</ele>
        <time>2026-07-03T15:03:12Z</time>
      </trkpt>
      <trkpt lat="54.211781993508339" lon="-10.032654963433743">
        <ele>23.210000000000001</ele>
        <time>2026-07-03T15:03:13Z</time>
      </trkpt>
      <trkpt lat="54.211843013763428" lon="-10.03234701231122">
        <ele>22.25</ele>
        <time>2026-07-03T15:03:14Z</time>
      </trkpt>
      <trkpt lat="54.211895987391472" lon="-10.032037971541286">
        <ele>21.289999999999999</ele>
        <time>2026-07-03T15:03:15Z</time>
      </trkpt>
      <trkpt lat="54.211947033181787" lon="-10.031736977398396">
        <ele>20.809999999999999</ele>
        <time>2026-07-03T15:03:16Z</time>
      </trkpt>
      <trkpt lat="54.212215002626181" lon="-10.029931012541056">
        <ele>16.960000000000001</ele>
        <time>2026-07-03T15:03:23Z</time>
      </trkpt>
      <trkpt lat="54.212271999567747" lon="-10.029691960662603">
        <ele>16.48</ele>
        <time>2026-07-03T15:03:24Z</time>
      </trkpt>
      <trkpt lat="54.212345005944371" lon="-10.029458021745086">
        <ele>16.48</ele>
        <time>2026-07-03T15:03:25Z</time>
      </trkpt>
      <trkpt lat="54.212457993999124" lon="-10.029265992343426">
        <ele>16</ele>
        <time>2026-07-03T15:03:26Z</time>
      </trkpt>
      <trkpt lat="54.212575005367398" lon="-10.029067005962133">
        <ele>15.52</ele>
        <time>2026-07-03T15:03:27Z</time>
      </trkpt>
      <trkpt lat="54.212694028392434" lon="-10.028862990438938">
        <ele>15.52</ele>
        <time>2026-07-03T15:03:28Z</time>
      </trkpt>
      <trkpt lat="54.213098036125302" lon="-10.028362004086375">
        <ele>14.56</ele>
        <time>2026-07-03T15:03:31Z</time>
      </trkpt>
      <trkpt lat="54.213242959231138" lon="-10.028256978839636">
        <ele>14.08</ele>
        <time>2026-07-03T15:03:32Z</time>
      </trkpt>
      <trkpt lat="54.21339500695467" lon="-10.028192019090056">
        <ele>14.08</ele>
        <time>2026-07-03T15:03:33Z</time>
      </trkpt>
      <trkpt lat="54.213552000001073" lon="-10.028166035190225">
        <ele>13.6</ele>
        <time>2026-07-03T15:03:34Z</time>
      </trkpt>
      <trkpt lat="54.213707987219095" lon="-10.028184978291392">
        <ele>13.119999999999999</ele>
        <time>2026-07-03T15:03:35Z</time>
      </trkpt>
      <trkpt lat="54.213869003579021" lon="-10.028215991333127">
        <ele>13.119999999999999</ele>
        <time>2026-07-03T15:03:36Z</time>
      </trkpt>
      <trkpt lat="54.214020967483521" lon="-10.028297966346145">
        <ele>13.119999999999999</ele>
        <time>2026-07-03T15:03:37Z</time>
      </trkpt>
      <trkpt lat="54.214171003550291" lon="-10.028379019349813">
        <ele>13.119999999999999</ele>
        <time>2026-07-03T15:03:38Z</time>
      </trkpt>
      <trkpt lat="54.215601962059736" lon="-10.029323995113373">
        <ele>11.19</ele>
        <time>2026-07-03T15:03:48Z</time>
      </trkpt>
      <trkpt lat="54.216892020776868" lon="-10.030180960893631">
        <ele>11.19</ele>
        <time>2026-07-03T15:03:57Z</time>
      </trkpt>
      <trkpt lat="54.217040967196226" lon="-10.030191019177437">
        <ele>11.19</ele>
        <time>2026-07-03T15:03:58Z</time>
      </trkpt>
      <trkpt lat="54.217189997434616" lon="-10.030162017792463">
        <ele>11.67</ele>
        <time>2026-07-03T15:03:59Z</time>
      </trkpt>
      <trkpt lat="54.217336010187864" lon="-10.030089011415839">
        <ele>11.67</ele>
        <time>2026-07-03T15:04:00Z</time>
      </trkpt>
      <trkpt lat="54.217486968263984" lon="-10.03000502474606">
        <ele>11.67</ele>
        <time>2026-07-03T15:04:01Z</time>
      </trkpt>
      <trkpt lat="54.21762702986598" lon="-10.02987602725625">
        <ele>11.67</ele>
        <time>2026-07-03T15:04:02Z</time>
      </trkpt>
      <trkpt lat="54.218699997290969" lon="-10.028582029044628">
        <ele>17.440000000000001</ele>
        <time>2026-07-03T15:04:10Z</time>
      </trkpt>
      <trkpt lat="54.220139002427459" lon="-10.026527037844062">
        <ele>24.170000000000002</ele>
        <time>2026-07-03T15:04:20Z</time>
      </trkpt>
      <trkpt lat="54.221915965899825" lon="-10.024620993062854">
        <ele>22.25</ele>
        <time>2026-07-03T15:04:30Z</time>
      </trkpt>
      <trkpt lat="54.223206024616957" lon="-10.023306040093303">
        <ele>21.77</ele>
        <time>2026-07-03T15:04:38Z</time>
      </trkpt>
      <trkpt lat="54.223332004621625" lon="-10.023115016520023">
        <ele>21.77</ele>
        <time>2026-07-03T15:04:39Z</time>
      </trkpt>
      <trkpt lat="54.223432000726461" lon="-10.022864984348416">
        <ele>21.289999999999999</ele>
        <time>2026-07-03T15:04:40Z</time>
      </trkpt>
      <trkpt lat="54.224413018673658" lon="-10.019682040438056">
        <ele>18.399999999999999</ele>
        <time>2026-07-03T15:04:51Z</time>
      </trkpt>
      <trkpt lat="54.225244000554085" lon="-10.016532959416509">
        <ele>16.48</ele>
        <time>2026-07-03T15:05:02Z</time>
      </trkpt>
      <trkpt lat="54.22572897747159" lon="-10.015049027279019">
        <ele>16</ele>
        <time>2026-07-03T15:05:08Z</time>
      </trkpt>
      <trkpt lat="54.225855963304639" lon="-10.014851968735456">
        <ele>16</ele>
        <time>2026-07-03T15:05:09Z</time>
      </trkpt>
      <trkpt lat="54.225993007421494" lon="-10.014661028981209">
        <ele>15.039999999999999</ele>
        <time>2026-07-03T15:05:10Z</time>
      </trkpt>
      <trkpt lat="54.226144971325994" lon="-10.014490038156509">
        <ele>14.56</ele>
        <time>2026-07-03T15:05:11Z</time>
      </trkpt>
      <trkpt lat="54.226305987685919" lon="-10.014355005696416">
        <ele>14.08</ele>
        <time>2026-07-03T15:05:12Z</time>
      </trkpt>
      <trkpt lat="54.22645996324718" lon="-10.014227014034986">
        <ele>13.119999999999999</ele>
        <time>2026-07-03T15:05:13Z</time>
      </trkpt>
      <trkpt lat="54.226731033995748" lon="-10.013999026268721">
        <ele>12.15</ele>
        <time>2026-07-03T15:05:15Z</time>
      </trkpt>
      <trkpt lat="54.226832035928965" lon="-10.013819988816977">
        <ele>11.67</ele>
        <time>2026-07-03T15:05:16Z</time>
      </trkpt>
      <trkpt lat="54.226938989013433" lon="-10.013625025749207">
        <ele>11.19</ele>
        <time>2026-07-03T15:05:17Z</time>
      </trkpt>
      <trkpt lat="54.227021969854832" lon="-10.013386979699135">
        <ele>10.710000000000001</ele>
        <time>2026-07-03T15:05:18Z</time>
      </trkpt>
      <trkpt lat="54.227095982059836" lon="-10.013119010254741">
        <ele>10.23</ele>
        <time>2026-07-03T15:05:19Z</time>
      </trkpt>
      <trkpt lat="54.227149039506912" lon="-10.01283603720367">
        <ele>10.23</ele>
        <time>2026-07-03T15:05:20Z</time>
      </trkpt>
      <trkpt lat="54.227190027013421" lon="-10.012540994212031">
        <ele>10.23</ele>
        <time>2026-07-03T15:05:21Z</time>
      </trkpt>
      <trkpt lat="54.227291028946638" lon="-10.011724010109901">
        <ele>9.75</ele>
        <time>2026-07-03T15:05:24Z</time>
      </trkpt>
      <trkpt lat="54.227284993976355" lon="-10.011445982381701">
        <ele>9.75</ele>
        <time>2026-07-03T15:05:25Z</time>
      </trkpt>
      <trkpt lat="54.227278036996722" lon="-10.011164015159011">
        <ele>9.75</ele>
        <time>2026-07-03T15:05:26Z</time>
      </trkpt>
      <trkpt lat="54.226995985955" lon="-10.007427027449012">
        <ele>10.23</ele>
        <time>2026-07-03T15:05:39Z</time>
      </trkpt>
      <trkpt lat="54.226714018732309" lon="-10.003353003412485">
        <ele>13.119999999999999</ele>
        <time>2026-07-03T15:05:52Z</time>
      </trkpt>
      <trkpt lat="54.226597007364035" lon="-10.000996012240648">
        <ele>14.56</ele>
        <time>2026-07-03T15:06:00Z</time>
      </trkpt>
      <trkpt lat="54.226604970172048" lon="-10.00072100199759">
        <ele>14.56</ele>
        <time>2026-07-03T15:06:01Z</time>
      </trkpt>
      <trkpt lat="54.226644029840827" lon="-10.000469963997602">
        <ele>14.56</ele>
        <time>2026-07-03T15:06:02Z</time>
      </trkpt>
      <trkpt lat="54.22669499181211" lon="-10.000234013423324">
        <ele>14.56</ele>
        <time>2026-07-03T15:06:03Z</time>
      </trkpt>
      <trkpt lat="54.226785013452172" lon="-10.000023962929845">
        <ele>14.56</ele>
        <time>2026-07-03T15:06:04Z</time>
      </trkpt>
      <trkpt lat="54.226886015385389" lon="-9.99981701374054">
        <ele>14.56</ele>
        <time>2026-07-03T15:06:05Z</time>
      </trkpt>
      <trkpt lat="54.22794003970921" lon="-9.997800998389721">
        <ele>12.15</ele>
        <time>2026-07-03T15:06:14Z</time>
      </trkpt>
      <trkpt lat="54.227998964488506" lon="-9.997538980096579">
        <ele>11.67</ele>
        <time>2026-07-03T15:06:15Z</time>
      </trkpt>
      <trkpt lat="54.228059984743595" lon="-9.99726296402514">
        <ele>11.19</ele>
        <time>2026-07-03T15:06:16Z</time>
      </trkpt>
      <trkpt lat="54.228098038583994" lon="-9.996969010680914">
        <ele>10.710000000000001</ele>
        <time>2026-07-03T15:06:17Z</time>
      </trkpt>
      <trkpt lat="54.228132991120219" lon="-9.996669022366405">
        <ele>10.23</ele>
        <time>2026-07-03T15:06:18Z</time>
      </trkpt>
      <trkpt lat="54.228131985291839" lon="-9.994615036994219">
        <ele>9.27</ele>
        <time>2026-07-03T15:06:25Z</time>
      </trkpt>
      <trkpt lat="54.228051016107202" lon="-9.993130015209317">
        <ele>9.27</ele>
        <time>2026-07-03T15:06:31Z</time>
      </trkpt>
      <trkpt lat="54.22807096503675" lon="-9.992906972765923">
        <ele>9.27</ele>
        <time>2026-07-03T15:06:32Z</time>
      </trkpt>
      <trkpt lat="54.228086974471807" lon="-9.992731036618352">
        <ele>9.27</ele>
        <time>2026-07-03T15:06:33Z</time>
      </trkpt>
      <trkpt lat="54.228160986676812" lon="-9.992507994174957">
        <ele>9.27</ele>
        <time>2026-07-03T15:06:34Z</time>
      </trkpt>
      <trkpt lat="54.228222006931901" lon="-9.992327028885484">
        <ele>8.789999999999999</ele>
        <time>2026-07-03T15:06:35Z</time>
      </trkpt>
      <trkpt lat="54.228287972509861" lon="-9.992164000868797">
        <ele>9.27</ele>
        <time>2026-07-03T15:06:36Z</time>
      </trkpt>
      <trkpt lat="54.228374976664782" lon="-9.992012036964297">
        <ele>9.27</ele>
        <time>2026-07-03T15:06:37Z</time>
      </trkpt>
      <trkpt lat="54.228466004133224" lon="-9.991853032261133">
        <ele>9.75</ele>
        <time>2026-07-03T15:06:38Z</time>
      </trkpt>
      <trkpt lat="54.228946035727859" lon="-9.991014003753662">
        <ele>12.15</ele>
        <time>2026-07-03T15:06:45Z</time>
      </trkpt>
      <trkpt lat="54.228988029062748" lon="-9.990938985720277">
        <ele>13.119999999999999</ele>
        <time>2026-07-03T15:06:52Z</time>
      </trkpt>
      <trkpt lat="54.229013007134199" lon="-9.990836977958679">
        <ele>13.6</ele>
        <time>2026-07-03T15:06:56Z</time>
      </trkpt>
      <trkpt lat="54.228985011577606" lon="-9.990796996280551">
        <ele>13.6</ele>
        <time>2026-07-03T15:06:57Z</time>
      </trkpt>
      <trkpt lat="54.228943018242717" lon="-9.990736981853843">
        <ele>13.6</ele>
        <time>2026-07-03T15:06:58Z</time>
      </trkpt>
      <trkpt lat="54.228891972452402" lon="-9.990663975477219">
        <ele>13.6</ele>
        <time>2026-07-03T15:06:59Z</time>
      </trkpt>
      <trkpt lat="54.228835981339216" lon="-9.990583006292582">
        <ele>13.6</ele>
        <time>2026-07-03T15:07:00Z</time>
      </trkpt>
      <trkpt lat="54.228281015530229" lon="-9.989817989990115">
        <ele>12.15</ele>
        <time>2026-07-03T15:07:08Z</time>
      </trkpt>
      <trkpt lat="54.2277040053159" lon="-9.989127991721034">
        <ele>11.19</ele>
        <time>2026-07-03T15:07:18Z</time>
      </trkpt>
      <trkpt lat="54.227563021704555" lon="-9.989005029201508">
        <ele>11.19</ele>
        <time>2026-07-03T15:07:27Z</time>
      </trkpt>
      <trkpt lat="54.227528991177678" lon="-9.988976027816534">
        <ele>11.19</ele>
        <time>2026-07-03T15:07:28Z</time>
      </trkpt>
      <trkpt lat="54.227520022541285" lon="-9.989006035029888">
        <ele>11.19</ele>
        <time>2026-07-03T15:07:29Z</time>
      </trkpt>
      <trkpt lat="54.227510970085859" lon="-9.989035036414862">
        <ele>11.19</ele>
        <time>2026-07-03T15:07:30Z</time>
      </trkpt>
      <trkpt lat="54.227499989792705" lon="-9.989069988951087">
        <ele>10.710000000000001</ele>
        <time>2026-07-03T15:07:31Z</time>
      </trkpt>
      <trkpt lat="54.227486997842789" lon="-9.989110976457596">
        <ele>10.710000000000001</ele>
        <time>2026-07-03T15:07:32Z</time>
      </trkpt>
      <trkpt lat="54.227418014779687" lon="-9.989611962810159">
        <ele>9.75</ele>
        <time>2026-07-03T15:07:41Z</time>
      </trkpt>
      <trkpt lat="54.227465037256479" lon="-9.989619003608823">
        <ele>9.75</ele>
        <time>2026-07-03T15:07:42Z</time>
      </trkpt>
      <trkpt lat="54.227470988407731" lon="-9.989621015265584">
        <ele>9.75</ele>
        <time>2026-07-03T15:07:43Z</time>
      </trkpt>
      <trkpt lat="54.227496972307563" lon="-9.989629983901978">
        <ele>9.27</ele>
        <time>2026-07-03T15:07:44Z</time>
      </trkpt>
      <trkpt lat="54.227523040026426" lon="-9.989639036357403">
        <ele>9.27</ele>
        <time>2026-07-03T15:07:45Z</time>
      </trkpt>
      <trkpt lat="54.227665029466152" lon="-9.989483971148729">
        <ele>10.23</ele>
        <time>2026-07-03T15:07:54Z</time>
      </trkpt>
      <trkpt lat="54.22777097672224" lon="-9.989403001964092">
        <ele>10.23</ele>
        <time>2026-07-03T15:07:57Z</time>
      </trkpt>
      <trkpt lat="54.227780029177666" lon="-9.989414988085628">
        <ele>10.710000000000001</ele>
        <time>2026-07-03T15:07:58Z</time>
      </trkpt>
      <trkpt lat="54.227867033332586" lon="-9.989526970311999">
        <ele>10.23</ele>
        <time>2026-07-03T15:08:07Z</time>
      </trkpt>
      <trkpt lat="54.227867033332586" lon="-9.989526970311999">
        <ele>9.75</ele>
        <time>2026-07-03T15:08:14Z</time>
      </trkpt>
      <trkpt lat="54.227867033332586" lon="-9.989526970311999">
        <ele>10.23</ele>
        <time>2026-07-03T15:08:15Z</time>
      </trkpt>
      <trkpt lat="54.227949008345604" lon="-9.989630989730358">
        <ele>10.710000000000001</ele>
        <time>2026-07-03T15:08:31Z</time>
      </trkpt>
      <trkpt lat="54.227969041094184" lon="-9.989808015525341">
        <ele>1.1</ele>
        <time>2026-07-03T15:22:58Z</time>
      </trkpt>
      <trkpt lat="54.227969963103533" lon="-9.989586984738708">
        <ele>14.08</ele>
        <time>2026-07-03T15:23:38Z</time>
      </trkpt>
      <trkpt lat="54.228017991408706" lon="-9.98965403996408">
        <ele>14.56</ele>
        <time>2026-07-03T15:23:52Z</time>
      </trkpt>
      <trkpt lat="54.227980021387339" lon="-9.989671977236867">
        <ele>12.630000000000001</ele>
        <time>2026-07-03T15:23:57Z</time>
      </trkpt>
      <trkpt lat="54.227954959496856" lon="-9.989639958366752">
        <ele>12.630000000000001</ele>
        <time>2026-07-03T15:23:58Z</time>
      </trkpt>
      <trkpt lat="54.227926963940263" lon="-9.989604000002146">
        <ele>12.15</ele>
        <time>2026-07-03T15:23:59Z</time>
      </trkpt>
      <trkpt lat="54.22789704054594" lon="-9.989565024152398">
        <ele>11.67</ele>
        <time>2026-07-03T15:24:00Z</time>
      </trkpt>
      <trkpt lat="54.227825039997697" lon="-9.989472990855575">
        <ele>9.75</ele>
        <time>2026-07-03T15:24:02Z</time>
      </trkpt>
      <trkpt lat="54.22779000364244" lon="-9.989427980035543">
        <ele>9.75</ele>
        <time>2026-07-03T15:24:03Z</time>
      </trkpt>
      <trkpt lat="54.227708028629422" lon="-9.989325972273946">
        <ele>8.310000000000001</ele>
        <time>2026-07-03T15:24:05Z</time>
      </trkpt>
      <trkpt lat="54.227671986445785" lon="-9.98929001390934">
        <ele>7.35</ele>
        <time>2026-07-03T15:24:06Z</time>
      </trkpt>
      <trkpt lat="54.227589005604386" lon="-9.98929001390934">
        <ele>6.39</ele>
        <time>2026-07-03T15:24:07Z</time>
      </trkpt>
      <trkpt lat="54.227535026147962" lon="-9.989374000579119">
        <ele>5.42</ele>
        <time>2026-07-03T15:24:08Z</time>
      </trkpt>
      <trkpt lat="54.227518010884523" lon="-9.989435020834208">
        <ele>4.46</ele>
        <time>2026-07-03T15:24:09Z</time>
      </trkpt>
      <trkpt lat="54.227499989792705" lon="-9.989495035260916">
        <ele>3.98</ele>
        <time>2026-07-03T15:24:10Z</time>
      </trkpt>
      <trkpt lat="54.227485992014408" lon="-9.989544991403818">
        <ele>3.02</ele>
        <time>2026-07-03T15:24:11Z</time>
      </trkpt>
      <trkpt lat="54.227465037256479" lon="-9.989619003608823">
        <ele>2.06</ele>
        <time>2026-07-03T15:24:12Z</time>
      </trkpt>
      <trkpt lat="54.227465037256479" lon="-9.989619003608823">
        <ele>1.58</ele>
        <time>2026-07-03T15:24:13Z</time>
      </trkpt>
      <trkpt lat="54.227484986186028" lon="-9.989550020545721">
        <ele>1.1</ele>
        <time>2026-07-03T15:24:14Z</time>
      </trkpt>
      <trkpt lat="54.227497978135943" lon="-9.989502998068929">
        <ele>0.62</ele>
        <time>2026-07-03T15:24:15Z</time>
      </trkpt>
      <trkpt lat="54.227513987571001" lon="-9.989447006955743">
        <ele>0.62</ele>
        <time>2026-07-03T15:24:16Z</time>
      </trkpt>
      <trkpt lat="54.227529997006059" lon="-9.989392021670938">
        <ele>0.14</ele>
        <time>2026-07-03T15:24:17Z</time>
      </trkpt>
      <trkpt lat="54.227547012269497" lon="-9.989332007244229">
        <ele>0.14</ele>
        <time>2026-07-03T15:24:18Z</time>
      </trkpt>
      <trkpt lat="54.227551035583019" lon="-9.989319015294313">
        <ele>0.14</ele>
        <time>2026-07-03T15:24:19Z</time>
      </trkpt>
      <trkpt lat="54.227483980357647" lon="-9.989122040569782">
        <ele>0.14</ele>
        <time>2026-07-03T15:24:20Z</time>
      </trkpt>
      <trkpt lat="54.227494960650802" lon="-9.989084992557764">
        <ele>0.14</ele>
        <time>2026-07-03T15:24:21Z</time>
      </trkpt>
      <trkpt lat="54.227504013106227" lon="-9.989056997001171">
        <ele>1.58</ele>
        <time>2026-07-03T15:24:25Z</time>
      </trkpt>
      <trkpt lat="54.227528991177678" lon="-9.988976027816534">
        <ele>2.54</ele>
        <time>2026-07-03T15:24:28Z</time>
      </trkpt>
      <trkpt lat="54.2275520414114" lon="-9.988994970917702">
        <ele>3.02</ele>
        <time>2026-07-03T15:24:29Z</time>
      </trkpt>
      <trkpt lat="54.227528991177678" lon="-9.988976027816534">
        <ele>2.54</ele>
        <time>2026-07-03T15:24:30Z</time>
      </trkpt>
      <trkpt lat="54.227463025599718" lon="-9.988950965926051">
        <ele>2.54</ele>
        <time>2026-07-03T15:24:31Z</time>
      </trkpt>
      <trkpt lat="54.227390019223094" lon="-9.988922970369458">
        <ele>2.54</ele>
        <time>2026-07-03T15:24:32Z</time>
      </trkpt>
      <trkpt lat="54.227306032553315" lon="-9.988892041146755">
        <ele>2.06</ele>
        <time>2026-07-03T15:24:33Z</time>
      </trkpt>
      <trkpt lat="54.227215005084872" lon="-9.988858010619879">
        <ele>2.54</ele>
        <time>2026-07-03T15:24:34Z</time>
      </trkpt>
      <trkpt lat="54.225938022136688" lon="-9.988382002338767">
        <ele>5.42</ele>
        <time>2026-07-03T15:24:46Z</time>
      </trkpt>
      <trkpt lat="54.225265039131045" lon="-9.988110009580851">
        <ele>6.39</ele>
        <time>2026-07-03T15:24:53Z</time>
      </trkpt>
      <trkpt lat="54.224240016192198" lon="-9.987698961049318">
        <ele>7.83</ele>
        <time>2026-07-03T15:25:06Z</time>
      </trkpt>
      <trkpt lat="54.224097020924091" lon="-9.987640036270022">
        <ele>8.310000000000001</ele>
        <time>2026-07-03T15:25:08Z</time>
      </trkpt>
      <trkpt lat="54.224037006497383" lon="-9.98761598020792">
        <ele>9.27</ele>
        <time>2026-07-03T15:25:09Z</time>
      </trkpt>
      <trkpt lat="54.22398503869772" lon="-9.987594019621611">
        <ele>9.27</ele>
        <time>2026-07-03T15:25:10Z</time>
      </trkpt>
      <trkpt lat="54.223898034542799" lon="-9.98755001462996">
        <ele>9.75</ele>
        <time>2026-07-03T15:25:11Z</time>
      </trkpt>
      <trkpt lat="54.2238599807024" lon="-9.987473990768194">
        <ele>10.23</ele>
        <time>2026-07-03T15:25:12Z</time>
      </trkpt>
      <trkpt lat="54.2238599807024" lon="-9.987281039357185">
        <ele>10.710000000000001</ele>
        <time>2026-07-03T15:25:13Z</time>
      </trkpt>
      <trkpt lat="54.2238599807024" lon="-9.987152041867375">
        <ele>11.67</ele>
        <time>2026-07-03T15:25:14Z</time>
      </trkpt>
      <trkpt lat="54.223811030387878" lon="-9.987000999972224">
        <ele>13.119999999999999</ele>
        <time>2026-07-03T15:25:16Z</time>
      </trkpt>
      <trkpt lat="54.223781023174524" lon="-9.986911984160543">
        <ele>13.6</ele>
        <time>2026-07-03T15:25:17Z</time>
      </trkpt>
      <trkpt lat="54.22368697822094" lon="-9.986623981967568">
        <ele>15.039999999999999</ele>
        <time>2026-07-03T15:25:20Z</time>
      </trkpt>
      <trkpt lat="54.223655965179205" lon="-9.986529015004635">
        <ele>15.039999999999999</ele>
        <time>2026-07-03T15:25:21Z</time>
      </trkpt>
      <trkpt lat="54.223626963794231" lon="-9.986441005021334">
        <ele>15.52</ele>
        <time>2026-07-03T15:25:22Z</time>
      </trkpt>
      <trkpt lat="54.223595028743148" lon="-9.986344026401639">
        <ele>16</ele>
        <time>2026-07-03T15:25:23Z</time>
      </trkpt>
      <trkpt lat="54.223560998216271" lon="-9.98624000698328">
        <ele>16.48</ele>
        <time>2026-07-03T15:25:24Z</time>
      </trkpt>
      <trkpt lat="54.223525961861014" lon="-9.98613297007978">
        <ele>16.960000000000001</ele>
        <time>2026-07-03T15:25:25Z</time>
      </trkpt>
      <trkpt lat="54.223491009324789" lon="-9.98602501116693">
        <ele>17.440000000000001</ele>
        <time>2026-07-03T15:25:26Z</time>
      </trkpt>
      <trkpt lat="54.223456978797913" lon="-9.985923003405333">
        <ele>17.440000000000001</ele>
        <time>2026-07-03T15:25:27Z</time>
      </trkpt>
      <trkpt lat="54.223313983529806" lon="-9.985486976802349">
        <ele>17.920000000000002</ele>
        <time>2026-07-03T15:25:31Z</time>
      </trkpt>
      <trkpt lat="54.22285096719861" lon="-9.984013019129634">
        <ele>16.48</ele>
        <time>2026-07-03T15:25:42Z</time>
      </trkpt>
      <trkpt lat="54.222455006092787" lon="-9.982731007039547">
        <ele>17.440000000000001</ele>
        <time>2026-07-03T15:25:52Z</time>
      </trkpt>
      <trkpt lat="54.221871960908175" lon="-9.981347993016243">
        <ele>16.48</ele>
        <time>2026-07-03T15:26:01Z</time>
      </trkpt>
      <trkpt lat="54.220891026780009" lon="-9.979314040392637">
        <ele>16.48</ele>
        <time>2026-07-03T15:26:12Z</time>
      </trkpt>
      <trkpt lat="54.219627035781741" lon="-9.976686984300613">
        <ele>17.440000000000001</ele>
        <time>2026-07-03T15:26:26Z</time>
      </trkpt>
      <trkpt lat="54.2182079795748" lon="-9.973709983751178">
        <ele>17.920000000000002</ele>
        <time>2026-07-03T15:26:40Z</time>
      </trkpt>
      <trkpt lat="54.21698497608304" lon="-9.97064103372395">
        <ele>17.920000000000002</ele>
        <time>2026-07-03T15:26:53Z</time>
      </trkpt>
      <trkpt lat="54.215471036732197" lon="-9.96625897474587">
        <ele>21.77</ele>
        <time>2026-07-03T15:27:10Z</time>
      </trkpt>
      <trkpt lat="54.21414703130722" lon="-9.962325012311339">
        <ele>24.170000000000002</ele>
        <time>2026-07-03T15:27:25Z</time>
      </trkpt>
      <trkpt lat="54.212881028652191" lon="-9.958432959392667">
        <ele>29.460000000000001</ele>
        <time>2026-07-03T15:27:38Z</time>
      </trkpt>
      <trkpt lat="54.211522992700338" lon="-9.953626021742821">
        <ele>35.229999999999997</ele>
        <time>2026-07-03T15:27:53Z</time>
      </trkpt>
      <trkpt lat="54.210268976166844" lon="-9.948893012478948">
        <ele>33.299999999999997</ele>
        <time>2026-07-03T15:28:08Z</time>
      </trkpt>
      <trkpt lat="54.209461966529489" lon="-9.94584602303803">
        <ele>30.420000000000002</ele>
        <time>2026-07-03T15:28:18Z</time>
      </trkpt>
      <trkpt lat="54.209214029833674" lon="-9.943558014929295">
        <ele>32.82</ele>
        <time>2026-07-03T15:28:25Z</time>
      </trkpt>
      <trkpt lat="54.208798035979271" lon="-9.939052993431687">
        <ele>34.259999999999998</ele>
        <time>2026-07-03T15:28:38Z</time>
      </trkpt>
      <trkpt lat="54.208278022706509" lon="-9.935853034257889">
        <ele>34.259999999999998</ele>
        <time>2026-07-03T15:28:48Z</time>
      </trkpt>
      <trkpt lat="54.207391971722245" lon="-9.93231100961566">
        <ele>36.670000000000002</ele>
        <time>2026-07-03T15:29:00Z</time>
      </trkpt>
      <trkpt lat="54.206242980435491" lon="-9.928273027762771">
        <ele>37.630000000000003</ele>
        <time>2026-07-03T15:29:14Z</time>
      </trkpt>
      <trkpt lat="54.204788971692324" lon="-9.923698017373681">
        <ele>30.899999999999999</ele>
        <time>2026-07-03T15:29:29Z</time>
      </trkpt>
      <trkpt lat="54.203707035630941" lon="-9.920422034338117">
        <ele>24.170000000000002</ele>
        <time>2026-07-03T15:29:40Z</time>
      </trkpt>
      <trkpt lat="54.20271503739059" lon="-9.918601987883449">
        <ele>19.359999999999999</ele>
        <time>2026-07-03T15:29:47Z</time>
      </trkpt>
      <trkpt lat="54.200901025906205" lon="-9.91542398929596">
        <ele>8.789999999999999</ele>
        <time>2026-07-03T15:29:59Z</time>
      </trkpt>
      <trkpt lat="54.199710041284561" lon="-9.912826018407941">
        <ele>10.710000000000001</ele>
        <time>2026-07-03T15:30:09Z</time>
      </trkpt>
      <trkpt lat="54.19951600022614" lon="-9.912307010963559">
        <ele>11.67</ele>
        <time>2026-07-03T15:30:11Z</time>
      </trkpt>
      <trkpt lat="54.199416004121304" lon="-9.912053039297462">
        <ele>12.15</ele>
        <time>2026-07-03T15:30:12Z</time>
      </trkpt>
      <trkpt lat="54.199284994974732" lon="-9.911845000460744">
        <ele>12.15</ele>
        <time>2026-07-03T15:30:13Z</time>
      </trkpt>
      <trkpt lat="54.199146023020148" lon="-9.911647019907832">
        <ele>12.630000000000001</ele>
        <time>2026-07-03T15:30:14Z</time>
      </trkpt>
      <trkpt lat="54.198996992781758" lon="-9.911467982456088">
        <ele>13.6</ele>
        <time>2026-07-03T15:30:15Z</time>
      </trkpt>
      <trkpt lat="54.198839999735355" lon="-9.91129900328815">
        <ele>14.08</ele>
        <time>2026-07-03T15:30:16Z</time>
      </trkpt>
      <trkpt lat="54.198657022789121" lon="-9.911173023283482">
        <ele>14.56</ele>
        <time>2026-07-03T15:30:17Z</time>
      </trkpt>
      <trkpt lat="54.198476979508996" lon="-9.911049976944923">
        <ele>15.52</ele>
        <time>2026-07-03T15:30:18Z</time>
      </trkpt>
      <trkpt lat="54.198297020047903" lon="-9.910939000546932">
        <ele>16</ele>
        <time>2026-07-03T15:30:19Z</time>
      </trkpt>
      <trkpt lat="54.196692975237966" lon="-9.909964017570019">
        <ele>21.289999999999999</ele>
        <time>2026-07-03T15:30:29Z</time>
      </trkpt>
      <trkpt lat="54.195020031183958" lon="-9.908951986581087">
        <ele>25.609999999999999</ele>
        <time>2026-07-03T15:30:41Z</time>
      </trkpt>
      <trkpt lat="54.19345797970891" lon="-9.907654970884323">
        <ele>31.379999999999999</ele>
        <time>2026-07-03T15:30:52Z</time>
      </trkpt>
      <trkpt lat="54.192268000915647" lon="-9.906030977144837">
        <ele>35.229999999999997</ele>
        <time>2026-07-03T15:31:04Z</time>
      </trkpt>
      <trkpt lat="54.192086029797792" lon="-9.905716991052032">
        <ele>36.670000000000002</ele>
        <time>2026-07-03T15:31:09Z</time>
      </trkpt>
      <trkpt lat="54.19201796874404" lon="-9.905643984675407">
        <ele>37.149999999999999</ele>
        <time>2026-07-03T15:31:18Z</time>
      </trkpt>
      <trkpt lat="54.19199500232935" lon="-9.905653959140182">
        <ele>37.149999999999999</ele>
        <time>2026-07-03T15:31:19Z</time>
      </trkpt>
      <trkpt lat="54.191955020651221" lon="-9.905672986060381">
        <ele>37.630000000000003</ele>
        <time>2026-07-03T15:31:20Z</time>
      </trkpt>
      <trkpt lat="54.191897017881274" lon="-9.905699975788593">
        <ele>37.149999999999999</ele>
        <time>2026-07-03T15:31:21Z</time>
      </trkpt>
      <trkpt lat="54.191825017333031" lon="-9.90573400631547">
        <ele>37.149999999999999</ele>
        <time>2026-07-03T15:31:22Z</time>
      </trkpt>
      <trkpt lat="54.191022031009197" lon="-9.906130973249674">
        <ele>29.940000000000001</ele>
        <time>2026-07-03T15:31:29Z</time>
      </trkpt>
      <trkpt lat="54.189387978985906" lon="-9.906948041170836">
        <ele>16.48</ele>
        <time>2026-07-03T15:31:39Z</time>
      </trkpt>
      <trkpt lat="54.18776398524642" lon="-9.907336961477995">
        <ele>16</ele>
        <time>2026-07-03T15:31:48Z</time>
      </trkpt>
      <trkpt lat="54.18535896576941" lon="-9.907642984762788">
        <ele>17.920000000000002</ele>
        <time>2026-07-03T15:32:01Z</time>
      </trkpt>
      <trkpt lat="54.183362983167171" lon="-9.908047998324037">
        <ele>24.170000000000002</ele>
        <time>2026-07-03T15:32:13Z</time>
      </trkpt>
      <trkpt lat="54.181400025263429" lon="-9.908611010760069">
        <ele>31.379999999999999</ele>
        <time>2026-07-03T15:32:24Z</time>
      </trkpt>
      <trkpt lat="54.179274961352348" lon="-9.909652965143323">
        <ele>39.07</ele>
        <time>2026-07-03T15:32:36Z</time>
      </trkpt>
      <trkpt lat="54.177564969286323" lon="-9.911022987216711">
        <ele>38.109999999999999</ele>
        <time>2026-07-03T15:32:46Z</time>
      </trkpt>
      <trkpt lat="54.175260029733181" lon="-9.913607966154814">
        <ele>36.189999999999998</ele>
        <time>2026-07-03T15:33:00Z</time>
      </trkpt>
      <trkpt lat="54.174322010949254" lon="-9.914664002135396">
        <ele>38.590000000000003</ele>
        <time>2026-07-03T15:33:07Z</time>
      </trkpt>
      <trkpt lat="54.173689009621739" lon="-9.915331033989787">
        <ele>44.359999999999999</ele>
        <time>2026-07-03T15:33:15Z</time>
      </trkpt>
      <trkpt lat="54.17364701628685" lon="-9.915375038981438">
        <ele>44.840000000000003</ele>
        <time>2026-07-03T15:33:16Z</time>
      </trkpt>
      <trkpt lat="54.173606028780341" lon="-9.915418960154057">
        <ele>44.840000000000003</ele>
        <time>2026-07-03T15:33:17Z</time>
      </trkpt>
      <trkpt lat="54.173622038215399" lon="-9.915579976513982">
        <ele>45.799999999999997</ele>
        <time>2026-07-03T15:33:18Z</time>
      </trkpt>
      <trkpt lat="54.173634024336934" lon="-9.915709979832172">
        <ele>46.280000000000001</ele>
        <time>2026-07-03T15:33:19Z</time>
      </trkpt>
      <trkpt lat="54.173649027943611" lon="-9.915861021727324">
        <ele>46.759999999999998</ele>
        <time>2026-07-03T15:33:20Z</time>
      </trkpt>
      <trkpt lat="54.173665959388018" lon="-9.916028995066881">
        <ele>47.240000000000002</ele>
        <time>2026-07-03T15:33:21Z</time>
      </trkpt>
      <trkpt lat="54.173871986567974" lon="-9.918138971552253">
        <ele>49.649999999999999</ele>
        <time>2026-07-03T15:33:31Z</time>
      </trkpt>
      <trkpt lat="54.173912974074483" lon="-9.920685980468988">
        <ele>46.280000000000001</ele>
        <time>2026-07-03T15:33:42Z</time>
      </trkpt>
      <trkpt lat="54.173821024596691" lon="-9.921685019508004">
        <ele>44.359999999999999</ele>
        <time>2026-07-03T15:33:49Z</time>
      </trkpt>
      <trkpt lat="54.173817001283169" lon="-9.921726007014513">
        <ele>43.880000000000003</ele>
        <time>2026-07-03T15:33:58Z</time>
      </trkpt>
      <trkpt lat="54.173754975199699" lon="-9.922465039417148">
        <ele>42.920000000000002</ele>
        <time>2026-07-03T15:34:04Z</time>
      </trkpt>
      <trkpt lat="54.173581972718239" lon="-9.924531010910869">
        <ele>41.469999999999999</ele>
        <time>2026-07-03T15:34:13Z</time>
      </trkpt>
      <trkpt lat="54.173314003273845" lon="-9.927725018933415">
        <ele>41.469999999999999</ele>
        <time>2026-07-03T15:34:27Z</time>
      </trkpt>
      <trkpt lat="54.173179976642132" lon="-9.929320011287928">
        <ele>43.880000000000003</ele>
        <time>2026-07-03T15:34:36Z</time>
      </trkpt>
      <trkpt lat="54.173119040206075" lon="-9.930044040083885">
        <ele>47.240000000000002</ele>
        <time>2026-07-03T15:34:42Z</time>
      </trkpt>
      <trkpt lat="54.173111999407411" lon="-9.930131966248155">
        <ele>47.719999999999999</ele>
        <time>2026-07-03T15:34:43Z</time>
      </trkpt>
      <trkpt lat="54.173104958608747" lon="-9.930214025080204">
        <ele>48.200000000000003</ele>
        <time>2026-07-03T15:34:44Z</time>
      </trkpt>
      <trkpt lat="54.173098001629114" lon="-9.93029298260808">
        <ele>48.68</ele>
        <time>2026-07-03T15:34:45Z</time>
      </trkpt>
      <trkpt lat="54.173091966658831" lon="-9.930372023954988">
        <ele>48.68</ele>
        <time>2026-07-03T15:34:46Z</time>
      </trkpt>
      <trkpt lat="54.172203987836838" lon="-9.931071996688843">
        <ele>52.049999999999997</ele>
        <time>2026-07-03T15:34:57Z</time>
      </trkpt>
      <trkpt lat="54.17182001285255" lon="-9.931413978338242">
        <ele>54.93</ele>
        <time>2026-07-03T15:35:06Z</time>
      </trkpt>
      <trkpt lat="54.171679029241204" lon="-9.931496037170291">
        <ele>54.93</ele>
        <time>2026-07-03T15:35:18Z</time>
      </trkpt>
      <trkpt lat="54.171620020642877" lon="-9.931535013020039">
        <ele>54.450000000000003</ele>
        <time>2026-07-03T15:35:28Z</time>
      </trkpt>
      <trkpt lat="54.171620020642877" lon="-9.931527972221375">
        <ele>53.969999999999999</ele>
        <time>2026-07-03T15:36:26Z</time>
      </trkpt>
      <trkpt lat="54.171612979844213" lon="-9.931523026898503">
        <ele>53.969999999999999</ele>
        <time>2026-07-03T15:36:47Z</time>
      </trkpt>
      <trkpt lat="54.171601999551058" lon="-9.931570971384645">
        <ele>53.490000000000002</ele>
        <time>2026-07-03T15:36:59Z</time>
      </trkpt>
      <trkpt lat="54.171667965129018" lon="-9.931506011635065">
        <ele>53.490000000000002</ele>
        <time>2026-07-03T15:37:04Z</time>
      </trkpt>
      <trkpt lat="54.171715993434191" lon="-9.931465024128556">
        <ele>52.530000000000001</ele>
        <time>2026-07-03T15:37:21Z</time>
      </trkpt>
      <trkpt lat="54.17171498760581" lon="-9.931469969451428">
        <ele>52.530000000000001</ele>
        <time>2026-07-03T15:38:00Z</time>
      </trkpt>
      <trkpt lat="54.17171398177743" lon="-9.93147499859333">
        <ele>52.530000000000001</ele>
        <time>2026-07-03T15:38:52Z</time>
      </trkpt>
      <trkpt lat="54.17171398177743" lon="-9.931477010250092">
        <ele>52.530000000000001</ele>
        <time>2026-07-03T15:39:37Z</time>
      </trkpt>
      <trkpt lat="54.171741977334023" lon="-9.931455971673131">
        <ele>52.049999999999997</ele>
        <time>2026-07-03T15:40:10Z</time>
      </trkpt>
      <trkpt lat="54.171841973438859" lon="-9.931398974731565">
        <ele>51.090000000000003</ele>
        <time>2026-07-03T15:40:16Z</time>
      </trkpt>
      <trkpt lat="54.171841973438859" lon="-9.931398974731565">
        <ele>51.090000000000003</ele>
        <time>2026-07-03T15:40:44Z</time>
      </trkpt>
      <trkpt lat="54.171839961782098" lon="-9.931412972509861">
        <ele>50.130000000000003</ele>
        <time>2026-07-03T15:40:53Z</time>
      </trkpt>
      <trkpt lat="54.171668970957398" lon="-9.931482961401343">
        <ele>47.719999999999999</ele>
        <time>2026-07-03T15:41:02Z</time>
      </trkpt>
      <trkpt lat="54.171644998714328" lon="-9.93149503134191">
        <ele>47.240000000000002</ele>
        <time>2026-07-03T15:41:16Z</time>
      </trkpt>
      <trkpt lat="54.171478031203151" lon="-9.931348012760282">
        <ele>44.840000000000003</ele>
        <time>2026-07-03T15:41:37Z</time>
      </trkpt>
      <trkpt lat="54.171080980449915" lon="-9.93083001114428">
        <ele>38.590000000000003</ele>
        <time>2026-07-03T15:41:50Z</time>
      </trkpt>
      <trkpt lat="54.170826002955437" lon="-9.93044201284647">
        <ele>35.710000000000001</ele>
        <time>2026-07-03T15:42:02Z</time>
      </trkpt>
      <trkpt lat="54.170800019055605" lon="-9.930449975654483">
        <ele>35.710000000000001</ele>
        <time>2026-07-03T15:42:03Z</time>
      </trkpt>
      <trkpt lat="54.170771017670631" lon="-9.930458022281528">
        <ele>35.229999999999997</ele>
        <time>2026-07-03T15:42:04Z</time>
      </trkpt>
      <trkpt lat="54.1707450337708" lon="-9.930465985089541">
        <ele>35.229999999999997</ele>
        <time>2026-07-03T15:42:05Z</time>
      </trkpt>
      <trkpt lat="54.170720977708697" lon="-9.930472020059824">
        <ele>35.229999999999997</ele>
        <time>2026-07-03T15:42:06Z</time>
      </trkpt>
      <trkpt lat="54.17053397744894" lon="-9.930921038612723">
        <ele>35.229999999999997</ele>
        <time>2026-07-03T15:42:16Z</time>
      </trkpt>
      <trkpt lat="54.170414032414556" lon="-9.931553034111857">
        <ele>36.670000000000002</ele>
        <time>2026-07-03T15:42:27Z</time>
      </trkpt>
      <trkpt lat="54.170495001599193" lon="-9.932188969105482">
        <ele>39.07</ele>
        <time>2026-07-03T15:42:36Z</time>
      </trkpt>
      <trkpt lat="54.170516040176153" lon="-9.932356020435691">
        <ele>40.030000000000001</ele>
        <time>2026-07-03T15:42:38Z</time>
      </trkpt>
      <trkpt lat="54.170538000762463" lon="-9.932523993775249">
        <ele>40.509999999999998</ele>
        <time>2026-07-03T15:42:40Z</time>
      </trkpt>
      <trkpt lat="54.170565996319056" lon="-9.932705964893103">
        <ele>40.509999999999998</ele>
        <time>2026-07-03T15:42:42Z</time>
      </trkpt>
      <trkpt lat="54.170766994357109" lon="-9.933117013424635">
        <ele>40.990000000000002</ele>
        <time>2026-07-03T15:42:50Z</time>
      </trkpt>
      <trkpt lat="54.170766994357109" lon="-9.933117013424635">
        <ele>42.439999999999998</ele>
        <time>2026-07-03T15:43:09Z</time>
      </trkpt>
      <trkpt lat="54.170766994357109" lon="-9.933117013424635">
        <ele>43.399999999999999</ele>
        <time>2026-07-03T15:43:12Z</time>
      </trkpt>
      <trkpt lat="54.170852992683649" lon="-9.93297996930778">
        <ele>43.880000000000003</ele>
        <time>2026-07-03T15:43:27Z</time>
      </trkpt>
      <trkpt lat="54.17085399851203" lon="-9.932962032034993">
        <ele>44.359999999999999</ele>
        <time>2026-07-03T15:43:43Z</time>
      </trkpt>
      <trkpt lat="54.170738998800516" lon="-9.933060016483069">
        <ele>44.359999999999999</ele>
        <time>2026-07-03T15:43:45Z</time>
      </trkpt>
    </trkseg>
  </trk>

</gpx>